<?xml version="1.0" encoding="UTF-8" standalone="no" ?>
<gpx xmlns="http://www.topografix.com/GPX/1/1" xmlns:xsi="http://www.w3.org/2001/XMLSchema-instance" xsi:schemaLocation="http://www.topografix.com/GPX/1/1 http://www.topografix.com/GPX/1/1/gpx.xsd" version="1.1" creator="VisuGPX - https://www.visugpx.com">
  <metadata>
    <name>Valdrôme. Montagne de la Sarcena et de l'Aup</name>
    <desc><![CDATA[Une très jolie rando CAF menée par Denis. Beau temps, jolies fleurs, paysages à 360°, sur la Drôme, le mont Ventous, le Dévoluy en neige.]]></desc>
  </metadata>
  <trk>
    <name><![CDATA[26-AVR-18 14:42:22]]></name>
    <trkseg>
      <trkpt lat="44.48257" lon="5.60465">
        <ele>1265.23</ele>
        <time>2018-04-26T07:41:32Z</time>
      </trkpt>
      <trkpt lat="44.48258" lon="5.60465">
        <ele>1271</ele>
        <time>2018-04-26T07:41:33Z</time>
      </trkpt>
      <trkpt lat="44.48257" lon="5.60466">
        <ele>1271</ele>
        <time>2018-04-26T07:41:35Z</time>
      </trkpt>
      <trkpt lat="44.48257" lon="5.60466">
        <ele>1270.04</ele>
        <time>2018-04-26T07:41:36Z</time>
      </trkpt>
      <trkpt lat="44.48257" lon="5.60467">
        <ele>1273.4</ele>
        <time>2018-04-26T07:41:38Z</time>
      </trkpt>
      <trkpt lat="44.48257" lon="5.60467">
        <ele>1274.85</ele>
        <time>2018-04-26T07:41:39Z</time>
      </trkpt>
      <trkpt lat="44.48258" lon="5.60467">
        <ele>1276.77</ele>
        <time>2018-04-26T07:41:40Z</time>
      </trkpt>
      <trkpt lat="44.48258" lon="5.60467">
        <ele>1275.81</ele>
        <time>2018-04-26T07:41:41Z</time>
      </trkpt>
      <trkpt lat="44.48258" lon="5.60467">
        <ele>1279.65</ele>
        <time>2018-04-26T07:41:42Z</time>
      </trkpt>
      <trkpt lat="44.48258" lon="5.60467">
        <ele>1279.17</ele>
        <time>2018-04-26T07:41:43Z</time>
      </trkpt>
      <trkpt lat="44.48258" lon="5.60466">
        <ele>1283.02</ele>
        <time>2018-04-26T07:41:46Z</time>
      </trkpt>
      <trkpt lat="44.48258" lon="5.60465">
        <ele>1287.34</ele>
        <time>2018-04-26T07:41:51Z</time>
      </trkpt>
      <trkpt lat="44.48259" lon="5.60465">
        <ele>1288.78</ele>
        <time>2018-04-26T07:41:52Z</time>
      </trkpt>
      <trkpt lat="44.48261" lon="5.60468">
        <ele>1291.67</ele>
        <time>2018-04-26T07:41:59Z</time>
      </trkpt>
      <trkpt lat="44.48262" lon="5.60469">
        <ele>1295.03</ele>
        <time>2018-04-26T07:42:05Z</time>
      </trkpt>
      <trkpt lat="44.48262" lon="5.6047">
        <ele>1298.88</ele>
        <time>2018-04-26T07:42:11Z</time>
      </trkpt>
      <trkpt lat="44.48262" lon="5.6047">
        <ele>1299.84</ele>
        <time>2018-04-26T07:42:13Z</time>
      </trkpt>
      <trkpt lat="44.4826" lon="5.60471">
        <ele>1302.72</ele>
        <time>2018-04-26T07:42:21Z</time>
      </trkpt>
      <trkpt lat="44.48258" lon="5.60471">
        <ele>1305.61</ele>
        <time>2018-04-26T07:42:34Z</time>
      </trkpt>
      <trkpt lat="44.48256" lon="5.6047">
        <ele>1307.53</ele>
        <time>2018-04-26T07:42:45Z</time>
      </trkpt>
      <trkpt lat="44.48259" lon="5.60469">
        <ele>1308.97</ele>
        <time>2018-04-26T07:42:58Z</time>
      </trkpt>
      <trkpt lat="44.48257" lon="5.6047">
        <ele>1309.93</ele>
        <time>2018-04-26T07:43:12Z</time>
      </trkpt>
      <trkpt lat="44.48258" lon="5.60471">
        <ele>1309.93</ele>
        <time>2018-04-26T07:43:24Z</time>
      </trkpt>
      <trkpt lat="44.48258" lon="5.60471">
        <ele>1310.9</ele>
        <time>2018-04-26T07:43:40Z</time>
      </trkpt>
      <trkpt lat="44.48256" lon="5.60478">
        <ele>1311.86</ele>
        <time>2018-04-26T07:43:49Z</time>
      </trkpt>
      <trkpt lat="44.48253" lon="5.60484">
        <ele>1311.86</ele>
        <time>2018-04-26T07:43:58Z</time>
      </trkpt>
      <trkpt lat="44.48252" lon="5.60485">
        <ele>1311.86</ele>
        <time>2018-04-26T07:44:07Z</time>
      </trkpt>
      <trkpt lat="44.48252" lon="5.6049">
        <ele>1310.41</ele>
        <time>2018-04-26T07:44:16Z</time>
      </trkpt>
      <trkpt lat="44.48251" lon="5.60491">
        <ele>1310.9</ele>
        <time>2018-04-26T07:44:18Z</time>
      </trkpt>
      <trkpt lat="44.48249" lon="5.60493">
        <ele>1311.38</ele>
        <time>2018-04-26T07:44:27Z</time>
      </trkpt>
      <trkpt lat="44.48249" lon="5.60493">
        <ele>1311.38</ele>
        <time>2018-04-26T07:44:41Z</time>
      </trkpt>
      <trkpt lat="44.48247" lon="5.60493">
        <ele>1311.38</ele>
        <time>2018-04-26T07:44:57Z</time>
      </trkpt>
      <trkpt lat="44.48247" lon="5.60493">
        <ele>1311.38</ele>
        <time>2018-04-26T07:45:15Z</time>
      </trkpt>
      <trkpt lat="44.48247" lon="5.60493">
        <ele>1311.38</ele>
        <time>2018-04-26T07:45:25Z</time>
      </trkpt>
      <trkpt lat="44.48246" lon="5.60493">
        <ele>1311.38</ele>
        <time>2018-04-26T07:45:42Z</time>
      </trkpt>
      <trkpt lat="44.48247" lon="5.60493">
        <ele>1311.86</ele>
        <time>2018-04-26T07:46:00Z</time>
      </trkpt>
      <trkpt lat="44.48246" lon="5.60493">
        <ele>1311.86</ele>
        <time>2018-04-26T07:46:16Z</time>
      </trkpt>
      <trkpt lat="44.48247" lon="5.60494">
        <ele>1311.38</ele>
        <time>2018-04-26T07:46:26Z</time>
      </trkpt>
      <trkpt lat="44.48245" lon="5.60496">
        <ele>1311.86</ele>
        <time>2018-04-26T07:46:48Z</time>
      </trkpt>
      <trkpt lat="44.48245" lon="5.60497">
        <ele>1312.34</ele>
        <time>2018-04-26T07:47:09Z</time>
      </trkpt>
      <trkpt lat="44.48246" lon="5.60496">
        <ele>1312.34</ele>
        <time>2018-04-26T07:47:24Z</time>
      </trkpt>
      <trkpt lat="44.48246" lon="5.60496">
        <ele>1312.34</ele>
        <time>2018-04-26T07:47:35Z</time>
      </trkpt>
      <trkpt lat="44.48244" lon="5.60494">
        <ele>1312.82</ele>
        <time>2018-04-26T07:47:46Z</time>
      </trkpt>
      <trkpt lat="44.48241" lon="5.60493">
        <ele>1311.86</ele>
        <time>2018-04-26T07:47:55Z</time>
      </trkpt>
      <trkpt lat="44.48241" lon="5.60493">
        <ele>1311.86</ele>
        <time>2018-04-26T07:48:04Z</time>
      </trkpt>
      <trkpt lat="44.4824" lon="5.60493">
        <ele>1311.38</ele>
        <time>2018-04-26T07:48:08Z</time>
      </trkpt>
      <trkpt lat="44.48243" lon="5.60491">
        <ele>1311.86</ele>
        <time>2018-04-26T07:48:18Z</time>
      </trkpt>
      <trkpt lat="44.48243" lon="5.60492">
        <ele>1311.86</ele>
        <time>2018-04-26T07:48:37Z</time>
      </trkpt>
      <trkpt lat="44.48243" lon="5.60492">
        <ele>1311.86</ele>
        <time>2018-04-26T07:48:51Z</time>
      </trkpt>
      <trkpt lat="44.48243" lon="5.60492">
        <ele>1311.38</ele>
        <time>2018-04-26T07:48:54Z</time>
      </trkpt>
      <trkpt lat="44.48234" lon="5.60486">
        <ele>1310.9</ele>
        <time>2018-04-26T07:49:03Z</time>
      </trkpt>
      <trkpt lat="44.48225" lon="5.60478">
        <ele>1310.41</ele>
        <time>2018-04-26T07:49:12Z</time>
      </trkpt>
      <trkpt lat="44.48218" lon="5.60473">
        <ele>1309.93</ele>
        <time>2018-04-26T07:49:21Z</time>
      </trkpt>
      <trkpt lat="44.48216" lon="5.60472">
        <ele>1310.41</ele>
        <time>2018-04-26T07:49:24Z</time>
      </trkpt>
      <trkpt lat="44.48209" lon="5.60468">
        <ele>1309.93</ele>
        <time>2018-04-26T07:49:32Z</time>
      </trkpt>
      <trkpt lat="44.48199" lon="5.60464">
        <ele>1309.45</ele>
        <time>2018-04-26T07:49:41Z</time>
      </trkpt>
      <trkpt lat="44.48191" lon="5.60461">
        <ele>1309.45</ele>
        <time>2018-04-26T07:49:49Z</time>
      </trkpt>
      <trkpt lat="44.4819" lon="5.6046">
        <ele>1309.45</ele>
        <time>2018-04-26T07:49:50Z</time>
      </trkpt>
      <trkpt lat="44.48183" lon="5.60458">
        <ele>1309.45</ele>
        <time>2018-04-26T07:49:55Z</time>
      </trkpt>
      <trkpt lat="44.48173" lon="5.60454">
        <ele>1308.97</ele>
        <time>2018-04-26T07:50:04Z</time>
      </trkpt>
      <trkpt lat="44.48165" lon="5.60445">
        <ele>1308.01</ele>
        <time>2018-04-26T07:50:13Z</time>
      </trkpt>
      <trkpt lat="44.48163" lon="5.60443">
        <ele>1308.01</ele>
        <time>2018-04-26T07:50:15Z</time>
      </trkpt>
      <trkpt lat="44.48155" lon="5.6044">
        <ele>1308.01</ele>
        <time>2018-04-26T07:50:21Z</time>
      </trkpt>
      <trkpt lat="44.48142" lon="5.60436">
        <ele>1307.05</ele>
        <time>2018-04-26T07:50:31Z</time>
      </trkpt>
      <trkpt lat="44.48132" lon="5.60432">
        <ele>1307.05</ele>
        <time>2018-04-26T07:50:40Z</time>
      </trkpt>
      <trkpt lat="44.48126" lon="5.60429">
        <ele>1306.57</ele>
        <time>2018-04-26T07:50:45Z</time>
      </trkpt>
      <trkpt lat="44.48117" lon="5.60425">
        <ele>1306.09</ele>
        <time>2018-04-26T07:50:54Z</time>
      </trkpt>
      <trkpt lat="44.4811" lon="5.60421">
        <ele>1306.09</ele>
        <time>2018-04-26T07:51:01Z</time>
      </trkpt>
      <trkpt lat="44.48101" lon="5.60421">
        <ele>1306.09</ele>
        <time>2018-04-26T07:51:09Z</time>
      </trkpt>
      <trkpt lat="44.48091" lon="5.60421">
        <ele>1306.09</ele>
        <time>2018-04-26T07:51:18Z</time>
      </trkpt>
      <trkpt lat="44.48092" lon="5.60417">
        <ele>1305.61</ele>
        <time>2018-04-26T07:51:27Z</time>
      </trkpt>
      <trkpt lat="44.4809" lon="5.60413">
        <ele>1305.61</ele>
        <time>2018-04-26T07:51:39Z</time>
      </trkpt>
      <trkpt lat="44.48083" lon="5.60407">
        <ele>1306.09</ele>
        <time>2018-04-26T07:51:47Z</time>
      </trkpt>
      <trkpt lat="44.48073" lon="5.60401">
        <ele>1307.53</ele>
        <time>2018-04-26T07:51:55Z</time>
      </trkpt>
      <trkpt lat="44.48068" lon="5.60399">
        <ele>1307.53</ele>
        <time>2018-04-26T07:51:59Z</time>
      </trkpt>
      <trkpt lat="44.48066" lon="5.60396">
        <ele>1307.53</ele>
        <time>2018-04-26T07:52:02Z</time>
      </trkpt>
      <trkpt lat="44.4806" lon="5.60383">
        <ele>1308.97</ele>
        <time>2018-04-26T07:52:14Z</time>
      </trkpt>
      <trkpt lat="44.48057" lon="5.60379">
        <ele>1308.97</ele>
        <time>2018-04-26T07:52:18Z</time>
      </trkpt>
      <trkpt lat="44.48049" lon="5.60367">
        <ele>1307.53</ele>
        <time>2018-04-26T07:52:30Z</time>
      </trkpt>
      <trkpt lat="44.48048" lon="5.60364">
        <ele>1310.9</ele>
        <time>2018-04-26T07:52:32Z</time>
      </trkpt>
      <trkpt lat="44.48045" lon="5.6036">
        <ele>1307.53</ele>
        <time>2018-04-26T07:52:34Z</time>
      </trkpt>
      <trkpt lat="44.48044" lon="5.60357">
        <ele>1310.9</ele>
        <time>2018-04-26T07:52:35Z</time>
      </trkpt>
      <trkpt lat="44.48043" lon="5.60356">
        <ele>1310.9</ele>
        <time>2018-04-26T07:52:36Z</time>
      </trkpt>
      <trkpt lat="44.48042" lon="5.60355">
        <ele>1312.82</ele>
        <time>2018-04-26T07:52:37Z</time>
      </trkpt>
      <trkpt lat="44.48042" lon="5.60354">
        <ele>1309.93</ele>
        <time>2018-04-26T07:52:38Z</time>
      </trkpt>
      <trkpt lat="44.4804" lon="5.60352">
        <ele>1312.82</ele>
        <time>2018-04-26T07:52:41Z</time>
      </trkpt>
      <trkpt lat="44.48039" lon="5.60351">
        <ele>1312.34</ele>
        <time>2018-04-26T07:52:42Z</time>
      </trkpt>
      <trkpt lat="44.48038" lon="5.6035">
        <ele>1308.49</ele>
        <time>2018-04-26T07:52:43Z</time>
      </trkpt>
      <trkpt lat="44.48038" lon="5.6035">
        <ele>1311.86</ele>
        <time>2018-04-26T07:52:44Z</time>
      </trkpt>
      <trkpt lat="44.48031" lon="5.60346">
        <ele>1313.3</ele>
        <time>2018-04-26T07:52:50Z</time>
      </trkpt>
      <trkpt lat="44.48022" lon="5.60341">
        <ele>1311.86</ele>
        <time>2018-04-26T07:53:01Z</time>
      </trkpt>
      <trkpt lat="44.48014" lon="5.60335">
        <ele>1312.82</ele>
        <time>2018-04-26T07:53:12Z</time>
      </trkpt>
      <trkpt lat="44.48013" lon="5.60332">
        <ele>1313.78</ele>
        <time>2018-04-26T07:53:27Z</time>
      </trkpt>
      <trkpt lat="44.48011" lon="5.60332">
        <ele>1310.9</ele>
        <time>2018-04-26T07:53:30Z</time>
      </trkpt>
      <trkpt lat="44.4801" lon="5.60331">
        <ele>1314.74</ele>
        <time>2018-04-26T07:53:32Z</time>
      </trkpt>
      <trkpt lat="44.48005" lon="5.60327">
        <ele>1315.22</ele>
        <time>2018-04-26T07:53:40Z</time>
      </trkpt>
      <trkpt lat="44.47998" lon="5.60325">
        <ele>1314.74</ele>
        <time>2018-04-26T07:53:49Z</time>
      </trkpt>
      <trkpt lat="44.47997" lon="5.60325">
        <ele>1315.7</ele>
        <time>2018-04-26T07:53:54Z</time>
      </trkpt>
      <trkpt lat="44.47996" lon="5.60325">
        <ele>1312.82</ele>
        <time>2018-04-26T07:53:55Z</time>
      </trkpt>
      <trkpt lat="44.47993" lon="5.60321">
        <ele>1316.18</ele>
        <time>2018-04-26T07:54:00Z</time>
      </trkpt>
      <trkpt lat="44.47989" lon="5.60311">
        <ele>1316.66</ele>
        <time>2018-04-26T07:54:14Z</time>
      </trkpt>
      <trkpt lat="44.47987" lon="5.60313">
        <ele>1315.22</ele>
        <time>2018-04-26T07:54:24Z</time>
      </trkpt>
      <trkpt lat="44.47976" lon="5.60315">
        <ele>1318.1</ele>
        <time>2018-04-26T07:54:31Z</time>
      </trkpt>
      <trkpt lat="44.47975" lon="5.60315">
        <ele>1313.78</ele>
        <time>2018-04-26T07:54:32Z</time>
      </trkpt>
      <trkpt lat="44.47974" lon="5.60316">
        <ele>1317.14</ele>
        <time>2018-04-26T07:54:33Z</time>
      </trkpt>
      <trkpt lat="44.47969" lon="5.60315">
        <ele>1317.62</ele>
        <time>2018-04-26T07:54:37Z</time>
      </trkpt>
      <trkpt lat="44.47967" lon="5.60314">
        <ele>1315.7</ele>
        <time>2018-04-26T07:54:39Z</time>
      </trkpt>
      <trkpt lat="44.47966" lon="5.60314">
        <ele>1317.14</ele>
        <time>2018-04-26T07:54:40Z</time>
      </trkpt>
      <trkpt lat="44.47962" lon="5.60313">
        <ele>1315.7</ele>
        <time>2018-04-26T07:54:44Z</time>
      </trkpt>
      <trkpt lat="44.47959" lon="5.60312">
        <ele>1319.55</ele>
        <time>2018-04-26T07:54:46Z</time>
      </trkpt>
      <trkpt lat="44.47947" lon="5.60303">
        <ele>1321.47</ele>
        <time>2018-04-26T07:54:58Z</time>
      </trkpt>
      <trkpt lat="44.47943" lon="5.60302">
        <ele>1320.99</ele>
        <time>2018-04-26T07:55:02Z</time>
      </trkpt>
      <trkpt lat="44.47942" lon="5.60302">
        <ele>1320.03</ele>
        <time>2018-04-26T07:55:04Z</time>
      </trkpt>
      <trkpt lat="44.47942" lon="5.60301">
        <ele>1320.99</ele>
        <time>2018-04-26T07:55:06Z</time>
      </trkpt>
      <trkpt lat="44.47938" lon="5.60302">
        <ele>1320.03</ele>
        <time>2018-04-26T07:55:18Z</time>
      </trkpt>
      <trkpt lat="44.47932" lon="5.60305">
        <ele>1323.87</ele>
        <time>2018-04-26T07:55:26Z</time>
      </trkpt>
      <trkpt lat="44.47931" lon="5.60306">
        <ele>1320.03</ele>
        <time>2018-04-26T07:55:27Z</time>
      </trkpt>
      <trkpt lat="44.47928" lon="5.60308">
        <ele>1323.39</ele>
        <time>2018-04-26T07:55:30Z</time>
      </trkpt>
      <trkpt lat="44.47925" lon="5.6031">
        <ele>1320.99</ele>
        <time>2018-04-26T07:55:32Z</time>
      </trkpt>
      <trkpt lat="44.47924" lon="5.60311">
        <ele>1324.35</ele>
        <time>2018-04-26T07:55:34Z</time>
      </trkpt>
      <trkpt lat="44.47924" lon="5.60312">
        <ele>1324.35</ele>
        <time>2018-04-26T07:55:35Z</time>
      </trkpt>
      <trkpt lat="44.47921" lon="5.60325">
        <ele>1323.87</ele>
        <time>2018-04-26T07:55:46Z</time>
      </trkpt>
      <trkpt lat="44.4792" lon="5.60326">
        <ele>1327.24</ele>
        <time>2018-04-26T07:55:48Z</time>
      </trkpt>
      <trkpt lat="44.47914" lon="5.60324">
        <ele>1327.72</ele>
        <time>2018-04-26T07:55:59Z</time>
      </trkpt>
      <trkpt lat="44.479" lon="5.60314">
        <ele>1327.72</ele>
        <time>2018-04-26T07:56:12Z</time>
      </trkpt>
      <trkpt lat="44.47897" lon="5.60313">
        <ele>1325.31</ele>
        <time>2018-04-26T07:56:14Z</time>
      </trkpt>
      <trkpt lat="44.47894" lon="5.6031">
        <ele>1328.68</ele>
        <time>2018-04-26T07:56:18Z</time>
      </trkpt>
      <trkpt lat="44.47883" lon="5.60292">
        <ele>1326.76</ele>
        <time>2018-04-26T07:56:30Z</time>
      </trkpt>
      <trkpt lat="44.4788" lon="5.60289">
        <ele>1328.68</ele>
        <time>2018-04-26T07:56:35Z</time>
      </trkpt>
      <trkpt lat="44.47873" lon="5.60281">
        <ele>1325.8</ele>
        <time>2018-04-26T07:56:45Z</time>
      </trkpt>
      <trkpt lat="44.47869" lon="5.60279">
        <ele>1328.2</ele>
        <time>2018-04-26T07:56:49Z</time>
      </trkpt>
      <trkpt lat="44.47865" lon="5.60277">
        <ele>1326.76</ele>
        <time>2018-04-26T07:56:53Z</time>
      </trkpt>
      <trkpt lat="44.47855" lon="5.6027">
        <ele>1328.2</ele>
        <time>2018-04-26T07:57:01Z</time>
      </trkpt>
      <trkpt lat="44.47853" lon="5.6027">
        <ele>1329.64</ele>
        <time>2018-04-26T07:57:03Z</time>
      </trkpt>
      <trkpt lat="44.47843" lon="5.60264">
        <ele>1331.08</ele>
        <time>2018-04-26T07:57:14Z</time>
      </trkpt>
      <trkpt lat="44.47842" lon="5.60263">
        <ele>1331.56</ele>
        <time>2018-04-26T07:57:15Z</time>
      </trkpt>
      <trkpt lat="44.47833" lon="5.60254">
        <ele>1332.52</ele>
        <time>2018-04-26T07:57:24Z</time>
      </trkpt>
      <trkpt lat="44.47832" lon="5.60254">
        <ele>1329.64</ele>
        <time>2018-04-26T07:57:25Z</time>
      </trkpt>
      <trkpt lat="44.47824" lon="5.60256">
        <ele>1333.49</ele>
        <time>2018-04-26T07:57:32Z</time>
      </trkpt>
      <trkpt lat="44.47814" lon="5.60255">
        <ele>1333.49</ele>
        <time>2018-04-26T07:57:42Z</time>
      </trkpt>
      <trkpt lat="44.47808" lon="5.60254">
        <ele>1333.49</ele>
        <time>2018-04-26T07:57:48Z</time>
      </trkpt>
      <trkpt lat="44.47806" lon="5.60255">
        <ele>1331.56</ele>
        <time>2018-04-26T07:57:50Z</time>
      </trkpt>
      <trkpt lat="44.47805" lon="5.60254">
        <ele>1333.97</ele>
        <time>2018-04-26T07:57:52Z</time>
      </trkpt>
      <trkpt lat="44.47795" lon="5.60256">
        <ele>1334.93</ele>
        <time>2018-04-26T07:58:05Z</time>
      </trkpt>
      <trkpt lat="44.47784" lon="5.60253">
        <ele>1333.97</ele>
        <time>2018-04-26T07:58:16Z</time>
      </trkpt>
      <trkpt lat="44.47782" lon="5.60253">
        <ele>1337.33</ele>
        <time>2018-04-26T07:58:18Z</time>
      </trkpt>
      <trkpt lat="44.47771" lon="5.60252">
        <ele>1335.41</ele>
        <time>2018-04-26T07:58:29Z</time>
      </trkpt>
      <trkpt lat="44.4777" lon="5.60249">
        <ele>1338.29</ele>
        <time>2018-04-26T07:58:31Z</time>
      </trkpt>
      <trkpt lat="44.47769" lon="5.60249">
        <ele>1338.29</ele>
        <time>2018-04-26T07:58:32Z</time>
      </trkpt>
      <trkpt lat="44.47768" lon="5.6025">
        <ele>1337.81</ele>
        <time>2018-04-26T07:58:34Z</time>
      </trkpt>
      <trkpt lat="44.47766" lon="5.6025">
        <ele>1335.89</ele>
        <time>2018-04-26T07:58:36Z</time>
      </trkpt>
      <trkpt lat="44.47765" lon="5.60249">
        <ele>1338.77</ele>
        <time>2018-04-26T07:58:38Z</time>
      </trkpt>
      <trkpt lat="44.47757" lon="5.60248">
        <ele>1338.77</ele>
        <time>2018-04-26T07:58:50Z</time>
      </trkpt>
      <trkpt lat="44.47745" lon="5.6025">
        <ele>1342.14</ele>
        <time>2018-04-26T07:59:02Z</time>
      </trkpt>
      <trkpt lat="44.47745" lon="5.6025">
        <ele>1342.14</ele>
        <time>2018-04-26T07:59:03Z</time>
      </trkpt>
      <trkpt lat="44.47731" lon="5.60251">
        <ele>1341.18</ele>
        <time>2018-04-26T07:59:15Z</time>
      </trkpt>
      <trkpt lat="44.4773" lon="5.60249">
        <ele>1344.06</ele>
        <time>2018-04-26T07:59:17Z</time>
      </trkpt>
      <trkpt lat="44.47727" lon="5.60246">
        <ele>1341.18</ele>
        <time>2018-04-26T07:59:21Z</time>
      </trkpt>
      <trkpt lat="44.47726" lon="5.60246">
        <ele>1343.58</ele>
        <time>2018-04-26T07:59:22Z</time>
      </trkpt>
      <trkpt lat="44.47721" lon="5.60245">
        <ele>1345.02</ele>
        <time>2018-04-26T07:59:27Z</time>
      </trkpt>
      <trkpt lat="44.47718" lon="5.60247">
        <ele>1343.58</ele>
        <time>2018-04-26T07:59:29Z</time>
      </trkpt>
      <trkpt lat="44.47714" lon="5.60248">
        <ele>1346.46</ele>
        <time>2018-04-26T07:59:33Z</time>
      </trkpt>
      <trkpt lat="44.4771" lon="5.60245">
        <ele>1345.02</ele>
        <time>2018-04-26T07:59:38Z</time>
      </trkpt>
      <trkpt lat="44.47701" lon="5.60243">
        <ele>1344.54</ele>
        <time>2018-04-26T07:59:48Z</time>
      </trkpt>
      <trkpt lat="44.477" lon="5.60243">
        <ele>1347.91</ele>
        <time>2018-04-26T07:59:50Z</time>
      </trkpt>
      <trkpt lat="44.47694" lon="5.60236">
        <ele>1349.35</ele>
        <time>2018-04-26T08:00:03Z</time>
      </trkpt>
      <trkpt lat="44.47683" lon="5.60235">
        <ele>1349.83</ele>
        <time>2018-04-26T08:00:16Z</time>
      </trkpt>
      <trkpt lat="44.47673" lon="5.60242">
        <ele>1351.75</ele>
        <time>2018-04-26T08:00:30Z</time>
      </trkpt>
      <trkpt lat="44.47665" lon="5.60247">
        <ele>1349.83</ele>
        <time>2018-04-26T08:00:36Z</time>
      </trkpt>
      <trkpt lat="44.47663" lon="5.60249">
        <ele>1354.15</ele>
        <time>2018-04-26T08:00:38Z</time>
      </trkpt>
      <trkpt lat="44.47663" lon="5.60249">
        <ele>1349.83</ele>
        <time>2018-04-26T08:00:39Z</time>
      </trkpt>
      <trkpt lat="44.47663" lon="5.60249">
        <ele>1353.19</ele>
        <time>2018-04-26T08:00:40Z</time>
      </trkpt>
      <trkpt lat="44.47659" lon="5.60257">
        <ele>1352.71</ele>
        <time>2018-04-26T08:00:55Z</time>
      </trkpt>
      <trkpt lat="44.47658" lon="5.6026">
        <ele>1356.08</ele>
        <time>2018-04-26T08:01:02Z</time>
      </trkpt>
      <trkpt lat="44.47658" lon="5.6026">
        <ele>1352.23</ele>
        <time>2018-04-26T08:01:03Z</time>
      </trkpt>
      <trkpt lat="44.47658" lon="5.60261">
        <ele>1355.6</ele>
        <time>2018-04-26T08:01:04Z</time>
      </trkpt>
      <trkpt lat="44.4764" lon="5.60264">
        <ele>1357.04</ele>
        <time>2018-04-26T08:01:19Z</time>
      </trkpt>
      <trkpt lat="44.47625" lon="5.60269">
        <ele>1359.44</ele>
        <time>2018-04-26T08:01:34Z</time>
      </trkpt>
      <trkpt lat="44.47614" lon="5.60272">
        <ele>1357.52</ele>
        <time>2018-04-26T08:01:49Z</time>
      </trkpt>
      <trkpt lat="44.47613" lon="5.60272">
        <ele>1360.88</ele>
        <time>2018-04-26T08:01:50Z</time>
      </trkpt>
      <trkpt lat="44.47609" lon="5.60276">
        <ele>1362.33</ele>
        <time>2018-04-26T08:02:06Z</time>
      </trkpt>
      <trkpt lat="44.47589" lon="5.60282">
        <ele>1365.21</ele>
        <time>2018-04-26T08:02:20Z</time>
      </trkpt>
      <trkpt lat="44.47588" lon="5.60282">
        <ele>1361.84</ele>
        <time>2018-04-26T08:02:21Z</time>
      </trkpt>
      <trkpt lat="44.47584" lon="5.60282">
        <ele>1366.17</ele>
        <time>2018-04-26T08:02:26Z</time>
      </trkpt>
      <trkpt lat="44.4758" lon="5.60281">
        <ele>1361.84</ele>
        <time>2018-04-26T08:02:29Z</time>
      </trkpt>
      <trkpt lat="44.47579" lon="5.60281">
        <ele>1365.69</ele>
        <time>2018-04-26T08:02:30Z</time>
      </trkpt>
      <trkpt lat="44.47578" lon="5.60282">
        <ele>1366.65</ele>
        <time>2018-04-26T08:02:34Z</time>
      </trkpt>
      <trkpt lat="44.47571" lon="5.60289">
        <ele>1367.61</ele>
        <time>2018-04-26T08:02:48Z</time>
      </trkpt>
      <trkpt lat="44.47567" lon="5.60291">
        <ele>1368.09</ele>
        <time>2018-04-26T08:02:59Z</time>
      </trkpt>
      <trkpt lat="44.47565" lon="5.60291">
        <ele>1371.46</ele>
        <time>2018-04-26T08:03:01Z</time>
      </trkpt>
      <trkpt lat="44.47564" lon="5.60291">
        <ele>1367.61</ele>
        <time>2018-04-26T08:03:02Z</time>
      </trkpt>
      <trkpt lat="44.47563" lon="5.60292">
        <ele>1370.98</ele>
        <time>2018-04-26T08:03:03Z</time>
      </trkpt>
      <trkpt lat="44.47562" lon="5.60292">
        <ele>1367.61</ele>
        <time>2018-04-26T08:03:04Z</time>
      </trkpt>
      <trkpt lat="44.4756" lon="5.60292">
        <ele>1371.94</ele>
        <time>2018-04-26T08:03:06Z</time>
      </trkpt>
      <trkpt lat="44.47559" lon="5.60291">
        <ele>1368.09</ele>
        <time>2018-04-26T08:03:07Z</time>
      </trkpt>
      <trkpt lat="44.47558" lon="5.60291">
        <ele>1371.46</ele>
        <time>2018-04-26T08:03:08Z</time>
      </trkpt>
      <trkpt lat="44.4755" lon="5.60297">
        <ele>1374.82</ele>
        <time>2018-04-26T08:03:19Z</time>
      </trkpt>
      <trkpt lat="44.47549" lon="5.60298">
        <ele>1370.5</ele>
        <time>2018-04-26T08:03:20Z</time>
      </trkpt>
      <trkpt lat="44.47548" lon="5.60299">
        <ele>1373.38</ele>
        <time>2018-04-26T08:03:21Z</time>
      </trkpt>
      <trkpt lat="44.47543" lon="5.603">
        <ele>1376.75</ele>
        <time>2018-04-26T08:03:35Z</time>
      </trkpt>
      <trkpt lat="44.47542" lon="5.60299">
        <ele>1372.42</ele>
        <time>2018-04-26T08:03:38Z</time>
      </trkpt>
      <trkpt lat="44.47542" lon="5.60299">
        <ele>1375.78</ele>
        <time>2018-04-26T08:03:39Z</time>
      </trkpt>
      <trkpt lat="44.47541" lon="5.60288">
        <ele>1376.75</ele>
        <time>2018-04-26T08:03:44Z</time>
      </trkpt>
      <trkpt lat="44.47531" lon="5.60279">
        <ele>1376.75</ele>
        <time>2018-04-26T08:03:51Z</time>
      </trkpt>
      <trkpt lat="44.4753" lon="5.60279">
        <ele>1378.67</ele>
        <time>2018-04-26T08:03:52Z</time>
      </trkpt>
      <trkpt lat="44.47529" lon="5.60277">
        <ele>1374.82</ele>
        <time>2018-04-26T08:03:53Z</time>
      </trkpt>
      <trkpt lat="44.47529" lon="5.60276">
        <ele>1377.71</ele>
        <time>2018-04-26T08:03:54Z</time>
      </trkpt>
      <trkpt lat="44.47528" lon="5.60269">
        <ele>1380.11</ele>
        <time>2018-04-26T08:04:04Z</time>
      </trkpt>
      <trkpt lat="44.4753" lon="5.60268">
        <ele>1376.75</ele>
        <time>2018-04-26T08:04:05Z</time>
      </trkpt>
      <trkpt lat="44.4754" lon="5.60268">
        <ele>1380.11</ele>
        <time>2018-04-26T08:04:11Z</time>
      </trkpt>
      <trkpt lat="44.47545" lon="5.60266">
        <ele>1381.55</ele>
        <time>2018-04-26T08:04:14Z</time>
      </trkpt>
      <trkpt lat="44.4755" lon="5.60265">
        <ele>1383.47</ele>
        <time>2018-04-26T08:04:26Z</time>
      </trkpt>
      <trkpt lat="44.4755" lon="5.60265">
        <ele>1379.15</ele>
        <time>2018-04-26T08:04:27Z</time>
      </trkpt>
      <trkpt lat="44.4755" lon="5.60266">
        <ele>1382.99</ele>
        <time>2018-04-26T08:04:28Z</time>
      </trkpt>
      <trkpt lat="44.4755" lon="5.60266">
        <ele>1379.15</ele>
        <time>2018-04-26T08:04:29Z</time>
      </trkpt>
      <trkpt lat="44.47549" lon="5.60266">
        <ele>1382.03</ele>
        <time>2018-04-26T08:04:30Z</time>
      </trkpt>
      <trkpt lat="44.47546" lon="5.60266">
        <ele>1381.07</ele>
        <time>2018-04-26T08:04:42Z</time>
      </trkpt>
      <trkpt lat="44.47544" lon="5.60269">
        <ele>1383.96</ele>
        <time>2018-04-26T08:04:45Z</time>
      </trkpt>
      <trkpt lat="44.47536" lon="5.60276">
        <ele>1386.36</ele>
        <time>2018-04-26T08:05:01Z</time>
      </trkpt>
      <trkpt lat="44.47522" lon="5.60282">
        <ele>1388.28</ele>
        <time>2018-04-26T08:05:16Z</time>
      </trkpt>
      <trkpt lat="44.47517" lon="5.60286">
        <ele>1388.76</ele>
        <time>2018-04-26T08:05:22Z</time>
      </trkpt>
      <trkpt lat="44.47508" lon="5.60296">
        <ele>1390.68</ele>
        <time>2018-04-26T08:05:38Z</time>
      </trkpt>
      <trkpt lat="44.47507" lon="5.60297">
        <ele>1386.36</ele>
        <time>2018-04-26T08:05:39Z</time>
      </trkpt>
      <trkpt lat="44.47506" lon="5.60298">
        <ele>1390.2</ele>
        <time>2018-04-26T08:05:40Z</time>
      </trkpt>
      <trkpt lat="44.47502" lon="5.60304">
        <ele>1387.32</ele>
        <time>2018-04-26T08:05:44Z</time>
      </trkpt>
      <trkpt lat="44.47491" lon="5.60315">
        <ele>1389.72</ele>
        <time>2018-04-26T08:05:58Z</time>
      </trkpt>
      <trkpt lat="44.4749" lon="5.60315">
        <ele>1393.09</ele>
        <time>2018-04-26T08:06:05Z</time>
      </trkpt>
      <trkpt lat="44.4749" lon="5.60314">
        <ele>1388.28</ele>
        <time>2018-04-26T08:06:06Z</time>
      </trkpt>
      <trkpt lat="44.4749" lon="5.60313">
        <ele>1392.61</ele>
        <time>2018-04-26T08:06:07Z</time>
      </trkpt>
      <trkpt lat="44.4749" lon="5.60311">
        <ele>1391.65</ele>
        <time>2018-04-26T08:06:10Z</time>
      </trkpt>
      <trkpt lat="44.47486" lon="5.60301">
        <ele>1393.09</ele>
        <time>2018-04-26T08:06:18Z</time>
      </trkpt>
      <trkpt lat="44.47493" lon="5.60289">
        <ele>1395.49</ele>
        <time>2018-04-26T08:06:30Z</time>
      </trkpt>
      <trkpt lat="44.47498" lon="5.60275">
        <ele>1395.01</ele>
        <time>2018-04-26T08:06:44Z</time>
      </trkpt>
      <trkpt lat="44.47499" lon="5.60272">
        <ele>1395.01</ele>
        <time>2018-04-26T08:06:48Z</time>
      </trkpt>
      <trkpt lat="44.47499" lon="5.6027">
        <ele>1397.41</ele>
        <time>2018-04-26T08:06:50Z</time>
      </trkpt>
      <trkpt lat="44.47497" lon="5.60263">
        <ele>1399.82</ele>
        <time>2018-04-26T08:06:59Z</time>
      </trkpt>
      <trkpt lat="44.47496" lon="5.60262">
        <ele>1395.97</ele>
        <time>2018-04-26T08:07:00Z</time>
      </trkpt>
      <trkpt lat="44.47496" lon="5.60261">
        <ele>1399.34</ele>
        <time>2018-04-26T08:07:02Z</time>
      </trkpt>
      <trkpt lat="44.47497" lon="5.60252">
        <ele>1399.34</ele>
        <time>2018-04-26T08:07:17Z</time>
      </trkpt>
      <trkpt lat="44.47501" lon="5.60239">
        <ele>1399.34</ele>
        <time>2018-04-26T08:07:32Z</time>
      </trkpt>
      <trkpt lat="44.47501" lon="5.60238">
        <ele>1403.18</ele>
        <time>2018-04-26T08:07:34Z</time>
      </trkpt>
      <trkpt lat="44.47502" lon="5.60237">
        <ele>1399.34</ele>
        <time>2018-04-26T08:07:35Z</time>
      </trkpt>
      <trkpt lat="44.47502" lon="5.60236">
        <ele>1402.7</ele>
        <time>2018-04-26T08:07:37Z</time>
      </trkpt>
      <trkpt lat="44.47502" lon="5.60235">
        <ele>1402.7</ele>
        <time>2018-04-26T08:07:38Z</time>
      </trkpt>
      <trkpt lat="44.47505" lon="5.6023">
        <ele>1406.07</ele>
        <time>2018-04-26T08:07:49Z</time>
      </trkpt>
      <trkpt lat="44.47505" lon="5.6023">
        <ele>1400.3</ele>
        <time>2018-04-26T08:07:50Z</time>
      </trkpt>
      <trkpt lat="44.47505" lon="5.6023">
        <ele>1404.14</ele>
        <time>2018-04-26T08:07:51Z</time>
      </trkpt>
      <trkpt lat="44.47507" lon="5.60223">
        <ele>1407.03</ele>
        <time>2018-04-26T08:07:58Z</time>
      </trkpt>
      <trkpt lat="44.47508" lon="5.60222">
        <ele>1400.78</ele>
        <time>2018-04-26T08:07:59Z</time>
      </trkpt>
      <trkpt lat="44.47509" lon="5.60221">
        <ele>1405.58</ele>
        <time>2018-04-26T08:08:00Z</time>
      </trkpt>
      <trkpt lat="44.47534" lon="5.6021">
        <ele>1402.7</ele>
        <time>2018-04-26T08:08:06Z</time>
      </trkpt>
      <trkpt lat="44.47537" lon="5.60208">
        <ele>1407.03</ele>
        <time>2018-04-26T08:08:07Z</time>
      </trkpt>
      <trkpt lat="44.47545" lon="5.60201">
        <ele>1407.51</ele>
        <time>2018-04-26T08:08:17Z</time>
      </trkpt>
      <trkpt lat="44.47552" lon="5.60187">
        <ele>1405.58</ele>
        <time>2018-04-26T08:08:29Z</time>
      </trkpt>
      <trkpt lat="44.47554" lon="5.60186">
        <ele>1409.43</ele>
        <time>2018-04-26T08:08:30Z</time>
      </trkpt>
      <trkpt lat="44.4757" lon="5.60179">
        <ele>1409.91</ele>
        <time>2018-04-26T08:08:40Z</time>
      </trkpt>
      <trkpt lat="44.47571" lon="5.60172">
        <ele>1409.91</ele>
        <time>2018-04-26T08:08:49Z</time>
      </trkpt>
      <trkpt lat="44.47567" lon="5.60161">
        <ele>1413.28</ele>
        <time>2018-04-26T08:08:59Z</time>
      </trkpt>
      <trkpt lat="44.4756" lon="5.60156">
        <ele>1410.39</ele>
        <time>2018-04-26T08:09:07Z</time>
      </trkpt>
      <trkpt lat="44.47553" lon="5.60152">
        <ele>1410.87</ele>
        <time>2018-04-26T08:09:15Z</time>
      </trkpt>
      <trkpt lat="44.47552" lon="5.60152">
        <ele>1414.72</ele>
        <time>2018-04-26T08:09:16Z</time>
      </trkpt>
      <trkpt lat="44.47542" lon="5.60148">
        <ele>1415.68</ele>
        <time>2018-04-26T08:09:27Z</time>
      </trkpt>
      <trkpt lat="44.47541" lon="5.60148">
        <ele>1412.79</ele>
        <time>2018-04-26T08:09:29Z</time>
      </trkpt>
      <trkpt lat="44.47539" lon="5.6015">
        <ele>1416.64</ele>
        <time>2018-04-26T08:09:31Z</time>
      </trkpt>
      <trkpt lat="44.47538" lon="5.60151">
        <ele>1416.64</ele>
        <time>2018-04-26T08:09:32Z</time>
      </trkpt>
      <trkpt lat="44.47535" lon="5.60151">
        <ele>1413.28</ele>
        <time>2018-04-26T08:09:35Z</time>
      </trkpt>
      <trkpt lat="44.47535" lon="5.60151">
        <ele>1417.6</ele>
        <time>2018-04-26T08:09:36Z</time>
      </trkpt>
      <trkpt lat="44.47532" lon="5.60148">
        <ele>1413.76</ele>
        <time>2018-04-26T08:09:40Z</time>
      </trkpt>
      <trkpt lat="44.47531" lon="5.60148">
        <ele>1418.08</ele>
        <time>2018-04-26T08:09:41Z</time>
      </trkpt>
      <trkpt lat="44.47527" lon="5.60148">
        <ele>1419.04</ele>
        <time>2018-04-26T08:09:53Z</time>
      </trkpt>
      <trkpt lat="44.47522" lon="5.60148">
        <ele>1418.08</ele>
        <time>2018-04-26T08:09:58Z</time>
      </trkpt>
      <trkpt lat="44.47519" lon="5.60145">
        <ele>1417.6</ele>
        <time>2018-04-26T08:10:01Z</time>
      </trkpt>
      <trkpt lat="44.47509" lon="5.60143">
        <ele>1421.93</ele>
        <time>2018-04-26T08:10:12Z</time>
      </trkpt>
      <trkpt lat="44.47508" lon="5.60141">
        <ele>1418.08</ele>
        <time>2018-04-26T08:10:16Z</time>
      </trkpt>
      <trkpt lat="44.47508" lon="5.60141">
        <ele>1422.41</ele>
        <time>2018-04-26T08:10:17Z</time>
      </trkpt>
      <trkpt lat="44.47504" lon="5.6014">
        <ele>1419.04</ele>
        <time>2018-04-26T08:10:21Z</time>
      </trkpt>
      <trkpt lat="44.47503" lon="5.60139">
        <ele>1422.89</ele>
        <time>2018-04-26T08:10:22Z</time>
      </trkpt>
      <trkpt lat="44.47496" lon="5.60145">
        <ele>1424.33</ele>
        <time>2018-04-26T08:10:31Z</time>
      </trkpt>
      <trkpt lat="44.47495" lon="5.60147">
        <ele>1420.49</ele>
        <time>2018-04-26T08:10:33Z</time>
      </trkpt>
      <trkpt lat="44.47494" lon="5.60147">
        <ele>1424.33</ele>
        <time>2018-04-26T08:10:34Z</time>
      </trkpt>
      <trkpt lat="44.47493" lon="5.6015">
        <ele>1422.89</ele>
        <time>2018-04-26T08:10:47Z</time>
      </trkpt>
      <trkpt lat="44.47491" lon="5.60152">
        <ele>1425.77</ele>
        <time>2018-04-26T08:10:51Z</time>
      </trkpt>
      <trkpt lat="44.47488" lon="5.60152">
        <ele>1422.41</ele>
        <time>2018-04-26T08:10:55Z</time>
      </trkpt>
      <trkpt lat="44.47486" lon="5.60152">
        <ele>1426.25</ele>
        <time>2018-04-26T08:10:56Z</time>
      </trkpt>
      <trkpt lat="44.47483" lon="5.60153">
        <ele>1422.89</ele>
        <time>2018-04-26T08:11:00Z</time>
      </trkpt>
      <trkpt lat="44.47482" lon="5.60153">
        <ele>1427.21</ele>
        <time>2018-04-26T08:11:01Z</time>
      </trkpt>
      <trkpt lat="44.47475" lon="5.60144">
        <ele>1427.21</ele>
        <time>2018-04-26T08:11:13Z</time>
      </trkpt>
      <trkpt lat="44.47473" lon="5.6014">
        <ele>1424.33</ele>
        <time>2018-04-26T08:11:15Z</time>
      </trkpt>
      <trkpt lat="44.47472" lon="5.60138">
        <ele>1427.21</ele>
        <time>2018-04-26T08:11:16Z</time>
      </trkpt>
      <trkpt lat="44.47469" lon="5.60133">
        <ele>1425.77</ele>
        <time>2018-04-26T08:11:19Z</time>
      </trkpt>
      <trkpt lat="44.4746" lon="5.6013">
        <ele>1423.37</ele>
        <time>2018-04-26T08:11:35Z</time>
      </trkpt>
      <trkpt lat="44.47459" lon="5.6013">
        <ele>1427.21</ele>
        <time>2018-04-26T08:11:36Z</time>
      </trkpt>
      <trkpt lat="44.47456" lon="5.60133">
        <ele>1428.18</ele>
        <time>2018-04-26T08:11:44Z</time>
      </trkpt>
      <trkpt lat="44.47456" lon="5.60135">
        <ele>1428.18</ele>
        <time>2018-04-26T08:11:45Z</time>
      </trkpt>
      <trkpt lat="44.47445" lon="5.60142">
        <ele>1428.18</ele>
        <time>2018-04-26T08:11:55Z</time>
      </trkpt>
      <trkpt lat="44.47433" lon="5.60146">
        <ele>1431.06</ele>
        <time>2018-04-26T08:12:08Z</time>
      </trkpt>
      <trkpt lat="44.4743" lon="5.60147">
        <ele>1432.5</ele>
        <time>2018-04-26T08:12:19Z</time>
      </trkpt>
      <trkpt lat="44.47421" lon="5.60148">
        <ele>1433.46</ele>
        <time>2018-04-26T08:12:29Z</time>
      </trkpt>
      <trkpt lat="44.47413" lon="5.60149">
        <ele>1433.94</ele>
        <time>2018-04-26T08:12:40Z</time>
      </trkpt>
      <trkpt lat="44.47409" lon="5.60151">
        <ele>1435.87</ele>
        <time>2018-04-26T08:12:47Z</time>
      </trkpt>
      <trkpt lat="44.47406" lon="5.60153">
        <ele>1436.35</ele>
        <time>2018-04-26T08:12:54Z</time>
      </trkpt>
      <trkpt lat="44.47402" lon="5.60152">
        <ele>1437.79</ele>
        <time>2018-04-26T08:13:02Z</time>
      </trkpt>
      <trkpt lat="44.47395" lon="5.60154">
        <ele>1439.71</ele>
        <time>2018-04-26T08:13:11Z</time>
      </trkpt>
      <trkpt lat="44.47393" lon="5.60154">
        <ele>1434.91</ele>
        <time>2018-04-26T08:13:13Z</time>
      </trkpt>
      <trkpt lat="44.47392" lon="5.60154">
        <ele>1439.71</ele>
        <time>2018-04-26T08:13:14Z</time>
      </trkpt>
      <trkpt lat="44.47392" lon="5.60154">
        <ele>1444.04</ele>
        <time>2018-04-26T08:13:15Z</time>
      </trkpt>
      <trkpt lat="44.47391" lon="5.60154">
        <ele>1436.83</ele>
        <time>2018-04-26T08:13:16Z</time>
      </trkpt>
      <trkpt lat="44.4739" lon="5.60155">
        <ele>1440.67</ele>
        <time>2018-04-26T08:13:17Z</time>
      </trkpt>
      <trkpt lat="44.47385" lon="5.60157">
        <ele>1437.79</ele>
        <time>2018-04-26T08:13:21Z</time>
      </trkpt>
      <trkpt lat="44.47384" lon="5.60157">
        <ele>1438.75</ele>
        <time>2018-04-26T08:13:22Z</time>
      </trkpt>
      <trkpt lat="44.47383" lon="5.60157">
        <ele>1442.11</ele>
        <time>2018-04-26T08:13:23Z</time>
      </trkpt>
      <trkpt lat="44.47382" lon="5.60157">
        <ele>1438.27</ele>
        <time>2018-04-26T08:13:24Z</time>
      </trkpt>
      <trkpt lat="44.47382" lon="5.60157">
        <ele>1444.04</ele>
        <time>2018-04-26T08:13:26Z</time>
      </trkpt>
      <trkpt lat="44.47382" lon="5.60157">
        <ele>1438.75</ele>
        <time>2018-04-26T08:13:27Z</time>
      </trkpt>
      <trkpt lat="44.4738" lon="5.60157">
        <ele>1442.6</ele>
        <time>2018-04-26T08:13:28Z</time>
      </trkpt>
      <trkpt lat="44.47374" lon="5.60159">
        <ele>1442.11</ele>
        <time>2018-04-26T08:13:33Z</time>
      </trkpt>
      <trkpt lat="44.47371" lon="5.60158">
        <ele>1444.52</ele>
        <time>2018-04-26T08:13:35Z</time>
      </trkpt>
      <trkpt lat="44.4737" lon="5.60158">
        <ele>1439.71</ele>
        <time>2018-04-26T08:13:36Z</time>
      </trkpt>
      <trkpt lat="44.4737" lon="5.60158">
        <ele>1443.56</ele>
        <time>2018-04-26T08:13:37Z</time>
      </trkpt>
      <trkpt lat="44.47366" lon="5.60159">
        <ele>1439.23</ele>
        <time>2018-04-26T08:13:41Z</time>
      </trkpt>
      <trkpt lat="44.47366" lon="5.60159">
        <ele>1443.56</ele>
        <time>2018-04-26T08:13:42Z</time>
      </trkpt>
      <trkpt lat="44.47363" lon="5.6016">
        <ele>1446.92</ele>
        <time>2018-04-26T08:13:46Z</time>
      </trkpt>
      <trkpt lat="44.47362" lon="5.60161">
        <ele>1441.63</ele>
        <time>2018-04-26T08:13:47Z</time>
      </trkpt>
      <trkpt lat="44.47361" lon="5.60161">
        <ele>1445</ele>
        <time>2018-04-26T08:13:48Z</time>
      </trkpt>
      <trkpt lat="44.4736" lon="5.60162">
        <ele>1441.15</ele>
        <time>2018-04-26T08:13:49Z</time>
      </trkpt>
      <trkpt lat="44.4736" lon="5.60162">
        <ele>1447.88</ele>
        <time>2018-04-26T08:13:51Z</time>
      </trkpt>
      <trkpt lat="44.47359" lon="5.60163">
        <ele>1443.56</ele>
        <time>2018-04-26T08:13:52Z</time>
      </trkpt>
      <trkpt lat="44.47358" lon="5.60163">
        <ele>1447.4</ele>
        <time>2018-04-26T08:13:53Z</time>
      </trkpt>
      <trkpt lat="44.47357" lon="5.60164">
        <ele>1443.56</ele>
        <time>2018-04-26T08:13:54Z</time>
      </trkpt>
      <trkpt lat="44.47358" lon="5.60165">
        <ele>1445</ele>
        <time>2018-04-26T08:14:03Z</time>
      </trkpt>
      <trkpt lat="44.47358" lon="5.60167">
        <ele>1441.63</ele>
        <time>2018-04-26T08:14:05Z</time>
      </trkpt>
      <trkpt lat="44.47358" lon="5.60168">
        <ele>1446.44</ele>
        <time>2018-04-26T08:14:06Z</time>
      </trkpt>
      <trkpt lat="44.4736" lon="5.60175">
        <ele>1444.04</ele>
        <time>2018-04-26T08:14:13Z</time>
      </trkpt>
      <trkpt lat="44.47362" lon="5.6018">
        <ele>1446.92</ele>
        <time>2018-04-26T08:14:18Z</time>
      </trkpt>
      <trkpt lat="44.4736" lon="5.60182">
        <ele>1447.88</ele>
        <time>2018-04-26T08:14:33Z</time>
      </trkpt>
      <trkpt lat="44.47356" lon="5.60177">
        <ele>1446.92</ele>
        <time>2018-04-26T08:14:46Z</time>
      </trkpt>
      <trkpt lat="44.47358" lon="5.60177">
        <ele>1446.92</ele>
        <time>2018-04-26T08:15:06Z</time>
      </trkpt>
      <trkpt lat="44.47357" lon="5.60175">
        <ele>1446.92</ele>
        <time>2018-04-26T08:15:20Z</time>
      </trkpt>
      <trkpt lat="44.47355" lon="5.6017">
        <ele>1446.92</ele>
        <time>2018-04-26T08:15:33Z</time>
      </trkpt>
      <trkpt lat="44.47354" lon="5.60161">
        <ele>1446.44</ele>
        <time>2018-04-26T08:15:41Z</time>
      </trkpt>
      <trkpt lat="44.47355" lon="5.60161">
        <ele>1445.48</ele>
        <time>2018-04-26T08:15:53Z</time>
      </trkpt>
      <trkpt lat="44.47355" lon="5.60162">
        <ele>1445.48</ele>
        <time>2018-04-26T08:16:18Z</time>
      </trkpt>
      <trkpt lat="44.47355" lon="5.60163">
        <ele>1445.48</ele>
        <time>2018-04-26T08:16:44Z</time>
      </trkpt>
      <trkpt lat="44.47356" lon="5.60163">
        <ele>1445.48</ele>
        <time>2018-04-26T08:17:01Z</time>
      </trkpt>
      <trkpt lat="44.47353" lon="5.60163">
        <ele>1446.44</ele>
        <time>2018-04-26T08:17:12Z</time>
      </trkpt>
      <trkpt lat="44.47353" lon="5.60163">
        <ele>1446.44</ele>
        <time>2018-04-26T08:17:33Z</time>
      </trkpt>
      <trkpt lat="44.47353" lon="5.60163">
        <ele>1447.4</ele>
        <time>2018-04-26T08:17:52Z</time>
      </trkpt>
      <trkpt lat="44.47353" lon="5.60163">
        <ele>1447.4</ele>
        <time>2018-04-26T08:18:13Z</time>
      </trkpt>
      <trkpt lat="44.47354" lon="5.60163">
        <ele>1447.4</ele>
        <time>2018-04-26T08:18:34Z</time>
      </trkpt>
      <trkpt lat="44.47354" lon="5.60164">
        <ele>1447.4</ele>
        <time>2018-04-26T08:18:56Z</time>
      </trkpt>
      <trkpt lat="44.47353" lon="5.60164">
        <ele>1449.81</ele>
        <time>2018-04-26T08:19:10Z</time>
      </trkpt>
      <trkpt lat="44.47353" lon="5.60164">
        <ele>1443.56</ele>
        <time>2018-04-26T08:19:11Z</time>
      </trkpt>
      <trkpt lat="44.47352" lon="5.60164">
        <ele>1448.84</ele>
        <time>2018-04-26T08:19:12Z</time>
      </trkpt>
      <trkpt lat="44.47351" lon="5.60165">
        <ele>1445.48</ele>
        <time>2018-04-26T08:19:13Z</time>
      </trkpt>
      <trkpt lat="44.47349" lon="5.60164">
        <ele>1449.81</ele>
        <time>2018-04-26T08:19:15Z</time>
      </trkpt>
      <trkpt lat="44.47349" lon="5.60163">
        <ele>1446.92</ele>
        <time>2018-04-26T08:19:16Z</time>
      </trkpt>
      <trkpt lat="44.47345" lon="5.60162">
        <ele>1445.48</ele>
        <time>2018-04-26T08:19:21Z</time>
      </trkpt>
      <trkpt lat="44.47345" lon="5.60162">
        <ele>1448.36</ele>
        <time>2018-04-26T08:19:22Z</time>
      </trkpt>
      <trkpt lat="44.47343" lon="5.60163">
        <ele>1447.4</ele>
        <time>2018-04-26T08:19:24Z</time>
      </trkpt>
      <trkpt lat="44.47341" lon="5.60163">
        <ele>1445.96</ele>
        <time>2018-04-26T08:19:26Z</time>
      </trkpt>
      <trkpt lat="44.47339" lon="5.60163">
        <ele>1451.73</ele>
        <time>2018-04-26T08:19:28Z</time>
      </trkpt>
      <trkpt lat="44.47338" lon="5.60162">
        <ele>1443.56</ele>
        <time>2018-04-26T08:19:29Z</time>
      </trkpt>
      <trkpt lat="44.47337" lon="5.60162">
        <ele>1449.81</ele>
        <time>2018-04-26T08:19:30Z</time>
      </trkpt>
      <trkpt lat="44.47329" lon="5.60162">
        <ele>1446.92</ele>
        <time>2018-04-26T08:19:41Z</time>
      </trkpt>
      <trkpt lat="44.47328" lon="5.60162">
        <ele>1450.77</ele>
        <time>2018-04-26T08:19:42Z</time>
      </trkpt>
      <trkpt lat="44.47325" lon="5.60162">
        <ele>1446.92</ele>
        <time>2018-04-26T08:19:47Z</time>
      </trkpt>
      <trkpt lat="44.47324" lon="5.60162">
        <ele>1451.25</ele>
        <time>2018-04-26T08:19:48Z</time>
      </trkpt>
      <trkpt lat="44.47315" lon="5.6016">
        <ele>1447.4</ele>
        <time>2018-04-26T08:19:56Z</time>
      </trkpt>
      <trkpt lat="44.47314" lon="5.6016">
        <ele>1452.69</ele>
        <time>2018-04-26T08:19:57Z</time>
      </trkpt>
      <trkpt lat="44.47313" lon="5.6016">
        <ele>1448.36</ele>
        <time>2018-04-26T08:19:59Z</time>
      </trkpt>
      <trkpt lat="44.47312" lon="5.6016">
        <ele>1453.65</ele>
        <time>2018-04-26T08:20:00Z</time>
      </trkpt>
      <trkpt lat="44.47308" lon="5.6016">
        <ele>1448.84</ele>
        <time>2018-04-26T08:20:04Z</time>
      </trkpt>
      <trkpt lat="44.47306" lon="5.6016">
        <ele>1452.69</ele>
        <time>2018-04-26T08:20:05Z</time>
      </trkpt>
      <trkpt lat="44.47305" lon="5.6016">
        <ele>1456.53</ele>
        <time>2018-04-26T08:20:06Z</time>
      </trkpt>
      <trkpt lat="44.47304" lon="5.6016">
        <ele>1448.84</ele>
        <time>2018-04-26T08:20:07Z</time>
      </trkpt>
      <trkpt lat="44.47303" lon="5.60159">
        <ele>1454.13</ele>
        <time>2018-04-26T08:20:08Z</time>
      </trkpt>
      <trkpt lat="44.47301" lon="5.6016">
        <ele>1457.02</ele>
        <time>2018-04-26T08:20:10Z</time>
      </trkpt>
      <trkpt lat="44.47299" lon="5.6016">
        <ele>1454.61</ele>
        <time>2018-04-26T08:20:12Z</time>
      </trkpt>
      <trkpt lat="44.47296" lon="5.6016">
        <ele>1451.25</ele>
        <time>2018-04-26T08:20:14Z</time>
      </trkpt>
      <trkpt lat="44.47294" lon="5.60159">
        <ele>1455.57</ele>
        <time>2018-04-26T08:20:15Z</time>
      </trkpt>
      <trkpt lat="44.47294" lon="5.60159">
        <ele>1451.73</ele>
        <time>2018-04-26T08:20:16Z</time>
      </trkpt>
      <trkpt lat="44.47292" lon="5.60158">
        <ele>1457.02</ele>
        <time>2018-04-26T08:20:18Z</time>
      </trkpt>
      <trkpt lat="44.47291" lon="5.60157">
        <ele>1450.29</ele>
        <time>2018-04-26T08:20:19Z</time>
      </trkpt>
      <trkpt lat="44.47291" lon="5.60157">
        <ele>1452.21</ele>
        <time>2018-04-26T08:20:20Z</time>
      </trkpt>
      <trkpt lat="44.47288" lon="5.60157">
        <ele>1457.98</ele>
        <time>2018-04-26T08:20:24Z</time>
      </trkpt>
      <trkpt lat="44.47287" lon="5.60156">
        <ele>1450.29</ele>
        <time>2018-04-26T08:20:25Z</time>
      </trkpt>
      <trkpt lat="44.47287" lon="5.60156">
        <ele>1455.09</ele>
        <time>2018-04-26T08:20:26Z</time>
      </trkpt>
      <trkpt lat="44.47286" lon="5.60156">
        <ele>1458.46</ele>
        <time>2018-04-26T08:20:27Z</time>
      </trkpt>
      <trkpt lat="44.47285" lon="5.60155">
        <ele>1452.21</ele>
        <time>2018-04-26T08:20:28Z</time>
      </trkpt>
      <trkpt lat="44.47284" lon="5.60154">
        <ele>1457.5</ele>
        <time>2018-04-26T08:20:30Z</time>
      </trkpt>
      <trkpt lat="44.47284" lon="5.60153">
        <ele>1454.13</ele>
        <time>2018-04-26T08:20:31Z</time>
      </trkpt>
      <trkpt lat="44.47281" lon="5.60151">
        <ele>1457.02</ele>
        <time>2018-04-26T08:20:34Z</time>
      </trkpt>
      <trkpt lat="44.4728" lon="5.6015">
        <ele>1456.05</ele>
        <time>2018-04-26T08:20:35Z</time>
      </trkpt>
      <trkpt lat="44.47279" lon="5.60149">
        <ele>1453.17</ele>
        <time>2018-04-26T08:20:36Z</time>
      </trkpt>
      <trkpt lat="44.47274" lon="5.60146">
        <ele>1456.05</ele>
        <time>2018-04-26T08:20:41Z</time>
      </trkpt>
      <trkpt lat="44.47272" lon="5.60144">
        <ele>1454.13</ele>
        <time>2018-04-26T08:20:43Z</time>
      </trkpt>
      <trkpt lat="44.47269" lon="5.60143">
        <ele>1455.57</ele>
        <time>2018-04-26T08:20:45Z</time>
      </trkpt>
      <trkpt lat="44.47263" lon="5.60137">
        <ele>1455.57</ele>
        <time>2018-04-26T08:20:50Z</time>
      </trkpt>
      <trkpt lat="44.47259" lon="5.60128">
        <ele>1454.61</ele>
        <time>2018-04-26T08:21:01Z</time>
      </trkpt>
      <trkpt lat="44.47259" lon="5.60125">
        <ele>1457.5</ele>
        <time>2018-04-26T08:21:03Z</time>
      </trkpt>
      <trkpt lat="44.47259" lon="5.60124">
        <ele>1453.65</ele>
        <time>2018-04-26T08:21:04Z</time>
      </trkpt>
      <trkpt lat="44.47257" lon="5.60121">
        <ele>1452.69</ele>
        <time>2018-04-26T08:21:07Z</time>
      </trkpt>
      <trkpt lat="44.47256" lon="5.6012">
        <ele>1455.57</ele>
        <time>2018-04-26T08:21:08Z</time>
      </trkpt>
      <trkpt lat="44.47255" lon="5.60118">
        <ele>1451.25</ele>
        <time>2018-04-26T08:21:10Z</time>
      </trkpt>
      <trkpt lat="44.47254" lon="5.60118">
        <ele>1456.53</ele>
        <time>2018-04-26T08:21:11Z</time>
      </trkpt>
      <trkpt lat="44.47253" lon="5.60118">
        <ele>1457.98</ele>
        <time>2018-04-26T08:21:12Z</time>
      </trkpt>
      <trkpt lat="44.47249" lon="5.60115">
        <ele>1457.02</ele>
        <time>2018-04-26T08:21:16Z</time>
      </trkpt>
      <trkpt lat="44.47246" lon="5.6011">
        <ele>1453.17</ele>
        <time>2018-04-26T08:21:21Z</time>
      </trkpt>
      <trkpt lat="44.47246" lon="5.60109">
        <ele>1456.53</ele>
        <time>2018-04-26T08:21:22Z</time>
      </trkpt>
      <trkpt lat="44.4724" lon="5.60102">
        <ele>1456.53</ele>
        <time>2018-04-26T08:21:35Z</time>
      </trkpt>
      <trkpt lat="44.47239" lon="5.60101">
        <ele>1453.65</ele>
        <time>2018-04-26T08:21:42Z</time>
      </trkpt>
      <trkpt lat="44.47239" lon="5.60099">
        <ele>1451.25</ele>
        <time>2018-04-26T08:21:55Z</time>
      </trkpt>
      <trkpt lat="44.4723" lon="5.60093">
        <ele>1450.29</ele>
        <time>2018-04-26T08:22:04Z</time>
      </trkpt>
      <trkpt lat="44.47215" lon="5.60086">
        <ele>1449.32</ele>
        <time>2018-04-26T08:22:14Z</time>
      </trkpt>
      <trkpt lat="44.4721" lon="5.60084">
        <ele>1446.92</ele>
        <time>2018-04-26T08:22:17Z</time>
      </trkpt>
      <trkpt lat="44.47198" lon="5.60071">
        <ele>1447.4</ele>
        <time>2018-04-26T08:22:28Z</time>
      </trkpt>
      <trkpt lat="44.47191" lon="5.60063">
        <ele>1444.04</ele>
        <time>2018-04-26T08:22:34Z</time>
      </trkpt>
      <trkpt lat="44.47191" lon="5.60062">
        <ele>1445</ele>
        <time>2018-04-26T08:22:35Z</time>
      </trkpt>
      <trkpt lat="44.47184" lon="5.60054">
        <ele>1446.92</ele>
        <time>2018-04-26T08:22:43Z</time>
      </trkpt>
      <trkpt lat="44.47182" lon="5.60052">
        <ele>1443.56</ele>
        <time>2018-04-26T08:22:45Z</time>
      </trkpt>
      <trkpt lat="44.47179" lon="5.60048">
        <ele>1444.52</ele>
        <time>2018-04-26T08:22:51Z</time>
      </trkpt>
      <trkpt lat="44.47168" lon="5.60041">
        <ele>1442.6</ele>
        <time>2018-04-26T08:23:02Z</time>
      </trkpt>
      <trkpt lat="44.47157" lon="5.60033">
        <ele>1442.6</ele>
        <time>2018-04-26T08:23:13Z</time>
      </trkpt>
      <trkpt lat="44.47155" lon="5.60031">
        <ele>1440.19</ele>
        <time>2018-04-26T08:23:15Z</time>
      </trkpt>
      <trkpt lat="44.47145" lon="5.60023">
        <ele>1440.19</ele>
        <time>2018-04-26T08:23:24Z</time>
      </trkpt>
      <trkpt lat="44.47141" lon="5.6002">
        <ele>1441.63</ele>
        <time>2018-04-26T08:23:27Z</time>
      </trkpt>
      <trkpt lat="44.4714" lon="5.6002">
        <ele>1441.15</ele>
        <time>2018-04-26T08:23:28Z</time>
      </trkpt>
      <trkpt lat="44.4713" lon="5.60015">
        <ele>1440.67</ele>
        <time>2018-04-26T08:23:38Z</time>
      </trkpt>
      <trkpt lat="44.47128" lon="5.60014">
        <ele>1438.75</ele>
        <time>2018-04-26T08:23:40Z</time>
      </trkpt>
      <trkpt lat="44.47125" lon="5.6001">
        <ele>1438.27</ele>
        <time>2018-04-26T08:23:44Z</time>
      </trkpt>
      <trkpt lat="44.47117" lon="5.6">
        <ele>1439.71</ele>
        <time>2018-04-26T08:23:54Z</time>
      </trkpt>
      <trkpt lat="44.47116" lon="5.59999">
        <ele>1439.23</ele>
        <time>2018-04-26T08:23:55Z</time>
      </trkpt>
      <trkpt lat="44.47113" lon="5.5999">
        <ele>1435.87</ele>
        <time>2018-04-26T08:24:02Z</time>
      </trkpt>
      <trkpt lat="44.47114" lon="5.59985">
        <ele>1436.35</ele>
        <time>2018-04-26T08:24:06Z</time>
      </trkpt>
      <trkpt lat="44.47116" lon="5.59979">
        <ele>1437.79</ele>
        <time>2018-04-26T08:24:09Z</time>
      </trkpt>
      <trkpt lat="44.47119" lon="5.59973">
        <ele>1435.39</ele>
        <time>2018-04-26T08:24:17Z</time>
      </trkpt>
      <trkpt lat="44.47119" lon="5.59966">
        <ele>1435.39</ele>
        <time>2018-04-26T08:24:27Z</time>
      </trkpt>
      <trkpt lat="44.47119" lon="5.59965">
        <ele>1435.39</ele>
        <time>2018-04-26T08:24:31Z</time>
      </trkpt>
      <trkpt lat="44.47119" lon="5.59963">
        <ele>1433.46</ele>
        <time>2018-04-26T08:24:33Z</time>
      </trkpt>
      <trkpt lat="44.4712" lon="5.59962">
        <ele>1434.91</ele>
        <time>2018-04-26T08:24:35Z</time>
      </trkpt>
      <trkpt lat="44.47121" lon="5.5996">
        <ele>1432.02</ele>
        <time>2018-04-26T08:24:38Z</time>
      </trkpt>
      <trkpt lat="44.47119" lon="5.59956">
        <ele>1434.91</ele>
        <time>2018-04-26T08:24:40Z</time>
      </trkpt>
      <trkpt lat="44.47119" lon="5.59952">
        <ele>1432.98</ele>
        <time>2018-04-26T08:24:42Z</time>
      </trkpt>
      <trkpt lat="44.47119" lon="5.59949">
        <ele>1434.91</ele>
        <time>2018-04-26T08:24:44Z</time>
      </trkpt>
      <trkpt lat="44.4712" lon="5.59948">
        <ele>1433.46</ele>
        <time>2018-04-26T08:24:46Z</time>
      </trkpt>
      <trkpt lat="44.47126" lon="5.59935">
        <ele>1432.98</ele>
        <time>2018-04-26T08:24:53Z</time>
      </trkpt>
      <trkpt lat="44.47139" lon="5.59922">
        <ele>1432.5</ele>
        <time>2018-04-26T08:25:04Z</time>
      </trkpt>
      <trkpt lat="44.47141" lon="5.59916">
        <ele>1432.98</ele>
        <time>2018-04-26T08:25:10Z</time>
      </trkpt>
      <trkpt lat="44.47148" lon="5.59906">
        <ele>1432.98</ele>
        <time>2018-04-26T08:25:21Z</time>
      </trkpt>
      <trkpt lat="44.47158" lon="5.59889">
        <ele>1434.42</ele>
        <time>2018-04-26T08:25:35Z</time>
      </trkpt>
      <trkpt lat="44.47164" lon="5.59883">
        <ele>1434.42</ele>
        <time>2018-04-26T08:25:43Z</time>
      </trkpt>
      <trkpt lat="44.47166" lon="5.5988">
        <ele>1432.98</ele>
        <time>2018-04-26T08:25:45Z</time>
      </trkpt>
      <trkpt lat="44.47168" lon="5.59875">
        <ele>1436.35</ele>
        <time>2018-04-26T08:25:49Z</time>
      </trkpt>
      <trkpt lat="44.47177" lon="5.59863">
        <ele>1439.23</ele>
        <time>2018-04-26T08:25:58Z</time>
      </trkpt>
      <trkpt lat="44.47178" lon="5.59862">
        <ele>1438.75</ele>
        <time>2018-04-26T08:25:59Z</time>
      </trkpt>
      <trkpt lat="44.47178" lon="5.59861">
        <ele>1433.46</ele>
        <time>2018-04-26T08:26:00Z</time>
      </trkpt>
      <trkpt lat="44.47181" lon="5.59857">
        <ele>1433.46</ele>
        <time>2018-04-26T08:26:03Z</time>
      </trkpt>
      <trkpt lat="44.47182" lon="5.59856">
        <ele>1437.31</ele>
        <time>2018-04-26T08:26:04Z</time>
      </trkpt>
      <trkpt lat="44.47183" lon="5.59847">
        <ele>1440.19</ele>
        <time>2018-04-26T08:26:14Z</time>
      </trkpt>
      <trkpt lat="44.47183" lon="5.59847">
        <ele>1434.91</ele>
        <time>2018-04-26T08:26:15Z</time>
      </trkpt>
      <trkpt lat="44.47183" lon="5.59846">
        <ele>1438.75</ele>
        <time>2018-04-26T08:26:16Z</time>
      </trkpt>
      <trkpt lat="44.47185" lon="5.59842">
        <ele>1435.39</ele>
        <time>2018-04-26T08:26:18Z</time>
      </trkpt>
      <trkpt lat="44.47186" lon="5.59841">
        <ele>1438.75</ele>
        <time>2018-04-26T08:26:19Z</time>
      </trkpt>
      <trkpt lat="44.47185" lon="5.59829">
        <ele>1440.19</ele>
        <time>2018-04-26T08:26:30Z</time>
      </trkpt>
      <trkpt lat="44.47184" lon="5.59818">
        <ele>1440.67</ele>
        <time>2018-04-26T08:26:41Z</time>
      </trkpt>
      <trkpt lat="44.47182" lon="5.59796">
        <ele>1441.63</ele>
        <time>2018-04-26T08:26:55Z</time>
      </trkpt>
      <trkpt lat="44.47179" lon="5.59779">
        <ele>1441.63</ele>
        <time>2018-04-26T08:27:06Z</time>
      </trkpt>
      <trkpt lat="44.47172" lon="5.59767">
        <ele>1441.15</ele>
        <time>2018-04-26T08:27:17Z</time>
      </trkpt>
      <trkpt lat="44.47169" lon="5.59757">
        <ele>1442.11</ele>
        <time>2018-04-26T08:27:25Z</time>
      </trkpt>
      <trkpt lat="44.47169" lon="5.59756">
        <ele>1441.63</ele>
        <time>2018-04-26T08:27:26Z</time>
      </trkpt>
      <trkpt lat="44.47166" lon="5.59746">
        <ele>1441.15</ele>
        <time>2018-04-26T08:27:32Z</time>
      </trkpt>
      <trkpt lat="44.47163" lon="5.59738">
        <ele>1437.79</ele>
        <time>2018-04-26T08:27:38Z</time>
      </trkpt>
      <trkpt lat="44.47164" lon="5.59737">
        <ele>1442.6</ele>
        <time>2018-04-26T08:27:39Z</time>
      </trkpt>
      <trkpt lat="44.47162" lon="5.5973">
        <ele>1439.71</ele>
        <time>2018-04-26T08:27:45Z</time>
      </trkpt>
      <trkpt lat="44.47161" lon="5.59726">
        <ele>1440.19</ele>
        <time>2018-04-26T08:27:48Z</time>
      </trkpt>
      <trkpt lat="44.47162" lon="5.59714">
        <ele>1439.71</ele>
        <time>2018-04-26T08:27:58Z</time>
      </trkpt>
      <trkpt lat="44.47162" lon="5.59712">
        <ele>1444.04</ele>
        <time>2018-04-26T08:27:59Z</time>
      </trkpt>
      <trkpt lat="44.47162" lon="5.59709">
        <ele>1440.67</ele>
        <time>2018-04-26T08:28:01Z</time>
      </trkpt>
      <trkpt lat="44.47162" lon="5.59709">
        <ele>1443.56</ele>
        <time>2018-04-26T08:28:02Z</time>
      </trkpt>
      <trkpt lat="44.47176" lon="5.59699">
        <ele>1445</ele>
        <time>2018-04-26T08:28:16Z</time>
      </trkpt>
      <trkpt lat="44.47187" lon="5.59695">
        <ele>1444.04</ele>
        <time>2018-04-26T08:28:29Z</time>
      </trkpt>
      <trkpt lat="44.47197" lon="5.59693">
        <ele>1445.48</ele>
        <time>2018-04-26T08:28:41Z</time>
      </trkpt>
      <trkpt lat="44.47206" lon="5.59691">
        <ele>1446.92</ele>
        <time>2018-04-26T08:28:52Z</time>
      </trkpt>
      <trkpt lat="44.47207" lon="5.59691">
        <ele>1441.63</ele>
        <time>2018-04-26T08:28:53Z</time>
      </trkpt>
      <trkpt lat="44.47209" lon="5.5969">
        <ele>1445.96</ele>
        <time>2018-04-26T08:28:54Z</time>
      </trkpt>
      <trkpt lat="44.47212" lon="5.59688">
        <ele>1446.92</ele>
        <time>2018-04-26T08:29:00Z</time>
      </trkpt>
      <trkpt lat="44.47212" lon="5.59688">
        <ele>1443.56</ele>
        <time>2018-04-26T08:29:01Z</time>
      </trkpt>
      <trkpt lat="44.47213" lon="5.59688">
        <ele>1448.84</ele>
        <time>2018-04-26T08:29:03Z</time>
      </trkpt>
      <trkpt lat="44.47213" lon="5.59688">
        <ele>1442.11</ele>
        <time>2018-04-26T08:29:04Z</time>
      </trkpt>
      <trkpt lat="44.47213" lon="5.59688">
        <ele>1449.32</ele>
        <time>2018-04-26T08:29:05Z</time>
      </trkpt>
      <trkpt lat="44.47216" lon="5.59687">
        <ele>1445.48</ele>
        <time>2018-04-26T08:29:08Z</time>
      </trkpt>
      <trkpt lat="44.47217" lon="5.59686">
        <ele>1448.84</ele>
        <time>2018-04-26T08:29:09Z</time>
      </trkpt>
      <trkpt lat="44.4722" lon="5.59684">
        <ele>1449.32</ele>
        <time>2018-04-26T08:29:11Z</time>
      </trkpt>
      <trkpt lat="44.47223" lon="5.59682">
        <ele>1448.36</ele>
        <time>2018-04-26T08:29:13Z</time>
      </trkpt>
      <trkpt lat="44.47227" lon="5.59677">
        <ele>1447.4</ele>
        <time>2018-04-26T08:29:25Z</time>
      </trkpt>
      <trkpt lat="44.47228" lon="5.59677">
        <ele>1445.96</ele>
        <time>2018-04-26T08:29:35Z</time>
      </trkpt>
      <trkpt lat="44.47233" lon="5.59673">
        <ele>1447.88</ele>
        <time>2018-04-26T08:29:48Z</time>
      </trkpt>
      <trkpt lat="44.47234" lon="5.59673">
        <ele>1447.4</ele>
        <time>2018-04-26T08:30:05Z</time>
      </trkpt>
      <trkpt lat="44.47233" lon="5.59673">
        <ele>1447.4</ele>
        <time>2018-04-26T08:30:20Z</time>
      </trkpt>
      <trkpt lat="44.47236" lon="5.59672">
        <ele>1447.4</ele>
        <time>2018-04-26T08:30:36Z</time>
      </trkpt>
      <trkpt lat="44.47234" lon="5.59672">
        <ele>1447.88</ele>
        <time>2018-04-26T08:30:58Z</time>
      </trkpt>
      <trkpt lat="44.47235" lon="5.59672">
        <ele>1447.4</ele>
        <time>2018-04-26T08:31:17Z</time>
      </trkpt>
      <trkpt lat="44.47236" lon="5.59666">
        <ele>1447.4</ele>
        <time>2018-04-26T08:31:26Z</time>
      </trkpt>
      <trkpt lat="44.47237" lon="5.59663">
        <ele>1447.4</ele>
        <time>2018-04-26T08:31:35Z</time>
      </trkpt>
      <trkpt lat="44.47236" lon="5.59662">
        <ele>1447.88</ele>
        <time>2018-04-26T08:31:52Z</time>
      </trkpt>
      <trkpt lat="44.47236" lon="5.59658">
        <ele>1447.88</ele>
        <time>2018-04-26T08:32:06Z</time>
      </trkpt>
      <trkpt lat="44.47236" lon="5.59657">
        <ele>1447.88</ele>
        <time>2018-04-26T08:32:07Z</time>
      </trkpt>
      <trkpt lat="44.47238" lon="5.59649">
        <ele>1448.36</ele>
        <time>2018-04-26T08:32:14Z</time>
      </trkpt>
      <trkpt lat="44.47238" lon="5.5964">
        <ele>1449.32</ele>
        <time>2018-04-26T08:32:20Z</time>
      </trkpt>
      <trkpt lat="44.47237" lon="5.59631">
        <ele>1449.32</ele>
        <time>2018-04-26T08:32:27Z</time>
      </trkpt>
      <trkpt lat="44.47234" lon="5.59625">
        <ele>1449.81</ele>
        <time>2018-04-26T08:32:32Z</time>
      </trkpt>
      <trkpt lat="44.4723" lon="5.59617">
        <ele>1450.29</ele>
        <time>2018-04-26T08:32:40Z</time>
      </trkpt>
      <trkpt lat="44.47232" lon="5.59605">
        <ele>1449.81</ele>
        <time>2018-04-26T08:32:49Z</time>
      </trkpt>
      <trkpt lat="44.47232" lon="5.59594">
        <ele>1449.81</ele>
        <time>2018-04-26T08:32:55Z</time>
      </trkpt>
      <trkpt lat="44.47237" lon="5.5958">
        <ele>1448.84</ele>
        <time>2018-04-26T08:33:04Z</time>
      </trkpt>
      <trkpt lat="44.47237" lon="5.59579">
        <ele>1449.81</ele>
        <time>2018-04-26T08:33:05Z</time>
      </trkpt>
      <trkpt lat="44.47238" lon="5.59567">
        <ele>1448.84</ele>
        <time>2018-04-26T08:33:12Z</time>
      </trkpt>
      <trkpt lat="44.47242" lon="5.59561">
        <ele>1448.36</ele>
        <time>2018-04-26T08:33:17Z</time>
      </trkpt>
      <trkpt lat="44.47248" lon="5.59546">
        <ele>1447.4</ele>
        <time>2018-04-26T08:33:25Z</time>
      </trkpt>
      <trkpt lat="44.47251" lon="5.59535">
        <ele>1446.92</ele>
        <time>2018-04-26T08:33:33Z</time>
      </trkpt>
      <trkpt lat="44.47242" lon="5.59526">
        <ele>1445.96</ele>
        <time>2018-04-26T08:33:40Z</time>
      </trkpt>
      <trkpt lat="44.47242" lon="5.5951">
        <ele>1444.52</ele>
        <time>2018-04-26T08:33:50Z</time>
      </trkpt>
      <trkpt lat="44.47243" lon="5.59507">
        <ele>1444.52</ele>
        <time>2018-04-26T08:33:52Z</time>
      </trkpt>
      <trkpt lat="44.47238" lon="5.59496">
        <ele>1442.6</ele>
        <time>2018-04-26T08:33:59Z</time>
      </trkpt>
      <trkpt lat="44.47235" lon="5.59482">
        <ele>1441.63</ele>
        <time>2018-04-26T08:34:08Z</time>
      </trkpt>
      <trkpt lat="44.47235" lon="5.59481">
        <ele>1442.6</ele>
        <time>2018-04-26T08:34:09Z</time>
      </trkpt>
      <trkpt lat="44.47238" lon="5.59469">
        <ele>1441.15</ele>
        <time>2018-04-26T08:34:18Z</time>
      </trkpt>
      <trkpt lat="44.47243" lon="5.59457">
        <ele>1440.19</ele>
        <time>2018-04-26T08:34:28Z</time>
      </trkpt>
      <trkpt lat="44.47245" lon="5.5944">
        <ele>1439.71</ele>
        <time>2018-04-26T08:34:39Z</time>
      </trkpt>
      <trkpt lat="44.47245" lon="5.59428">
        <ele>1439.71</ele>
        <time>2018-04-26T08:34:48Z</time>
      </trkpt>
      <trkpt lat="44.4725" lon="5.59419">
        <ele>1438.27</ele>
        <time>2018-04-26T08:34:53Z</time>
      </trkpt>
      <trkpt lat="44.47255" lon="5.59409">
        <ele>1438.27</ele>
        <time>2018-04-26T08:34:59Z</time>
      </trkpt>
      <trkpt lat="44.47261" lon="5.59394">
        <ele>1437.31</ele>
        <time>2018-04-26T08:35:10Z</time>
      </trkpt>
      <trkpt lat="44.47261" lon="5.59375">
        <ele>1436.35</ele>
        <time>2018-04-26T08:35:21Z</time>
      </trkpt>
      <trkpt lat="44.47262" lon="5.59367">
        <ele>1436.35</ele>
        <time>2018-04-26T08:35:27Z</time>
      </trkpt>
      <trkpt lat="44.47275" lon="5.5935">
        <ele>1436.35</ele>
        <time>2018-04-26T08:35:39Z</time>
      </trkpt>
      <trkpt lat="44.47288" lon="5.59333">
        <ele>1435.39</ele>
        <time>2018-04-26T08:35:52Z</time>
      </trkpt>
      <trkpt lat="44.47291" lon="5.59315">
        <ele>1434.42</ele>
        <time>2018-04-26T08:36:03Z</time>
      </trkpt>
      <trkpt lat="44.47293" lon="5.593">
        <ele>1433.94</ele>
        <time>2018-04-26T08:36:14Z</time>
      </trkpt>
      <trkpt lat="44.47294" lon="5.59301">
        <ele>1433.94</ele>
        <time>2018-04-26T08:36:29Z</time>
      </trkpt>
      <trkpt lat="44.47294" lon="5.59302">
        <ele>1433.94</ele>
        <time>2018-04-26T08:36:47Z</time>
      </trkpt>
      <trkpt lat="44.47292" lon="5.59297">
        <ele>1433.46</ele>
        <time>2018-04-26T08:36:59Z</time>
      </trkpt>
      <trkpt lat="44.47292" lon="5.59282">
        <ele>1432.98</ele>
        <time>2018-04-26T08:37:09Z</time>
      </trkpt>
      <trkpt lat="44.47292" lon="5.5928">
        <ele>1432.5</ele>
        <time>2018-04-26T08:37:10Z</time>
      </trkpt>
      <trkpt lat="44.47292" lon="5.59273">
        <ele>1433.94</ele>
        <time>2018-04-26T08:37:13Z</time>
      </trkpt>
      <trkpt lat="44.47291" lon="5.59268">
        <ele>1433.94</ele>
        <time>2018-04-26T08:37:18Z</time>
      </trkpt>
      <trkpt lat="44.47292" lon="5.59256">
        <ele>1432.98</ele>
        <time>2018-04-26T08:37:25Z</time>
      </trkpt>
      <trkpt lat="44.47288" lon="5.59243">
        <ele>1431.06</ele>
        <time>2018-04-26T08:37:33Z</time>
      </trkpt>
      <trkpt lat="44.47281" lon="5.59231">
        <ele>1432.02</ele>
        <time>2018-04-26T08:37:42Z</time>
      </trkpt>
      <trkpt lat="44.47281" lon="5.59215">
        <ele>1430.1</ele>
        <time>2018-04-26T08:37:52Z</time>
      </trkpt>
      <trkpt lat="44.47282" lon="5.59213">
        <ele>1430.58</ele>
        <time>2018-04-26T08:37:53Z</time>
      </trkpt>
      <trkpt lat="44.47284" lon="5.59199">
        <ele>1430.58</ele>
        <time>2018-04-26T08:38:02Z</time>
      </trkpt>
      <trkpt lat="44.47281" lon="5.59189">
        <ele>1429.62</ele>
        <time>2018-04-26T08:38:07Z</time>
      </trkpt>
      <trkpt lat="44.47277" lon="5.59173">
        <ele>1429.14</ele>
        <time>2018-04-26T08:38:15Z</time>
      </trkpt>
      <trkpt lat="44.47278" lon="5.59169">
        <ele>1430.1</ele>
        <time>2018-04-26T08:38:17Z</time>
      </trkpt>
      <trkpt lat="44.47275" lon="5.59161">
        <ele>1429.14</ele>
        <time>2018-04-26T08:38:30Z</time>
      </trkpt>
      <trkpt lat="44.47278" lon="5.59158">
        <ele>1429.62</ele>
        <time>2018-04-26T08:38:49Z</time>
      </trkpt>
      <trkpt lat="44.47283" lon="5.59157">
        <ele>1429.14</ele>
        <time>2018-04-26T08:39:03Z</time>
      </trkpt>
      <trkpt lat="44.47291" lon="5.59154">
        <ele>1429.62</ele>
        <time>2018-04-26T08:39:26Z</time>
      </trkpt>
      <trkpt lat="44.47299" lon="5.59148">
        <ele>1429.14</ele>
        <time>2018-04-26T08:39:44Z</time>
      </trkpt>
      <trkpt lat="44.473" lon="5.59148">
        <ele>1428.66</ele>
        <time>2018-04-26T08:39:48Z</time>
      </trkpt>
      <trkpt lat="44.47297" lon="5.59143">
        <ele>1427.21</ele>
        <time>2018-04-26T08:39:54Z</time>
      </trkpt>
      <trkpt lat="44.47297" lon="5.59133">
        <ele>1426.73</ele>
        <time>2018-04-26T08:40:01Z</time>
      </trkpt>
      <trkpt lat="44.47298" lon="5.59129">
        <ele>1428.18</ele>
        <time>2018-04-26T08:40:03Z</time>
      </trkpt>
      <trkpt lat="44.47295" lon="5.59118">
        <ele>1425.77</ele>
        <time>2018-04-26T08:40:09Z</time>
      </trkpt>
      <trkpt lat="44.47296" lon="5.59111">
        <ele>1427.21</ele>
        <time>2018-04-26T08:40:12Z</time>
      </trkpt>
      <trkpt lat="44.47296" lon="5.59106">
        <ele>1425.77</ele>
        <time>2018-04-26T08:40:15Z</time>
      </trkpt>
      <trkpt lat="44.47295" lon="5.59102">
        <ele>1426.73</ele>
        <time>2018-04-26T08:40:17Z</time>
      </trkpt>
      <trkpt lat="44.47295" lon="5.59092">
        <ele>1425.77</ele>
        <time>2018-04-26T08:40:23Z</time>
      </trkpt>
      <trkpt lat="44.47296" lon="5.59075">
        <ele>1427.21</ele>
        <time>2018-04-26T08:40:33Z</time>
      </trkpt>
      <trkpt lat="44.47297" lon="5.5907">
        <ele>1425.77</ele>
        <time>2018-04-26T08:40:36Z</time>
      </trkpt>
      <trkpt lat="44.47297" lon="5.59068">
        <ele>1427.21</ele>
        <time>2018-04-26T08:40:37Z</time>
      </trkpt>
      <trkpt lat="44.47302" lon="5.59052">
        <ele>1427.21</ele>
        <time>2018-04-26T08:40:47Z</time>
      </trkpt>
      <trkpt lat="44.47303" lon="5.59048">
        <ele>1426.25</ele>
        <time>2018-04-26T08:40:49Z</time>
      </trkpt>
      <trkpt lat="44.47304" lon="5.59044">
        <ele>1428.66</ele>
        <time>2018-04-26T08:40:51Z</time>
      </trkpt>
      <trkpt lat="44.47304" lon="5.59021">
        <ele>1426.25</ele>
        <time>2018-04-26T08:41:03Z</time>
      </trkpt>
      <trkpt lat="44.47307" lon="5.5901">
        <ele>1424.81</ele>
        <time>2018-04-26T08:41:09Z</time>
      </trkpt>
      <trkpt lat="44.47307" lon="5.58999">
        <ele>1423.37</ele>
        <time>2018-04-26T08:41:16Z</time>
      </trkpt>
      <trkpt lat="44.47307" lon="5.58987">
        <ele>1423.37</ele>
        <time>2018-04-26T08:41:23Z</time>
      </trkpt>
      <trkpt lat="44.47308" lon="5.58978">
        <ele>1424.33</ele>
        <time>2018-04-26T08:41:27Z</time>
      </trkpt>
      <trkpt lat="44.47309" lon="5.58971">
        <ele>1422.89</ele>
        <time>2018-04-26T08:41:31Z</time>
      </trkpt>
      <trkpt lat="44.47313" lon="5.58949">
        <ele>1422.89</ele>
        <time>2018-04-26T08:41:44Z</time>
      </trkpt>
      <trkpt lat="44.4732" lon="5.58931">
        <ele>1422.41</ele>
        <time>2018-04-26T08:41:57Z</time>
      </trkpt>
      <trkpt lat="44.47325" lon="5.58921">
        <ele>1422.89</ele>
        <time>2018-04-26T08:42:10Z</time>
      </trkpt>
      <trkpt lat="44.47325" lon="5.5892">
        <ele>1422.89</ele>
        <time>2018-04-26T08:42:11Z</time>
      </trkpt>
      <trkpt lat="44.47327" lon="5.5892">
        <ele>1422.41</ele>
        <time>2018-04-26T08:42:13Z</time>
      </trkpt>
      <trkpt lat="44.47332" lon="5.58921">
        <ele>1420</ele>
        <time>2018-04-26T08:42:17Z</time>
      </trkpt>
      <trkpt lat="44.47335" lon="5.58921">
        <ele>1419.04</ele>
        <time>2018-04-26T08:42:31Z</time>
      </trkpt>
      <trkpt lat="44.47333" lon="5.5892">
        <ele>1419.52</ele>
        <time>2018-04-26T08:42:47Z</time>
      </trkpt>
      <trkpt lat="44.47336" lon="5.58909">
        <ele>1420.49</ele>
        <time>2018-04-26T08:42:53Z</time>
      </trkpt>
      <trkpt lat="44.47336" lon="5.58908">
        <ele>1416.64</ele>
        <time>2018-04-26T08:42:54Z</time>
      </trkpt>
      <trkpt lat="44.47337" lon="5.58906">
        <ele>1420</ele>
        <time>2018-04-26T08:42:55Z</time>
      </trkpt>
      <trkpt lat="44.47339" lon="5.589">
        <ele>1418.56</ele>
        <time>2018-04-26T08:43:08Z</time>
      </trkpt>
      <trkpt lat="44.47336" lon="5.58901">
        <ele>1421.45</ele>
        <time>2018-04-26T08:43:11Z</time>
      </trkpt>
      <trkpt lat="44.47335" lon="5.58901">
        <ele>1417.12</ele>
        <time>2018-04-26T08:43:12Z</time>
      </trkpt>
      <trkpt lat="44.47335" lon="5.58902">
        <ele>1421.45</ele>
        <time>2018-04-26T08:43:13Z</time>
      </trkpt>
      <trkpt lat="44.4733" lon="5.58897">
        <ele>1422.89</ele>
        <time>2018-04-26T08:43:20Z</time>
      </trkpt>
      <trkpt lat="44.47332" lon="5.58889">
        <ele>1421.45</ele>
        <time>2018-04-26T08:43:27Z</time>
      </trkpt>
      <trkpt lat="44.47332" lon="5.58886">
        <ele>1422.89</ele>
        <time>2018-04-26T08:43:29Z</time>
      </trkpt>
      <trkpt lat="44.47329" lon="5.58871">
        <ele>1420.97</ele>
        <time>2018-04-26T08:43:40Z</time>
      </trkpt>
      <trkpt lat="44.4733" lon="5.58851">
        <ele>1419.04</ele>
        <time>2018-04-26T08:43:52Z</time>
      </trkpt>
      <trkpt lat="44.47339" lon="5.58847">
        <ele>1418.56</ele>
        <time>2018-04-26T08:44:04Z</time>
      </trkpt>
      <trkpt lat="44.47339" lon="5.58845">
        <ele>1419.04</ele>
        <time>2018-04-26T08:44:16Z</time>
      </trkpt>
      <trkpt lat="44.47341" lon="5.58844">
        <ele>1419.04</ele>
        <time>2018-04-26T08:44:34Z</time>
      </trkpt>
      <trkpt lat="44.47346" lon="5.58835">
        <ele>1419.04</ele>
        <time>2018-04-26T08:44:50Z</time>
      </trkpt>
      <trkpt lat="44.4735" lon="5.58815">
        <ele>1417.12</ele>
        <time>2018-04-26T08:45:04Z</time>
      </trkpt>
      <trkpt lat="44.47353" lon="5.58802">
        <ele>1417.6</ele>
        <time>2018-04-26T08:45:11Z</time>
      </trkpt>
      <trkpt lat="44.47354" lon="5.58785">
        <ele>1415.2</ele>
        <time>2018-04-26T08:45:22Z</time>
      </trkpt>
      <trkpt lat="44.47354" lon="5.5878">
        <ele>1417.12</ele>
        <time>2018-04-26T08:45:25Z</time>
      </trkpt>
      <trkpt lat="44.47354" lon="5.58776">
        <ele>1416.16</ele>
        <time>2018-04-26T08:45:28Z</time>
      </trkpt>
      <trkpt lat="44.47354" lon="5.58772">
        <ele>1414.72</ele>
        <time>2018-04-26T08:45:30Z</time>
      </trkpt>
      <trkpt lat="44.47355" lon="5.5877">
        <ele>1415.68</ele>
        <time>2018-04-26T08:45:31Z</time>
      </trkpt>
      <trkpt lat="44.47356" lon="5.58765">
        <ele>1416.64</ele>
        <time>2018-04-26T08:45:33Z</time>
      </trkpt>
      <trkpt lat="44.4736" lon="5.58753">
        <ele>1416.16</ele>
        <time>2018-04-26T08:45:39Z</time>
      </trkpt>
      <trkpt lat="44.47362" lon="5.58734">
        <ele>1415.2</ele>
        <time>2018-04-26T08:45:52Z</time>
      </trkpt>
      <trkpt lat="44.47362" lon="5.58724">
        <ele>1414.24</ele>
        <time>2018-04-26T08:45:57Z</time>
      </trkpt>
      <trkpt lat="44.47362" lon="5.58716">
        <ele>1415.2</ele>
        <time>2018-04-26T08:46:07Z</time>
      </trkpt>
      <trkpt lat="44.47365" lon="5.58702">
        <ele>1412.31</ele>
        <time>2018-04-26T08:46:19Z</time>
      </trkpt>
      <trkpt lat="44.47367" lon="5.58693">
        <ele>1412.79</ele>
        <time>2018-04-26T08:46:31Z</time>
      </trkpt>
      <trkpt lat="44.47369" lon="5.58686">
        <ele>1413.28</ele>
        <time>2018-04-26T08:46:37Z</time>
      </trkpt>
      <trkpt lat="44.47375" lon="5.58665">
        <ele>1413.28</ele>
        <time>2018-04-26T08:46:49Z</time>
      </trkpt>
      <trkpt lat="44.47378" lon="5.58649">
        <ele>1413.28</ele>
        <time>2018-04-26T08:46:59Z</time>
      </trkpt>
      <trkpt lat="44.47379" lon="5.58648">
        <ele>1413.28</ele>
        <time>2018-04-26T08:47:00Z</time>
      </trkpt>
      <trkpt lat="44.47379" lon="5.58647">
        <ele>1410.39</ele>
        <time>2018-04-26T08:47:01Z</time>
      </trkpt>
      <trkpt lat="44.47379" lon="5.58645">
        <ele>1410.87</ele>
        <time>2018-04-26T08:47:03Z</time>
      </trkpt>
      <trkpt lat="44.4738" lon="5.58636">
        <ele>1413.76</ele>
        <time>2018-04-26T08:47:09Z</time>
      </trkpt>
      <trkpt lat="44.47384" lon="5.5862">
        <ele>1412.31</ele>
        <time>2018-04-26T08:47:19Z</time>
      </trkpt>
      <trkpt lat="44.47384" lon="5.58615">
        <ele>1415.2</ele>
        <time>2018-04-26T08:47:22Z</time>
      </trkpt>
      <trkpt lat="44.47385" lon="5.58614">
        <ele>1412.31</ele>
        <time>2018-04-26T08:47:23Z</time>
      </trkpt>
      <trkpt lat="44.47388" lon="5.58605">
        <ele>1414.24</ele>
        <time>2018-04-26T08:47:30Z</time>
      </trkpt>
      <trkpt lat="44.47394" lon="5.58588">
        <ele>1413.28</ele>
        <time>2018-04-26T08:47:43Z</time>
      </trkpt>
      <trkpt lat="44.47399" lon="5.58573">
        <ele>1415.2</ele>
        <time>2018-04-26T08:47:53Z</time>
      </trkpt>
      <trkpt lat="44.47402" lon="5.58556">
        <ele>1413.28</ele>
        <time>2018-04-26T08:48:04Z</time>
      </trkpt>
      <trkpt lat="44.47401" lon="5.58552">
        <ele>1416.64</ele>
        <time>2018-04-26T08:48:06Z</time>
      </trkpt>
      <trkpt lat="44.474" lon="5.58551">
        <ele>1416.16</ele>
        <time>2018-04-26T08:48:07Z</time>
      </trkpt>
      <trkpt lat="44.47399" lon="5.58542">
        <ele>1415.2</ele>
        <time>2018-04-26T08:48:17Z</time>
      </trkpt>
      <trkpt lat="44.47398" lon="5.58542">
        <ele>1414.72</ele>
        <time>2018-04-26T08:48:34Z</time>
      </trkpt>
      <trkpt lat="44.47396" lon="5.58541">
        <ele>1414.72</ele>
        <time>2018-04-26T08:48:55Z</time>
      </trkpt>
      <trkpt lat="44.47398" lon="5.58536">
        <ele>1414.24</ele>
        <time>2018-04-26T08:49:00Z</time>
      </trkpt>
      <trkpt lat="44.474" lon="5.58524">
        <ele>1413.76</ele>
        <time>2018-04-26T08:49:10Z</time>
      </trkpt>
      <trkpt lat="44.47401" lon="5.58521">
        <ele>1412.31</ele>
        <time>2018-04-26T08:49:13Z</time>
      </trkpt>
      <trkpt lat="44.47407" lon="5.58506">
        <ele>1411.83</ele>
        <time>2018-04-26T08:49:24Z</time>
      </trkpt>
      <trkpt lat="44.47409" lon="5.58491">
        <ele>1411.35</ele>
        <time>2018-04-26T08:49:33Z</time>
      </trkpt>
      <trkpt lat="44.4741" lon="5.58488">
        <ele>1410.39</ele>
        <time>2018-04-26T08:49:36Z</time>
      </trkpt>
      <trkpt lat="44.47409" lon="5.58474">
        <ele>1409.43</ele>
        <time>2018-04-26T08:49:43Z</time>
      </trkpt>
      <trkpt lat="44.47404" lon="5.58456">
        <ele>1408.47</ele>
        <time>2018-04-26T08:49:57Z</time>
      </trkpt>
      <trkpt lat="44.47409" lon="5.58433">
        <ele>1407.99</ele>
        <time>2018-04-26T08:50:11Z</time>
      </trkpt>
      <trkpt lat="44.47417" lon="5.58423">
        <ele>1405.58</ele>
        <time>2018-04-26T08:50:23Z</time>
      </trkpt>
      <trkpt lat="44.47426" lon="5.58399">
        <ele>1405.1</ele>
        <time>2018-04-26T08:50:37Z</time>
      </trkpt>
      <trkpt lat="44.47433" lon="5.58382">
        <ele>1403.18</ele>
        <time>2018-04-26T08:50:49Z</time>
      </trkpt>
      <trkpt lat="44.47438" lon="5.58366">
        <ele>1401.74</ele>
        <time>2018-04-26T08:51:01Z</time>
      </trkpt>
      <trkpt lat="44.47434" lon="5.58352">
        <ele>1401.26</ele>
        <time>2018-04-26T08:51:11Z</time>
      </trkpt>
      <trkpt lat="44.4743" lon="5.58341">
        <ele>1399.34</ele>
        <time>2018-04-26T08:51:19Z</time>
      </trkpt>
      <trkpt lat="44.47431" lon="5.58334">
        <ele>1400.3</ele>
        <time>2018-04-26T08:51:29Z</time>
      </trkpt>
      <trkpt lat="44.47432" lon="5.58334">
        <ele>1399.34</ele>
        <time>2018-04-26T08:51:32Z</time>
      </trkpt>
      <trkpt lat="44.47431" lon="5.58321">
        <ele>1398.86</ele>
        <time>2018-04-26T08:51:44Z</time>
      </trkpt>
      <trkpt lat="44.47441" lon="5.58306">
        <ele>1397.41</ele>
        <time>2018-04-26T08:51:59Z</time>
      </trkpt>
      <trkpt lat="44.47442" lon="5.58304">
        <ele>1397.89</ele>
        <time>2018-04-26T08:52:00Z</time>
      </trkpt>
      <trkpt lat="44.47454" lon="5.58285">
        <ele>1394.53</ele>
        <time>2018-04-26T08:52:16Z</time>
      </trkpt>
      <trkpt lat="44.47457" lon="5.58279">
        <ele>1394.53</ele>
        <time>2018-04-26T08:52:20Z</time>
      </trkpt>
      <trkpt lat="44.47462" lon="5.58265">
        <ele>1393.57</ele>
        <time>2018-04-26T08:52:26Z</time>
      </trkpt>
      <trkpt lat="44.47463" lon="5.58262">
        <ele>1393.57</ele>
        <time>2018-04-26T08:52:27Z</time>
      </trkpt>
      <trkpt lat="44.47463" lon="5.58245">
        <ele>1392.13</ele>
        <time>2018-04-26T08:52:33Z</time>
      </trkpt>
      <trkpt lat="44.47459" lon="5.58234">
        <ele>1392.61</ele>
        <time>2018-04-26T08:52:40Z</time>
      </trkpt>
      <trkpt lat="44.47456" lon="5.5822">
        <ele>1390.68</ele>
        <time>2018-04-26T08:52:49Z</time>
      </trkpt>
      <trkpt lat="44.47457" lon="5.58217">
        <ele>1391.65</ele>
        <time>2018-04-26T08:52:51Z</time>
      </trkpt>
      <trkpt lat="44.47464" lon="5.58202">
        <ele>1390.2</ele>
        <time>2018-04-26T08:53:03Z</time>
      </trkpt>
      <trkpt lat="44.47468" lon="5.58187">
        <ele>1388.76</ele>
        <time>2018-04-26T08:53:14Z</time>
      </trkpt>
      <trkpt lat="44.47473" lon="5.58166">
        <ele>1388.28</ele>
        <time>2018-04-26T08:53:25Z</time>
      </trkpt>
      <trkpt lat="44.47475" lon="5.58159">
        <ele>1387.8</ele>
        <time>2018-04-26T08:53:29Z</time>
      </trkpt>
      <trkpt lat="44.47474" lon="5.58154">
        <ele>1386.36</ele>
        <time>2018-04-26T08:53:32Z</time>
      </trkpt>
      <trkpt lat="44.47476" lon="5.58137">
        <ele>1385.4</ele>
        <time>2018-04-26T08:53:43Z</time>
      </trkpt>
      <trkpt lat="44.4747" lon="5.58129">
        <ele>1384.92</ele>
        <time>2018-04-26T08:53:54Z</time>
      </trkpt>
      <trkpt lat="44.47473" lon="5.58126">
        <ele>1384.92</ele>
        <time>2018-04-26T08:54:04Z</time>
      </trkpt>
      <trkpt lat="44.47471" lon="5.58113">
        <ele>1383.47</ele>
        <time>2018-04-26T08:54:13Z</time>
      </trkpt>
      <trkpt lat="44.47471" lon="5.58106">
        <ele>1382.51</ele>
        <time>2018-04-26T08:54:18Z</time>
      </trkpt>
      <trkpt lat="44.47473" lon="5.58104">
        <ele>1383.47</ele>
        <time>2018-04-26T08:54:20Z</time>
      </trkpt>
      <trkpt lat="44.47479" lon="5.58096">
        <ele>1382.99</ele>
        <time>2018-04-26T08:54:27Z</time>
      </trkpt>
      <trkpt lat="44.47477" lon="5.58089">
        <ele>1382.51</ele>
        <time>2018-04-26T08:54:41Z</time>
      </trkpt>
      <trkpt lat="44.47476" lon="5.58088">
        <ele>1382.03</ele>
        <time>2018-04-26T08:54:52Z</time>
      </trkpt>
      <trkpt lat="44.47477" lon="5.58084">
        <ele>1382.51</ele>
        <time>2018-04-26T08:55:15Z</time>
      </trkpt>
      <trkpt lat="44.47476" lon="5.58084">
        <ele>1382.03</ele>
        <time>2018-04-26T08:55:38Z</time>
      </trkpt>
      <trkpt lat="44.47478" lon="5.58082">
        <ele>1382.03</ele>
        <time>2018-04-26T08:55:58Z</time>
      </trkpt>
      <trkpt lat="44.47483" lon="5.58061">
        <ele>1382.51</ele>
        <time>2018-04-26T08:56:12Z</time>
      </trkpt>
      <trkpt lat="44.47485" lon="5.58042">
        <ele>1381.55</ele>
        <time>2018-04-26T08:56:22Z</time>
      </trkpt>
      <trkpt lat="44.47484" lon="5.58032">
        <ele>1382.03</ele>
        <time>2018-04-26T08:56:28Z</time>
      </trkpt>
      <trkpt lat="44.47485" lon="5.58022">
        <ele>1381.07</ele>
        <time>2018-04-26T08:56:33Z</time>
      </trkpt>
      <trkpt lat="44.47478" lon="5.58006">
        <ele>1379.63</ele>
        <time>2018-04-26T08:56:42Z</time>
      </trkpt>
      <trkpt lat="44.47475" lon="5.58">
        <ele>1381.07</ele>
        <time>2018-04-26T08:56:45Z</time>
      </trkpt>
      <trkpt lat="44.47476" lon="5.5799">
        <ele>1380.11</ele>
        <time>2018-04-26T08:56:50Z</time>
      </trkpt>
      <trkpt lat="44.47479" lon="5.57981">
        <ele>1379.15</ele>
        <time>2018-04-26T08:56:57Z</time>
      </trkpt>
      <trkpt lat="44.47479" lon="5.57971">
        <ele>1378.67</ele>
        <time>2018-04-26T08:57:03Z</time>
      </trkpt>
      <trkpt lat="44.47482" lon="5.57953">
        <ele>1377.71</ele>
        <time>2018-04-26T08:57:15Z</time>
      </trkpt>
      <trkpt lat="44.47475" lon="5.57961">
        <ele>1378.67</ele>
        <time>2018-04-26T08:57:27Z</time>
      </trkpt>
      <trkpt lat="44.47477" lon="5.57963">
        <ele>1378.67</ele>
        <time>2018-04-26T08:57:42Z</time>
      </trkpt>
      <trkpt lat="44.47479" lon="5.57963">
        <ele>1379.15</ele>
        <time>2018-04-26T08:57:57Z</time>
      </trkpt>
      <trkpt lat="44.4748" lon="5.57963">
        <ele>1379.15</ele>
        <time>2018-04-26T08:58:16Z</time>
      </trkpt>
      <trkpt lat="44.47479" lon="5.57964">
        <ele>1379.15</ele>
        <time>2018-04-26T08:58:33Z</time>
      </trkpt>
      <trkpt lat="44.47477" lon="5.57979">
        <ele>1380.11</ele>
        <time>2018-04-26T08:58:45Z</time>
      </trkpt>
      <trkpt lat="44.47472" lon="5.58001">
        <ele>1380.59</ele>
        <time>2018-04-26T08:59:01Z</time>
      </trkpt>
      <trkpt lat="44.47477" lon="5.58024">
        <ele>1381.07</ele>
        <time>2018-04-26T08:59:17Z</time>
      </trkpt>
      <trkpt lat="44.47472" lon="5.58038">
        <ele>1382.03</ele>
        <time>2018-04-26T08:59:29Z</time>
      </trkpt>
      <trkpt lat="44.47476" lon="5.58064">
        <ele>1382.03</ele>
        <time>2018-04-26T08:59:45Z</time>
      </trkpt>
      <trkpt lat="44.47477" lon="5.58078">
        <ele>1382.03</ele>
        <time>2018-04-26T08:59:59Z</time>
      </trkpt>
      <trkpt lat="44.47479" lon="5.58085">
        <ele>1382.51</ele>
        <time>2018-04-26T09:00:09Z</time>
      </trkpt>
      <trkpt lat="44.4748" lon="5.58086">
        <ele>1382.51</ele>
        <time>2018-04-26T09:00:24Z</time>
      </trkpt>
      <trkpt lat="44.47479" lon="5.58085">
        <ele>1382.99</ele>
        <time>2018-04-26T09:00:41Z</time>
      </trkpt>
      <trkpt lat="44.47474" lon="5.58093">
        <ele>1384.92</ele>
        <time>2018-04-26T09:00:53Z</time>
      </trkpt>
      <trkpt lat="44.47468" lon="5.58095">
        <ele>1387.32</ele>
        <time>2018-04-26T09:01:04Z</time>
      </trkpt>
      <trkpt lat="44.47461" lon="5.58097">
        <ele>1389.72</ele>
        <time>2018-04-26T09:01:17Z</time>
      </trkpt>
      <trkpt lat="44.47457" lon="5.58094">
        <ele>1390.68</ele>
        <time>2018-04-26T09:01:29Z</time>
      </trkpt>
      <trkpt lat="44.47456" lon="5.58094">
        <ele>1393.57</ele>
        <time>2018-04-26T09:01:31Z</time>
      </trkpt>
      <trkpt lat="44.47456" lon="5.58094">
        <ele>1389.24</ele>
        <time>2018-04-26T09:01:34Z</time>
      </trkpt>
      <trkpt lat="44.47456" lon="5.58094">
        <ele>1393.57</ele>
        <time>2018-04-26T09:01:35Z</time>
      </trkpt>
      <trkpt lat="44.47456" lon="5.58094">
        <ele>1389.24</ele>
        <time>2018-04-26T09:01:36Z</time>
      </trkpt>
      <trkpt lat="44.47456" lon="5.58094">
        <ele>1393.57</ele>
        <time>2018-04-26T09:01:37Z</time>
      </trkpt>
      <trkpt lat="44.47454" lon="5.58095">
        <ele>1396.45</ele>
        <time>2018-04-26T09:01:41Z</time>
      </trkpt>
      <trkpt lat="44.47454" lon="5.58095">
        <ele>1389.72</ele>
        <time>2018-04-26T09:01:42Z</time>
      </trkpt>
      <trkpt lat="44.47454" lon="5.58095">
        <ele>1395.49</ele>
        <time>2018-04-26T09:01:43Z</time>
      </trkpt>
      <trkpt lat="44.47454" lon="5.58095">
        <ele>1392.61</ele>
        <time>2018-04-26T09:01:44Z</time>
      </trkpt>
      <trkpt lat="44.47454" lon="5.58096">
        <ele>1397.89</ele>
        <time>2018-04-26T09:01:46Z</time>
      </trkpt>
      <trkpt lat="44.47454" lon="5.58096">
        <ele>1391.65</ele>
        <time>2018-04-26T09:01:47Z</time>
      </trkpt>
      <trkpt lat="44.47454" lon="5.58096">
        <ele>1395.97</ele>
        <time>2018-04-26T09:01:48Z</time>
      </trkpt>
      <trkpt lat="44.47454" lon="5.58096">
        <ele>1391.65</ele>
        <time>2018-04-26T09:01:49Z</time>
      </trkpt>
      <trkpt lat="44.47454" lon="5.58096">
        <ele>1395.97</ele>
        <time>2018-04-26T09:01:50Z</time>
      </trkpt>
      <trkpt lat="44.47454" lon="5.58096">
        <ele>1392.61</ele>
        <time>2018-04-26T09:01:56Z</time>
      </trkpt>
      <trkpt lat="44.47454" lon="5.58096">
        <ele>1396.45</ele>
        <time>2018-04-26T09:01:57Z</time>
      </trkpt>
      <trkpt lat="44.47454" lon="5.58096">
        <ele>1393.09</ele>
        <time>2018-04-26T09:01:58Z</time>
      </trkpt>
      <trkpt lat="44.47454" lon="5.58096">
        <ele>1396.93</ele>
        <time>2018-04-26T09:01:59Z</time>
      </trkpt>
      <trkpt lat="44.47448" lon="5.5809">
        <ele>1397.41</ele>
        <time>2018-04-26T09:02:10Z</time>
      </trkpt>
      <trkpt lat="44.47444" lon="5.58088">
        <ele>1395.97</ele>
        <time>2018-04-26T09:02:28Z</time>
      </trkpt>
      <trkpt lat="44.47436" lon="5.58086">
        <ele>1398.86</ele>
        <time>2018-04-26T09:02:43Z</time>
      </trkpt>
      <trkpt lat="44.47429" lon="5.58081">
        <ele>1397.41</ele>
        <time>2018-04-26T09:02:57Z</time>
      </trkpt>
      <trkpt lat="44.47429" lon="5.58081">
        <ele>1397.41</ele>
        <time>2018-04-26T09:03:17Z</time>
      </trkpt>
      <trkpt lat="44.47428" lon="5.58079">
        <ele>1396.93</ele>
        <time>2018-04-26T09:03:27Z</time>
      </trkpt>
      <trkpt lat="44.47427" lon="5.58078">
        <ele>1397.89</ele>
        <time>2018-04-26T09:03:29Z</time>
      </trkpt>
      <trkpt lat="44.4743" lon="5.58078">
        <ele>1398.37</ele>
        <time>2018-04-26T09:03:44Z</time>
      </trkpt>
      <trkpt lat="44.47432" lon="5.58079">
        <ele>1397.41</ele>
        <time>2018-04-26T09:03:59Z</time>
      </trkpt>
      <trkpt lat="44.47437" lon="5.58071">
        <ele>1397.89</ele>
        <time>2018-04-26T09:04:13Z</time>
      </trkpt>
      <trkpt lat="44.47437" lon="5.58065">
        <ele>1395.97</ele>
        <time>2018-04-26T09:04:18Z</time>
      </trkpt>
      <trkpt lat="44.47436" lon="5.58052">
        <ele>1395.97</ele>
        <time>2018-04-26T09:04:29Z</time>
      </trkpt>
      <trkpt lat="44.47442" lon="5.58037">
        <ele>1396.45</ele>
        <time>2018-04-26T09:04:41Z</time>
      </trkpt>
      <trkpt lat="44.47444" lon="5.58032">
        <ele>1395.49</ele>
        <time>2018-04-26T09:04:52Z</time>
      </trkpt>
      <trkpt lat="44.47445" lon="5.58032">
        <ele>1395.49</ele>
        <time>2018-04-26T09:05:12Z</time>
      </trkpt>
      <trkpt lat="44.47445" lon="5.58031">
        <ele>1396.93</ele>
        <time>2018-04-26T09:05:13Z</time>
      </trkpt>
      <trkpt lat="44.47449" lon="5.58025">
        <ele>1395.01</ele>
        <time>2018-04-26T09:05:22Z</time>
      </trkpt>
      <trkpt lat="44.47448" lon="5.58007">
        <ele>1395.97</ele>
        <time>2018-04-26T09:05:33Z</time>
      </trkpt>
      <trkpt lat="44.47446" lon="5.58">
        <ele>1395.97</ele>
        <time>2018-04-26T09:05:50Z</time>
      </trkpt>
      <trkpt lat="44.47442" lon="5.58">
        <ele>1396.45</ele>
        <time>2018-04-26T09:06:11Z</time>
      </trkpt>
      <trkpt lat="44.47443" lon="5.58001">
        <ele>1395.97</ele>
        <time>2018-04-26T09:06:24Z</time>
      </trkpt>
      <trkpt lat="44.47447" lon="5.57992">
        <ele>1394.53</ele>
        <time>2018-04-26T09:06:39Z</time>
      </trkpt>
      <trkpt lat="44.47447" lon="5.57989">
        <ele>1396.45</ele>
        <time>2018-04-26T09:06:41Z</time>
      </trkpt>
      <trkpt lat="44.47447" lon="5.57986">
        <ele>1395.01</ele>
        <time>2018-04-26T09:06:43Z</time>
      </trkpt>
      <trkpt lat="44.47447" lon="5.57982">
        <ele>1396.45</ele>
        <time>2018-04-26T09:06:45Z</time>
      </trkpt>
      <trkpt lat="44.47447" lon="5.57975">
        <ele>1397.41</ele>
        <time>2018-04-26T09:06:49Z</time>
      </trkpt>
      <trkpt lat="44.47448" lon="5.5797">
        <ele>1395.97</ele>
        <time>2018-04-26T09:06:51Z</time>
      </trkpt>
      <trkpt lat="44.47449" lon="5.57967">
        <ele>1396.93</ele>
        <time>2018-04-26T09:06:53Z</time>
      </trkpt>
      <trkpt lat="44.4745" lon="5.57965">
        <ele>1395.01</ele>
        <time>2018-04-26T09:06:55Z</time>
      </trkpt>
      <trkpt lat="44.47451" lon="5.57963">
        <ele>1396.45</ele>
        <time>2018-04-26T09:06:57Z</time>
      </trkpt>
      <trkpt lat="44.47447" lon="5.5794">
        <ele>1396.45</ele>
        <time>2018-04-26T09:07:11Z</time>
      </trkpt>
      <trkpt lat="44.47443" lon="5.57922">
        <ele>1397.41</ele>
        <time>2018-04-26T09:07:24Z</time>
      </trkpt>
      <trkpt lat="44.47441" lon="5.579">
        <ele>1396.93</ele>
        <time>2018-04-26T09:07:39Z</time>
      </trkpt>
      <trkpt lat="44.4744" lon="5.57899">
        <ele>1395.01</ele>
        <time>2018-04-26T09:07:41Z</time>
      </trkpt>
      <trkpt lat="44.4744" lon="5.57897">
        <ele>1397.89</ele>
        <time>2018-04-26T09:07:43Z</time>
      </trkpt>
      <trkpt lat="44.47447" lon="5.57877">
        <ele>1394.53</ele>
        <time>2018-04-26T09:07:57Z</time>
      </trkpt>
      <trkpt lat="44.47447" lon="5.57875">
        <ele>1397.41</ele>
        <time>2018-04-26T09:07:59Z</time>
      </trkpt>
      <trkpt lat="44.47451" lon="5.57868">
        <ele>1397.41</ele>
        <time>2018-04-26T09:08:04Z</time>
      </trkpt>
      <trkpt lat="44.47456" lon="5.57848">
        <ele>1396.45</ele>
        <time>2018-04-26T09:08:17Z</time>
      </trkpt>
      <trkpt lat="44.47455" lon="5.57835">
        <ele>1395.97</ele>
        <time>2018-04-26T09:08:27Z</time>
      </trkpt>
      <trkpt lat="44.47455" lon="5.57833">
        <ele>1396.93</ele>
        <time>2018-04-26T09:08:28Z</time>
      </trkpt>
      <trkpt lat="44.47453" lon="5.57828">
        <ele>1395.49</ele>
        <time>2018-04-26T09:08:32Z</time>
      </trkpt>
      <trkpt lat="44.47451" lon="5.57817">
        <ele>1396.93</ele>
        <time>2018-04-26T09:08:37Z</time>
      </trkpt>
      <trkpt lat="44.47451" lon="5.5781">
        <ele>1393.57</ele>
        <time>2018-04-26T09:08:39Z</time>
      </trkpt>
      <trkpt lat="44.47452" lon="5.57805">
        <ele>1397.41</ele>
        <time>2018-04-26T09:08:41Z</time>
      </trkpt>
      <trkpt lat="44.47452" lon="5.57803">
        <ele>1397.41</ele>
        <time>2018-04-26T09:08:42Z</time>
      </trkpt>
      <trkpt lat="44.47453" lon="5.57795">
        <ele>1396.93</ele>
        <time>2018-04-26T09:08:46Z</time>
      </trkpt>
      <trkpt lat="44.47455" lon="5.57773">
        <ele>1396.93</ele>
        <time>2018-04-26T09:09:01Z</time>
      </trkpt>
      <trkpt lat="44.47456" lon="5.5777">
        <ele>1397.89</ele>
        <time>2018-04-26T09:09:03Z</time>
      </trkpt>
      <trkpt lat="44.47456" lon="5.57768">
        <ele>1395.01</ele>
        <time>2018-04-26T09:09:04Z</time>
      </trkpt>
      <trkpt lat="44.47456" lon="5.57767">
        <ele>1397.89</ele>
        <time>2018-04-26T09:09:05Z</time>
      </trkpt>
      <trkpt lat="44.47461" lon="5.57745">
        <ele>1396.93</ele>
        <time>2018-04-26T09:09:19Z</time>
      </trkpt>
      <trkpt lat="44.47466" lon="5.57741">
        <ele>1397.41</ele>
        <time>2018-04-26T09:09:25Z</time>
      </trkpt>
      <trkpt lat="44.4747" lon="5.57737">
        <ele>1395.97</ele>
        <time>2018-04-26T09:09:29Z</time>
      </trkpt>
      <trkpt lat="44.47472" lon="5.57732">
        <ele>1398.37</ele>
        <time>2018-04-26T09:09:32Z</time>
      </trkpt>
      <trkpt lat="44.47473" lon="5.57729">
        <ele>1396.93</ele>
        <time>2018-04-26T09:09:34Z</time>
      </trkpt>
      <trkpt lat="44.47478" lon="5.57716">
        <ele>1397.89</ele>
        <time>2018-04-26T09:09:42Z</time>
      </trkpt>
      <trkpt lat="44.47488" lon="5.57698">
        <ele>1396.45</ele>
        <time>2018-04-26T09:09:55Z</time>
      </trkpt>
      <trkpt lat="44.47491" lon="5.57676">
        <ele>1397.41</ele>
        <time>2018-04-26T09:10:08Z</time>
      </trkpt>
      <trkpt lat="44.47487" lon="5.5767">
        <ele>1395.97</ele>
        <time>2018-04-26T09:10:22Z</time>
      </trkpt>
      <trkpt lat="44.47487" lon="5.57667">
        <ele>1396.93</ele>
        <time>2018-04-26T09:10:37Z</time>
      </trkpt>
      <trkpt lat="44.47488" lon="5.57665">
        <ele>1397.89</ele>
        <time>2018-04-26T09:10:54Z</time>
      </trkpt>
      <trkpt lat="44.47489" lon="5.57664">
        <ele>1396.45</ele>
        <time>2018-04-26T09:10:56Z</time>
      </trkpt>
      <trkpt lat="44.47489" lon="5.57662">
        <ele>1396.93</ele>
        <time>2018-04-26T09:10:58Z</time>
      </trkpt>
      <trkpt lat="44.47492" lon="5.57651">
        <ele>1395.97</ele>
        <time>2018-04-26T09:11:04Z</time>
      </trkpt>
      <trkpt lat="44.47495" lon="5.57646">
        <ele>1397.41</ele>
        <time>2018-04-26T09:11:07Z</time>
      </trkpt>
      <trkpt lat="44.47505" lon="5.57625">
        <ele>1396.45</ele>
        <time>2018-04-26T09:11:22Z</time>
      </trkpt>
      <trkpt lat="44.47507" lon="5.57621">
        <ele>1399.82</ele>
        <time>2018-04-26T09:11:25Z</time>
      </trkpt>
      <trkpt lat="44.47508" lon="5.57617">
        <ele>1395.49</ele>
        <time>2018-04-26T09:11:27Z</time>
      </trkpt>
      <trkpt lat="44.47509" lon="5.57614">
        <ele>1398.86</ele>
        <time>2018-04-26T09:11:29Z</time>
      </trkpt>
      <trkpt lat="44.4751" lon="5.5761">
        <ele>1395.97</ele>
        <time>2018-04-26T09:11:33Z</time>
      </trkpt>
      <trkpt lat="44.47511" lon="5.57608">
        <ele>1396.93</ele>
        <time>2018-04-26T09:11:34Z</time>
      </trkpt>
      <trkpt lat="44.47511" lon="5.57604">
        <ele>1396.93</ele>
        <time>2018-04-26T09:11:39Z</time>
      </trkpt>
      <trkpt lat="44.47514" lon="5.57586">
        <ele>1396.93</ele>
        <time>2018-04-26T09:11:48Z</time>
      </trkpt>
      <trkpt lat="44.47523" lon="5.5756">
        <ele>1395.49</ele>
        <time>2018-04-26T09:12:02Z</time>
      </trkpt>
      <trkpt lat="44.47524" lon="5.57555">
        <ele>1394.05</ele>
        <time>2018-04-26T09:12:05Z</time>
      </trkpt>
      <trkpt lat="44.47523" lon="5.57546">
        <ele>1396.45</ele>
        <time>2018-04-26T09:12:10Z</time>
      </trkpt>
      <trkpt lat="44.47521" lon="5.57543">
        <ele>1393.57</ele>
        <time>2018-04-26T09:12:12Z</time>
      </trkpt>
      <trkpt lat="44.47521" lon="5.57541">
        <ele>1396.93</ele>
        <time>2018-04-26T09:12:13Z</time>
      </trkpt>
      <trkpt lat="44.47521" lon="5.57539">
        <ele>1397.41</ele>
        <time>2018-04-26T09:12:14Z</time>
      </trkpt>
      <trkpt lat="44.4752" lon="5.57537">
        <ele>1393.57</ele>
        <time>2018-04-26T09:12:16Z</time>
      </trkpt>
      <trkpt lat="44.4752" lon="5.57535">
        <ele>1396.93</ele>
        <time>2018-04-26T09:12:17Z</time>
      </trkpt>
      <trkpt lat="44.47521" lon="5.57527">
        <ele>1395.49</ele>
        <time>2018-04-26T09:12:22Z</time>
      </trkpt>
      <trkpt lat="44.47523" lon="5.57521">
        <ele>1396.93</ele>
        <time>2018-04-26T09:12:25Z</time>
      </trkpt>
      <trkpt lat="44.47527" lon="5.57517">
        <ele>1396.45</ele>
        <time>2018-04-26T09:12:29Z</time>
      </trkpt>
      <trkpt lat="44.47539" lon="5.57509">
        <ele>1395.49</ele>
        <time>2018-04-26T09:12:41Z</time>
      </trkpt>
      <trkpt lat="44.47542" lon="5.57503">
        <ele>1395.49</ele>
        <time>2018-04-26T09:12:57Z</time>
      </trkpt>
      <trkpt lat="44.4755" lon="5.57491">
        <ele>1394.53</ele>
        <time>2018-04-26T09:13:09Z</time>
      </trkpt>
      <trkpt lat="44.47554" lon="5.5748">
        <ele>1392.13</ele>
        <time>2018-04-26T09:13:16Z</time>
      </trkpt>
      <trkpt lat="44.47554" lon="5.57475">
        <ele>1394.53</ele>
        <time>2018-04-26T09:13:19Z</time>
      </trkpt>
      <trkpt lat="44.47559" lon="5.57461">
        <ele>1393.57</ele>
        <time>2018-04-26T09:13:29Z</time>
      </trkpt>
      <trkpt lat="44.47562" lon="5.57445">
        <ele>1391.65</ele>
        <time>2018-04-26T09:13:39Z</time>
      </trkpt>
      <trkpt lat="44.47564" lon="5.57442">
        <ele>1393.09</ele>
        <time>2018-04-26T09:13:42Z</time>
      </trkpt>
      <trkpt lat="44.47564" lon="5.57436">
        <ele>1392.13</ele>
        <time>2018-04-26T09:13:45Z</time>
      </trkpt>
      <trkpt lat="44.47564" lon="5.57427">
        <ele>1394.05</ele>
        <time>2018-04-26T09:13:49Z</time>
      </trkpt>
      <trkpt lat="44.47565" lon="5.57423">
        <ele>1390.68</ele>
        <time>2018-04-26T09:13:51Z</time>
      </trkpt>
      <trkpt lat="44.47565" lon="5.57422">
        <ele>1390.68</ele>
        <time>2018-04-26T09:13:52Z</time>
      </trkpt>
      <trkpt lat="44.47567" lon="5.57416">
        <ele>1393.57</ele>
        <time>2018-04-26T09:13:57Z</time>
      </trkpt>
      <trkpt lat="44.47573" lon="5.574">
        <ele>1393.57</ele>
        <time>2018-04-26T09:14:08Z</time>
      </trkpt>
      <trkpt lat="44.47579" lon="5.57388">
        <ele>1390.2</ele>
        <time>2018-04-26T09:14:15Z</time>
      </trkpt>
      <trkpt lat="44.4758" lon="5.57384">
        <ele>1390.68</ele>
        <time>2018-04-26T09:14:17Z</time>
      </trkpt>
      <trkpt lat="44.47584" lon="5.5737">
        <ele>1392.13</ele>
        <time>2018-04-26T09:14:28Z</time>
      </trkpt>
      <trkpt lat="44.47583" lon="5.57356">
        <ele>1391.17</ele>
        <time>2018-04-26T09:14:34Z</time>
      </trkpt>
      <trkpt lat="44.47588" lon="5.57345">
        <ele>1390.68</ele>
        <time>2018-04-26T09:14:44Z</time>
      </trkpt>
      <trkpt lat="44.47591" lon="5.57338">
        <ele>1391.17</ele>
        <time>2018-04-26T09:14:54Z</time>
      </trkpt>
      <trkpt lat="44.4759" lon="5.57338">
        <ele>1390.68</ele>
        <time>2018-04-26T09:15:13Z</time>
      </trkpt>
      <trkpt lat="44.47594" lon="5.57326">
        <ele>1387.8</ele>
        <time>2018-04-26T09:15:25Z</time>
      </trkpt>
      <trkpt lat="44.47594" lon="5.57323">
        <ele>1391.65</ele>
        <time>2018-04-26T09:15:27Z</time>
      </trkpt>
      <trkpt lat="44.47594" lon="5.57322">
        <ele>1386.84</ele>
        <time>2018-04-26T09:15:28Z</time>
      </trkpt>
      <trkpt lat="44.47594" lon="5.57322">
        <ele>1391.65</ele>
        <time>2018-04-26T09:15:29Z</time>
      </trkpt>
      <trkpt lat="44.47594" lon="5.57321">
        <ele>1393.57</ele>
        <time>2018-04-26T09:15:34Z</time>
      </trkpt>
      <trkpt lat="44.47594" lon="5.57321">
        <ele>1389.24</ele>
        <time>2018-04-26T09:15:35Z</time>
      </trkpt>
      <trkpt lat="44.47594" lon="5.57321">
        <ele>1392.61</ele>
        <time>2018-04-26T09:15:36Z</time>
      </trkpt>
      <trkpt lat="44.47592" lon="5.57314">
        <ele>1396.45</ele>
        <time>2018-04-26T09:15:42Z</time>
      </trkpt>
      <trkpt lat="44.47591" lon="5.57312">
        <ele>1391.65</ele>
        <time>2018-04-26T09:15:43Z</time>
      </trkpt>
      <trkpt lat="44.47591" lon="5.57309">
        <ele>1395.01</ele>
        <time>2018-04-26T09:15:45Z</time>
      </trkpt>
      <trkpt lat="44.47591" lon="5.57298">
        <ele>1391.17</ele>
        <time>2018-04-26T09:15:55Z</time>
      </trkpt>
      <trkpt lat="44.47591" lon="5.57297">
        <ele>1396.45</ele>
        <time>2018-04-26T09:15:56Z</time>
      </trkpt>
      <trkpt lat="44.47591" lon="5.57295">
        <ele>1392.61</ele>
        <time>2018-04-26T09:15:58Z</time>
      </trkpt>
      <trkpt lat="44.47591" lon="5.57294">
        <ele>1397.41</ele>
        <time>2018-04-26T09:16:00Z</time>
      </trkpt>
      <trkpt lat="44.47592" lon="5.57283">
        <ele>1396.93</ele>
        <time>2018-04-26T09:16:13Z</time>
      </trkpt>
      <trkpt lat="44.47592" lon="5.57274">
        <ele>1399.34</ele>
        <time>2018-04-26T09:16:21Z</time>
      </trkpt>
      <trkpt lat="44.47597" lon="5.57262">
        <ele>1400.3</ele>
        <time>2018-04-26T09:16:31Z</time>
      </trkpt>
      <trkpt lat="44.47598" lon="5.57257">
        <ele>1396.45</ele>
        <time>2018-04-26T09:16:34Z</time>
      </trkpt>
      <trkpt lat="44.47599" lon="5.57255">
        <ele>1397.89</ele>
        <time>2018-04-26T09:16:35Z</time>
      </trkpt>
      <trkpt lat="44.476" lon="5.57252">
        <ele>1400.78</ele>
        <time>2018-04-26T09:16:37Z</time>
      </trkpt>
      <trkpt lat="44.47606" lon="5.57237">
        <ele>1402.7</ele>
        <time>2018-04-26T09:16:49Z</time>
      </trkpt>
      <trkpt lat="44.47606" lon="5.57235">
        <ele>1398.86</ele>
        <time>2018-04-26T09:16:50Z</time>
      </trkpt>
      <trkpt lat="44.47607" lon="5.57233">
        <ele>1401.74</ele>
        <time>2018-04-26T09:16:51Z</time>
      </trkpt>
      <trkpt lat="44.47611" lon="5.57226">
        <ele>1398.37</ele>
        <time>2018-04-26T09:16:57Z</time>
      </trkpt>
      <trkpt lat="44.47611" lon="5.57225">
        <ele>1401.74</ele>
        <time>2018-04-26T09:16:58Z</time>
      </trkpt>
      <trkpt lat="44.47613" lon="5.57223">
        <ele>1402.7</ele>
        <time>2018-04-26T09:17:00Z</time>
      </trkpt>
      <trkpt lat="44.47617" lon="5.57215">
        <ele>1399.34</ele>
        <time>2018-04-26T09:17:06Z</time>
      </trkpt>
      <trkpt lat="44.47617" lon="5.57213">
        <ele>1404.14</ele>
        <time>2018-04-26T09:17:08Z</time>
      </trkpt>
      <trkpt lat="44.47618" lon="5.57212">
        <ele>1400.3</ele>
        <time>2018-04-26T09:17:10Z</time>
      </trkpt>
      <trkpt lat="44.47618" lon="5.57212">
        <ele>1400.3</ele>
        <time>2018-04-26T09:17:11Z</time>
      </trkpt>
      <trkpt lat="44.47618" lon="5.57206">
        <ele>1404.14</ele>
        <time>2018-04-26T09:17:14Z</time>
      </trkpt>
      <trkpt lat="44.47619" lon="5.57204">
        <ele>1400.78</ele>
        <time>2018-04-26T09:17:15Z</time>
      </trkpt>
      <trkpt lat="44.47621" lon="5.572">
        <ele>1404.14</ele>
        <time>2018-04-26T09:17:18Z</time>
      </trkpt>
      <trkpt lat="44.47621" lon="5.572">
        <ele>1400.78</ele>
        <time>2018-04-26T09:17:19Z</time>
      </trkpt>
      <trkpt lat="44.47621" lon="5.57199">
        <ele>1401.74</ele>
        <time>2018-04-26T09:17:20Z</time>
      </trkpt>
      <trkpt lat="44.47628" lon="5.57182">
        <ele>1402.22</ele>
        <time>2018-04-26T09:17:30Z</time>
      </trkpt>
      <trkpt lat="44.4763" lon="5.57175">
        <ele>1401.74</ele>
        <time>2018-04-26T09:17:34Z</time>
      </trkpt>
      <trkpt lat="44.47638" lon="5.57162">
        <ele>1404.14</ele>
        <time>2018-04-26T09:17:44Z</time>
      </trkpt>
      <trkpt lat="44.47644" lon="5.57151">
        <ele>1404.14</ele>
        <time>2018-04-26T09:17:53Z</time>
      </trkpt>
      <trkpt lat="44.47646" lon="5.57145">
        <ele>1402.7</ele>
        <time>2018-04-26T09:17:57Z</time>
      </trkpt>
      <trkpt lat="44.47647" lon="5.57143">
        <ele>1407.03</ele>
        <time>2018-04-26T09:17:59Z</time>
      </trkpt>
      <trkpt lat="44.47648" lon="5.57141">
        <ele>1407.03</ele>
        <time>2018-04-26T09:18:00Z</time>
      </trkpt>
      <trkpt lat="44.47648" lon="5.57139">
        <ele>1403.18</ele>
        <time>2018-04-26T09:18:02Z</time>
      </trkpt>
      <trkpt lat="44.47648" lon="5.57138">
        <ele>1407.99</ele>
        <time>2018-04-26T09:18:05Z</time>
      </trkpt>
      <trkpt lat="44.47648" lon="5.57138">
        <ele>1405.58</ele>
        <time>2018-04-26T09:18:08Z</time>
      </trkpt>
      <trkpt lat="44.47649" lon="5.57135">
        <ele>1409.91</ele>
        <time>2018-04-26T09:18:10Z</time>
      </trkpt>
      <trkpt lat="44.4765" lon="5.57133">
        <ele>1405.1</ele>
        <time>2018-04-26T09:18:11Z</time>
      </trkpt>
      <trkpt lat="44.47651" lon="5.57131">
        <ele>1408.95</ele>
        <time>2018-04-26T09:18:13Z</time>
      </trkpt>
      <trkpt lat="44.47651" lon="5.57128">
        <ele>1404.14</ele>
        <time>2018-04-26T09:18:16Z</time>
      </trkpt>
      <trkpt lat="44.47652" lon="5.57128">
        <ele>1408.95</ele>
        <time>2018-04-26T09:18:17Z</time>
      </trkpt>
      <trkpt lat="44.47656" lon="5.57117">
        <ele>1405.58</ele>
        <time>2018-04-26T09:18:22Z</time>
      </trkpt>
      <trkpt lat="44.47656" lon="5.57115">
        <ele>1409.43</ele>
        <time>2018-04-26T09:18:23Z</time>
      </trkpt>
      <trkpt lat="44.47657" lon="5.57109">
        <ele>1406.55</ele>
        <time>2018-04-26T09:18:28Z</time>
      </trkpt>
      <trkpt lat="44.47657" lon="5.57109">
        <ele>1410.87</ele>
        <time>2018-04-26T09:18:29Z</time>
      </trkpt>
      <trkpt lat="44.47657" lon="5.57107">
        <ele>1407.03</ele>
        <time>2018-04-26T09:18:30Z</time>
      </trkpt>
      <trkpt lat="44.47657" lon="5.57106">
        <ele>1410.39</ele>
        <time>2018-04-26T09:18:31Z</time>
      </trkpt>
      <trkpt lat="44.47659" lon="5.57102">
        <ele>1409.91</ele>
        <time>2018-04-26T09:18:46Z</time>
      </trkpt>
      <trkpt lat="44.47658" lon="5.57099">
        <ele>1409.91</ele>
        <time>2018-04-26T09:18:59Z</time>
      </trkpt>
      <trkpt lat="44.47659" lon="5.57098">
        <ele>1410.87</ele>
        <time>2018-04-26T09:19:16Z</time>
      </trkpt>
      <trkpt lat="44.4766" lon="5.57098">
        <ele>1410.39</ele>
        <time>2018-04-26T09:19:33Z</time>
      </trkpt>
      <trkpt lat="44.4766" lon="5.57098">
        <ele>1410.87</ele>
        <time>2018-04-26T09:19:35Z</time>
      </trkpt>
      <trkpt lat="44.47664" lon="5.57093">
        <ele>1411.83</ele>
        <time>2018-04-26T09:19:44Z</time>
      </trkpt>
      <trkpt lat="44.47664" lon="5.57091">
        <ele>1415.2</ele>
        <time>2018-04-26T09:19:53Z</time>
      </trkpt>
      <trkpt lat="44.47665" lon="5.57091">
        <ele>1412.31</ele>
        <time>2018-04-26T09:19:58Z</time>
      </trkpt>
      <trkpt lat="44.47666" lon="5.57091">
        <ele>1417.12</ele>
        <time>2018-04-26T09:19:59Z</time>
      </trkpt>
      <trkpt lat="44.47666" lon="5.57091">
        <ele>1410.87</ele>
        <time>2018-04-26T09:20:00Z</time>
      </trkpt>
      <trkpt lat="44.47667" lon="5.5709">
        <ele>1418.08</ele>
        <time>2018-04-26T09:20:02Z</time>
      </trkpt>
      <trkpt lat="44.47667" lon="5.5709">
        <ele>1411.35</ele>
        <time>2018-04-26T09:20:03Z</time>
      </trkpt>
      <trkpt lat="44.47667" lon="5.5709">
        <ele>1416.16</ele>
        <time>2018-04-26T09:20:04Z</time>
      </trkpt>
      <trkpt lat="44.47667" lon="5.57089">
        <ele>1412.79</ele>
        <time>2018-04-26T09:20:06Z</time>
      </trkpt>
      <trkpt lat="44.47667" lon="5.57089">
        <ele>1416.64</ele>
        <time>2018-04-26T09:20:07Z</time>
      </trkpt>
      <trkpt lat="44.47671" lon="5.57086">
        <ele>1413.76</ele>
        <time>2018-04-26T09:20:12Z</time>
      </trkpt>
      <trkpt lat="44.47671" lon="5.57085">
        <ele>1417.6</ele>
        <time>2018-04-26T09:20:13Z</time>
      </trkpt>
      <trkpt lat="44.47674" lon="5.57078">
        <ele>1417.6</ele>
        <time>2018-04-26T09:20:28Z</time>
      </trkpt>
      <trkpt lat="44.47674" lon="5.57077">
        <ele>1417.12</ele>
        <time>2018-04-26T09:20:40Z</time>
      </trkpt>
      <trkpt lat="44.47674" lon="5.57075">
        <ele>1416.64</ele>
        <time>2018-04-26T09:20:56Z</time>
      </trkpt>
      <trkpt lat="44.4767" lon="5.57072">
        <ele>1417.6</ele>
        <time>2018-04-26T09:21:12Z</time>
      </trkpt>
      <trkpt lat="44.47668" lon="5.57075">
        <ele>1414.72</ele>
        <time>2018-04-26T09:21:17Z</time>
      </trkpt>
      <trkpt lat="44.47668" lon="5.57075">
        <ele>1420.49</ele>
        <time>2018-04-26T09:21:18Z</time>
      </trkpt>
      <trkpt lat="44.47668" lon="5.57075">
        <ele>1420</ele>
        <time>2018-04-26T09:21:19Z</time>
      </trkpt>
      <trkpt lat="44.47665" lon="5.57075">
        <ele>1415.68</ele>
        <time>2018-04-26T09:21:28Z</time>
      </trkpt>
      <trkpt lat="44.47664" lon="5.57075">
        <ele>1420</ele>
        <time>2018-04-26T09:21:29Z</time>
      </trkpt>
      <trkpt lat="44.47658" lon="5.57078">
        <ele>1416.16</ele>
        <time>2018-04-26T09:21:34Z</time>
      </trkpt>
      <trkpt lat="44.47657" lon="5.57079">
        <ele>1420</ele>
        <time>2018-04-26T09:21:35Z</time>
      </trkpt>
      <trkpt lat="44.47647" lon="5.57084">
        <ele>1416.64</ele>
        <time>2018-04-26T09:21:46Z</time>
      </trkpt>
      <trkpt lat="44.47646" lon="5.57085">
        <ele>1420.49</ele>
        <time>2018-04-26T09:21:47Z</time>
      </trkpt>
      <trkpt lat="44.47639" lon="5.57086">
        <ele>1420</ele>
        <time>2018-04-26T09:22:02Z</time>
      </trkpt>
      <trkpt lat="44.47637" lon="5.57087">
        <ele>1420.49</ele>
        <time>2018-04-26T09:22:19Z</time>
      </trkpt>
      <trkpt lat="44.47636" lon="5.57088">
        <ele>1420.97</ele>
        <time>2018-04-26T09:22:41Z</time>
      </trkpt>
      <trkpt lat="44.47636" lon="5.57088">
        <ele>1420.49</ele>
        <time>2018-04-26T09:22:59Z</time>
      </trkpt>
      <trkpt lat="44.47636" lon="5.5709">
        <ele>1424.33</ele>
        <time>2018-04-26T09:23:07Z</time>
      </trkpt>
      <trkpt lat="44.47636" lon="5.57091">
        <ele>1420</ele>
        <time>2018-04-26T09:23:08Z</time>
      </trkpt>
      <trkpt lat="44.47635" lon="5.57092">
        <ele>1422.89</ele>
        <time>2018-04-26T09:23:09Z</time>
      </trkpt>
      <trkpt lat="44.47635" lon="5.57093">
        <ele>1419.52</ele>
        <time>2018-04-26T09:23:11Z</time>
      </trkpt>
      <trkpt lat="44.47635" lon="5.57093">
        <ele>1423.85</ele>
        <time>2018-04-26T09:23:12Z</time>
      </trkpt>
      <trkpt lat="44.47634" lon="5.57096">
        <ele>1427.21</ele>
        <time>2018-04-26T09:23:19Z</time>
      </trkpt>
      <trkpt lat="44.47632" lon="5.57097">
        <ele>1423.37</ele>
        <time>2018-04-26T09:23:23Z</time>
      </trkpt>
      <trkpt lat="44.47632" lon="5.57099">
        <ele>1424.81</ele>
        <time>2018-04-26T09:23:41Z</time>
      </trkpt>
      <trkpt lat="44.47632" lon="5.57102">
        <ele>1425.77</ele>
        <time>2018-04-26T09:24:00Z</time>
      </trkpt>
      <trkpt lat="44.47632" lon="5.57103">
        <ele>1425.29</ele>
        <time>2018-04-26T09:24:14Z</time>
      </trkpt>
      <trkpt lat="44.47633" lon="5.57105">
        <ele>1425.29</ele>
        <time>2018-04-26T09:24:33Z</time>
      </trkpt>
      <trkpt lat="44.47633" lon="5.57105">
        <ele>1424.81</ele>
        <time>2018-04-26T09:24:50Z</time>
      </trkpt>
      <trkpt lat="44.47633" lon="5.57106">
        <ele>1425.29</ele>
        <time>2018-04-26T09:25:11Z</time>
      </trkpt>
      <trkpt lat="44.47631" lon="5.57105">
        <ele>1424.81</ele>
        <time>2018-04-26T09:25:25Z</time>
      </trkpt>
      <trkpt lat="44.47631" lon="5.57106">
        <ele>1423.85</ele>
        <time>2018-04-26T09:25:27Z</time>
      </trkpt>
      <trkpt lat="44.47629" lon="5.57108">
        <ele>1427.21</ele>
        <time>2018-04-26T09:25:31Z</time>
      </trkpt>
      <trkpt lat="44.47629" lon="5.57112">
        <ele>1426.25</ele>
        <time>2018-04-26T09:25:43Z</time>
      </trkpt>
      <trkpt lat="44.47626" lon="5.57115">
        <ele>1427.21</ele>
        <time>2018-04-26T09:26:04Z</time>
      </trkpt>
      <trkpt lat="44.47626" lon="5.57117">
        <ele>1427.7</ele>
        <time>2018-04-26T09:26:21Z</time>
      </trkpt>
      <trkpt lat="44.47625" lon="5.57119">
        <ele>1431.54</ele>
        <time>2018-04-26T09:26:24Z</time>
      </trkpt>
      <trkpt lat="44.47624" lon="5.5712">
        <ele>1425.29</ele>
        <time>2018-04-26T09:26:25Z</time>
      </trkpt>
      <trkpt lat="44.47624" lon="5.57121">
        <ele>1430.1</ele>
        <time>2018-04-26T09:26:26Z</time>
      </trkpt>
      <trkpt lat="44.47622" lon="5.57125">
        <ele>1433.46</ele>
        <time>2018-04-26T09:26:29Z</time>
      </trkpt>
      <trkpt lat="44.47621" lon="5.57126">
        <ele>1428.18</ele>
        <time>2018-04-26T09:26:30Z</time>
      </trkpt>
      <trkpt lat="44.47621" lon="5.57127">
        <ele>1432.5</ele>
        <time>2018-04-26T09:26:31Z</time>
      </trkpt>
      <trkpt lat="44.47621" lon="5.57127">
        <ele>1428.18</ele>
        <time>2018-04-26T09:26:32Z</time>
      </trkpt>
      <trkpt lat="44.47621" lon="5.57128">
        <ele>1431.54</ele>
        <time>2018-04-26T09:26:33Z</time>
      </trkpt>
      <trkpt lat="44.47619" lon="5.5713">
        <ele>1431.54</ele>
        <time>2018-04-26T09:26:40Z</time>
      </trkpt>
      <trkpt lat="44.47617" lon="5.57134">
        <ele>1431.06</ele>
        <time>2018-04-26T09:26:43Z</time>
      </trkpt>
      <trkpt lat="44.47614" lon="5.57138">
        <ele>1433.46</ele>
        <time>2018-04-26T09:26:46Z</time>
      </trkpt>
      <trkpt lat="44.47613" lon="5.57139">
        <ele>1428.66</ele>
        <time>2018-04-26T09:26:47Z</time>
      </trkpt>
      <trkpt lat="44.47612" lon="5.5714">
        <ele>1432.98</ele>
        <time>2018-04-26T09:26:48Z</time>
      </trkpt>
      <trkpt lat="44.4761" lon="5.57142">
        <ele>1427.21</ele>
        <time>2018-04-26T09:26:50Z</time>
      </trkpt>
      <trkpt lat="44.4761" lon="5.57142">
        <ele>1433.46</ele>
        <time>2018-04-26T09:26:51Z</time>
      </trkpt>
      <trkpt lat="44.47608" lon="5.57145">
        <ele>1428.66</ele>
        <time>2018-04-26T09:26:55Z</time>
      </trkpt>
      <trkpt lat="44.47608" lon="5.57146">
        <ele>1433.94</ele>
        <time>2018-04-26T09:26:56Z</time>
      </trkpt>
      <trkpt lat="44.47606" lon="5.57149">
        <ele>1438.27</ele>
        <time>2018-04-26T09:27:00Z</time>
      </trkpt>
      <trkpt lat="44.47605" lon="5.5715">
        <ele>1431.54</ele>
        <time>2018-04-26T09:27:01Z</time>
      </trkpt>
      <trkpt lat="44.47605" lon="5.57151">
        <ele>1434.91</ele>
        <time>2018-04-26T09:27:02Z</time>
      </trkpt>
      <trkpt lat="44.47604" lon="5.57153">
        <ele>1439.71</ele>
        <time>2018-04-26T09:27:04Z</time>
      </trkpt>
      <trkpt lat="44.47603" lon="5.57153">
        <ele>1431.06</ele>
        <time>2018-04-26T09:27:05Z</time>
      </trkpt>
      <trkpt lat="44.47602" lon="5.57154">
        <ele>1436.35</ele>
        <time>2018-04-26T09:27:06Z</time>
      </trkpt>
      <trkpt lat="44.47602" lon="5.57154">
        <ele>1431.06</ele>
        <time>2018-04-26T09:27:08Z</time>
      </trkpt>
      <trkpt lat="44.47601" lon="5.57155">
        <ele>1438.75</ele>
        <time>2018-04-26T09:27:09Z</time>
      </trkpt>
      <trkpt lat="44.476" lon="5.57155">
        <ele>1435.87</ele>
        <time>2018-04-26T09:27:11Z</time>
      </trkpt>
      <trkpt lat="44.476" lon="5.57156">
        <ele>1440.67</ele>
        <time>2018-04-26T09:27:12Z</time>
      </trkpt>
      <trkpt lat="44.47599" lon="5.57157">
        <ele>1433.46</ele>
        <time>2018-04-26T09:27:13Z</time>
      </trkpt>
      <trkpt lat="44.47599" lon="5.57158">
        <ele>1439.23</ele>
        <time>2018-04-26T09:27:14Z</time>
      </trkpt>
      <trkpt lat="44.47598" lon="5.57159">
        <ele>1434.42</ele>
        <time>2018-04-26T09:27:16Z</time>
      </trkpt>
      <trkpt lat="44.47598" lon="5.5716">
        <ele>1439.71</ele>
        <time>2018-04-26T09:27:17Z</time>
      </trkpt>
      <trkpt lat="44.47595" lon="5.57165">
        <ele>1439.71</ele>
        <time>2018-04-26T09:27:27Z</time>
      </trkpt>
      <trkpt lat="44.47595" lon="5.57165">
        <ele>1443.08</ele>
        <time>2018-04-26T09:27:28Z</time>
      </trkpt>
      <trkpt lat="44.47595" lon="5.57165">
        <ele>1437.79</ele>
        <time>2018-04-26T09:27:29Z</time>
      </trkpt>
      <trkpt lat="44.47594" lon="5.57166">
        <ele>1443.08</ele>
        <time>2018-04-26T09:27:30Z</time>
      </trkpt>
      <trkpt lat="44.4759" lon="5.57171">
        <ele>1442.11</ele>
        <time>2018-04-26T09:27:40Z</time>
      </trkpt>
      <trkpt lat="44.47588" lon="5.57174">
        <ele>1445.96</ele>
        <time>2018-04-26T09:27:43Z</time>
      </trkpt>
      <trkpt lat="44.47587" lon="5.57174">
        <ele>1439.71</ele>
        <time>2018-04-26T09:27:44Z</time>
      </trkpt>
      <trkpt lat="44.47587" lon="5.57174">
        <ele>1444.04</ele>
        <time>2018-04-26T09:27:45Z</time>
      </trkpt>
      <trkpt lat="44.47585" lon="5.57175">
        <ele>1440.19</ele>
        <time>2018-04-26T09:27:47Z</time>
      </trkpt>
      <trkpt lat="44.47585" lon="5.57176">
        <ele>1446.44</ele>
        <time>2018-04-26T09:27:48Z</time>
      </trkpt>
      <trkpt lat="44.47584" lon="5.57176">
        <ele>1440.67</ele>
        <time>2018-04-26T09:27:49Z</time>
      </trkpt>
      <trkpt lat="44.47584" lon="5.57177">
        <ele>1445</ele>
        <time>2018-04-26T09:27:50Z</time>
      </trkpt>
      <trkpt lat="44.47582" lon="5.57179">
        <ele>1448.36</ele>
        <time>2018-04-26T09:27:53Z</time>
      </trkpt>
      <trkpt lat="44.47582" lon="5.57179">
        <ele>1446.92</ele>
        <time>2018-04-26T09:27:54Z</time>
      </trkpt>
      <trkpt lat="44.47582" lon="5.5718">
        <ele>1441.63</ele>
        <time>2018-04-26T09:27:55Z</time>
      </trkpt>
      <trkpt lat="44.47582" lon="5.5718">
        <ele>1445.48</ele>
        <time>2018-04-26T09:27:56Z</time>
      </trkpt>
      <trkpt lat="44.47582" lon="5.5718">
        <ele>1442.11</ele>
        <time>2018-04-26T09:27:57Z</time>
      </trkpt>
      <trkpt lat="44.47582" lon="5.57181">
        <ele>1445.48</ele>
        <time>2018-04-26T09:27:58Z</time>
      </trkpt>
      <trkpt lat="44.4758" lon="5.57183">
        <ele>1450.29</ele>
        <time>2018-04-26T09:28:05Z</time>
      </trkpt>
      <trkpt lat="44.4758" lon="5.57183">
        <ele>1444.52</ele>
        <time>2018-04-26T09:28:06Z</time>
      </trkpt>
      <trkpt lat="44.4758" lon="5.57184">
        <ele>1446.44</ele>
        <time>2018-04-26T09:28:07Z</time>
      </trkpt>
      <trkpt lat="44.47579" lon="5.57185">
        <ele>1449.32</ele>
        <time>2018-04-26T09:28:08Z</time>
      </trkpt>
      <trkpt lat="44.47579" lon="5.57186">
        <ele>1443.08</ele>
        <time>2018-04-26T09:28:09Z</time>
      </trkpt>
      <trkpt lat="44.47579" lon="5.57186">
        <ele>1448.84</ele>
        <time>2018-04-26T09:28:10Z</time>
      </trkpt>
      <trkpt lat="44.47579" lon="5.57189">
        <ele>1445.48</ele>
        <time>2018-04-26T09:28:14Z</time>
      </trkpt>
      <trkpt lat="44.47579" lon="5.5719">
        <ele>1450.77</ele>
        <time>2018-04-26T09:28:16Z</time>
      </trkpt>
      <trkpt lat="44.47579" lon="5.5719">
        <ele>1445.96</ele>
        <time>2018-04-26T09:28:17Z</time>
      </trkpt>
      <trkpt lat="44.47579" lon="5.5719">
        <ele>1450.29</ele>
        <time>2018-04-26T09:28:19Z</time>
      </trkpt>
      <trkpt lat="44.47577" lon="5.57196">
        <ele>1451.25</ele>
        <time>2018-04-26T09:28:31Z</time>
      </trkpt>
      <trkpt lat="44.47575" lon="5.57199">
        <ele>1447.4</ele>
        <time>2018-04-26T09:28:35Z</time>
      </trkpt>
      <trkpt lat="44.47575" lon="5.57199">
        <ele>1452.21</ele>
        <time>2018-04-26T09:28:36Z</time>
      </trkpt>
      <trkpt lat="44.47574" lon="5.572">
        <ele>1448.84</ele>
        <time>2018-04-26T09:28:37Z</time>
      </trkpt>
      <trkpt lat="44.47574" lon="5.57199">
        <ele>1450.29</ele>
        <time>2018-04-26T09:28:40Z</time>
      </trkpt>
      <trkpt lat="44.47574" lon="5.572">
        <ele>1454.61</ele>
        <time>2018-04-26T09:28:41Z</time>
      </trkpt>
      <trkpt lat="44.47574" lon="5.572">
        <ele>1453.17</ele>
        <time>2018-04-26T09:28:42Z</time>
      </trkpt>
      <trkpt lat="44.47574" lon="5.572">
        <ele>1448.84</ele>
        <time>2018-04-26T09:28:43Z</time>
      </trkpt>
      <trkpt lat="44.47573" lon="5.57201">
        <ele>1452.21</ele>
        <time>2018-04-26T09:28:44Z</time>
      </trkpt>
      <trkpt lat="44.47571" lon="5.57203">
        <ele>1453.17</ele>
        <time>2018-04-26T09:28:53Z</time>
      </trkpt>
      <trkpt lat="44.47571" lon="5.57204">
        <ele>1449.81</ele>
        <time>2018-04-26T09:28:56Z</time>
      </trkpt>
      <trkpt lat="44.47571" lon="5.57204">
        <ele>1454.61</ele>
        <time>2018-04-26T09:28:57Z</time>
      </trkpt>
      <trkpt lat="44.47571" lon="5.57203">
        <ele>1445.48</ele>
        <time>2018-04-26T09:29:06Z</time>
      </trkpt>
      <trkpt lat="44.47571" lon="5.57203">
        <ele>1456.53</ele>
        <time>2018-04-26T09:29:07Z</time>
      </trkpt>
      <trkpt lat="44.47571" lon="5.57203">
        <ele>1449.32</ele>
        <time>2018-04-26T09:29:08Z</time>
      </trkpt>
      <trkpt lat="44.47571" lon="5.57203">
        <ele>1453.65</ele>
        <time>2018-04-26T09:29:09Z</time>
      </trkpt>
      <trkpt lat="44.47571" lon="5.57203">
        <ele>1457.02</ele>
        <time>2018-04-26T09:29:10Z</time>
      </trkpt>
      <trkpt lat="44.47571" lon="5.57203">
        <ele>1455.09</ele>
        <time>2018-04-26T09:29:11Z</time>
      </trkpt>
      <trkpt lat="44.47571" lon="5.57203">
        <ele>1445.96</ele>
        <time>2018-04-26T09:29:12Z</time>
      </trkpt>
      <trkpt lat="44.47571" lon="5.57204">
        <ele>1458.46</ele>
        <time>2018-04-26T09:29:13Z</time>
      </trkpt>
      <trkpt lat="44.47571" lon="5.57204">
        <ele>1451.73</ele>
        <time>2018-04-26T09:29:14Z</time>
      </trkpt>
      <trkpt lat="44.4757" lon="5.57205">
        <ele>1457.98</ele>
        <time>2018-04-26T09:29:15Z</time>
      </trkpt>
      <trkpt lat="44.47567" lon="5.57212">
        <ele>1457.98</ele>
        <time>2018-04-26T09:29:26Z</time>
      </trkpt>
      <trkpt lat="44.47564" lon="5.57217">
        <ele>1458.94</ele>
        <time>2018-04-26T09:29:41Z</time>
      </trkpt>
      <trkpt lat="44.47564" lon="5.57218">
        <ele>1458.46</ele>
        <time>2018-04-26T09:29:58Z</time>
      </trkpt>
      <trkpt lat="44.4756" lon="5.5722">
        <ele>1456.53</ele>
        <time>2018-04-26T09:30:07Z</time>
      </trkpt>
      <trkpt lat="44.47555" lon="5.57221">
        <ele>1453.17</ele>
        <time>2018-04-26T09:30:14Z</time>
      </trkpt>
      <trkpt lat="44.47554" lon="5.57222">
        <ele>1457.5</ele>
        <time>2018-04-26T09:30:15Z</time>
      </trkpt>
      <trkpt lat="44.47553" lon="5.57225">
        <ele>1458.94</ele>
        <time>2018-04-26T09:30:17Z</time>
      </trkpt>
      <trkpt lat="44.47552" lon="5.57227">
        <ele>1461.82</ele>
        <time>2018-04-26T09:30:19Z</time>
      </trkpt>
      <trkpt lat="44.47552" lon="5.57228">
        <ele>1452.21</ele>
        <time>2018-04-26T09:30:20Z</time>
      </trkpt>
      <trkpt lat="44.47552" lon="5.57229">
        <ele>1462.3</ele>
        <time>2018-04-26T09:30:21Z</time>
      </trkpt>
      <trkpt lat="44.47551" lon="5.57232">
        <ele>1459.9</ele>
        <time>2018-04-26T09:30:24Z</time>
      </trkpt>
      <trkpt lat="44.47546" lon="5.57236">
        <ele>1458.46</ele>
        <time>2018-04-26T09:30:31Z</time>
      </trkpt>
      <trkpt lat="44.47545" lon="5.57238">
        <ele>1462.78</ele>
        <time>2018-04-26T09:30:33Z</time>
      </trkpt>
      <trkpt lat="44.47544" lon="5.57239">
        <ele>1457.02</ele>
        <time>2018-04-26T09:30:34Z</time>
      </trkpt>
      <trkpt lat="44.47543" lon="5.57239">
        <ele>1461.82</ele>
        <time>2018-04-26T09:30:35Z</time>
      </trkpt>
      <trkpt lat="44.4754" lon="5.57242">
        <ele>1461.82</ele>
        <time>2018-04-26T09:30:40Z</time>
      </trkpt>
      <trkpt lat="44.47537" lon="5.57246">
        <ele>1457.98</ele>
        <time>2018-04-26T09:30:44Z</time>
      </trkpt>
      <trkpt lat="44.47537" lon="5.57247">
        <ele>1463.26</ele>
        <time>2018-04-26T09:30:45Z</time>
      </trkpt>
      <trkpt lat="44.47536" lon="5.57247">
        <ele>1458.94</ele>
        <time>2018-04-26T09:30:46Z</time>
      </trkpt>
      <trkpt lat="44.47536" lon="5.57248">
        <ele>1462.3</ele>
        <time>2018-04-26T09:30:48Z</time>
      </trkpt>
      <trkpt lat="44.47534" lon="5.57253">
        <ele>1462.78</ele>
        <time>2018-04-26T09:30:53Z</time>
      </trkpt>
      <trkpt lat="44.47531" lon="5.57257">
        <ele>1459.42</ele>
        <time>2018-04-26T09:30:59Z</time>
      </trkpt>
      <trkpt lat="44.4753" lon="5.57258">
        <ele>1464.23</ele>
        <time>2018-04-26T09:31:00Z</time>
      </trkpt>
      <trkpt lat="44.4753" lon="5.57259">
        <ele>1468.07</ele>
        <time>2018-04-26T09:31:01Z</time>
      </trkpt>
      <trkpt lat="44.4753" lon="5.5726">
        <ele>1457.98</ele>
        <time>2018-04-26T09:31:02Z</time>
      </trkpt>
      <trkpt lat="44.4753" lon="5.5726">
        <ele>1460.86</ele>
        <time>2018-04-26T09:31:03Z</time>
      </trkpt>
      <trkpt lat="44.4753" lon="5.57261">
        <ele>1466.15</ele>
        <time>2018-04-26T09:31:05Z</time>
      </trkpt>
      <trkpt lat="44.4753" lon="5.57261">
        <ele>1465.19</ele>
        <time>2018-04-26T09:31:06Z</time>
      </trkpt>
      <trkpt lat="44.4753" lon="5.57261">
        <ele>1460.86</ele>
        <time>2018-04-26T09:31:07Z</time>
      </trkpt>
      <trkpt lat="44.47529" lon="5.57262">
        <ele>1465.67</ele>
        <time>2018-04-26T09:31:08Z</time>
      </trkpt>
      <trkpt lat="44.47529" lon="5.57262">
        <ele>1462.3</ele>
        <time>2018-04-26T09:31:09Z</time>
      </trkpt>
      <trkpt lat="44.47529" lon="5.57262">
        <ele>1465.67</ele>
        <time>2018-04-26T09:31:10Z</time>
      </trkpt>
      <trkpt lat="44.47528" lon="5.57265">
        <ele>1456.53</ele>
        <time>2018-04-26T09:31:12Z</time>
      </trkpt>
      <trkpt lat="44.47528" lon="5.57266">
        <ele>1466.63</ele>
        <time>2018-04-26T09:31:13Z</time>
      </trkpt>
      <trkpt lat="44.47528" lon="5.57267">
        <ele>1469.99</ele>
        <time>2018-04-26T09:31:14Z</time>
      </trkpt>
      <trkpt lat="44.47527" lon="5.57267">
        <ele>1468.55</ele>
        <time>2018-04-26T09:31:15Z</time>
      </trkpt>
      <trkpt lat="44.47527" lon="5.57269">
        <ele>1467.11</ele>
        <time>2018-04-26T09:31:17Z</time>
      </trkpt>
      <trkpt lat="44.47527" lon="5.57269">
        <ele>1471.92</ele>
        <time>2018-04-26T09:31:27Z</time>
      </trkpt>
      <trkpt lat="44.47527" lon="5.57269">
        <ele>1466.15</ele>
        <time>2018-04-26T09:31:28Z</time>
      </trkpt>
      <trkpt lat="44.47527" lon="5.57269">
        <ele>1469.51</ele>
        <time>2018-04-26T09:31:30Z</time>
      </trkpt>
      <trkpt lat="44.47527" lon="5.57269">
        <ele>1468.07</ele>
        <time>2018-04-26T09:31:31Z</time>
      </trkpt>
      <trkpt lat="44.47527" lon="5.57273">
        <ele>1466.63</ele>
        <time>2018-04-26T09:31:44Z</time>
      </trkpt>
      <trkpt lat="44.47526" lon="5.57279">
        <ele>1471.44</ele>
        <time>2018-04-26T09:31:50Z</time>
      </trkpt>
      <trkpt lat="44.47525" lon="5.5728">
        <ele>1465.67</ele>
        <time>2018-04-26T09:31:51Z</time>
      </trkpt>
      <trkpt lat="44.47524" lon="5.57282">
        <ele>1469.99</ele>
        <time>2018-04-26T09:31:53Z</time>
      </trkpt>
      <trkpt lat="44.47521" lon="5.57286">
        <ele>1468.07</ele>
        <time>2018-04-26T09:31:58Z</time>
      </trkpt>
      <trkpt lat="44.4752" lon="5.57287">
        <ele>1470.95</ele>
        <time>2018-04-26T09:32:09Z</time>
      </trkpt>
      <trkpt lat="44.47517" lon="5.57294">
        <ele>1470.47</ele>
        <time>2018-04-26T09:32:22Z</time>
      </trkpt>
      <trkpt lat="44.47517" lon="5.57295">
        <ele>1470.47</ele>
        <time>2018-04-26T09:32:40Z</time>
      </trkpt>
      <trkpt lat="44.47514" lon="5.57302">
        <ele>1469.99</ele>
        <time>2018-04-26T09:32:51Z</time>
      </trkpt>
      <trkpt lat="44.47513" lon="5.57304">
        <ele>1469.99</ele>
        <time>2018-04-26T09:32:55Z</time>
      </trkpt>
      <trkpt lat="44.47513" lon="5.57304">
        <ele>1468.07</ele>
        <time>2018-04-26T09:33:09Z</time>
      </trkpt>
      <trkpt lat="44.47511" lon="5.57303">
        <ele>1464.71</ele>
        <time>2018-04-26T09:33:21Z</time>
      </trkpt>
      <trkpt lat="44.47511" lon="5.57303">
        <ele>1469.03</ele>
        <time>2018-04-26T09:33:22Z</time>
      </trkpt>
      <trkpt lat="44.47511" lon="5.57303">
        <ele>1466.15</ele>
        <time>2018-04-26T09:33:23Z</time>
      </trkpt>
      <trkpt lat="44.47511" lon="5.57304">
        <ele>1469.03</ele>
        <time>2018-04-26T09:33:28Z</time>
      </trkpt>
      <trkpt lat="44.47507" lon="5.57311">
        <ele>1465.19</ele>
        <time>2018-04-26T09:33:36Z</time>
      </trkpt>
      <trkpt lat="44.47506" lon="5.57312">
        <ele>1472.88</ele>
        <time>2018-04-26T09:33:37Z</time>
      </trkpt>
      <trkpt lat="44.47506" lon="5.57313">
        <ele>1464.71</ele>
        <time>2018-04-26T09:33:38Z</time>
      </trkpt>
      <trkpt lat="44.47505" lon="5.57313">
        <ele>1470.47</ele>
        <time>2018-04-26T09:33:39Z</time>
      </trkpt>
      <trkpt lat="44.47504" lon="5.57314">
        <ele>1463.74</ele>
        <time>2018-04-26T09:33:41Z</time>
      </trkpt>
      <trkpt lat="44.47504" lon="5.57314">
        <ele>1470.47</ele>
        <time>2018-04-26T09:33:42Z</time>
      </trkpt>
      <trkpt lat="44.47501" lon="5.57319">
        <ele>1471.44</ele>
        <time>2018-04-26T09:33:56Z</time>
      </trkpt>
      <trkpt lat="44.47501" lon="5.5732">
        <ele>1467.11</ele>
        <time>2018-04-26T09:33:59Z</time>
      </trkpt>
      <trkpt lat="44.47501" lon="5.5732">
        <ele>1475.28</ele>
        <time>2018-04-26T09:34:00Z</time>
      </trkpt>
      <trkpt lat="44.47501" lon="5.5732">
        <ele>1471.44</ele>
        <time>2018-04-26T09:34:01Z</time>
      </trkpt>
      <trkpt lat="44.47501" lon="5.57321">
        <ele>1474.8</ele>
        <time>2018-04-26T09:34:08Z</time>
      </trkpt>
      <trkpt lat="44.47501" lon="5.57321">
        <ele>1472.88</ele>
        <time>2018-04-26T09:34:09Z</time>
      </trkpt>
      <trkpt lat="44.47501" lon="5.57322">
        <ele>1470.95</ele>
        <time>2018-04-26T09:34:12Z</time>
      </trkpt>
      <trkpt lat="44.47501" lon="5.57323">
        <ele>1471.92</ele>
        <time>2018-04-26T09:34:14Z</time>
      </trkpt>
      <trkpt lat="44.47499" lon="5.57326">
        <ele>1472.88</ele>
        <time>2018-04-26T09:34:26Z</time>
      </trkpt>
      <trkpt lat="44.47498" lon="5.57328">
        <ele>1468.07</ele>
        <time>2018-04-26T09:34:28Z</time>
      </trkpt>
      <trkpt lat="44.47497" lon="5.57329">
        <ele>1475.28</ele>
        <time>2018-04-26T09:34:29Z</time>
      </trkpt>
      <trkpt lat="44.47497" lon="5.57329">
        <ele>1471.44</ele>
        <time>2018-04-26T09:34:30Z</time>
      </trkpt>
      <trkpt lat="44.47489" lon="5.57333">
        <ele>1471.92</ele>
        <time>2018-04-26T09:34:43Z</time>
      </trkpt>
      <trkpt lat="44.47486" lon="5.57335">
        <ele>1469.99</ele>
        <time>2018-04-26T09:34:46Z</time>
      </trkpt>
      <trkpt lat="44.47483" lon="5.57339">
        <ele>1477.2</ele>
        <time>2018-04-26T09:34:51Z</time>
      </trkpt>
      <trkpt lat="44.47483" lon="5.57339">
        <ele>1471.44</ele>
        <time>2018-04-26T09:34:52Z</time>
      </trkpt>
      <trkpt lat="44.47483" lon="5.5734">
        <ele>1474.8</ele>
        <time>2018-04-26T09:34:53Z</time>
      </trkpt>
      <trkpt lat="44.47482" lon="5.57345">
        <ele>1471.44</ele>
        <time>2018-04-26T09:35:00Z</time>
      </trkpt>
      <trkpt lat="44.47482" lon="5.57345">
        <ele>1476.24</ele>
        <time>2018-04-26T09:35:01Z</time>
      </trkpt>
      <trkpt lat="44.47481" lon="5.57348">
        <ele>1471.92</ele>
        <time>2018-04-26T09:35:09Z</time>
      </trkpt>
      <trkpt lat="44.47481" lon="5.57349">
        <ele>1477.2</ele>
        <time>2018-04-26T09:35:10Z</time>
      </trkpt>
      <trkpt lat="44.47477" lon="5.57357">
        <ele>1472.88</ele>
        <time>2018-04-26T09:35:21Z</time>
      </trkpt>
      <trkpt lat="44.47477" lon="5.57357">
        <ele>1479.13</ele>
        <time>2018-04-26T09:35:22Z</time>
      </trkpt>
      <trkpt lat="44.47475" lon="5.57361">
        <ele>1474.32</ele>
        <time>2018-04-26T09:35:32Z</time>
      </trkpt>
      <trkpt lat="44.47475" lon="5.57361">
        <ele>1478.65</ele>
        <time>2018-04-26T09:35:33Z</time>
      </trkpt>
      <trkpt lat="44.47475" lon="5.57361">
        <ele>1474.32</ele>
        <time>2018-04-26T09:35:34Z</time>
      </trkpt>
      <trkpt lat="44.47474" lon="5.57362">
        <ele>1478.65</ele>
        <time>2018-04-26T09:35:35Z</time>
      </trkpt>
      <trkpt lat="44.47474" lon="5.57363">
        <ele>1480.57</ele>
        <time>2018-04-26T09:35:40Z</time>
      </trkpt>
      <trkpt lat="44.47473" lon="5.57365">
        <ele>1476.72</ele>
        <time>2018-04-26T09:35:44Z</time>
      </trkpt>
      <trkpt lat="44.47471" lon="5.57367">
        <ele>1472.4</ele>
        <time>2018-04-26T09:35:55Z</time>
      </trkpt>
      <trkpt lat="44.47471" lon="5.57368">
        <ele>1478.65</ele>
        <time>2018-04-26T09:35:56Z</time>
      </trkpt>
      <trkpt lat="44.47468" lon="5.57371">
        <ele>1474.32</ele>
        <time>2018-04-26T09:36:05Z</time>
      </trkpt>
      <trkpt lat="44.47468" lon="5.57372">
        <ele>1477.2</ele>
        <time>2018-04-26T09:36:06Z</time>
      </trkpt>
      <trkpt lat="44.47467" lon="5.57372">
        <ele>1482.49</ele>
        <time>2018-04-26T09:36:07Z</time>
      </trkpt>
      <trkpt lat="44.47466" lon="5.57373">
        <ele>1475.28</ele>
        <time>2018-04-26T09:36:08Z</time>
      </trkpt>
      <trkpt lat="44.47466" lon="5.57374">
        <ele>1479.13</ele>
        <time>2018-04-26T09:36:09Z</time>
      </trkpt>
      <trkpt lat="44.47464" lon="5.57377">
        <ele>1474.8</ele>
        <time>2018-04-26T09:36:11Z</time>
      </trkpt>
      <trkpt lat="44.47463" lon="5.57378">
        <ele>1478.65</ele>
        <time>2018-04-26T09:36:12Z</time>
      </trkpt>
      <trkpt lat="44.4746" lon="5.57381">
        <ele>1482.49</ele>
        <time>2018-04-26T09:36:16Z</time>
      </trkpt>
      <trkpt lat="44.4746" lon="5.57382">
        <ele>1477.68</ele>
        <time>2018-04-26T09:36:17Z</time>
      </trkpt>
      <trkpt lat="44.4746" lon="5.57382">
        <ele>1480.57</ele>
        <time>2018-04-26T09:36:18Z</time>
      </trkpt>
      <trkpt lat="44.47458" lon="5.57383">
        <ele>1476.72</ele>
        <time>2018-04-26T09:36:20Z</time>
      </trkpt>
      <trkpt lat="44.47458" lon="5.57384">
        <ele>1481.05</ele>
        <time>2018-04-26T09:36:21Z</time>
      </trkpt>
      <trkpt lat="44.47455" lon="5.57389">
        <ele>1477.2</ele>
        <time>2018-04-26T09:36:29Z</time>
      </trkpt>
      <trkpt lat="44.47454" lon="5.5739">
        <ele>1483.45</ele>
        <time>2018-04-26T09:36:30Z</time>
      </trkpt>
      <trkpt lat="44.47454" lon="5.5739">
        <ele>1477.68</ele>
        <time>2018-04-26T09:36:31Z</time>
      </trkpt>
      <trkpt lat="44.47454" lon="5.5739">
        <ele>1482.97</ele>
        <time>2018-04-26T09:36:32Z</time>
      </trkpt>
      <trkpt lat="44.47454" lon="5.57391">
        <ele>1478.65</ele>
        <time>2018-04-26T09:36:33Z</time>
      </trkpt>
      <trkpt lat="44.47453" lon="5.57392">
        <ele>1483.45</ele>
        <time>2018-04-26T09:36:34Z</time>
      </trkpt>
      <trkpt lat="44.4745" lon="5.57393">
        <ele>1480.09</ele>
        <time>2018-04-26T09:36:38Z</time>
      </trkpt>
      <trkpt lat="44.47449" lon="5.57394">
        <ele>1484.41</ele>
        <time>2018-04-26T09:36:39Z</time>
      </trkpt>
      <trkpt lat="44.47448" lon="5.57395">
        <ele>1478.65</ele>
        <time>2018-04-26T09:36:40Z</time>
      </trkpt>
      <trkpt lat="44.47448" lon="5.57396">
        <ele>1484.89</ele>
        <time>2018-04-26T09:36:42Z</time>
      </trkpt>
      <trkpt lat="44.47448" lon="5.57396">
        <ele>1480.57</ele>
        <time>2018-04-26T09:36:43Z</time>
      </trkpt>
      <trkpt lat="44.47448" lon="5.57396">
        <ele>1485.37</ele>
        <time>2018-04-26T09:36:44Z</time>
      </trkpt>
      <trkpt lat="44.47447" lon="5.57397">
        <ele>1480.57</ele>
        <time>2018-04-26T09:36:45Z</time>
      </trkpt>
      <trkpt lat="44.47447" lon="5.57397">
        <ele>1485.85</ele>
        <time>2018-04-26T09:36:46Z</time>
      </trkpt>
      <trkpt lat="44.47445" lon="5.57399">
        <ele>1481.53</ele>
        <time>2018-04-26T09:36:49Z</time>
      </trkpt>
      <trkpt lat="44.47445" lon="5.574">
        <ele>1486.82</ele>
        <time>2018-04-26T09:36:50Z</time>
      </trkpt>
      <trkpt lat="44.47444" lon="5.57401">
        <ele>1489.7</ele>
        <time>2018-04-26T09:36:52Z</time>
      </trkpt>
      <trkpt lat="44.47444" lon="5.574">
        <ele>1486.34</ele>
        <time>2018-04-26T09:36:53Z</time>
      </trkpt>
      <trkpt lat="44.47444" lon="5.574">
        <ele>1482.97</ele>
        <time>2018-04-26T09:36:57Z</time>
      </trkpt>
      <trkpt lat="44.47444" lon="5.57401">
        <ele>1489.7</ele>
        <time>2018-04-26T09:36:58Z</time>
      </trkpt>
      <trkpt lat="44.47444" lon="5.57401">
        <ele>1484.89</ele>
        <time>2018-04-26T09:36:59Z</time>
      </trkpt>
      <trkpt lat="44.47441" lon="5.57404">
        <ele>1489.7</ele>
        <time>2018-04-26T09:37:03Z</time>
      </trkpt>
      <trkpt lat="44.4744" lon="5.57405">
        <ele>1486.34</ele>
        <time>2018-04-26T09:37:07Z</time>
      </trkpt>
      <trkpt lat="44.47439" lon="5.57407">
        <ele>1491.62</ele>
        <time>2018-04-26T09:37:09Z</time>
      </trkpt>
      <trkpt lat="44.47438" lon="5.57407">
        <ele>1485.37</ele>
        <time>2018-04-26T09:37:10Z</time>
      </trkpt>
      <trkpt lat="44.47438" lon="5.57407">
        <ele>1488.26</ele>
        <time>2018-04-26T09:37:11Z</time>
      </trkpt>
      <trkpt lat="44.47436" lon="5.57411">
        <ele>1492.58</ele>
        <time>2018-04-26T09:37:17Z</time>
      </trkpt>
      <trkpt lat="44.47435" lon="5.57412">
        <ele>1487.3</ele>
        <time>2018-04-26T09:37:18Z</time>
      </trkpt>
      <trkpt lat="44.47434" lon="5.57412">
        <ele>1492.1</ele>
        <time>2018-04-26T09:37:19Z</time>
      </trkpt>
      <trkpt lat="44.47433" lon="5.57413">
        <ele>1485.85</ele>
        <time>2018-04-26T09:37:20Z</time>
      </trkpt>
      <trkpt lat="44.47433" lon="5.57414">
        <ele>1491.62</ele>
        <time>2018-04-26T09:37:21Z</time>
      </trkpt>
      <trkpt lat="44.47433" lon="5.57414">
        <ele>1487.3</ele>
        <time>2018-04-26T09:37:22Z</time>
      </trkpt>
      <trkpt lat="44.47432" lon="5.57415">
        <ele>1492.58</ele>
        <time>2018-04-26T09:37:23Z</time>
      </trkpt>
      <trkpt lat="44.47432" lon="5.57415">
        <ele>1485.85</ele>
        <time>2018-04-26T09:37:24Z</time>
      </trkpt>
      <trkpt lat="44.47432" lon="5.57416">
        <ele>1492.58</ele>
        <time>2018-04-26T09:37:25Z</time>
      </trkpt>
      <trkpt lat="44.47432" lon="5.57416">
        <ele>1486.34</ele>
        <time>2018-04-26T09:37:26Z</time>
      </trkpt>
      <trkpt lat="44.47432" lon="5.57416">
        <ele>1492.1</ele>
        <time>2018-04-26T09:37:27Z</time>
      </trkpt>
      <trkpt lat="44.47432" lon="5.57417">
        <ele>1486.82</ele>
        <time>2018-04-26T09:37:28Z</time>
      </trkpt>
      <trkpt lat="44.47432" lon="5.57417">
        <ele>1490.18</ele>
        <time>2018-04-26T09:37:29Z</time>
      </trkpt>
      <trkpt lat="44.47431" lon="5.57418">
        <ele>1491.62</ele>
        <time>2018-04-26T09:37:32Z</time>
      </trkpt>
      <trkpt lat="44.47431" lon="5.5742">
        <ele>1493.55</ele>
        <time>2018-04-26T09:37:35Z</time>
      </trkpt>
      <trkpt lat="44.47431" lon="5.57421">
        <ele>1490.18</ele>
        <time>2018-04-26T09:37:36Z</time>
      </trkpt>
      <trkpt lat="44.47429" lon="5.57423">
        <ele>1488.74</ele>
        <time>2018-04-26T09:37:39Z</time>
      </trkpt>
      <trkpt lat="44.47428" lon="5.57424">
        <ele>1492.58</ele>
        <time>2018-04-26T09:37:40Z</time>
      </trkpt>
      <trkpt lat="44.47426" lon="5.57428">
        <ele>1488.74</ele>
        <time>2018-04-26T09:37:44Z</time>
      </trkpt>
      <trkpt lat="44.47426" lon="5.5743">
        <ele>1493.55</ele>
        <time>2018-04-26T09:37:45Z</time>
      </trkpt>
      <trkpt lat="44.47425" lon="5.5743">
        <ele>1496.43</ele>
        <time>2018-04-26T09:37:46Z</time>
      </trkpt>
      <trkpt lat="44.47425" lon="5.57431">
        <ele>1491.14</ele>
        <time>2018-04-26T09:37:47Z</time>
      </trkpt>
      <trkpt lat="44.47424" lon="5.57433">
        <ele>1489.22</ele>
        <time>2018-04-26T09:37:49Z</time>
      </trkpt>
      <trkpt lat="44.47423" lon="5.57434">
        <ele>1494.99</ele>
        <time>2018-04-26T09:37:51Z</time>
      </trkpt>
      <trkpt lat="44.47423" lon="5.57434">
        <ele>1489.7</ele>
        <time>2018-04-26T09:37:52Z</time>
      </trkpt>
      <trkpt lat="44.47422" lon="5.57435">
        <ele>1494.51</ele>
        <time>2018-04-26T09:37:53Z</time>
      </trkpt>
      <trkpt lat="44.47421" lon="5.57437">
        <ele>1498.35</ele>
        <time>2018-04-26T09:37:56Z</time>
      </trkpt>
      <trkpt lat="44.47421" lon="5.57438">
        <ele>1494.51</ele>
        <time>2018-04-26T09:37:57Z</time>
      </trkpt>
      <trkpt lat="44.47421" lon="5.57438">
        <ele>1497.87</ele>
        <time>2018-04-26T09:37:58Z</time>
      </trkpt>
      <trkpt lat="44.4742" lon="5.57439">
        <ele>1489.7</ele>
        <time>2018-04-26T09:37:59Z</time>
      </trkpt>
      <trkpt lat="44.4742" lon="5.5744">
        <ele>1496.43</ele>
        <time>2018-04-26T09:38:00Z</time>
      </trkpt>
      <trkpt lat="44.47418" lon="5.57441">
        <ele>1496.91</ele>
        <time>2018-04-26T09:38:03Z</time>
      </trkpt>
      <trkpt lat="44.47416" lon="5.57444">
        <ele>1495.95</ele>
        <time>2018-04-26T09:38:05Z</time>
      </trkpt>
      <trkpt lat="44.47414" lon="5.57447">
        <ele>1492.58</ele>
        <time>2018-04-26T09:38:09Z</time>
      </trkpt>
      <trkpt lat="44.47413" lon="5.57449">
        <ele>1496.91</ele>
        <time>2018-04-26T09:38:10Z</time>
      </trkpt>
      <trkpt lat="44.47409" lon="5.57452">
        <ele>1493.06</ele>
        <time>2018-04-26T09:38:17Z</time>
      </trkpt>
      <trkpt lat="44.47408" lon="5.57454">
        <ele>1494.51</ele>
        <time>2018-04-26T09:38:20Z</time>
      </trkpt>
      <trkpt lat="44.47404" lon="5.57458">
        <ele>1494.03</ele>
        <time>2018-04-26T09:38:25Z</time>
      </trkpt>
      <trkpt lat="44.47404" lon="5.57459">
        <ele>1497.39</ele>
        <time>2018-04-26T09:38:26Z</time>
      </trkpt>
      <trkpt lat="44.47403" lon="5.57462">
        <ele>1501.24</ele>
        <time>2018-04-26T09:38:29Z</time>
      </trkpt>
      <trkpt lat="44.47403" lon="5.57463">
        <ele>1496.91</ele>
        <time>2018-04-26T09:38:31Z</time>
      </trkpt>
      <trkpt lat="44.47402" lon="5.57463">
        <ele>1501.24</ele>
        <time>2018-04-26T09:38:32Z</time>
      </trkpt>
      <trkpt lat="44.47402" lon="5.57465">
        <ele>1494.51</ele>
        <time>2018-04-26T09:38:33Z</time>
      </trkpt>
      <trkpt lat="44.47401" lon="5.57466">
        <ele>1499.31</ele>
        <time>2018-04-26T09:38:34Z</time>
      </trkpt>
      <trkpt lat="44.47398" lon="5.5747">
        <ele>1500.76</ele>
        <time>2018-04-26T09:38:40Z</time>
      </trkpt>
      <trkpt lat="44.47398" lon="5.5747">
        <ele>1496.91</ele>
        <time>2018-04-26T09:38:41Z</time>
      </trkpt>
      <trkpt lat="44.47397" lon="5.57471">
        <ele>1500.27</ele>
        <time>2018-04-26T09:38:42Z</time>
      </trkpt>
      <trkpt lat="44.47394" lon="5.57476">
        <ele>1498.35</ele>
        <time>2018-04-26T09:38:50Z</time>
      </trkpt>
      <trkpt lat="44.47393" lon="5.57477">
        <ele>1502.2</ele>
        <time>2018-04-26T09:38:53Z</time>
      </trkpt>
      <trkpt lat="44.47392" lon="5.57478">
        <ele>1497.87</ele>
        <time>2018-04-26T09:38:54Z</time>
      </trkpt>
      <trkpt lat="44.47392" lon="5.57478">
        <ele>1501.72</ele>
        <time>2018-04-26T09:38:55Z</time>
      </trkpt>
      <trkpt lat="44.47389" lon="5.5748">
        <ele>1498.35</ele>
        <time>2018-04-26T09:39:02Z</time>
      </trkpt>
      <trkpt lat="44.47389" lon="5.57481">
        <ele>1502.68</ele>
        <time>2018-04-26T09:39:04Z</time>
      </trkpt>
      <trkpt lat="44.47388" lon="5.57482">
        <ele>1506.04</ele>
        <time>2018-04-26T09:39:05Z</time>
      </trkpt>
      <trkpt lat="44.47388" lon="5.57483">
        <ele>1501.72</ele>
        <time>2018-04-26T09:39:06Z</time>
      </trkpt>
      <trkpt lat="44.47385" lon="5.57492">
        <ele>1506.04</ele>
        <time>2018-04-26T09:39:15Z</time>
      </trkpt>
      <trkpt lat="44.47385" lon="5.57492">
        <ele>1499.31</ele>
        <time>2018-04-26T09:39:16Z</time>
      </trkpt>
      <trkpt lat="44.47385" lon="5.57493">
        <ele>1506.52</ele>
        <time>2018-04-26T09:39:17Z</time>
      </trkpt>
      <trkpt lat="44.47385" lon="5.57495">
        <ele>1501.24</ele>
        <time>2018-04-26T09:39:19Z</time>
      </trkpt>
      <trkpt lat="44.47385" lon="5.57496">
        <ele>1506.52</ele>
        <time>2018-04-26T09:39:20Z</time>
      </trkpt>
      <trkpt lat="44.47385" lon="5.57497">
        <ele>1502.2</ele>
        <time>2018-04-26T09:39:22Z</time>
      </trkpt>
      <trkpt lat="44.47385" lon="5.57498">
        <ele>1506.52</ele>
        <time>2018-04-26T09:39:23Z</time>
      </trkpt>
      <trkpt lat="44.47383" lon="5.57502">
        <ele>1509.89</ele>
        <time>2018-04-26T09:39:29Z</time>
      </trkpt>
      <trkpt lat="44.47383" lon="5.57502">
        <ele>1504.6</ele>
        <time>2018-04-26T09:39:30Z</time>
      </trkpt>
      <trkpt lat="44.47383" lon="5.57503">
        <ele>1504.6</ele>
        <time>2018-04-26T09:39:31Z</time>
      </trkpt>
      <trkpt lat="44.47383" lon="5.57505">
        <ele>1510.37</ele>
        <time>2018-04-26T09:39:34Z</time>
      </trkpt>
      <trkpt lat="44.47383" lon="5.57505">
        <ele>1506.04</ele>
        <time>2018-04-26T09:39:35Z</time>
      </trkpt>
      <trkpt lat="44.47383" lon="5.57506">
        <ele>1509.41</ele>
        <time>2018-04-26T09:39:38Z</time>
      </trkpt>
      <trkpt lat="44.47382" lon="5.57506">
        <ele>1502.68</ele>
        <time>2018-04-26T09:39:41Z</time>
      </trkpt>
      <trkpt lat="44.47382" lon="5.57508">
        <ele>1509.89</ele>
        <time>2018-04-26T09:39:42Z</time>
      </trkpt>
      <trkpt lat="44.4738" lon="5.57511">
        <ele>1505.08</ele>
        <time>2018-04-26T09:39:46Z</time>
      </trkpt>
      <trkpt lat="44.4738" lon="5.57513">
        <ele>1509.89</ele>
        <time>2018-04-26T09:39:47Z</time>
      </trkpt>
      <trkpt lat="44.4738" lon="5.57514">
        <ele>1504.12</ele>
        <time>2018-04-26T09:39:48Z</time>
      </trkpt>
      <trkpt lat="44.47379" lon="5.57514">
        <ele>1508.93</ele>
        <time>2018-04-26T09:39:49Z</time>
      </trkpt>
      <trkpt lat="44.47378" lon="5.57517">
        <ele>1509.41</ele>
        <time>2018-04-26T09:39:51Z</time>
      </trkpt>
      <trkpt lat="44.47377" lon="5.5752">
        <ele>1512.29</ele>
        <time>2018-04-26T09:39:53Z</time>
      </trkpt>
      <trkpt lat="44.47376" lon="5.57521">
        <ele>1505.08</ele>
        <time>2018-04-26T09:39:54Z</time>
      </trkpt>
      <trkpt lat="44.47375" lon="5.57523">
        <ele>1509.89</ele>
        <time>2018-04-26T09:39:55Z</time>
      </trkpt>
      <trkpt lat="44.47374" lon="5.57525">
        <ele>1507</ele>
        <time>2018-04-26T09:39:57Z</time>
      </trkpt>
      <trkpt lat="44.47373" lon="5.57526">
        <ele>1510.85</ele>
        <time>2018-04-26T09:39:58Z</time>
      </trkpt>
      <trkpt lat="44.47373" lon="5.57527">
        <ele>1505.56</ele>
        <time>2018-04-26T09:39:59Z</time>
      </trkpt>
      <trkpt lat="44.47373" lon="5.57528">
        <ele>1510.85</ele>
        <time>2018-04-26T09:40:00Z</time>
      </trkpt>
      <trkpt lat="44.47371" lon="5.57529">
        <ele>1507</ele>
        <time>2018-04-26T09:40:02Z</time>
      </trkpt>
      <trkpt lat="44.47369" lon="5.57531">
        <ele>1510.85</ele>
        <time>2018-04-26T09:40:05Z</time>
      </trkpt>
      <trkpt lat="44.47369" lon="5.57531">
        <ele>1505.56</ele>
        <time>2018-04-26T09:40:06Z</time>
      </trkpt>
      <trkpt lat="44.47368" lon="5.57532">
        <ele>1513.73</ele>
        <time>2018-04-26T09:40:07Z</time>
      </trkpt>
      <trkpt lat="44.47368" lon="5.57533">
        <ele>1510.37</ele>
        <time>2018-04-26T09:40:08Z</time>
      </trkpt>
      <trkpt lat="44.47361" lon="5.57538">
        <ele>1509.89</ele>
        <time>2018-04-26T09:40:19Z</time>
      </trkpt>
      <trkpt lat="44.47357" lon="5.57539">
        <ele>1508.93</ele>
        <time>2018-04-26T09:40:28Z</time>
      </trkpt>
      <trkpt lat="44.47357" lon="5.57541">
        <ele>1505.56</ele>
        <time>2018-04-26T09:40:29Z</time>
      </trkpt>
      <trkpt lat="44.47356" lon="5.57541">
        <ele>1509.89</ele>
        <time>2018-04-26T09:40:30Z</time>
      </trkpt>
      <trkpt lat="44.47345" lon="5.57548">
        <ele>1506.04</ele>
        <time>2018-04-26T09:40:43Z</time>
      </trkpt>
      <trkpt lat="44.4734" lon="5.57555">
        <ele>1506.04</ele>
        <time>2018-04-26T09:40:55Z</time>
      </trkpt>
      <trkpt lat="44.47337" lon="5.57558">
        <ele>1502.2</ele>
        <time>2018-04-26T09:41:04Z</time>
      </trkpt>
      <trkpt lat="44.47337" lon="5.57559">
        <ele>1508.45</ele>
        <time>2018-04-26T09:41:05Z</time>
      </trkpt>
      <trkpt lat="44.47337" lon="5.5756">
        <ele>1508.45</ele>
        <time>2018-04-26T09:41:06Z</time>
      </trkpt>
      <trkpt lat="44.47337" lon="5.57564">
        <ele>1504.12</ele>
        <time>2018-04-26T09:41:13Z</time>
      </trkpt>
      <trkpt lat="44.47337" lon="5.57565">
        <ele>1509.89</ele>
        <time>2018-04-26T09:41:14Z</time>
      </trkpt>
      <trkpt lat="44.47337" lon="5.5757">
        <ele>1507</ele>
        <time>2018-04-26T09:41:19Z</time>
      </trkpt>
      <trkpt lat="44.47337" lon="5.5757">
        <ele>1510.85</ele>
        <time>2018-04-26T09:41:20Z</time>
      </trkpt>
      <trkpt lat="44.47337" lon="5.5757">
        <ele>1502.2</ele>
        <time>2018-04-26T09:41:21Z</time>
      </trkpt>
      <trkpt lat="44.47337" lon="5.57571">
        <ele>1511.81</ele>
        <time>2018-04-26T09:41:22Z</time>
      </trkpt>
      <trkpt lat="44.47338" lon="5.57571">
        <ele>1514.69</ele>
        <time>2018-04-26T09:41:25Z</time>
      </trkpt>
      <trkpt lat="44.47338" lon="5.57572">
        <ele>1506.04</ele>
        <time>2018-04-26T09:41:26Z</time>
      </trkpt>
      <trkpt lat="44.47338" lon="5.57572">
        <ele>1513.73</ele>
        <time>2018-04-26T09:41:27Z</time>
      </trkpt>
      <trkpt lat="44.47338" lon="5.57577">
        <ele>1509.41</ele>
        <time>2018-04-26T09:41:35Z</time>
      </trkpt>
      <trkpt lat="44.47338" lon="5.57578">
        <ele>1509.89</ele>
        <time>2018-04-26T09:41:36Z</time>
      </trkpt>
      <trkpt lat="44.47338" lon="5.57578">
        <ele>1515.66</ele>
        <time>2018-04-26T09:41:37Z</time>
      </trkpt>
      <trkpt lat="44.47338" lon="5.57579">
        <ele>1509.41</ele>
        <time>2018-04-26T09:41:38Z</time>
      </trkpt>
      <trkpt lat="44.47337" lon="5.57579">
        <ele>1515.66</ele>
        <time>2018-04-26T09:41:39Z</time>
      </trkpt>
      <trkpt lat="44.47335" lon="5.57582">
        <ele>1510.37</ele>
        <time>2018-04-26T09:41:44Z</time>
      </trkpt>
      <trkpt lat="44.47335" lon="5.57583">
        <ele>1515.66</ele>
        <time>2018-04-26T09:41:45Z</time>
      </trkpt>
      <trkpt lat="44.47332" lon="5.57589">
        <ele>1511.81</ele>
        <time>2018-04-26T09:41:54Z</time>
      </trkpt>
      <trkpt lat="44.47332" lon="5.57591">
        <ele>1515.18</ele>
        <time>2018-04-26T09:41:56Z</time>
      </trkpt>
      <trkpt lat="44.47331" lon="5.57595">
        <ele>1511.81</ele>
        <time>2018-04-26T09:41:59Z</time>
      </trkpt>
      <trkpt lat="44.47331" lon="5.57596">
        <ele>1515.66</ele>
        <time>2018-04-26T09:42:00Z</time>
      </trkpt>
      <trkpt lat="44.47333" lon="5.57601">
        <ele>1517.58</ele>
        <time>2018-04-26T09:42:07Z</time>
      </trkpt>
      <trkpt lat="44.47333" lon="5.57602">
        <ele>1513.73</ele>
        <time>2018-04-26T09:42:10Z</time>
      </trkpt>
      <trkpt lat="44.47333" lon="5.57603">
        <ele>1517.58</ele>
        <time>2018-04-26T09:42:11Z</time>
      </trkpt>
      <trkpt lat="44.47327" lon="5.57609">
        <ele>1517.58</ele>
        <time>2018-04-26T09:42:23Z</time>
      </trkpt>
      <trkpt lat="44.47327" lon="5.5761">
        <ele>1514.21</ele>
        <time>2018-04-26T09:42:28Z</time>
      </trkpt>
      <trkpt lat="44.47327" lon="5.5761">
        <ele>1519.98</ele>
        <time>2018-04-26T09:42:29Z</time>
      </trkpt>
      <trkpt lat="44.47327" lon="5.5761">
        <ele>1516.62</ele>
        <time>2018-04-26T09:42:30Z</time>
      </trkpt>
      <trkpt lat="44.47323" lon="5.57617">
        <ele>1519.5</ele>
        <time>2018-04-26T09:42:39Z</time>
      </trkpt>
      <trkpt lat="44.47322" lon="5.57618">
        <ele>1516.14</ele>
        <time>2018-04-26T09:42:40Z</time>
      </trkpt>
      <trkpt lat="44.47322" lon="5.57619">
        <ele>1519.5</ele>
        <time>2018-04-26T09:42:42Z</time>
      </trkpt>
      <trkpt lat="44.47322" lon="5.57621">
        <ele>1515.66</ele>
        <time>2018-04-26T09:42:45Z</time>
      </trkpt>
      <trkpt lat="44.47322" lon="5.57622">
        <ele>1519.5</ele>
        <time>2018-04-26T09:42:46Z</time>
      </trkpt>
      <trkpt lat="44.4732" lon="5.57633">
        <ele>1515.66</ele>
        <time>2018-04-26T09:42:57Z</time>
      </trkpt>
      <trkpt lat="44.47319" lon="5.57634">
        <ele>1520.94</ele>
        <time>2018-04-26T09:42:58Z</time>
      </trkpt>
      <trkpt lat="44.47318" lon="5.57638">
        <ele>1514.69</ele>
        <time>2018-04-26T09:43:02Z</time>
      </trkpt>
      <trkpt lat="44.47318" lon="5.57639">
        <ele>1521.42</ele>
        <time>2018-04-26T09:43:03Z</time>
      </trkpt>
      <trkpt lat="44.47317" lon="5.57641">
        <ele>1517.1</ele>
        <time>2018-04-26T09:43:05Z</time>
      </trkpt>
      <trkpt lat="44.47316" lon="5.57642">
        <ele>1518.06</ele>
        <time>2018-04-26T09:43:06Z</time>
      </trkpt>
      <trkpt lat="44.47315" lon="5.57643">
        <ele>1521.9</ele>
        <time>2018-04-26T09:43:07Z</time>
      </trkpt>
      <trkpt lat="44.47315" lon="5.57645">
        <ele>1517.1</ele>
        <time>2018-04-26T09:43:08Z</time>
      </trkpt>
      <trkpt lat="44.47315" lon="5.5765">
        <ele>1517.58</ele>
        <time>2018-04-26T09:43:13Z</time>
      </trkpt>
      <trkpt lat="44.47315" lon="5.57651">
        <ele>1522.39</ele>
        <time>2018-04-26T09:43:14Z</time>
      </trkpt>
      <trkpt lat="44.47313" lon="5.57655">
        <ele>1519.02</ele>
        <time>2018-04-26T09:43:21Z</time>
      </trkpt>
      <trkpt lat="44.47312" lon="5.57655">
        <ele>1523.35</ele>
        <time>2018-04-26T09:43:22Z</time>
      </trkpt>
      <trkpt lat="44.47307" lon="5.57664">
        <ele>1525.27</ele>
        <time>2018-04-26T09:43:34Z</time>
      </trkpt>
      <trkpt lat="44.47303" lon="5.57668">
        <ele>1520.94</ele>
        <time>2018-04-26T09:43:40Z</time>
      </trkpt>
      <trkpt lat="44.47303" lon="5.57668">
        <ele>1528.15</ele>
        <time>2018-04-26T09:43:41Z</time>
      </trkpt>
      <trkpt lat="44.47303" lon="5.57669">
        <ele>1519.02</ele>
        <time>2018-04-26T09:43:42Z</time>
      </trkpt>
      <trkpt lat="44.47303" lon="5.57669">
        <ele>1525.75</ele>
        <time>2018-04-26T09:43:43Z</time>
      </trkpt>
      <trkpt lat="44.47303" lon="5.57669">
        <ele>1529.11</ele>
        <time>2018-04-26T09:43:45Z</time>
      </trkpt>
      <trkpt lat="44.47303" lon="5.57669">
        <ele>1522.39</ele>
        <time>2018-04-26T09:43:46Z</time>
      </trkpt>
      <trkpt lat="44.47303" lon="5.5767">
        <ele>1525.75</ele>
        <time>2018-04-26T09:43:47Z</time>
      </trkpt>
      <trkpt lat="44.47303" lon="5.5767">
        <ele>1529.11</ele>
        <time>2018-04-26T09:43:48Z</time>
      </trkpt>
      <trkpt lat="44.47303" lon="5.5767">
        <ele>1521.42</ele>
        <time>2018-04-26T09:43:49Z</time>
      </trkpt>
      <trkpt lat="44.47303" lon="5.5767">
        <ele>1527.19</ele>
        <time>2018-04-26T09:43:50Z</time>
      </trkpt>
      <trkpt lat="44.47303" lon="5.57671">
        <ele>1521.42</ele>
        <time>2018-04-26T09:43:51Z</time>
      </trkpt>
      <trkpt lat="44.47303" lon="5.57671">
        <ele>1526.71</ele>
        <time>2018-04-26T09:43:52Z</time>
      </trkpt>
      <trkpt lat="44.47304" lon="5.57675">
        <ele>1522.39</ele>
        <time>2018-04-26T09:43:58Z</time>
      </trkpt>
      <trkpt lat="44.47305" lon="5.57676">
        <ele>1528.15</ele>
        <time>2018-04-26T09:43:59Z</time>
      </trkpt>
      <trkpt lat="44.47304" lon="5.5768">
        <ele>1524.31</ele>
        <time>2018-04-26T09:44:03Z</time>
      </trkpt>
      <trkpt lat="44.47303" lon="5.57682">
        <ele>1529.59</ele>
        <time>2018-04-26T09:44:05Z</time>
      </trkpt>
      <trkpt lat="44.47303" lon="5.57682">
        <ele>1525.75</ele>
        <time>2018-04-26T09:44:06Z</time>
      </trkpt>
      <trkpt lat="44.47303" lon="5.57683">
        <ele>1529.59</ele>
        <time>2018-04-26T09:44:07Z</time>
      </trkpt>
      <trkpt lat="44.473" lon="5.57687">
        <ele>1526.23</ele>
        <time>2018-04-26T09:44:14Z</time>
      </trkpt>
      <trkpt lat="44.47299" lon="5.57687">
        <ele>1526.71</ele>
        <time>2018-04-26T09:44:15Z</time>
      </trkpt>
      <trkpt lat="44.47297" lon="5.57689">
        <ele>1531.04</ele>
        <time>2018-04-26T09:44:17Z</time>
      </trkpt>
      <trkpt lat="44.47296" lon="5.57691">
        <ele>1527.19</ele>
        <time>2018-04-26T09:44:19Z</time>
      </trkpt>
      <trkpt lat="44.47295" lon="5.57693">
        <ele>1531.52</ele>
        <time>2018-04-26T09:44:21Z</time>
      </trkpt>
      <trkpt lat="44.47294" lon="5.57693">
        <ele>1526.71</ele>
        <time>2018-04-26T09:44:22Z</time>
      </trkpt>
      <trkpt lat="44.47294" lon="5.57694">
        <ele>1530.56</ele>
        <time>2018-04-26T09:44:23Z</time>
      </trkpt>
      <trkpt lat="44.47293" lon="5.57697">
        <ele>1526.71</ele>
        <time>2018-04-26T09:44:26Z</time>
      </trkpt>
      <trkpt lat="44.47293" lon="5.57697">
        <ele>1531.04</ele>
        <time>2018-04-26T09:44:27Z</time>
      </trkpt>
      <trkpt lat="44.47289" lon="5.57701">
        <ele>1527.67</ele>
        <time>2018-04-26T09:44:38Z</time>
      </trkpt>
      <trkpt lat="44.47289" lon="5.57701">
        <ele>1532.96</ele>
        <time>2018-04-26T09:44:39Z</time>
      </trkpt>
      <trkpt lat="44.47288" lon="5.57701">
        <ele>1532.96</ele>
        <time>2018-04-26T09:44:40Z</time>
      </trkpt>
      <trkpt lat="44.47287" lon="5.57701">
        <ele>1529.11</ele>
        <time>2018-04-26T09:44:43Z</time>
      </trkpt>
      <trkpt lat="44.47287" lon="5.57702">
        <ele>1533.44</ele>
        <time>2018-04-26T09:44:44Z</time>
      </trkpt>
      <trkpt lat="44.47287" lon="5.57702">
        <ele>1530.56</ele>
        <time>2018-04-26T09:44:45Z</time>
      </trkpt>
      <trkpt lat="44.47286" lon="5.57704">
        <ele>1531.04</ele>
        <time>2018-04-26T09:44:50Z</time>
      </trkpt>
      <trkpt lat="44.47284" lon="5.57705">
        <ele>1530.56</ele>
        <time>2018-04-26T09:44:52Z</time>
      </trkpt>
      <trkpt lat="44.47281" lon="5.5771">
        <ele>1527.67</ele>
        <time>2018-04-26T09:44:57Z</time>
      </trkpt>
      <trkpt lat="44.4728" lon="5.5771">
        <ele>1533.92</ele>
        <time>2018-04-26T09:44:58Z</time>
      </trkpt>
      <trkpt lat="44.47279" lon="5.57711">
        <ele>1529.11</ele>
        <time>2018-04-26T09:45:00Z</time>
      </trkpt>
      <trkpt lat="44.47279" lon="5.57712">
        <ele>1533.44</ele>
        <time>2018-04-26T09:45:01Z</time>
      </trkpt>
      <trkpt lat="44.4728" lon="5.57713">
        <ele>1529.11</ele>
        <time>2018-04-26T09:45:03Z</time>
      </trkpt>
      <trkpt lat="44.4728" lon="5.57714">
        <ele>1533.44</ele>
        <time>2018-04-26T09:45:04Z</time>
      </trkpt>
      <trkpt lat="44.47279" lon="5.57716">
        <ele>1539.21</ele>
        <time>2018-04-26T09:45:06Z</time>
      </trkpt>
      <trkpt lat="44.47279" lon="5.57717">
        <ele>1532</ele>
        <time>2018-04-26T09:45:07Z</time>
      </trkpt>
      <trkpt lat="44.47279" lon="5.57718">
        <ele>1535.36</ele>
        <time>2018-04-26T09:45:08Z</time>
      </trkpt>
      <trkpt lat="44.47277" lon="5.57719">
        <ele>1532.48</ele>
        <time>2018-04-26T09:45:14Z</time>
      </trkpt>
      <trkpt lat="44.47278" lon="5.5772">
        <ele>1539.69</ele>
        <time>2018-04-26T09:45:15Z</time>
      </trkpt>
      <trkpt lat="44.47278" lon="5.5772">
        <ele>1533.92</ele>
        <time>2018-04-26T09:45:16Z</time>
      </trkpt>
      <trkpt lat="44.47278" lon="5.5772">
        <ele>1538.25</ele>
        <time>2018-04-26T09:45:20Z</time>
      </trkpt>
      <trkpt lat="44.47277" lon="5.5772">
        <ele>1533.92</ele>
        <time>2018-04-26T09:45:21Z</time>
      </trkpt>
      <trkpt lat="44.47277" lon="5.5772">
        <ele>1537.29</ele>
        <time>2018-04-26T09:45:22Z</time>
      </trkpt>
      <trkpt lat="44.47275" lon="5.57721">
        <ele>1531.52</ele>
        <time>2018-04-26T09:45:26Z</time>
      </trkpt>
      <trkpt lat="44.47275" lon="5.57722">
        <ele>1538.25</ele>
        <time>2018-04-26T09:45:27Z</time>
      </trkpt>
      <trkpt lat="44.47275" lon="5.57723">
        <ele>1541.61</ele>
        <time>2018-04-26T09:45:28Z</time>
      </trkpt>
      <trkpt lat="44.47275" lon="5.57723">
        <ele>1534.4</ele>
        <time>2018-04-26T09:45:30Z</time>
      </trkpt>
      <trkpt lat="44.47275" lon="5.57725">
        <ele>1539.21</ele>
        <time>2018-04-26T09:45:31Z</time>
      </trkpt>
      <trkpt lat="44.47273" lon="5.57732">
        <ele>1532.96</ele>
        <time>2018-04-26T09:45:35Z</time>
      </trkpt>
      <trkpt lat="44.47273" lon="5.57733">
        <ele>1540.17</ele>
        <time>2018-04-26T09:45:36Z</time>
      </trkpt>
      <trkpt lat="44.4727" lon="5.57737">
        <ele>1536.32</ele>
        <time>2018-04-26T09:45:43Z</time>
      </trkpt>
      <trkpt lat="44.4727" lon="5.57738">
        <ele>1541.61</ele>
        <time>2018-04-26T09:45:44Z</time>
      </trkpt>
      <trkpt lat="44.47269" lon="5.57741">
        <ele>1536.8</ele>
        <time>2018-04-26T09:45:48Z</time>
      </trkpt>
      <trkpt lat="44.47268" lon="5.57742">
        <ele>1542.09</ele>
        <time>2018-04-26T09:45:49Z</time>
      </trkpt>
      <trkpt lat="44.47268" lon="5.57744">
        <ele>1535.84</ele>
        <time>2018-04-26T09:45:50Z</time>
      </trkpt>
      <trkpt lat="44.47268" lon="5.57745">
        <ele>1543.53</ele>
        <time>2018-04-26T09:45:51Z</time>
      </trkpt>
      <trkpt lat="44.47267" lon="5.57746">
        <ele>1537.77</ele>
        <time>2018-04-26T09:45:53Z</time>
      </trkpt>
      <trkpt lat="44.47267" lon="5.57747">
        <ele>1543.05</ele>
        <time>2018-04-26T09:45:54Z</time>
      </trkpt>
      <trkpt lat="44.47267" lon="5.57748">
        <ele>1537.29</ele>
        <time>2018-04-26T09:45:56Z</time>
      </trkpt>
      <trkpt lat="44.47267" lon="5.57749">
        <ele>1544.01</ele>
        <time>2018-04-26T09:45:57Z</time>
      </trkpt>
      <trkpt lat="44.47267" lon="5.5775">
        <ele>1540.65</ele>
        <time>2018-04-26T09:45:59Z</time>
      </trkpt>
      <trkpt lat="44.47266" lon="5.57751">
        <ele>1545.94</ele>
        <time>2018-04-26T09:46:00Z</time>
      </trkpt>
      <trkpt lat="44.47266" lon="5.57752">
        <ele>1538.73</ele>
        <time>2018-04-26T09:46:01Z</time>
      </trkpt>
      <trkpt lat="44.47266" lon="5.57752">
        <ele>1544.98</ele>
        <time>2018-04-26T09:46:02Z</time>
      </trkpt>
      <trkpt lat="44.47265" lon="5.57759">
        <ele>1540.65</ele>
        <time>2018-04-26T09:46:14Z</time>
      </trkpt>
      <trkpt lat="44.47264" lon="5.57759">
        <ele>1546.42</ele>
        <time>2018-04-26T09:46:15Z</time>
      </trkpt>
      <trkpt lat="44.47262" lon="5.57763">
        <ele>1542.57</ele>
        <time>2018-04-26T09:46:20Z</time>
      </trkpt>
      <trkpt lat="44.47261" lon="5.57764">
        <ele>1547.38</ele>
        <time>2018-04-26T09:46:21Z</time>
      </trkpt>
      <trkpt lat="44.4726" lon="5.57768">
        <ele>1542.57</ele>
        <time>2018-04-26T09:46:27Z</time>
      </trkpt>
      <trkpt lat="44.4726" lon="5.57768">
        <ele>1547.38</ele>
        <time>2018-04-26T09:46:28Z</time>
      </trkpt>
      <trkpt lat="44.4726" lon="5.5777">
        <ele>1544.5</ele>
        <time>2018-04-26T09:46:32Z</time>
      </trkpt>
      <trkpt lat="44.4726" lon="5.57771">
        <ele>1548.82</ele>
        <time>2018-04-26T09:46:33Z</time>
      </trkpt>
      <trkpt lat="44.47259" lon="5.57774">
        <ele>1548.82</ele>
        <time>2018-04-26T09:46:49Z</time>
      </trkpt>
      <trkpt lat="44.4726" lon="5.57774">
        <ele>1547.38</ele>
        <time>2018-04-26T09:47:09Z</time>
      </trkpt>
      <trkpt lat="44.47255" lon="5.57779">
        <ele>1546.9</ele>
        <time>2018-04-26T09:47:24Z</time>
      </trkpt>
      <trkpt lat="44.47251" lon="5.57781">
        <ele>1549.78</ele>
        <time>2018-04-26T09:47:29Z</time>
      </trkpt>
      <trkpt lat="44.47251" lon="5.57782">
        <ele>1542.57</ele>
        <time>2018-04-26T09:47:30Z</time>
      </trkpt>
      <trkpt lat="44.47251" lon="5.57783">
        <ele>1550.26</ele>
        <time>2018-04-26T09:47:31Z</time>
      </trkpt>
      <trkpt lat="44.47249" lon="5.57789">
        <ele>1547.38</ele>
        <time>2018-04-26T09:47:39Z</time>
      </trkpt>
      <trkpt lat="44.47249" lon="5.5779">
        <ele>1550.74</ele>
        <time>2018-04-26T09:47:40Z</time>
      </trkpt>
      <trkpt lat="44.47247" lon="5.57792">
        <ele>1546.9</ele>
        <time>2018-04-26T09:47:44Z</time>
      </trkpt>
      <trkpt lat="44.47248" lon="5.57793">
        <ele>1551.71</ele>
        <time>2018-04-26T09:47:45Z</time>
      </trkpt>
      <trkpt lat="44.47248" lon="5.57793">
        <ele>1545.94</ele>
        <time>2018-04-26T09:47:46Z</time>
      </trkpt>
      <trkpt lat="44.47248" lon="5.57794">
        <ele>1551.71</ele>
        <time>2018-04-26T09:47:47Z</time>
      </trkpt>
      <trkpt lat="44.47246" lon="5.57799">
        <ele>1547.38</ele>
        <time>2018-04-26T09:47:53Z</time>
      </trkpt>
      <trkpt lat="44.47245" lon="5.578">
        <ele>1553.63</ele>
        <time>2018-04-26T09:47:55Z</time>
      </trkpt>
      <trkpt lat="44.47245" lon="5.57801">
        <ele>1548.34</ele>
        <time>2018-04-26T09:47:56Z</time>
      </trkpt>
      <trkpt lat="44.47244" lon="5.57801">
        <ele>1552.19</ele>
        <time>2018-04-26T09:47:57Z</time>
      </trkpt>
      <trkpt lat="44.47239" lon="5.57805">
        <ele>1554.11</ele>
        <time>2018-04-26T09:48:06Z</time>
      </trkpt>
      <trkpt lat="44.47239" lon="5.57806">
        <ele>1553.15</ele>
        <time>2018-04-26T09:48:25Z</time>
      </trkpt>
      <trkpt lat="44.47238" lon="5.57806">
        <ele>1552.19</ele>
        <time>2018-04-26T09:48:44Z</time>
      </trkpt>
      <trkpt lat="44.47237" lon="5.57808">
        <ele>1556.51</ele>
        <time>2018-04-26T09:49:00Z</time>
      </trkpt>
      <trkpt lat="44.47237" lon="5.57809">
        <ele>1553.15</ele>
        <time>2018-04-26T09:49:01Z</time>
      </trkpt>
      <trkpt lat="44.47234" lon="5.57812">
        <ele>1556.03</ele>
        <time>2018-04-26T09:49:09Z</time>
      </trkpt>
      <trkpt lat="44.47231" lon="5.57814">
        <ele>1556.03</ele>
        <time>2018-04-26T09:49:11Z</time>
      </trkpt>
      <trkpt lat="44.47227" lon="5.5782">
        <ele>1558.43</ele>
        <time>2018-04-26T09:49:18Z</time>
      </trkpt>
      <trkpt lat="44.47226" lon="5.57822">
        <ele>1554.11</ele>
        <time>2018-04-26T09:49:20Z</time>
      </trkpt>
      <trkpt lat="44.47226" lon="5.57823">
        <ele>1558.43</ele>
        <time>2018-04-26T09:49:21Z</time>
      </trkpt>
      <trkpt lat="44.47225" lon="5.57827">
        <ele>1560.36</ele>
        <time>2018-04-26T09:49:25Z</time>
      </trkpt>
      <trkpt lat="44.47225" lon="5.57828">
        <ele>1555.55</ele>
        <time>2018-04-26T09:49:26Z</time>
      </trkpt>
      <trkpt lat="44.47225" lon="5.57829">
        <ele>1561.32</ele>
        <time>2018-04-26T09:49:27Z</time>
      </trkpt>
      <trkpt lat="44.47224" lon="5.57832">
        <ele>1556.99</ele>
        <time>2018-04-26T09:49:29Z</time>
      </trkpt>
      <trkpt lat="44.47221" lon="5.57836">
        <ele>1558.43</ele>
        <time>2018-04-26T09:49:33Z</time>
      </trkpt>
      <trkpt lat="44.47213" lon="5.57847">
        <ele>1559.4</ele>
        <time>2018-04-26T09:49:43Z</time>
      </trkpt>
      <trkpt lat="44.47208" lon="5.57858">
        <ele>1562.76</ele>
        <time>2018-04-26T09:49:55Z</time>
      </trkpt>
      <trkpt lat="44.47208" lon="5.57858">
        <ele>1556.99</ele>
        <time>2018-04-26T09:49:56Z</time>
      </trkpt>
      <trkpt lat="44.47208" lon="5.57858">
        <ele>1561.8</ele>
        <time>2018-04-26T09:49:57Z</time>
      </trkpt>
      <trkpt lat="44.47208" lon="5.57858">
        <ele>1558.43</ele>
        <time>2018-04-26T09:49:58Z</time>
      </trkpt>
      <trkpt lat="44.47208" lon="5.57859">
        <ele>1562.28</ele>
        <time>2018-04-26T09:50:01Z</time>
      </trkpt>
      <trkpt lat="44.47202" lon="5.57869">
        <ele>1563.24</ele>
        <time>2018-04-26T09:50:12Z</time>
      </trkpt>
      <trkpt lat="44.47202" lon="5.57872">
        <ele>1567.57</ele>
        <time>2018-04-26T09:50:23Z</time>
      </trkpt>
      <trkpt lat="44.47202" lon="5.57872">
        <ele>1561.8</ele>
        <time>2018-04-26T09:50:24Z</time>
      </trkpt>
      <trkpt lat="44.47202" lon="5.57873">
        <ele>1566.12</ele>
        <time>2018-04-26T09:50:25Z</time>
      </trkpt>
      <trkpt lat="44.47199" lon="5.57881">
        <ele>1569.97</ele>
        <time>2018-04-26T09:50:36Z</time>
      </trkpt>
      <trkpt lat="44.47199" lon="5.57881">
        <ele>1567.09</ele>
        <time>2018-04-26T09:50:37Z</time>
      </trkpt>
      <trkpt lat="44.47199" lon="5.57882">
        <ele>1570.45</ele>
        <time>2018-04-26T09:50:38Z</time>
      </trkpt>
      <trkpt lat="44.47198" lon="5.57883">
        <ele>1564.2</ele>
        <time>2018-04-26T09:50:39Z</time>
      </trkpt>
      <trkpt lat="44.47198" lon="5.57884">
        <ele>1568.53</ele>
        <time>2018-04-26T09:50:40Z</time>
      </trkpt>
      <trkpt lat="44.47197" lon="5.57894">
        <ele>1565.16</ele>
        <time>2018-04-26T09:50:51Z</time>
      </trkpt>
      <trkpt lat="44.47197" lon="5.57895">
        <ele>1568.53</ele>
        <time>2018-04-26T09:50:52Z</time>
      </trkpt>
      <trkpt lat="44.47195" lon="5.579">
        <ele>1565.64</ele>
        <time>2018-04-26T09:51:00Z</time>
      </trkpt>
      <trkpt lat="44.47193" lon="5.57903">
        <ele>1565.16</ele>
        <time>2018-04-26T09:51:03Z</time>
      </trkpt>
      <trkpt lat="44.47191" lon="5.57907">
        <ele>1566.61</ele>
        <time>2018-04-26T09:51:06Z</time>
      </trkpt>
      <trkpt lat="44.47191" lon="5.57908">
        <ele>1571.41</ele>
        <time>2018-04-26T09:51:07Z</time>
      </trkpt>
      <trkpt lat="44.4719" lon="5.5791">
        <ele>1567.09</ele>
        <time>2018-04-26T09:51:09Z</time>
      </trkpt>
      <trkpt lat="44.4719" lon="5.5791">
        <ele>1571.41</ele>
        <time>2018-04-26T09:51:10Z</time>
      </trkpt>
      <trkpt lat="44.47188" lon="5.57914">
        <ele>1567.09</ele>
        <time>2018-04-26T09:51:17Z</time>
      </trkpt>
      <trkpt lat="44.47187" lon="5.57915">
        <ele>1573.82</ele>
        <time>2018-04-26T09:51:18Z</time>
      </trkpt>
      <trkpt lat="44.47187" lon="5.57915">
        <ele>1569.97</ele>
        <time>2018-04-26T09:51:19Z</time>
      </trkpt>
      <trkpt lat="44.47186" lon="5.57915">
        <ele>1572.85</ele>
        <time>2018-04-26T09:51:20Z</time>
      </trkpt>
      <trkpt lat="44.47185" lon="5.57918">
        <ele>1577.18</ele>
        <time>2018-04-26T09:51:26Z</time>
      </trkpt>
      <trkpt lat="44.47185" lon="5.57919">
        <ele>1570.93</ele>
        <time>2018-04-26T09:51:27Z</time>
      </trkpt>
      <trkpt lat="44.47184" lon="5.57919">
        <ele>1575.74</ele>
        <time>2018-04-26T09:51:28Z</time>
      </trkpt>
      <trkpt lat="44.47184" lon="5.57919">
        <ele>1570.45</ele>
        <time>2018-04-26T09:51:29Z</time>
      </trkpt>
      <trkpt lat="44.47184" lon="5.5792">
        <ele>1575.74</ele>
        <time>2018-04-26T09:51:30Z</time>
      </trkpt>
      <trkpt lat="44.47184" lon="5.57921">
        <ele>1569.49</ele>
        <time>2018-04-26T09:51:31Z</time>
      </trkpt>
      <trkpt lat="44.47184" lon="5.57922">
        <ele>1574.78</ele>
        <time>2018-04-26T09:51:32Z</time>
      </trkpt>
      <trkpt lat="44.47181" lon="5.57927">
        <ele>1578.14</ele>
        <time>2018-04-26T09:51:44Z</time>
      </trkpt>
      <trkpt lat="44.47181" lon="5.57928">
        <ele>1573.33</ele>
        <time>2018-04-26T09:51:45Z</time>
      </trkpt>
      <trkpt lat="44.47181" lon="5.5793">
        <ele>1576.7</ele>
        <time>2018-04-26T09:51:49Z</time>
      </trkpt>
      <trkpt lat="44.47181" lon="5.57932">
        <ele>1572.85</ele>
        <time>2018-04-26T09:51:50Z</time>
      </trkpt>
      <trkpt lat="44.47181" lon="5.57933">
        <ele>1576.7</ele>
        <time>2018-04-26T09:51:51Z</time>
      </trkpt>
      <trkpt lat="44.4718" lon="5.57933">
        <ele>1572.85</ele>
        <time>2018-04-26T09:51:52Z</time>
      </trkpt>
      <trkpt lat="44.4718" lon="5.57934">
        <ele>1576.7</ele>
        <time>2018-04-26T09:51:53Z</time>
      </trkpt>
      <trkpt lat="44.47176" lon="5.57944">
        <ele>1577.18</ele>
        <time>2018-04-26T09:52:04Z</time>
      </trkpt>
      <trkpt lat="44.47173" lon="5.57949">
        <ele>1580.06</ele>
        <time>2018-04-26T09:52:09Z</time>
      </trkpt>
      <trkpt lat="44.47173" lon="5.57953">
        <ele>1574.3</ele>
        <time>2018-04-26T09:52:13Z</time>
      </trkpt>
      <trkpt lat="44.47173" lon="5.57954">
        <ele>1580.06</ele>
        <time>2018-04-26T09:52:14Z</time>
      </trkpt>
      <trkpt lat="44.47172" lon="5.57955">
        <ele>1576.22</ele>
        <time>2018-04-26T09:52:15Z</time>
      </trkpt>
      <trkpt lat="44.47172" lon="5.57956">
        <ele>1579.1</ele>
        <time>2018-04-26T09:52:18Z</time>
      </trkpt>
      <trkpt lat="44.47172" lon="5.57956">
        <ele>1575.74</ele>
        <time>2018-04-26T09:52:20Z</time>
      </trkpt>
      <trkpt lat="44.47172" lon="5.57957">
        <ele>1581.03</ele>
        <time>2018-04-26T09:52:21Z</time>
      </trkpt>
      <trkpt lat="44.47171" lon="5.57957">
        <ele>1575.74</ele>
        <time>2018-04-26T09:52:23Z</time>
      </trkpt>
      <trkpt lat="44.47171" lon="5.57958">
        <ele>1578.14</ele>
        <time>2018-04-26T09:52:24Z</time>
      </trkpt>
      <trkpt lat="44.4717" lon="5.57959">
        <ele>1581.03</ele>
        <time>2018-04-26T09:52:26Z</time>
      </trkpt>
      <trkpt lat="44.4717" lon="5.5796">
        <ele>1579.1</ele>
        <time>2018-04-26T09:52:27Z</time>
      </trkpt>
      <trkpt lat="44.47167" lon="5.57965">
        <ele>1579.1</ele>
        <time>2018-04-26T09:52:32Z</time>
      </trkpt>
      <trkpt lat="44.47165" lon="5.5797">
        <ele>1578.14</ele>
        <time>2018-04-26T09:52:36Z</time>
      </trkpt>
      <trkpt lat="44.47164" lon="5.57975">
        <ele>1582.47</ele>
        <time>2018-04-26T09:52:40Z</time>
      </trkpt>
      <trkpt lat="44.47164" lon="5.57976">
        <ele>1577.18</ele>
        <time>2018-04-26T09:52:41Z</time>
      </trkpt>
      <trkpt lat="44.47163" lon="5.57976">
        <ele>1581.51</ele>
        <time>2018-04-26T09:52:42Z</time>
      </trkpt>
      <trkpt lat="44.4716" lon="5.57989">
        <ele>1580.54</ele>
        <time>2018-04-26T09:52:53Z</time>
      </trkpt>
      <trkpt lat="44.47159" lon="5.5799">
        <ele>1580.06</ele>
        <time>2018-04-26T09:52:54Z</time>
      </trkpt>
      <trkpt lat="44.47156" lon="5.57999">
        <ele>1577.66</ele>
        <time>2018-04-26T09:53:02Z</time>
      </trkpt>
      <trkpt lat="44.47155" lon="5.58">
        <ele>1581.99</ele>
        <time>2018-04-26T09:53:03Z</time>
      </trkpt>
      <trkpt lat="44.47153" lon="5.58007">
        <ele>1584.39</ele>
        <time>2018-04-26T09:53:10Z</time>
      </trkpt>
      <trkpt lat="44.47152" lon="5.58008">
        <ele>1579.58</ele>
        <time>2018-04-26T09:53:11Z</time>
      </trkpt>
      <trkpt lat="44.47152" lon="5.58009">
        <ele>1582.95</ele>
        <time>2018-04-26T09:53:12Z</time>
      </trkpt>
      <trkpt lat="44.47151" lon="5.58011">
        <ele>1586.31</ele>
        <time>2018-04-26T09:53:15Z</time>
      </trkpt>
      <trkpt lat="44.4715" lon="5.58011">
        <ele>1581.03</ele>
        <time>2018-04-26T09:53:16Z</time>
      </trkpt>
      <trkpt lat="44.4715" lon="5.58012">
        <ele>1584.87</ele>
        <time>2018-04-26T09:53:17Z</time>
      </trkpt>
      <trkpt lat="44.47151" lon="5.58013">
        <ele>1580.54</ele>
        <time>2018-04-26T09:53:18Z</time>
      </trkpt>
      <trkpt lat="44.4715" lon="5.58015">
        <ele>1586.31</ele>
        <time>2018-04-26T09:53:20Z</time>
      </trkpt>
      <trkpt lat="44.4715" lon="5.58016">
        <ele>1581.51</ele>
        <time>2018-04-26T09:53:21Z</time>
      </trkpt>
      <trkpt lat="44.4715" lon="5.58017">
        <ele>1581.03</ele>
        <time>2018-04-26T09:53:22Z</time>
      </trkpt>
      <trkpt lat="44.47149" lon="5.58018">
        <ele>1584.39</ele>
        <time>2018-04-26T09:53:23Z</time>
      </trkpt>
      <trkpt lat="44.47149" lon="5.58019">
        <ele>1583.91</ele>
        <time>2018-04-26T09:53:24Z</time>
      </trkpt>
      <trkpt lat="44.47148" lon="5.58028">
        <ele>1584.87</ele>
        <time>2018-04-26T09:53:34Z</time>
      </trkpt>
      <trkpt lat="44.47146" lon="5.58039">
        <ele>1586.79</ele>
        <time>2018-04-26T09:53:45Z</time>
      </trkpt>
      <trkpt lat="44.47144" lon="5.58048">
        <ele>1586.79</ele>
        <time>2018-04-26T09:53:57Z</time>
      </trkpt>
      <trkpt lat="44.47141" lon="5.58056">
        <ele>1587.75</ele>
        <time>2018-04-26T09:54:11Z</time>
      </trkpt>
      <trkpt lat="44.47138" lon="5.5806">
        <ele>1589.68</ele>
        <time>2018-04-26T09:54:27Z</time>
      </trkpt>
      <trkpt lat="44.47136" lon="5.58065">
        <ele>1586.31</ele>
        <time>2018-04-26T09:54:32Z</time>
      </trkpt>
      <trkpt lat="44.47135" lon="5.58065">
        <ele>1590.64</ele>
        <time>2018-04-26T09:54:33Z</time>
      </trkpt>
      <trkpt lat="44.47135" lon="5.58066">
        <ele>1586.31</ele>
        <time>2018-04-26T09:54:34Z</time>
      </trkpt>
      <trkpt lat="44.47135" lon="5.58066">
        <ele>1589.68</ele>
        <time>2018-04-26T09:54:35Z</time>
      </trkpt>
      <trkpt lat="44.47128" lon="5.58075">
        <ele>1590.64</ele>
        <time>2018-04-26T09:54:46Z</time>
      </trkpt>
      <trkpt lat="44.47126" lon="5.58077">
        <ele>1592.56</ele>
        <time>2018-04-26T09:54:48Z</time>
      </trkpt>
      <trkpt lat="44.47125" lon="5.58079">
        <ele>1589.2</ele>
        <time>2018-04-26T09:54:53Z</time>
      </trkpt>
      <trkpt lat="44.47125" lon="5.58081">
        <ele>1593.52</ele>
        <time>2018-04-26T09:54:55Z</time>
      </trkpt>
      <trkpt lat="44.47124" lon="5.58083">
        <ele>1593.52</ele>
        <time>2018-04-26T09:54:57Z</time>
      </trkpt>
      <trkpt lat="44.47122" lon="5.58085">
        <ele>1593.04</ele>
        <time>2018-04-26T09:55:09Z</time>
      </trkpt>
      <trkpt lat="44.47122" lon="5.58086">
        <ele>1593.04</ele>
        <time>2018-04-26T09:55:23Z</time>
      </trkpt>
      <trkpt lat="44.47123" lon="5.58086">
        <ele>1593.04</ele>
        <time>2018-04-26T09:55:47Z</time>
      </trkpt>
      <trkpt lat="44.47122" lon="5.58086">
        <ele>1589.2</ele>
        <time>2018-04-26T09:56:00Z</time>
      </trkpt>
      <trkpt lat="44.47122" lon="5.58087">
        <ele>1593.52</ele>
        <time>2018-04-26T09:56:01Z</time>
      </trkpt>
      <trkpt lat="44.47122" lon="5.58087">
        <ele>1590.16</ele>
        <time>2018-04-26T09:56:02Z</time>
      </trkpt>
      <trkpt lat="44.47121" lon="5.5809">
        <ele>1594</ele>
        <time>2018-04-26T09:56:05Z</time>
      </trkpt>
      <trkpt lat="44.47121" lon="5.58091">
        <ele>1591.12</ele>
        <time>2018-04-26T09:56:06Z</time>
      </trkpt>
      <trkpt lat="44.47119" lon="5.58095">
        <ele>1594.96</ele>
        <time>2018-04-26T09:56:10Z</time>
      </trkpt>
      <trkpt lat="44.47118" lon="5.58096">
        <ele>1589.2</ele>
        <time>2018-04-26T09:56:11Z</time>
      </trkpt>
      <trkpt lat="44.47118" lon="5.58098">
        <ele>1594.48</ele>
        <time>2018-04-26T09:56:12Z</time>
      </trkpt>
      <trkpt lat="44.47118" lon="5.58109">
        <ele>1594.48</ele>
        <time>2018-04-26T09:56:25Z</time>
      </trkpt>
      <trkpt lat="44.47117" lon="5.5811">
        <ele>1597.85</ele>
        <time>2018-04-26T09:56:26Z</time>
      </trkpt>
      <trkpt lat="44.47117" lon="5.58111">
        <ele>1593.52</ele>
        <time>2018-04-26T09:56:27Z</time>
      </trkpt>
      <trkpt lat="44.47116" lon="5.58113">
        <ele>1596.89</ele>
        <time>2018-04-26T09:56:29Z</time>
      </trkpt>
      <trkpt lat="44.47116" lon="5.58114">
        <ele>1594.96</ele>
        <time>2018-04-26T09:56:30Z</time>
      </trkpt>
      <trkpt lat="44.47114" lon="5.58118">
        <ele>1599.77</ele>
        <time>2018-04-26T09:56:38Z</time>
      </trkpt>
      <trkpt lat="44.47113" lon="5.58119">
        <ele>1595.93</ele>
        <time>2018-04-26T09:56:39Z</time>
      </trkpt>
      <trkpt lat="44.47113" lon="5.5812">
        <ele>1596.41</ele>
        <time>2018-04-26T09:56:40Z</time>
      </trkpt>
      <trkpt lat="44.47112" lon="5.58123">
        <ele>1598.33</ele>
        <time>2018-04-26T09:56:42Z</time>
      </trkpt>
      <trkpt lat="44.47111" lon="5.58129">
        <ele>1601.69</ele>
        <time>2018-04-26T09:56:49Z</time>
      </trkpt>
      <trkpt lat="44.47111" lon="5.58129">
        <ele>1596.41</ele>
        <time>2018-04-26T09:56:50Z</time>
      </trkpt>
      <trkpt lat="44.47111" lon="5.5813">
        <ele>1600.73</ele>
        <time>2018-04-26T09:56:51Z</time>
      </trkpt>
      <trkpt lat="44.47111" lon="5.58132">
        <ele>1595.93</ele>
        <time>2018-04-26T09:56:56Z</time>
      </trkpt>
      <trkpt lat="44.47111" lon="5.58133">
        <ele>1601.69</ele>
        <time>2018-04-26T09:56:57Z</time>
      </trkpt>
      <trkpt lat="44.4711" lon="5.58137">
        <ele>1598.33</ele>
        <time>2018-04-26T09:57:01Z</time>
      </trkpt>
      <trkpt lat="44.47109" lon="5.58138">
        <ele>1601.69</ele>
        <time>2018-04-26T09:57:02Z</time>
      </trkpt>
      <trkpt lat="44.47106" lon="5.58146">
        <ele>1602.66</ele>
        <time>2018-04-26T09:57:13Z</time>
      </trkpt>
      <trkpt lat="44.47106" lon="5.58147">
        <ele>1599.29</ele>
        <time>2018-04-26T09:57:15Z</time>
      </trkpt>
      <trkpt lat="44.47107" lon="5.5815">
        <ele>1602.66</ele>
        <time>2018-04-26T09:57:25Z</time>
      </trkpt>
      <trkpt lat="44.47107" lon="5.58157">
        <ele>1597.85</ele>
        <time>2018-04-26T09:57:34Z</time>
      </trkpt>
      <trkpt lat="44.47107" lon="5.58157">
        <ele>1605.54</ele>
        <time>2018-04-26T09:57:35Z</time>
      </trkpt>
      <trkpt lat="44.47107" lon="5.58158">
        <ele>1602.17</ele>
        <time>2018-04-26T09:57:36Z</time>
      </trkpt>
      <trkpt lat="44.47107" lon="5.58158">
        <ele>1606.02</ele>
        <time>2018-04-26T09:57:37Z</time>
      </trkpt>
      <trkpt lat="44.47107" lon="5.58159">
        <ele>1601.69</ele>
        <time>2018-04-26T09:57:45Z</time>
      </trkpt>
      <trkpt lat="44.47108" lon="5.58159">
        <ele>1606.5</ele>
        <time>2018-04-26T09:57:46Z</time>
      </trkpt>
      <trkpt lat="44.47108" lon="5.58159">
        <ele>1603.14</ele>
        <time>2018-04-26T09:57:48Z</time>
      </trkpt>
      <trkpt lat="44.47109" lon="5.5816">
        <ele>1606.98</ele>
        <time>2018-04-26T09:57:57Z</time>
      </trkpt>
      <trkpt lat="44.47108" lon="5.58161">
        <ele>1605.06</ele>
        <time>2018-04-26T09:58:15Z</time>
      </trkpt>
      <trkpt lat="44.47105" lon="5.58164">
        <ele>1601.69</ele>
        <time>2018-04-26T09:58:32Z</time>
      </trkpt>
      <trkpt lat="44.47104" lon="5.58165">
        <ele>1605.06</ele>
        <time>2018-04-26T09:58:33Z</time>
      </trkpt>
      <trkpt lat="44.47103" lon="5.58165">
        <ele>1601.21</ele>
        <time>2018-04-26T09:58:46Z</time>
      </trkpt>
      <trkpt lat="44.47103" lon="5.58165">
        <ele>1604.58</ele>
        <time>2018-04-26T09:58:47Z</time>
      </trkpt>
      <trkpt lat="44.47099" lon="5.58166">
        <ele>1602.17</ele>
        <time>2018-04-26T09:58:58Z</time>
      </trkpt>
      <trkpt lat="44.47098" lon="5.58166">
        <ele>1601.69</ele>
        <time>2018-04-26T09:59:12Z</time>
      </trkpt>
      <trkpt lat="44.47094" lon="5.58176">
        <ele>1602.66</ele>
        <time>2018-04-26T09:59:25Z</time>
      </trkpt>
      <trkpt lat="44.47092" lon="5.58185">
        <ele>1602.66</ele>
        <time>2018-04-26T09:59:36Z</time>
      </trkpt>
      <trkpt lat="44.47091" lon="5.58188">
        <ele>1603.14</ele>
        <time>2018-04-26T09:59:51Z</time>
      </trkpt>
      <trkpt lat="44.4709" lon="5.58188">
        <ele>1603.62</ele>
        <time>2018-04-26T10:00:17Z</time>
      </trkpt>
      <trkpt lat="44.4709" lon="5.58189">
        <ele>1603.62</ele>
        <time>2018-04-26T10:00:39Z</time>
      </trkpt>
      <trkpt lat="44.4709" lon="5.5819">
        <ele>1604.1</ele>
        <time>2018-04-26T10:01:04Z</time>
      </trkpt>
      <trkpt lat="44.47091" lon="5.58188">
        <ele>1603.14</ele>
        <time>2018-04-26T10:01:20Z</time>
      </trkpt>
      <trkpt lat="44.47091" lon="5.58188">
        <ele>1601.69</ele>
        <time>2018-04-26T10:01:29Z</time>
      </trkpt>
      <trkpt lat="44.4709" lon="5.58188">
        <ele>1605.54</ele>
        <time>2018-04-26T10:01:30Z</time>
      </trkpt>
      <trkpt lat="44.4709" lon="5.58189">
        <ele>1601.21</ele>
        <time>2018-04-26T10:01:31Z</time>
      </trkpt>
      <trkpt lat="44.4709" lon="5.58193">
        <ele>1606.5</ele>
        <time>2018-04-26T10:01:36Z</time>
      </trkpt>
      <trkpt lat="44.47089" lon="5.58199">
        <ele>1603.14</ele>
        <time>2018-04-26T10:01:48Z</time>
      </trkpt>
      <trkpt lat="44.47089" lon="5.58202">
        <ele>1606.02</ele>
        <time>2018-04-26T10:01:52Z</time>
      </trkpt>
      <trkpt lat="44.47088" lon="5.58203">
        <ele>1602.66</ele>
        <time>2018-04-26T10:01:53Z</time>
      </trkpt>
      <trkpt lat="44.47085" lon="5.58206">
        <ele>1601.69</ele>
        <time>2018-04-26T10:01:56Z</time>
      </trkpt>
      <trkpt lat="44.47085" lon="5.58208">
        <ele>1606.5</ele>
        <time>2018-04-26T10:01:57Z</time>
      </trkpt>
      <trkpt lat="44.47083" lon="5.58216">
        <ele>1602.17</ele>
        <time>2018-04-26T10:02:03Z</time>
      </trkpt>
      <trkpt lat="44.47083" lon="5.58217">
        <ele>1606.5</ele>
        <time>2018-04-26T10:02:04Z</time>
      </trkpt>
      <trkpt lat="44.47082" lon="5.58219">
        <ele>1603.14</ele>
        <time>2018-04-26T10:02:06Z</time>
      </trkpt>
      <trkpt lat="44.47079" lon="5.58229">
        <ele>1607.94</ele>
        <time>2018-04-26T10:02:15Z</time>
      </trkpt>
      <trkpt lat="44.47078" lon="5.5823">
        <ele>1604.1</ele>
        <time>2018-04-26T10:02:16Z</time>
      </trkpt>
      <trkpt lat="44.47078" lon="5.5823">
        <ele>1608.42</ele>
        <time>2018-04-26T10:02:17Z</time>
      </trkpt>
      <trkpt lat="44.47077" lon="5.58234">
        <ele>1604.58</ele>
        <time>2018-04-26T10:02:22Z</time>
      </trkpt>
      <trkpt lat="44.47077" lon="5.58235">
        <ele>1610.35</ele>
        <time>2018-04-26T10:02:23Z</time>
      </trkpt>
      <trkpt lat="44.47077" lon="5.58236">
        <ele>1606.5</ele>
        <time>2018-04-26T10:02:24Z</time>
      </trkpt>
      <trkpt lat="44.47071" lon="5.58246">
        <ele>1605.06</ele>
        <time>2018-04-26T10:02:34Z</time>
      </trkpt>
      <trkpt lat="44.47071" lon="5.58248">
        <ele>1609.38</ele>
        <time>2018-04-26T10:02:35Z</time>
      </trkpt>
      <trkpt lat="44.4707" lon="5.58248">
        <ele>1606.02</ele>
        <time>2018-04-26T10:02:37Z</time>
      </trkpt>
      <trkpt lat="44.4707" lon="5.5825">
        <ele>1609.38</ele>
        <time>2018-04-26T10:02:39Z</time>
      </trkpt>
      <trkpt lat="44.4707" lon="5.58257">
        <ele>1609.86</ele>
        <time>2018-04-26T10:02:46Z</time>
      </trkpt>
      <trkpt lat="44.4707" lon="5.58259">
        <ele>1613.23</ele>
        <time>2018-04-26T10:02:48Z</time>
      </trkpt>
      <trkpt lat="44.4707" lon="5.58261">
        <ele>1608.42</ele>
        <time>2018-04-26T10:02:50Z</time>
      </trkpt>
      <trkpt lat="44.4707" lon="5.58262">
        <ele>1615.63</ele>
        <time>2018-04-26T10:02:52Z</time>
      </trkpt>
      <trkpt lat="44.4707" lon="5.58263">
        <ele>1606.5</ele>
        <time>2018-04-26T10:02:53Z</time>
      </trkpt>
      <trkpt lat="44.4707" lon="5.58263">
        <ele>1613.71</ele>
        <time>2018-04-26T10:02:54Z</time>
      </trkpt>
      <trkpt lat="44.4707" lon="5.58265">
        <ele>1612.75</ele>
        <time>2018-04-26T10:02:58Z</time>
      </trkpt>
      <trkpt lat="44.4707" lon="5.58265">
        <ele>1607.94</ele>
        <time>2018-04-26T10:03:00Z</time>
      </trkpt>
      <trkpt lat="44.4707" lon="5.58265">
        <ele>1616.11</ele>
        <time>2018-04-26T10:03:01Z</time>
      </trkpt>
      <trkpt lat="44.47069" lon="5.58266">
        <ele>1610.35</ele>
        <time>2018-04-26T10:03:02Z</time>
      </trkpt>
      <trkpt lat="44.47068" lon="5.58269">
        <ele>1614.19</ele>
        <time>2018-04-26T10:03:04Z</time>
      </trkpt>
      <trkpt lat="44.47067" lon="5.5827">
        <ele>1611.79</ele>
        <time>2018-04-26T10:03:05Z</time>
      </trkpt>
      <trkpt lat="44.47064" lon="5.58279">
        <ele>1611.79</ele>
        <time>2018-04-26T10:03:11Z</time>
      </trkpt>
      <trkpt lat="44.47063" lon="5.58282">
        <ele>1609.38</ele>
        <time>2018-04-26T10:03:14Z</time>
      </trkpt>
      <trkpt lat="44.4706" lon="5.58287">
        <ele>1608.9</ele>
        <time>2018-04-26T10:03:19Z</time>
      </trkpt>
      <trkpt lat="44.47057" lon="5.583">
        <ele>1615.63</ele>
        <time>2018-04-26T10:03:31Z</time>
      </trkpt>
      <trkpt lat="44.47057" lon="5.58301">
        <ele>1612.27</ele>
        <time>2018-04-26T10:03:32Z</time>
      </trkpt>
      <trkpt lat="44.47056" lon="5.58302">
        <ele>1616.59</ele>
        <time>2018-04-26T10:03:34Z</time>
      </trkpt>
      <trkpt lat="44.47056" lon="5.58303">
        <ele>1610.35</ele>
        <time>2018-04-26T10:03:35Z</time>
      </trkpt>
      <trkpt lat="44.47056" lon="5.58304">
        <ele>1610.83</ele>
        <time>2018-04-26T10:03:36Z</time>
      </trkpt>
      <trkpt lat="44.47057" lon="5.58305">
        <ele>1615.15</ele>
        <time>2018-04-26T10:03:37Z</time>
      </trkpt>
      <trkpt lat="44.47055" lon="5.58311">
        <ele>1616.11</ele>
        <time>2018-04-26T10:03:43Z</time>
      </trkpt>
      <trkpt lat="44.47054" lon="5.58318">
        <ele>1613.23</ele>
        <time>2018-04-26T10:03:48Z</time>
      </trkpt>
      <trkpt lat="44.47053" lon="5.58322">
        <ele>1617.07</ele>
        <time>2018-04-26T10:03:51Z</time>
      </trkpt>
      <trkpt lat="44.47052" lon="5.58323">
        <ele>1611.31</ele>
        <time>2018-04-26T10:03:52Z</time>
      </trkpt>
      <trkpt lat="44.47052" lon="5.58325">
        <ele>1617.07</ele>
        <time>2018-04-26T10:03:53Z</time>
      </trkpt>
      <trkpt lat="44.47051" lon="5.58334">
        <ele>1617.56</ele>
        <time>2018-04-26T10:04:03Z</time>
      </trkpt>
      <trkpt lat="44.47049" lon="5.58343">
        <ele>1619</ele>
        <time>2018-04-26T10:04:13Z</time>
      </trkpt>
      <trkpt lat="44.47046" lon="5.58346">
        <ele>1618.04</ele>
        <time>2018-04-26T10:04:18Z</time>
      </trkpt>
      <trkpt lat="44.47043" lon="5.5835">
        <ele>1617.56</ele>
        <time>2018-04-26T10:04:28Z</time>
      </trkpt>
      <trkpt lat="44.47043" lon="5.58351">
        <ele>1618.04</ele>
        <time>2018-04-26T10:04:48Z</time>
      </trkpt>
      <trkpt lat="44.47043" lon="5.58351">
        <ele>1618.52</ele>
        <time>2018-04-26T10:05:19Z</time>
      </trkpt>
      <trkpt lat="44.47041" lon="5.58356">
        <ele>1621.4</ele>
        <time>2018-04-26T10:05:30Z</time>
      </trkpt>
      <trkpt lat="44.47041" lon="5.58357">
        <ele>1617.07</ele>
        <time>2018-04-26T10:05:31Z</time>
      </trkpt>
      <trkpt lat="44.47041" lon="5.58358">
        <ele>1620.92</ele>
        <time>2018-04-26T10:05:32Z</time>
      </trkpt>
      <trkpt lat="44.4704" lon="5.5836">
        <ele>1617.56</ele>
        <time>2018-04-26T10:05:34Z</time>
      </trkpt>
      <trkpt lat="44.4704" lon="5.58361">
        <ele>1620.92</ele>
        <time>2018-04-26T10:05:35Z</time>
      </trkpt>
      <trkpt lat="44.47039" lon="5.5837">
        <ele>1620.44</ele>
        <time>2018-04-26T10:05:43Z</time>
      </trkpt>
      <trkpt lat="44.47035" lon="5.58379">
        <ele>1624.77</ele>
        <time>2018-04-26T10:05:55Z</time>
      </trkpt>
      <trkpt lat="44.47035" lon="5.5838">
        <ele>1619.96</ele>
        <time>2018-04-26T10:05:56Z</time>
      </trkpt>
      <trkpt lat="44.47035" lon="5.5838">
        <ele>1624.28</ele>
        <time>2018-04-26T10:05:58Z</time>
      </trkpt>
      <trkpt lat="44.47034" lon="5.58381">
        <ele>1619.48</ele>
        <time>2018-04-26T10:05:59Z</time>
      </trkpt>
      <trkpt lat="44.47034" lon="5.58381">
        <ele>1624.77</ele>
        <time>2018-04-26T10:06:00Z</time>
      </trkpt>
      <trkpt lat="44.47033" lon="5.58382">
        <ele>1621.88</ele>
        <time>2018-04-26T10:06:01Z</time>
      </trkpt>
      <trkpt lat="44.47032" lon="5.58389">
        <ele>1624.28</ele>
        <time>2018-04-26T10:06:07Z</time>
      </trkpt>
      <trkpt lat="44.47029" lon="5.58404">
        <ele>1624.28</ele>
        <time>2018-04-26T10:06:16Z</time>
      </trkpt>
      <trkpt lat="44.47027" lon="5.58407">
        <ele>1620.92</ele>
        <time>2018-04-26T10:06:20Z</time>
      </trkpt>
      <trkpt lat="44.47026" lon="5.58408">
        <ele>1624.28</ele>
        <time>2018-04-26T10:06:21Z</time>
      </trkpt>
      <trkpt lat="44.4702" lon="5.58417">
        <ele>1625.73</ele>
        <time>2018-04-26T10:06:32Z</time>
      </trkpt>
      <trkpt lat="44.47015" lon="5.58428">
        <ele>1625.25</ele>
        <time>2018-04-26T10:06:43Z</time>
      </trkpt>
      <trkpt lat="44.47014" lon="5.58431">
        <ele>1623.8</ele>
        <time>2018-04-26T10:06:53Z</time>
      </trkpt>
      <trkpt lat="44.47012" lon="5.58436">
        <ele>1626.69</ele>
        <time>2018-04-26T10:07:07Z</time>
      </trkpt>
      <trkpt lat="44.47013" lon="5.58436">
        <ele>1626.21</ele>
        <time>2018-04-26T10:07:27Z</time>
      </trkpt>
      <trkpt lat="44.47013" lon="5.58437">
        <ele>1626.69</ele>
        <time>2018-04-26T10:07:50Z</time>
      </trkpt>
      <trkpt lat="44.47013" lon="5.58437">
        <ele>1627.65</ele>
        <time>2018-04-26T10:08:13Z</time>
      </trkpt>
      <trkpt lat="44.47012" lon="5.58438">
        <ele>1627.65</ele>
        <time>2018-04-26T10:08:35Z</time>
      </trkpt>
      <trkpt lat="44.47012" lon="5.58438">
        <ele>1629.09</ele>
        <time>2018-04-26T10:08:58Z</time>
      </trkpt>
      <trkpt lat="44.4701" lon="5.58443">
        <ele>1629.09</ele>
        <time>2018-04-26T10:09:12Z</time>
      </trkpt>
      <trkpt lat="44.4701" lon="5.58448">
        <ele>1629.09</ele>
        <time>2018-04-26T10:09:19Z</time>
      </trkpt>
      <trkpt lat="44.47008" lon="5.58458">
        <ele>1631.01</ele>
        <time>2018-04-26T10:09:29Z</time>
      </trkpt>
      <trkpt lat="44.47008" lon="5.58459">
        <ele>1627.17</ele>
        <time>2018-04-26T10:09:31Z</time>
      </trkpt>
      <trkpt lat="44.47008" lon="5.58459">
        <ele>1631.01</ele>
        <time>2018-04-26T10:09:32Z</time>
      </trkpt>
      <trkpt lat="44.47008" lon="5.58462">
        <ele>1625.25</ele>
        <time>2018-04-26T10:09:36Z</time>
      </trkpt>
      <trkpt lat="44.47008" lon="5.58463">
        <ele>1631.49</ele>
        <time>2018-04-26T10:09:37Z</time>
      </trkpt>
      <trkpt lat="44.47008" lon="5.58465">
        <ele>1631.98</ele>
        <time>2018-04-26T10:09:39Z</time>
      </trkpt>
      <trkpt lat="44.47007" lon="5.58466">
        <ele>1629.09</ele>
        <time>2018-04-26T10:09:40Z</time>
      </trkpt>
      <trkpt lat="44.47007" lon="5.58467">
        <ele>1631.98</ele>
        <time>2018-04-26T10:09:41Z</time>
      </trkpt>
      <trkpt lat="44.47006" lon="5.58481">
        <ele>1632.94</ele>
        <time>2018-04-26T10:09:51Z</time>
      </trkpt>
      <trkpt lat="44.47006" lon="5.58483">
        <ele>1629.09</ele>
        <time>2018-04-26T10:09:53Z</time>
      </trkpt>
      <trkpt lat="44.47006" lon="5.58484">
        <ele>1633.9</ele>
        <time>2018-04-26T10:09:54Z</time>
      </trkpt>
      <trkpt lat="44.47005" lon="5.58485">
        <ele>1630.05</ele>
        <time>2018-04-26T10:09:56Z</time>
      </trkpt>
      <trkpt lat="44.47005" lon="5.58486">
        <ele>1633.9</ele>
        <time>2018-04-26T10:09:57Z</time>
      </trkpt>
      <trkpt lat="44.47004" lon="5.58488">
        <ele>1629.09</ele>
        <time>2018-04-26T10:09:59Z</time>
      </trkpt>
      <trkpt lat="44.47004" lon="5.58489">
        <ele>1633.9</ele>
        <time>2018-04-26T10:10:00Z</time>
      </trkpt>
      <trkpt lat="44.47003" lon="5.58491">
        <ele>1631.01</ele>
        <time>2018-04-26T10:10:02Z</time>
      </trkpt>
      <trkpt lat="44.47003" lon="5.58492">
        <ele>1634.38</ele>
        <time>2018-04-26T10:10:03Z</time>
      </trkpt>
      <trkpt lat="44.47002" lon="5.58495">
        <ele>1636.78</ele>
        <time>2018-04-26T10:10:07Z</time>
      </trkpt>
      <trkpt lat="44.47001" lon="5.58498">
        <ele>1636.3</ele>
        <time>2018-04-26T10:10:09Z</time>
      </trkpt>
      <trkpt lat="44.47001" lon="5.58502">
        <ele>1631.01</ele>
        <time>2018-04-26T10:10:13Z</time>
      </trkpt>
      <trkpt lat="44.47" lon="5.58504">
        <ele>1636.3</ele>
        <time>2018-04-26T10:10:15Z</time>
      </trkpt>
      <trkpt lat="44.46999" lon="5.58505">
        <ele>1631.01</ele>
        <time>2018-04-26T10:10:16Z</time>
      </trkpt>
      <trkpt lat="44.46999" lon="5.58506">
        <ele>1635.82</ele>
        <time>2018-04-26T10:10:17Z</time>
      </trkpt>
      <trkpt lat="44.46998" lon="5.58509">
        <ele>1632.46</ele>
        <time>2018-04-26T10:10:20Z</time>
      </trkpt>
      <trkpt lat="44.46997" lon="5.58512">
        <ele>1635.82</ele>
        <time>2018-04-26T10:10:22Z</time>
      </trkpt>
      <trkpt lat="44.46996" lon="5.58513">
        <ele>1631.49</ele>
        <time>2018-04-26T10:10:23Z</time>
      </trkpt>
      <trkpt lat="44.46996" lon="5.58514">
        <ele>1638.7</ele>
        <time>2018-04-26T10:10:24Z</time>
      </trkpt>
      <trkpt lat="44.46996" lon="5.58515">
        <ele>1632.46</ele>
        <time>2018-04-26T10:10:25Z</time>
      </trkpt>
      <trkpt lat="44.46996" lon="5.58516">
        <ele>1635.34</ele>
        <time>2018-04-26T10:10:26Z</time>
      </trkpt>
      <trkpt lat="44.46995" lon="5.58519">
        <ele>1632.46</ele>
        <time>2018-04-26T10:10:28Z</time>
      </trkpt>
      <trkpt lat="44.46994" lon="5.58521">
        <ele>1635.82</ele>
        <time>2018-04-26T10:10:30Z</time>
      </trkpt>
      <trkpt lat="44.46994" lon="5.58522">
        <ele>1635.82</ele>
        <time>2018-04-26T10:10:31Z</time>
      </trkpt>
      <trkpt lat="44.46992" lon="5.58527">
        <ele>1634.38</ele>
        <time>2018-04-26T10:10:36Z</time>
      </trkpt>
      <trkpt lat="44.4699" lon="5.58532">
        <ele>1636.3</ele>
        <time>2018-04-26T10:10:40Z</time>
      </trkpt>
      <trkpt lat="44.46989" lon="5.58537">
        <ele>1634.86</ele>
        <time>2018-04-26T10:10:43Z</time>
      </trkpt>
      <trkpt lat="44.46989" lon="5.58538">
        <ele>1638.22</ele>
        <time>2018-04-26T10:10:45Z</time>
      </trkpt>
      <trkpt lat="44.46989" lon="5.58539">
        <ele>1637.74</ele>
        <time>2018-04-26T10:10:46Z</time>
      </trkpt>
      <trkpt lat="44.46989" lon="5.5854">
        <ele>1636.3</ele>
        <time>2018-04-26T10:10:47Z</time>
      </trkpt>
      <trkpt lat="44.46984" lon="5.58554">
        <ele>1635.34</ele>
        <time>2018-04-26T10:10:58Z</time>
      </trkpt>
      <trkpt lat="44.46981" lon="5.58564">
        <ele>1632.94</ele>
        <time>2018-04-26T10:11:05Z</time>
      </trkpt>
      <trkpt lat="44.46981" lon="5.58565">
        <ele>1637.26</ele>
        <time>2018-04-26T10:11:06Z</time>
      </trkpt>
      <trkpt lat="44.46979" lon="5.58572">
        <ele>1637.26</ele>
        <time>2018-04-26T10:11:15Z</time>
      </trkpt>
      <trkpt lat="44.46979" lon="5.58573">
        <ele>1633.42</ele>
        <time>2018-04-26T10:11:17Z</time>
      </trkpt>
      <trkpt lat="44.46978" lon="5.58574">
        <ele>1640.15</ele>
        <time>2018-04-26T10:11:18Z</time>
      </trkpt>
      <trkpt lat="44.46979" lon="5.58576">
        <ele>1634.86</ele>
        <time>2018-04-26T10:11:20Z</time>
      </trkpt>
      <trkpt lat="44.46979" lon="5.58582">
        <ele>1638.22</ele>
        <time>2018-04-26T10:11:24Z</time>
      </trkpt>
      <trkpt lat="44.46975" lon="5.58595">
        <ele>1637.74</ele>
        <time>2018-04-26T10:11:35Z</time>
      </trkpt>
      <trkpt lat="44.46975" lon="5.58597">
        <ele>1636.78</ele>
        <time>2018-04-26T10:11:37Z</time>
      </trkpt>
      <trkpt lat="44.46969" lon="5.58611">
        <ele>1636.78</ele>
        <time>2018-04-26T10:11:48Z</time>
      </trkpt>
      <trkpt lat="44.46969" lon="5.58613">
        <ele>1638.7</ele>
        <time>2018-04-26T10:11:50Z</time>
      </trkpt>
      <trkpt lat="44.46967" lon="5.58623">
        <ele>1638.22</ele>
        <time>2018-04-26T10:12:00Z</time>
      </trkpt>
      <trkpt lat="44.46965" lon="5.58626">
        <ele>1638.22</ele>
        <time>2018-04-26T10:12:04Z</time>
      </trkpt>
      <trkpt lat="44.46962" lon="5.58634">
        <ele>1636.78</ele>
        <time>2018-04-26T10:12:12Z</time>
      </trkpt>
      <trkpt lat="44.46957" lon="5.58643">
        <ele>1635.34</ele>
        <time>2018-04-26T10:12:23Z</time>
      </trkpt>
      <trkpt lat="44.46956" lon="5.58646">
        <ele>1634.38</ele>
        <time>2018-04-26T10:12:26Z</time>
      </trkpt>
      <trkpt lat="44.46953" lon="5.58656">
        <ele>1632.94</ele>
        <time>2018-04-26T10:12:36Z</time>
      </trkpt>
      <trkpt lat="44.46953" lon="5.58656">
        <ele>1636.78</ele>
        <time>2018-04-26T10:12:37Z</time>
      </trkpt>
      <trkpt lat="44.46953" lon="5.58659">
        <ele>1632.94</ele>
        <time>2018-04-26T10:12:42Z</time>
      </trkpt>
      <trkpt lat="44.46953" lon="5.58659">
        <ele>1637.74</ele>
        <time>2018-04-26T10:12:43Z</time>
      </trkpt>
      <trkpt lat="44.46954" lon="5.58661">
        <ele>1633.42</ele>
        <time>2018-04-26T10:12:45Z</time>
      </trkpt>
      <trkpt lat="44.46954" lon="5.58662">
        <ele>1638.22</ele>
        <time>2018-04-26T10:12:46Z</time>
      </trkpt>
      <trkpt lat="44.46953" lon="5.58663">
        <ele>1634.86</ele>
        <time>2018-04-26T10:12:51Z</time>
      </trkpt>
      <trkpt lat="44.46953" lon="5.58664">
        <ele>1639.19</ele>
        <time>2018-04-26T10:12:52Z</time>
      </trkpt>
      <trkpt lat="44.46953" lon="5.58665">
        <ele>1634.38</ele>
        <time>2018-04-26T10:12:53Z</time>
      </trkpt>
      <trkpt lat="44.46953" lon="5.58665">
        <ele>1640.15</ele>
        <time>2018-04-26T10:12:54Z</time>
      </trkpt>
      <trkpt lat="44.46953" lon="5.58665">
        <ele>1636.78</ele>
        <time>2018-04-26T10:12:58Z</time>
      </trkpt>
      <trkpt lat="44.46952" lon="5.58666">
        <ele>1640.15</ele>
        <time>2018-04-26T10:12:59Z</time>
      </trkpt>
      <trkpt lat="44.46951" lon="5.58671">
        <ele>1641.11</ele>
        <time>2018-04-26T10:13:11Z</time>
      </trkpt>
      <trkpt lat="44.46951" lon="5.58673">
        <ele>1644.47</ele>
        <time>2018-04-26T10:13:14Z</time>
      </trkpt>
      <trkpt lat="44.46951" lon="5.58673">
        <ele>1638.7</ele>
        <time>2018-04-26T10:13:15Z</time>
      </trkpt>
      <trkpt lat="44.4695" lon="5.58676">
        <ele>1642.07</ele>
        <time>2018-04-26T10:13:19Z</time>
      </trkpt>
      <trkpt lat="44.46948" lon="5.5868">
        <ele>1641.59</ele>
        <time>2018-04-26T10:13:23Z</time>
      </trkpt>
      <trkpt lat="44.46947" lon="5.58683">
        <ele>1643.51</ele>
        <time>2018-04-26T10:13:25Z</time>
      </trkpt>
      <trkpt lat="44.46947" lon="5.58687">
        <ele>1638.7</ele>
        <time>2018-04-26T10:13:29Z</time>
      </trkpt>
      <trkpt lat="44.46947" lon="5.58687">
        <ele>1643.51</ele>
        <time>2018-04-26T10:13:30Z</time>
      </trkpt>
      <trkpt lat="44.46946" lon="5.58688">
        <ele>1640.15</ele>
        <time>2018-04-26T10:13:31Z</time>
      </trkpt>
      <trkpt lat="44.46946" lon="5.5869">
        <ele>1643.51</ele>
        <time>2018-04-26T10:13:33Z</time>
      </trkpt>
      <trkpt lat="44.46946" lon="5.58691">
        <ele>1643.51</ele>
        <time>2018-04-26T10:13:34Z</time>
      </trkpt>
      <trkpt lat="44.46946" lon="5.58692">
        <ele>1639.67</ele>
        <time>2018-04-26T10:13:35Z</time>
      </trkpt>
      <trkpt lat="44.46946" lon="5.58693">
        <ele>1642.07</ele>
        <time>2018-04-26T10:13:36Z</time>
      </trkpt>
      <trkpt lat="44.46946" lon="5.58694">
        <ele>1638.7</ele>
        <time>2018-04-26T10:13:38Z</time>
      </trkpt>
      <trkpt lat="44.46945" lon="5.58696">
        <ele>1643.03</ele>
        <time>2018-04-26T10:13:39Z</time>
      </trkpt>
      <trkpt lat="44.46945" lon="5.58702">
        <ele>1640.15</ele>
        <time>2018-04-26T10:13:48Z</time>
      </trkpt>
      <trkpt lat="44.46945" lon="5.58702">
        <ele>1643.99</ele>
        <time>2018-04-26T10:13:49Z</time>
      </trkpt>
      <trkpt lat="44.46945" lon="5.58704">
        <ele>1640.63</ele>
        <time>2018-04-26T10:13:50Z</time>
      </trkpt>
      <trkpt lat="44.46944" lon="5.58705">
        <ele>1645.43</ele>
        <time>2018-04-26T10:13:51Z</time>
      </trkpt>
      <trkpt lat="44.46944" lon="5.58707">
        <ele>1641.59</ele>
        <time>2018-04-26T10:13:53Z</time>
      </trkpt>
      <trkpt lat="44.46944" lon="5.58707">
        <ele>1645.43</ele>
        <time>2018-04-26T10:13:54Z</time>
      </trkpt>
      <trkpt lat="44.46942" lon="5.58713">
        <ele>1643.03</ele>
        <time>2018-04-26T10:14:00Z</time>
      </trkpt>
      <trkpt lat="44.46942" lon="5.58714">
        <ele>1646.88</ele>
        <time>2018-04-26T10:14:01Z</time>
      </trkpt>
      <trkpt lat="44.46941" lon="5.58715">
        <ele>1640.15</ele>
        <time>2018-04-26T10:14:02Z</time>
      </trkpt>
      <trkpt lat="44.46941" lon="5.58715">
        <ele>1644.47</ele>
        <time>2018-04-26T10:14:03Z</time>
      </trkpt>
      <trkpt lat="44.46941" lon="5.58717">
        <ele>1640.63</ele>
        <time>2018-04-26T10:14:05Z</time>
      </trkpt>
      <trkpt lat="44.4694" lon="5.58718">
        <ele>1645.91</ele>
        <time>2018-04-26T10:14:06Z</time>
      </trkpt>
      <trkpt lat="44.4694" lon="5.58722">
        <ele>1642.55</ele>
        <time>2018-04-26T10:14:11Z</time>
      </trkpt>
      <trkpt lat="44.4694" lon="5.58723">
        <ele>1646.4</ele>
        <time>2018-04-26T10:14:12Z</time>
      </trkpt>
      <trkpt lat="44.46939" lon="5.58724">
        <ele>1642.07</ele>
        <time>2018-04-26T10:14:13Z</time>
      </trkpt>
      <trkpt lat="44.46939" lon="5.58725">
        <ele>1646.4</ele>
        <time>2018-04-26T10:14:14Z</time>
      </trkpt>
      <trkpt lat="44.46938" lon="5.58729">
        <ele>1643.99</ele>
        <time>2018-04-26T10:14:20Z</time>
      </trkpt>
      <trkpt lat="44.46937" lon="5.58739">
        <ele>1647.84</ele>
        <time>2018-04-26T10:14:30Z</time>
      </trkpt>
      <trkpt lat="44.46937" lon="5.5874">
        <ele>1643.99</ele>
        <time>2018-04-26T10:14:38Z</time>
      </trkpt>
      <trkpt lat="44.46937" lon="5.5874">
        <ele>1647.84</ele>
        <time>2018-04-26T10:14:39Z</time>
      </trkpt>
      <trkpt lat="44.46937" lon="5.5874">
        <ele>1643.99</ele>
        <time>2018-04-26T10:14:40Z</time>
      </trkpt>
      <trkpt lat="44.46937" lon="5.5874">
        <ele>1651.68</ele>
        <time>2018-04-26T10:14:41Z</time>
      </trkpt>
      <trkpt lat="44.46936" lon="5.58741">
        <ele>1645.91</ele>
        <time>2018-04-26T10:14:42Z</time>
      </trkpt>
      <trkpt lat="44.46935" lon="5.58746">
        <ele>1650.24</ele>
        <time>2018-04-26T10:14:48Z</time>
      </trkpt>
      <trkpt lat="44.46934" lon="5.58749">
        <ele>1645.43</ele>
        <time>2018-04-26T10:14:56Z</time>
      </trkpt>
      <trkpt lat="44.46933" lon="5.5875">
        <ele>1649.28</ele>
        <time>2018-04-26T10:14:57Z</time>
      </trkpt>
      <trkpt lat="44.46933" lon="5.58754">
        <ele>1646.88</ele>
        <time>2018-04-26T10:15:09Z</time>
      </trkpt>
      <trkpt lat="44.46934" lon="5.58755">
        <ele>1650.72</ele>
        <time>2018-04-26T10:15:13Z</time>
      </trkpt>
      <trkpt lat="44.46934" lon="5.58759">
        <ele>1650.24</ele>
        <time>2018-04-26T10:15:25Z</time>
      </trkpt>
      <trkpt lat="44.46933" lon="5.58763">
        <ele>1654.09</ele>
        <time>2018-04-26T10:15:31Z</time>
      </trkpt>
      <trkpt lat="44.46933" lon="5.58764">
        <ele>1651.2</ele>
        <time>2018-04-26T10:15:32Z</time>
      </trkpt>
      <trkpt lat="44.46931" lon="5.58767">
        <ele>1654.09</ele>
        <time>2018-04-26T10:15:36Z</time>
      </trkpt>
      <trkpt lat="44.46931" lon="5.58767">
        <ele>1649.76</ele>
        <time>2018-04-26T10:15:37Z</time>
      </trkpt>
      <trkpt lat="44.46931" lon="5.58767">
        <ele>1654.57</ele>
        <time>2018-04-26T10:15:38Z</time>
      </trkpt>
      <trkpt lat="44.46931" lon="5.58767">
        <ele>1651.2</ele>
        <time>2018-04-26T10:15:39Z</time>
      </trkpt>
      <trkpt lat="44.46931" lon="5.58768">
        <ele>1656.49</ele>
        <time>2018-04-26T10:15:40Z</time>
      </trkpt>
      <trkpt lat="44.4693" lon="5.5877">
        <ele>1650.24</ele>
        <time>2018-04-26T10:15:42Z</time>
      </trkpt>
      <trkpt lat="44.4693" lon="5.58771">
        <ele>1654.57</ele>
        <time>2018-04-26T10:15:43Z</time>
      </trkpt>
      <trkpt lat="44.46929" lon="5.58772">
        <ele>1650.24</ele>
        <time>2018-04-26T10:15:44Z</time>
      </trkpt>
      <trkpt lat="44.46929" lon="5.58774">
        <ele>1653.6</ele>
        <time>2018-04-26T10:15:45Z</time>
      </trkpt>
      <trkpt lat="44.46928" lon="5.58775">
        <ele>1650.24</ele>
        <time>2018-04-26T10:15:49Z</time>
      </trkpt>
      <trkpt lat="44.46928" lon="5.58776">
        <ele>1656.01</ele>
        <time>2018-04-26T10:15:50Z</time>
      </trkpt>
      <trkpt lat="44.46928" lon="5.58779">
        <ele>1652.16</ele>
        <time>2018-04-26T10:15:54Z</time>
      </trkpt>
      <trkpt lat="44.46928" lon="5.58783">
        <ele>1656.01</ele>
        <time>2018-04-26T10:15:57Z</time>
      </trkpt>
      <trkpt lat="44.46926" lon="5.58785">
        <ele>1652.64</ele>
        <time>2018-04-26T10:16:00Z</time>
      </trkpt>
      <trkpt lat="44.46926" lon="5.58785">
        <ele>1653.12</ele>
        <time>2018-04-26T10:16:01Z</time>
      </trkpt>
      <trkpt lat="44.46921" lon="5.58789">
        <ele>1653.12</ele>
        <time>2018-04-26T10:16:11Z</time>
      </trkpt>
      <trkpt lat="44.46919" lon="5.58794">
        <ele>1655.53</ele>
        <time>2018-04-26T10:16:22Z</time>
      </trkpt>
      <trkpt lat="44.46918" lon="5.58795">
        <ele>1654.09</ele>
        <time>2018-04-26T10:16:31Z</time>
      </trkpt>
      <trkpt lat="44.46917" lon="5.58799">
        <ele>1658.89</ele>
        <time>2018-04-26T10:16:40Z</time>
      </trkpt>
      <trkpt lat="44.46917" lon="5.58799">
        <ele>1655.05</ele>
        <time>2018-04-26T10:16:42Z</time>
      </trkpt>
      <trkpt lat="44.46917" lon="5.58799">
        <ele>1658.89</ele>
        <time>2018-04-26T10:16:43Z</time>
      </trkpt>
      <trkpt lat="44.46917" lon="5.58801">
        <ele>1655.53</ele>
        <time>2018-04-26T10:16:46Z</time>
      </trkpt>
      <trkpt lat="44.46917" lon="5.58801">
        <ele>1659.85</ele>
        <time>2018-04-26T10:16:49Z</time>
      </trkpt>
      <trkpt lat="44.46917" lon="5.58802">
        <ele>1657.93</ele>
        <time>2018-04-26T10:16:50Z</time>
      </trkpt>
      <trkpt lat="44.46916" lon="5.58804">
        <ele>1661.3</ele>
        <time>2018-04-26T10:16:56Z</time>
      </trkpt>
      <trkpt lat="44.46916" lon="5.58804">
        <ele>1657.45</ele>
        <time>2018-04-26T10:16:57Z</time>
      </trkpt>
      <trkpt lat="44.46916" lon="5.58805">
        <ele>1660.81</ele>
        <time>2018-04-26T10:16:58Z</time>
      </trkpt>
      <trkpt lat="44.46915" lon="5.58809">
        <ele>1656.49</ele>
        <time>2018-04-26T10:17:04Z</time>
      </trkpt>
      <trkpt lat="44.46914" lon="5.5881">
        <ele>1660.33</ele>
        <time>2018-04-26T10:17:05Z</time>
      </trkpt>
      <trkpt lat="44.46912" lon="5.58818">
        <ele>1657.45</ele>
        <time>2018-04-26T10:17:14Z</time>
      </trkpt>
      <trkpt lat="44.46911" lon="5.58819">
        <ele>1662.26</ele>
        <time>2018-04-26T10:17:15Z</time>
      </trkpt>
      <trkpt lat="44.46911" lon="5.5882">
        <ele>1657.93</ele>
        <time>2018-04-26T10:17:16Z</time>
      </trkpt>
      <trkpt lat="44.46911" lon="5.58821">
        <ele>1661.3</ele>
        <time>2018-04-26T10:17:17Z</time>
      </trkpt>
      <trkpt lat="44.4691" lon="5.58825">
        <ele>1661.3</ele>
        <time>2018-04-26T10:17:28Z</time>
      </trkpt>
      <trkpt lat="44.46909" lon="5.58828">
        <ele>1662.74</ele>
        <time>2018-04-26T10:17:43Z</time>
      </trkpt>
      <trkpt lat="44.46909" lon="5.58829">
        <ele>1663.22</ele>
        <time>2018-04-26T10:17:57Z</time>
      </trkpt>
      <trkpt lat="44.46908" lon="5.58833">
        <ele>1664.66</ele>
        <time>2018-04-26T10:18:13Z</time>
      </trkpt>
      <trkpt lat="44.46908" lon="5.58837">
        <ele>1667.54</ele>
        <time>2018-04-26T10:18:23Z</time>
      </trkpt>
      <trkpt lat="44.46909" lon="5.5884">
        <ele>1663.7</ele>
        <time>2018-04-26T10:18:27Z</time>
      </trkpt>
      <trkpt lat="44.46909" lon="5.58842">
        <ele>1667.54</ele>
        <time>2018-04-26T10:18:28Z</time>
      </trkpt>
      <trkpt lat="44.46908" lon="5.58846">
        <ele>1665.62</ele>
        <time>2018-04-26T10:18:42Z</time>
      </trkpt>
      <trkpt lat="44.46907" lon="5.58846">
        <ele>1667.06</ele>
        <time>2018-04-26T10:18:45Z</time>
      </trkpt>
      <trkpt lat="44.46908" lon="5.58846">
        <ele>1667.06</ele>
        <time>2018-04-26T10:19:07Z</time>
      </trkpt>
      <trkpt lat="44.46907" lon="5.58846">
        <ele>1667.54</ele>
        <time>2018-04-26T10:19:29Z</time>
      </trkpt>
      <trkpt lat="44.46907" lon="5.58847">
        <ele>1665.14</ele>
        <time>2018-04-26T10:19:45Z</time>
      </trkpt>
      <trkpt lat="44.46907" lon="5.58848">
        <ele>1671.39</ele>
        <time>2018-04-26T10:19:46Z</time>
      </trkpt>
      <trkpt lat="44.46907" lon="5.58849">
        <ele>1667.06</ele>
        <time>2018-04-26T10:19:47Z</time>
      </trkpt>
      <trkpt lat="44.46906" lon="5.58857">
        <ele>1671.39</ele>
        <time>2018-04-26T10:19:54Z</time>
      </trkpt>
      <trkpt lat="44.46906" lon="5.58858">
        <ele>1667.06</ele>
        <time>2018-04-26T10:19:55Z</time>
      </trkpt>
      <trkpt lat="44.46906" lon="5.58858">
        <ele>1670.43</ele>
        <time>2018-04-26T10:19:56Z</time>
      </trkpt>
      <trkpt lat="44.46901" lon="5.58867">
        <ele>1666.58</ele>
        <time>2018-04-26T10:20:04Z</time>
      </trkpt>
      <trkpt lat="44.46901" lon="5.58869">
        <ele>1667.54</ele>
        <time>2018-04-26T10:20:05Z</time>
      </trkpt>
      <trkpt lat="44.46896" lon="5.5888">
        <ele>1672.35</ele>
        <time>2018-04-26T10:20:14Z</time>
      </trkpt>
      <trkpt lat="44.46896" lon="5.58882">
        <ele>1668.51</ele>
        <time>2018-04-26T10:20:16Z</time>
      </trkpt>
      <trkpt lat="44.46896" lon="5.58883">
        <ele>1672.83</ele>
        <time>2018-04-26T10:20:17Z</time>
      </trkpt>
      <trkpt lat="44.46896" lon="5.58885">
        <ele>1668.51</ele>
        <time>2018-04-26T10:20:19Z</time>
      </trkpt>
      <trkpt lat="44.46896" lon="5.58885">
        <ele>1672.35</ele>
        <time>2018-04-26T10:20:20Z</time>
      </trkpt>
      <trkpt lat="44.46894" lon="5.5889">
        <ele>1668.51</ele>
        <time>2018-04-26T10:20:25Z</time>
      </trkpt>
      <trkpt lat="44.46893" lon="5.58894">
        <ele>1672.35</ele>
        <time>2018-04-26T10:20:30Z</time>
      </trkpt>
      <trkpt lat="44.46893" lon="5.58895">
        <ele>1667.54</ele>
        <time>2018-04-26T10:20:31Z</time>
      </trkpt>
      <trkpt lat="44.46893" lon="5.58897">
        <ele>1671.87</ele>
        <time>2018-04-26T10:20:32Z</time>
      </trkpt>
      <trkpt lat="44.46893" lon="5.58899">
        <ele>1668.02</ele>
        <time>2018-04-26T10:20:34Z</time>
      </trkpt>
      <trkpt lat="44.46894" lon="5.589">
        <ele>1671.39</ele>
        <time>2018-04-26T10:20:35Z</time>
      </trkpt>
      <trkpt lat="44.46893" lon="5.58904">
        <ele>1670.43</ele>
        <time>2018-04-26T10:20:38Z</time>
      </trkpt>
      <trkpt lat="44.4689" lon="5.58913">
        <ele>1674.75</ele>
        <time>2018-04-26T10:20:46Z</time>
      </trkpt>
      <trkpt lat="44.4689" lon="5.58914">
        <ele>1669.95</ele>
        <time>2018-04-26T10:20:47Z</time>
      </trkpt>
      <trkpt lat="44.4689" lon="5.58917">
        <ele>1673.79</ele>
        <time>2018-04-26T10:20:51Z</time>
      </trkpt>
      <trkpt lat="44.46889" lon="5.58918">
        <ele>1668.99</ele>
        <time>2018-04-26T10:20:54Z</time>
      </trkpt>
      <trkpt lat="44.46889" lon="5.58918">
        <ele>1673.79</ele>
        <time>2018-04-26T10:20:55Z</time>
      </trkpt>
      <trkpt lat="44.46889" lon="5.58919">
        <ele>1669.47</ele>
        <time>2018-04-26T10:20:56Z</time>
      </trkpt>
      <trkpt lat="44.46889" lon="5.58922">
        <ele>1675.23</ele>
        <time>2018-04-26T10:20:58Z</time>
      </trkpt>
      <trkpt lat="44.46889" lon="5.58923">
        <ele>1670.91</ele>
        <time>2018-04-26T10:20:59Z</time>
      </trkpt>
      <trkpt lat="44.46887" lon="5.58926">
        <ele>1674.27</ele>
        <time>2018-04-26T10:21:03Z</time>
      </trkpt>
      <trkpt lat="44.46886" lon="5.58928">
        <ele>1670.91</ele>
        <time>2018-04-26T10:21:05Z</time>
      </trkpt>
      <trkpt lat="44.46886" lon="5.58929">
        <ele>1674.27</ele>
        <time>2018-04-26T10:21:06Z</time>
      </trkpt>
      <trkpt lat="44.46886" lon="5.58931">
        <ele>1670.91</ele>
        <time>2018-04-26T10:21:07Z</time>
      </trkpt>
      <trkpt lat="44.46885" lon="5.58933">
        <ele>1674.27</ele>
        <time>2018-04-26T10:21:09Z</time>
      </trkpt>
      <trkpt lat="44.46885" lon="5.58935">
        <ele>1669.95</ele>
        <time>2018-04-26T10:21:11Z</time>
      </trkpt>
      <trkpt lat="44.46885" lon="5.58936">
        <ele>1673.79</ele>
        <time>2018-04-26T10:21:12Z</time>
      </trkpt>
      <trkpt lat="44.46886" lon="5.58937">
        <ele>1669.95</ele>
        <time>2018-04-26T10:21:13Z</time>
      </trkpt>
      <trkpt lat="44.46886" lon="5.58938">
        <ele>1673.79</ele>
        <time>2018-04-26T10:21:15Z</time>
      </trkpt>
      <trkpt lat="44.46886" lon="5.58939">
        <ele>1670.43</ele>
        <time>2018-04-26T10:21:16Z</time>
      </trkpt>
      <trkpt lat="44.46886" lon="5.5894">
        <ele>1673.31</ele>
        <time>2018-04-26T10:21:17Z</time>
      </trkpt>
      <trkpt lat="44.46886" lon="5.58952">
        <ele>1672.83</ele>
        <time>2018-04-26T10:21:29Z</time>
      </trkpt>
      <trkpt lat="44.46882" lon="5.58968">
        <ele>1676.2</ele>
        <time>2018-04-26T10:21:41Z</time>
      </trkpt>
      <trkpt lat="44.46881" lon="5.58968">
        <ele>1673.31</ele>
        <time>2018-04-26T10:21:42Z</time>
      </trkpt>
      <trkpt lat="44.46879" lon="5.58973">
        <ele>1677.16</ele>
        <time>2018-04-26T10:21:49Z</time>
      </trkpt>
      <trkpt lat="44.46879" lon="5.58974">
        <ele>1673.79</ele>
        <time>2018-04-26T10:21:50Z</time>
      </trkpt>
      <trkpt lat="44.46877" lon="5.58975">
        <ele>1677.16</ele>
        <time>2018-04-26T10:21:53Z</time>
      </trkpt>
      <trkpt lat="44.46877" lon="5.58976">
        <ele>1670.91</ele>
        <time>2018-04-26T10:21:54Z</time>
      </trkpt>
      <trkpt lat="44.46876" lon="5.58977">
        <ele>1676.68</ele>
        <time>2018-04-26T10:21:55Z</time>
      </trkpt>
      <trkpt lat="44.46876" lon="5.58978">
        <ele>1677.64</ele>
        <time>2018-04-26T10:21:59Z</time>
      </trkpt>
      <trkpt lat="44.46876" lon="5.58978">
        <ele>1672.35</ele>
        <time>2018-04-26T10:22:00Z</time>
      </trkpt>
      <trkpt lat="44.46875" lon="5.58979">
        <ele>1676.2</ele>
        <time>2018-04-26T10:22:01Z</time>
      </trkpt>
      <trkpt lat="44.46873" lon="5.58984">
        <ele>1674.27</ele>
        <time>2018-04-26T10:22:12Z</time>
      </trkpt>
      <trkpt lat="44.46871" lon="5.5899">
        <ele>1673.79</ele>
        <time>2018-04-26T10:22:18Z</time>
      </trkpt>
      <trkpt lat="44.46869" lon="5.58995">
        <ele>1674.27</ele>
        <time>2018-04-26T10:22:24Z</time>
      </trkpt>
      <trkpt lat="44.46861" lon="5.59005">
        <ele>1671.39</ele>
        <time>2018-04-26T10:22:34Z</time>
      </trkpt>
      <trkpt lat="44.46859" lon="5.59008">
        <ele>1672.83</ele>
        <time>2018-04-26T10:22:37Z</time>
      </trkpt>
      <trkpt lat="44.46855" lon="5.59018">
        <ele>1672.83</ele>
        <time>2018-04-26T10:22:51Z</time>
      </trkpt>
      <trkpt lat="44.46848" lon="5.59027">
        <ele>1671.39</ele>
        <time>2018-04-26T10:23:01Z</time>
      </trkpt>
      <trkpt lat="44.46848" lon="5.59029">
        <ele>1673.79</ele>
        <time>2018-04-26T10:23:03Z</time>
      </trkpt>
      <trkpt lat="44.46847" lon="5.5903">
        <ele>1671.39</ele>
        <time>2018-04-26T10:23:05Z</time>
      </trkpt>
      <trkpt lat="44.46843" lon="5.5904">
        <ele>1672.35</ele>
        <time>2018-04-26T10:23:15Z</time>
      </trkpt>
      <trkpt lat="44.46841" lon="5.59044">
        <ele>1675.72</ele>
        <time>2018-04-26T10:23:18Z</time>
      </trkpt>
      <trkpt lat="44.46841" lon="5.59046">
        <ele>1671.39</ele>
        <time>2018-04-26T10:23:19Z</time>
      </trkpt>
      <trkpt lat="44.4684" lon="5.59048">
        <ele>1676.68</ele>
        <time>2018-04-26T10:23:21Z</time>
      </trkpt>
      <trkpt lat="44.4684" lon="5.59049">
        <ele>1671.39</ele>
        <time>2018-04-26T10:23:22Z</time>
      </trkpt>
      <trkpt lat="44.4684" lon="5.5905">
        <ele>1674.75</ele>
        <time>2018-04-26T10:23:23Z</time>
      </trkpt>
      <trkpt lat="44.46839" lon="5.59053">
        <ele>1671.39</ele>
        <time>2018-04-26T10:23:25Z</time>
      </trkpt>
      <trkpt lat="44.46839" lon="5.59054">
        <ele>1674.75</ele>
        <time>2018-04-26T10:23:26Z</time>
      </trkpt>
      <trkpt lat="44.46835" lon="5.59066">
        <ele>1674.75</ele>
        <time>2018-04-26T10:23:39Z</time>
      </trkpt>
      <trkpt lat="44.46833" lon="5.59068">
        <ele>1678.12</ele>
        <time>2018-04-26T10:23:42Z</time>
      </trkpt>
      <trkpt lat="44.46833" lon="5.59069">
        <ele>1673.79</ele>
        <time>2018-04-26T10:23:43Z</time>
      </trkpt>
      <trkpt lat="44.46829" lon="5.59079">
        <ele>1677.64</ele>
        <time>2018-04-26T10:23:54Z</time>
      </trkpt>
      <trkpt lat="44.46828" lon="5.5908">
        <ele>1674.27</ele>
        <time>2018-04-26T10:23:55Z</time>
      </trkpt>
      <trkpt lat="44.46828" lon="5.59081">
        <ele>1679.08</ele>
        <time>2018-04-26T10:23:56Z</time>
      </trkpt>
      <trkpt lat="44.46825" lon="5.59086">
        <ele>1675.72</ele>
        <time>2018-04-26T10:24:00Z</time>
      </trkpt>
      <trkpt lat="44.46824" lon="5.5909">
        <ele>1679.56</ele>
        <time>2018-04-26T10:24:04Z</time>
      </trkpt>
      <trkpt lat="44.46824" lon="5.59092">
        <ele>1678.6</ele>
        <time>2018-04-26T10:24:05Z</time>
      </trkpt>
      <trkpt lat="44.46824" lon="5.59095">
        <ele>1677.64</ele>
        <time>2018-04-26T10:24:07Z</time>
      </trkpt>
      <trkpt lat="44.46821" lon="5.59101">
        <ele>1675.72</ele>
        <time>2018-04-26T10:24:12Z</time>
      </trkpt>
      <trkpt lat="44.4682" lon="5.59103">
        <ele>1680.04</ele>
        <time>2018-04-26T10:24:14Z</time>
      </trkpt>
      <trkpt lat="44.46819" lon="5.59105">
        <ele>1675.72</ele>
        <time>2018-04-26T10:24:16Z</time>
      </trkpt>
      <trkpt lat="44.46819" lon="5.59106">
        <ele>1677.16</ele>
        <time>2018-04-26T10:24:17Z</time>
      </trkpt>
      <trkpt lat="44.46817" lon="5.5911">
        <ele>1680.52</ele>
        <time>2018-04-26T10:24:21Z</time>
      </trkpt>
      <trkpt lat="44.46813" lon="5.59121">
        <ele>1681.48</ele>
        <time>2018-04-26T10:24:31Z</time>
      </trkpt>
      <trkpt lat="44.46812" lon="5.59121">
        <ele>1677.16</ele>
        <time>2018-04-26T10:24:32Z</time>
      </trkpt>
      <trkpt lat="44.46809" lon="5.59129">
        <ele>1682.93</ele>
        <time>2018-04-26T10:24:40Z</time>
      </trkpt>
      <trkpt lat="44.46809" lon="5.5913">
        <ele>1679.56</ele>
        <time>2018-04-26T10:24:41Z</time>
      </trkpt>
      <trkpt lat="44.46804" lon="5.5914">
        <ele>1683.89</ele>
        <time>2018-04-26T10:24:50Z</time>
      </trkpt>
      <trkpt lat="44.46804" lon="5.59141">
        <ele>1678.12</ele>
        <time>2018-04-26T10:24:51Z</time>
      </trkpt>
      <trkpt lat="44.46804" lon="5.59142">
        <ele>1681.96</ele>
        <time>2018-04-26T10:24:52Z</time>
      </trkpt>
      <trkpt lat="44.46803" lon="5.59143">
        <ele>1682.44</ele>
        <time>2018-04-26T10:24:54Z</time>
      </trkpt>
      <trkpt lat="44.46803" lon="5.59144">
        <ele>1678.12</ele>
        <time>2018-04-26T10:24:55Z</time>
      </trkpt>
      <trkpt lat="44.46802" lon="5.59145">
        <ele>1683.41</ele>
        <time>2018-04-26T10:24:56Z</time>
      </trkpt>
      <trkpt lat="44.46802" lon="5.59146">
        <ele>1679.08</ele>
        <time>2018-04-26T10:24:57Z</time>
      </trkpt>
      <trkpt lat="44.46796" lon="5.59157">
        <ele>1681.96</ele>
        <time>2018-04-26T10:25:06Z</time>
      </trkpt>
      <trkpt lat="44.46796" lon="5.59158">
        <ele>1679.08</ele>
        <time>2018-04-26T10:25:07Z</time>
      </trkpt>
      <trkpt lat="44.46796" lon="5.59159">
        <ele>1684.37</ele>
        <time>2018-04-26T10:25:08Z</time>
      </trkpt>
      <trkpt lat="44.46796" lon="5.59163">
        <ele>1680.52</ele>
        <time>2018-04-26T10:25:12Z</time>
      </trkpt>
      <trkpt lat="44.46795" lon="5.59164">
        <ele>1683.89</ele>
        <time>2018-04-26T10:25:13Z</time>
      </trkpt>
      <trkpt lat="44.46794" lon="5.59165">
        <ele>1681</ele>
        <time>2018-04-26T10:25:15Z</time>
      </trkpt>
      <trkpt lat="44.46794" lon="5.59165">
        <ele>1684.85</ele>
        <time>2018-04-26T10:25:16Z</time>
      </trkpt>
      <trkpt lat="44.46792" lon="5.59169">
        <ele>1683.89</ele>
        <time>2018-04-26T10:25:28Z</time>
      </trkpt>
      <trkpt lat="44.46792" lon="5.59169">
        <ele>1687.25</ele>
        <time>2018-04-26T10:25:29Z</time>
      </trkpt>
      <trkpt lat="44.46792" lon="5.5917">
        <ele>1682.93</ele>
        <time>2018-04-26T10:25:44Z</time>
      </trkpt>
      <trkpt lat="44.46792" lon="5.5917">
        <ele>1688.69</ele>
        <time>2018-04-26T10:25:45Z</time>
      </trkpt>
      <trkpt lat="44.46792" lon="5.5917">
        <ele>1685.33</ele>
        <time>2018-04-26T10:25:46Z</time>
      </trkpt>
      <trkpt lat="44.46788" lon="5.59177">
        <ele>1682.93</ele>
        <time>2018-04-26T10:25:55Z</time>
      </trkpt>
      <trkpt lat="44.46786" lon="5.59179">
        <ele>1686.29</ele>
        <time>2018-04-26T10:25:57Z</time>
      </trkpt>
      <trkpt lat="44.46783" lon="5.59184">
        <ele>1683.41</ele>
        <time>2018-04-26T10:26:02Z</time>
      </trkpt>
      <trkpt lat="44.46781" lon="5.59192">
        <ele>1682.44</ele>
        <time>2018-04-26T10:26:07Z</time>
      </trkpt>
      <trkpt lat="44.46779" lon="5.59195">
        <ele>1687.25</ele>
        <time>2018-04-26T10:26:09Z</time>
      </trkpt>
      <trkpt lat="44.46779" lon="5.59196">
        <ele>1682.93</ele>
        <time>2018-04-26T10:26:10Z</time>
      </trkpt>
      <trkpt lat="44.46778" lon="5.59198">
        <ele>1686.77</ele>
        <time>2018-04-26T10:26:12Z</time>
      </trkpt>
      <trkpt lat="44.46778" lon="5.59199">
        <ele>1682.44</ele>
        <time>2018-04-26T10:26:13Z</time>
      </trkpt>
      <trkpt lat="44.46777" lon="5.59201">
        <ele>1686.77</ele>
        <time>2018-04-26T10:26:15Z</time>
      </trkpt>
      <trkpt lat="44.46777" lon="5.59203">
        <ele>1685.81</ele>
        <time>2018-04-26T10:26:16Z</time>
      </trkpt>
      <trkpt lat="44.46774" lon="5.59213">
        <ele>1683.89</ele>
        <time>2018-04-26T10:26:27Z</time>
      </trkpt>
      <trkpt lat="44.46772" lon="5.59216">
        <ele>1687.73</ele>
        <time>2018-04-26T10:26:30Z</time>
      </trkpt>
      <trkpt lat="44.46771" lon="5.59221">
        <ele>1682.44</ele>
        <time>2018-04-26T10:26:35Z</time>
      </trkpt>
      <trkpt lat="44.4677" lon="5.59224">
        <ele>1688.69</ele>
        <time>2018-04-26T10:26:37Z</time>
      </trkpt>
      <trkpt lat="44.4677" lon="5.59225">
        <ele>1684.37</ele>
        <time>2018-04-26T10:26:38Z</time>
      </trkpt>
      <trkpt lat="44.46769" lon="5.59227">
        <ele>1688.21</ele>
        <time>2018-04-26T10:26:40Z</time>
      </trkpt>
      <trkpt lat="44.46768" lon="5.59229">
        <ele>1685.33</ele>
        <time>2018-04-26T10:26:42Z</time>
      </trkpt>
      <trkpt lat="44.46768" lon="5.5923">
        <ele>1688.21</ele>
        <time>2018-04-26T10:26:43Z</time>
      </trkpt>
      <trkpt lat="44.46765" lon="5.59237">
        <ele>1688.69</ele>
        <time>2018-04-26T10:26:50Z</time>
      </trkpt>
      <trkpt lat="44.46765" lon="5.59238">
        <ele>1685.33</ele>
        <time>2018-04-26T10:26:51Z</time>
      </trkpt>
      <trkpt lat="44.46764" lon="5.59238">
        <ele>1690.62</ele>
        <time>2018-04-26T10:26:52Z</time>
      </trkpt>
      <trkpt lat="44.46761" lon="5.5925">
        <ele>1686.77</ele>
        <time>2018-04-26T10:27:02Z</time>
      </trkpt>
      <trkpt lat="44.46761" lon="5.5925">
        <ele>1693.02</ele>
        <time>2018-04-26T10:27:03Z</time>
      </trkpt>
      <trkpt lat="44.46761" lon="5.59252">
        <ele>1687.25</ele>
        <time>2018-04-26T10:27:09Z</time>
      </trkpt>
      <trkpt lat="44.46761" lon="5.59253">
        <ele>1692.54</ele>
        <time>2018-04-26T10:27:10Z</time>
      </trkpt>
      <trkpt lat="44.4676" lon="5.59254">
        <ele>1689.17</ele>
        <time>2018-04-26T10:27:14Z</time>
      </trkpt>
      <trkpt lat="44.4676" lon="5.59256">
        <ele>1693.02</ele>
        <time>2018-04-26T10:27:16Z</time>
      </trkpt>
      <trkpt lat="44.4676" lon="5.59257">
        <ele>1688.69</ele>
        <time>2018-04-26T10:27:17Z</time>
      </trkpt>
      <trkpt lat="44.4676" lon="5.59257">
        <ele>1693.98</ele>
        <time>2018-04-26T10:27:18Z</time>
      </trkpt>
      <trkpt lat="44.46759" lon="5.59259">
        <ele>1689.17</ele>
        <time>2018-04-26T10:27:21Z</time>
      </trkpt>
      <trkpt lat="44.46758" lon="5.5926">
        <ele>1693.98</ele>
        <time>2018-04-26T10:27:22Z</time>
      </trkpt>
      <trkpt lat="44.46758" lon="5.59261">
        <ele>1688.69</ele>
        <time>2018-04-26T10:27:26Z</time>
      </trkpt>
      <trkpt lat="44.46758" lon="5.59261">
        <ele>1695.42</ele>
        <time>2018-04-26T10:27:27Z</time>
      </trkpt>
      <trkpt lat="44.46758" lon="5.59261">
        <ele>1690.14</ele>
        <time>2018-04-26T10:27:28Z</time>
      </trkpt>
      <trkpt lat="44.46758" lon="5.59262">
        <ele>1695.9</ele>
        <time>2018-04-26T10:27:29Z</time>
      </trkpt>
      <trkpt lat="44.46758" lon="5.59263">
        <ele>1692.06</ele>
        <time>2018-04-26T10:27:30Z</time>
      </trkpt>
      <trkpt lat="44.46758" lon="5.59264">
        <ele>1695.42</ele>
        <time>2018-04-26T10:27:31Z</time>
      </trkpt>
      <trkpt lat="44.46757" lon="5.59265">
        <ele>1692.06</ele>
        <time>2018-04-26T10:27:32Z</time>
      </trkpt>
      <trkpt lat="44.46757" lon="5.59265">
        <ele>1696.38</ele>
        <time>2018-04-26T10:27:33Z</time>
      </trkpt>
      <trkpt lat="44.46756" lon="5.59266">
        <ele>1692.06</ele>
        <time>2018-04-26T10:27:36Z</time>
      </trkpt>
      <trkpt lat="44.46756" lon="5.59267">
        <ele>1696.38</ele>
        <time>2018-04-26T10:27:38Z</time>
      </trkpt>
      <trkpt lat="44.46756" lon="5.59267">
        <ele>1692.54</ele>
        <time>2018-04-26T10:27:39Z</time>
      </trkpt>
      <trkpt lat="44.46756" lon="5.59268">
        <ele>1698.31</ele>
        <time>2018-04-26T10:27:41Z</time>
      </trkpt>
      <trkpt lat="44.46756" lon="5.59268">
        <ele>1693.02</ele>
        <time>2018-04-26T10:27:42Z</time>
      </trkpt>
      <trkpt lat="44.46756" lon="5.59269">
        <ele>1697.34</ele>
        <time>2018-04-26T10:27:43Z</time>
      </trkpt>
      <trkpt lat="44.46753" lon="5.59274">
        <ele>1693.98</ele>
        <time>2018-04-26T10:27:49Z</time>
      </trkpt>
      <trkpt lat="44.46753" lon="5.59275">
        <ele>1697.34</ele>
        <time>2018-04-26T10:27:50Z</time>
      </trkpt>
      <trkpt lat="44.46753" lon="5.59278">
        <ele>1700.71</ele>
        <time>2018-04-26T10:27:53Z</time>
      </trkpt>
      <trkpt lat="44.46753" lon="5.59278">
        <ele>1695.42</ele>
        <time>2018-04-26T10:27:54Z</time>
      </trkpt>
      <trkpt lat="44.46753" lon="5.59278">
        <ele>1699.75</ele>
        <time>2018-04-26T10:27:55Z</time>
      </trkpt>
      <trkpt lat="44.46752" lon="5.59279">
        <ele>1695.9</ele>
        <time>2018-04-26T10:27:56Z</time>
      </trkpt>
      <trkpt lat="44.46752" lon="5.5928">
        <ele>1699.27</ele>
        <time>2018-04-26T10:27:57Z</time>
      </trkpt>
      <trkpt lat="44.46749" lon="5.59286">
        <ele>1695.9</ele>
        <time>2018-04-26T10:28:03Z</time>
      </trkpt>
      <trkpt lat="44.46748" lon="5.59286">
        <ele>1697.83</ele>
        <time>2018-04-26T10:28:08Z</time>
      </trkpt>
      <trkpt lat="44.46746" lon="5.59287">
        <ele>1697.34</ele>
        <time>2018-04-26T10:28:21Z</time>
      </trkpt>
      <trkpt lat="44.46747" lon="5.59287">
        <ele>1696.86</ele>
        <time>2018-04-26T10:28:42Z</time>
      </trkpt>
      <trkpt lat="44.46747" lon="5.59287">
        <ele>1697.83</ele>
        <time>2018-04-26T10:28:55Z</time>
      </trkpt>
      <trkpt lat="44.4675" lon="5.59287">
        <ele>1697.83</ele>
        <time>2018-04-26T10:29:11Z</time>
      </trkpt>
      <trkpt lat="44.46751" lon="5.59287">
        <ele>1696.86</ele>
        <time>2018-04-26T10:29:32Z</time>
      </trkpt>
      <trkpt lat="44.46751" lon="5.59287">
        <ele>1696.86</ele>
        <time>2018-04-26T10:29:51Z</time>
      </trkpt>
      <trkpt lat="44.46752" lon="5.5929">
        <ele>1697.83</ele>
        <time>2018-04-26T10:29:56Z</time>
      </trkpt>
      <trkpt lat="44.46752" lon="5.59291">
        <ele>1693.98</ele>
        <time>2018-04-26T10:29:57Z</time>
      </trkpt>
      <trkpt lat="44.46752" lon="5.59292">
        <ele>1697.83</ele>
        <time>2018-04-26T10:29:58Z</time>
      </trkpt>
      <trkpt lat="44.4675" lon="5.59299">
        <ele>1696.38</ele>
        <time>2018-04-26T10:30:04Z</time>
      </trkpt>
      <trkpt lat="44.46749" lon="5.59303">
        <ele>1695.42</ele>
        <time>2018-04-26T10:30:07Z</time>
      </trkpt>
      <trkpt lat="44.46749" lon="5.59304">
        <ele>1699.75</ele>
        <time>2018-04-26T10:30:08Z</time>
      </trkpt>
      <trkpt lat="44.46748" lon="5.59306">
        <ele>1700.23</ele>
        <time>2018-04-26T10:30:10Z</time>
      </trkpt>
      <trkpt lat="44.46746" lon="5.59312">
        <ele>1699.75</ele>
        <time>2018-04-26T10:30:21Z</time>
      </trkpt>
      <trkpt lat="44.46745" lon="5.59317">
        <ele>1703.11</ele>
        <time>2018-04-26T10:30:28Z</time>
      </trkpt>
      <trkpt lat="44.46745" lon="5.59318">
        <ele>1698.31</ele>
        <time>2018-04-26T10:30:29Z</time>
      </trkpt>
      <trkpt lat="44.46746" lon="5.59319">
        <ele>1703.11</ele>
        <time>2018-04-26T10:30:30Z</time>
      </trkpt>
      <trkpt lat="44.46746" lon="5.59321">
        <ele>1699.75</ele>
        <time>2018-04-26T10:30:32Z</time>
      </trkpt>
      <trkpt lat="44.46746" lon="5.59321">
        <ele>1703.11</ele>
        <time>2018-04-26T10:30:33Z</time>
      </trkpt>
      <trkpt lat="44.46746" lon="5.59322">
        <ele>1704.07</ele>
        <time>2018-04-26T10:30:35Z</time>
      </trkpt>
      <trkpt lat="44.46745" lon="5.59323">
        <ele>1702.63</ele>
        <time>2018-04-26T10:30:37Z</time>
      </trkpt>
      <trkpt lat="44.46744" lon="5.59326">
        <ele>1706.48</ele>
        <time>2018-04-26T10:30:41Z</time>
      </trkpt>
      <trkpt lat="44.46744" lon="5.59327">
        <ele>1701.19</ele>
        <time>2018-04-26T10:30:42Z</time>
      </trkpt>
      <trkpt lat="44.46743" lon="5.59328">
        <ele>1704.55</ele>
        <time>2018-04-26T10:30:43Z</time>
      </trkpt>
      <trkpt lat="44.46738" lon="5.59335">
        <ele>1704.55</ele>
        <time>2018-04-26T10:30:54Z</time>
      </trkpt>
      <trkpt lat="44.46735" lon="5.59344">
        <ele>1706.48</ele>
        <time>2018-04-26T10:31:04Z</time>
      </trkpt>
      <trkpt lat="44.46731" lon="5.59353">
        <ele>1707.44</ele>
        <time>2018-04-26T10:31:12Z</time>
      </trkpt>
      <trkpt lat="44.46731" lon="5.59354">
        <ele>1703.11</ele>
        <time>2018-04-26T10:31:13Z</time>
      </trkpt>
      <trkpt lat="44.46731" lon="5.59355">
        <ele>1706.48</ele>
        <time>2018-04-26T10:31:14Z</time>
      </trkpt>
      <trkpt lat="44.46726" lon="5.59364">
        <ele>1707.44</ele>
        <time>2018-04-26T10:31:24Z</time>
      </trkpt>
      <trkpt lat="44.46723" lon="5.59368">
        <ele>1707.92</ele>
        <time>2018-04-26T10:31:32Z</time>
      </trkpt>
      <trkpt lat="44.46721" lon="5.5937">
        <ele>1709.36</ele>
        <time>2018-04-26T10:31:34Z</time>
      </trkpt>
      <trkpt lat="44.46721" lon="5.59371">
        <ele>1706</ele>
        <time>2018-04-26T10:31:35Z</time>
      </trkpt>
      <trkpt lat="44.4672" lon="5.59372">
        <ele>1709.36</ele>
        <time>2018-04-26T10:31:36Z</time>
      </trkpt>
      <trkpt lat="44.46716" lon="5.59377">
        <ele>1709.84</ele>
        <time>2018-04-26T10:31:45Z</time>
      </trkpt>
      <trkpt lat="44.46714" lon="5.5938">
        <ele>1713.21</ele>
        <time>2018-04-26T10:31:51Z</time>
      </trkpt>
      <trkpt lat="44.46714" lon="5.5938">
        <ele>1709.36</ele>
        <time>2018-04-26T10:31:52Z</time>
      </trkpt>
      <trkpt lat="44.46714" lon="5.59381">
        <ele>1712.25</ele>
        <time>2018-04-26T10:31:53Z</time>
      </trkpt>
      <trkpt lat="44.46713" lon="5.59385">
        <ele>1711.28</ele>
        <time>2018-04-26T10:32:02Z</time>
      </trkpt>
      <trkpt lat="44.46712" lon="5.59393">
        <ele>1716.09</ele>
        <time>2018-04-26T10:32:12Z</time>
      </trkpt>
      <trkpt lat="44.46709" lon="5.594">
        <ele>1716.57</ele>
        <time>2018-04-26T10:32:22Z</time>
      </trkpt>
      <trkpt lat="44.46708" lon="5.59402">
        <ele>1716.57</ele>
        <time>2018-04-26T10:32:26Z</time>
      </trkpt>
      <trkpt lat="44.46705" lon="5.5941">
        <ele>1716.57</ele>
        <time>2018-04-26T10:32:35Z</time>
      </trkpt>
      <trkpt lat="44.46704" lon="5.59411">
        <ele>1719.94</ele>
        <time>2018-04-26T10:32:36Z</time>
      </trkpt>
      <trkpt lat="44.46704" lon="5.59413">
        <ele>1716.57</ele>
        <time>2018-04-26T10:32:37Z</time>
      </trkpt>
      <trkpt lat="44.46703" lon="5.59414">
        <ele>1720.9</ele>
        <time>2018-04-26T10:32:39Z</time>
      </trkpt>
      <trkpt lat="44.46703" lon="5.59415">
        <ele>1718.97</ele>
        <time>2018-04-26T10:32:40Z</time>
      </trkpt>
      <trkpt lat="44.46701" lon="5.59421">
        <ele>1722.34</ele>
        <time>2018-04-26T10:32:47Z</time>
      </trkpt>
      <trkpt lat="44.46701" lon="5.59423">
        <ele>1717.53</ele>
        <time>2018-04-26T10:32:49Z</time>
      </trkpt>
      <trkpt lat="44.46701" lon="5.59424">
        <ele>1720.9</ele>
        <time>2018-04-26T10:32:50Z</time>
      </trkpt>
      <trkpt lat="44.467" lon="5.59427">
        <ele>1721.38</ele>
        <time>2018-04-26T10:32:53Z</time>
      </trkpt>
      <trkpt lat="44.46697" lon="5.59429">
        <ele>1718.97</ele>
        <time>2018-04-26T10:32:57Z</time>
      </trkpt>
      <trkpt lat="44.46695" lon="5.59437">
        <ele>1718.01</ele>
        <time>2018-04-26T10:33:04Z</time>
      </trkpt>
      <trkpt lat="44.46694" lon="5.59441">
        <ele>1720.42</ele>
        <time>2018-04-26T10:33:06Z</time>
      </trkpt>
      <trkpt lat="44.46694" lon="5.59442">
        <ele>1716.09</ele>
        <time>2018-04-26T10:33:07Z</time>
      </trkpt>
      <trkpt lat="44.46693" lon="5.59442">
        <ele>1720.42</ele>
        <time>2018-04-26T10:33:08Z</time>
      </trkpt>
      <trkpt lat="44.46693" lon="5.59446">
        <ele>1719.46</ele>
        <time>2018-04-26T10:33:12Z</time>
      </trkpt>
      <trkpt lat="44.46692" lon="5.59449">
        <ele>1719.94</ele>
        <time>2018-04-26T10:33:14Z</time>
      </trkpt>
      <trkpt lat="44.46687" lon="5.59457">
        <ele>1718.49</ele>
        <time>2018-04-26T10:33:23Z</time>
      </trkpt>
      <trkpt lat="44.46682" lon="5.59472">
        <ele>1718.49</ele>
        <time>2018-04-26T10:33:33Z</time>
      </trkpt>
      <trkpt lat="44.46676" lon="5.59485">
        <ele>1718.49</ele>
        <time>2018-04-26T10:33:42Z</time>
      </trkpt>
      <trkpt lat="44.46673" lon="5.5949">
        <ele>1718.01</ele>
        <time>2018-04-26T10:33:48Z</time>
      </trkpt>
      <trkpt lat="44.46671" lon="5.59494">
        <ele>1716.57</ele>
        <time>2018-04-26T10:33:53Z</time>
      </trkpt>
      <trkpt lat="44.4667" lon="5.59496">
        <ele>1719.94</ele>
        <time>2018-04-26T10:33:55Z</time>
      </trkpt>
      <trkpt lat="44.46669" lon="5.59497">
        <ele>1717.05</ele>
        <time>2018-04-26T10:33:56Z</time>
      </trkpt>
      <trkpt lat="44.46667" lon="5.59501">
        <ele>1717.05</ele>
        <time>2018-04-26T10:34:00Z</time>
      </trkpt>
      <trkpt lat="44.46666" lon="5.59502">
        <ele>1719.46</ele>
        <time>2018-04-26T10:34:02Z</time>
      </trkpt>
      <trkpt lat="44.46662" lon="5.5951">
        <ele>1720.42</ele>
        <time>2018-04-26T10:34:13Z</time>
      </trkpt>
      <trkpt lat="44.46661" lon="5.59511">
        <ele>1719.94</ele>
        <time>2018-04-26T10:34:23Z</time>
      </trkpt>
      <trkpt lat="44.4666" lon="5.59516">
        <ele>1720.42</ele>
        <time>2018-04-26T10:34:34Z</time>
      </trkpt>
      <trkpt lat="44.46661" lon="5.59518">
        <ele>1719.94</ele>
        <time>2018-04-26T10:34:50Z</time>
      </trkpt>
      <trkpt lat="44.46663" lon="5.59521">
        <ele>1720.9</ele>
        <time>2018-04-26T10:34:59Z</time>
      </trkpt>
      <trkpt lat="44.46667" lon="5.59524">
        <ele>1719.94</ele>
        <time>2018-04-26T10:35:12Z</time>
      </trkpt>
      <trkpt lat="44.46667" lon="5.5953">
        <ele>1720.42</ele>
        <time>2018-04-26T10:35:25Z</time>
      </trkpt>
      <trkpt lat="44.46667" lon="5.59536">
        <ele>1719.94</ele>
        <time>2018-04-26T10:35:36Z</time>
      </trkpt>
      <trkpt lat="44.46665" lon="5.59531">
        <ele>1721.38</ele>
        <time>2018-04-26T10:35:45Z</time>
      </trkpt>
      <trkpt lat="44.46663" lon="5.59527">
        <ele>1720.42</ele>
        <time>2018-04-26T10:35:51Z</time>
      </trkpt>
      <trkpt lat="44.46661" lon="5.59524">
        <ele>1721.86</ele>
        <time>2018-04-26T10:35:54Z</time>
      </trkpt>
      <trkpt lat="44.4666" lon="5.59522">
        <ele>1720.9</ele>
        <time>2018-04-26T10:35:57Z</time>
      </trkpt>
      <trkpt lat="44.46657" lon="5.5952">
        <ele>1721.38</ele>
        <time>2018-04-26T10:36:08Z</time>
      </trkpt>
      <trkpt lat="44.46658" lon="5.5952">
        <ele>1720.9</ele>
        <time>2018-04-26T10:36:23Z</time>
      </trkpt>
      <trkpt lat="44.4666" lon="5.5952">
        <ele>1721.86</ele>
        <time>2018-04-26T10:36:41Z</time>
      </trkpt>
      <trkpt lat="44.46656" lon="5.59523">
        <ele>1720.42</ele>
        <time>2018-04-26T10:36:51Z</time>
      </trkpt>
      <trkpt lat="44.46655" lon="5.59523">
        <ele>1721.38</ele>
        <time>2018-04-26T10:37:04Z</time>
      </trkpt>
      <trkpt lat="44.46655" lon="5.59524">
        <ele>1721.38</ele>
        <time>2018-04-26T10:37:20Z</time>
      </trkpt>
      <trkpt lat="44.46657" lon="5.59525">
        <ele>1721.38</ele>
        <time>2018-04-26T10:37:23Z</time>
      </trkpt>
      <trkpt lat="44.46661" lon="5.59527">
        <ele>1721.38</ele>
        <time>2018-04-26T10:37:27Z</time>
      </trkpt>
      <trkpt lat="44.46667" lon="5.5953">
        <ele>1720.9</ele>
        <time>2018-04-26T10:37:36Z</time>
      </trkpt>
      <trkpt lat="44.46666" lon="5.59532">
        <ele>1720.42</ele>
        <time>2018-04-26T10:37:49Z</time>
      </trkpt>
      <trkpt lat="44.46668" lon="5.59535">
        <ele>1720.9</ele>
        <time>2018-04-26T10:37:59Z</time>
      </trkpt>
      <trkpt lat="44.46668" lon="5.59535">
        <ele>1720.9</ele>
        <time>2018-04-26T10:38:14Z</time>
      </trkpt>
      <trkpt lat="44.46669" lon="5.59535">
        <ele>1721.38</ele>
        <time>2018-04-26T10:38:34Z</time>
      </trkpt>
      <trkpt lat="44.46669" lon="5.59535">
        <ele>1722.34</ele>
        <time>2018-04-26T10:38:54Z</time>
      </trkpt>
      <trkpt lat="44.46669" lon="5.59535">
        <ele>1723.3</ele>
        <time>2018-04-26T10:39:00Z</time>
      </trkpt>
      <trkpt lat="44.46669" lon="5.59535">
        <ele>1719.94</ele>
        <time>2018-04-26T10:39:03Z</time>
      </trkpt>
      <trkpt lat="44.46669" lon="5.59535">
        <ele>1715.61</ele>
        <time>2018-04-26T10:39:13Z</time>
      </trkpt>
      <trkpt lat="44.46669" lon="5.59535">
        <ele>1727.15</ele>
        <time>2018-04-26T10:39:14Z</time>
      </trkpt>
      <trkpt lat="44.46669" lon="5.59535">
        <ele>1722.34</ele>
        <time>2018-04-26T10:39:15Z</time>
      </trkpt>
      <trkpt lat="44.46669" lon="5.59535">
        <ele>1721.38</ele>
        <time>2018-04-26T10:39:17Z</time>
      </trkpt>
      <trkpt lat="44.46669" lon="5.59534">
        <ele>1721.38</ele>
        <time>2018-04-26T10:39:34Z</time>
      </trkpt>
      <trkpt lat="44.46669" lon="5.59525">
        <ele>1722.34</ele>
        <time>2018-04-26T10:39:44Z</time>
      </trkpt>
      <trkpt lat="44.46669" lon="5.59522">
        <ele>1721.38</ele>
        <time>2018-04-26T10:39:48Z</time>
      </trkpt>
      <trkpt lat="44.46671" lon="5.59511">
        <ele>1719.94</ele>
        <time>2018-04-26T10:39:58Z</time>
      </trkpt>
      <trkpt lat="44.46671" lon="5.59502">
        <ele>1718.97</ele>
        <time>2018-04-26T10:40:07Z</time>
      </trkpt>
      <trkpt lat="44.46672" lon="5.59497">
        <ele>1718.97</ele>
        <time>2018-04-26T10:40:16Z</time>
      </trkpt>
      <trkpt lat="44.46671" lon="5.59497">
        <ele>1718.97</ele>
        <time>2018-04-26T10:40:39Z</time>
      </trkpt>
      <trkpt lat="44.46671" lon="5.59497">
        <ele>1718.01</ele>
        <time>2018-04-26T10:41:04Z</time>
      </trkpt>
      <trkpt lat="44.46671" lon="5.59499">
        <ele>1720.42</ele>
        <time>2018-04-26T10:41:06Z</time>
      </trkpt>
      <trkpt lat="44.46671" lon="5.59502">
        <ele>1718.97</ele>
        <time>2018-04-26T10:41:08Z</time>
      </trkpt>
      <trkpt lat="44.4667" lon="5.59505">
        <ele>1720.42</ele>
        <time>2018-04-26T10:41:10Z</time>
      </trkpt>
      <trkpt lat="44.4667" lon="5.59506">
        <ele>1717.05</ele>
        <time>2018-04-26T10:41:11Z</time>
      </trkpt>
      <trkpt lat="44.46669" lon="5.59515">
        <ele>1720.42</ele>
        <time>2018-04-26T10:41:19Z</time>
      </trkpt>
      <trkpt lat="44.46669" lon="5.59519">
        <ele>1720.42</ele>
        <time>2018-04-26T10:41:22Z</time>
      </trkpt>
      <trkpt lat="44.46669" lon="5.59522">
        <ele>1722.34</ele>
        <time>2018-04-26T10:41:24Z</time>
      </trkpt>
      <trkpt lat="44.46668" lon="5.59527">
        <ele>1721.38</ele>
        <time>2018-04-26T10:41:28Z</time>
      </trkpt>
      <trkpt lat="44.4667" lon="5.59535">
        <ele>1722.34</ele>
        <time>2018-04-26T10:41:40Z</time>
      </trkpt>
      <trkpt lat="44.4667" lon="5.59535">
        <ele>1718.49</ele>
        <time>2018-04-26T10:41:42Z</time>
      </trkpt>
      <trkpt lat="44.4667" lon="5.59535">
        <ele>1724.74</ele>
        <time>2018-04-26T10:41:44Z</time>
      </trkpt>
      <trkpt lat="44.4667" lon="5.59535">
        <ele>1720.9</ele>
        <time>2018-04-26T10:41:47Z</time>
      </trkpt>
      <trkpt lat="44.4667" lon="5.59535">
        <ele>1722.34</ele>
        <time>2018-04-26T10:42:04Z</time>
      </trkpt>
      <trkpt lat="44.4667" lon="5.59535">
        <ele>1723.78</ele>
        <time>2018-04-26T10:42:26Z</time>
      </trkpt>
      <trkpt lat="44.4667" lon="5.59535">
        <ele>1721.86</ele>
        <time>2018-04-26T10:42:29Z</time>
      </trkpt>
      <trkpt lat="44.4667" lon="5.59535">
        <ele>1722.34</ele>
        <time>2018-04-26T10:42:55Z</time>
      </trkpt>
      <trkpt lat="44.4667" lon="5.59535">
        <ele>1721.86</ele>
        <time>2018-04-26T10:43:19Z</time>
      </trkpt>
      <trkpt lat="44.4667" lon="5.59535">
        <ele>1721.38</ele>
        <time>2018-04-26T10:43:47Z</time>
      </trkpt>
      <trkpt lat="44.4667" lon="5.59535">
        <ele>1721.38</ele>
        <time>2018-04-26T10:44:06Z</time>
      </trkpt>
      <trkpt lat="44.4667" lon="5.59535">
        <ele>1721.38</ele>
        <time>2018-04-26T10:44:33Z</time>
      </trkpt>
      <trkpt lat="44.4667" lon="5.59535">
        <ele>1721.38</ele>
        <time>2018-04-26T10:44:59Z</time>
      </trkpt>
      <trkpt lat="44.46671" lon="5.59535">
        <ele>1721.86</ele>
        <time>2018-04-26T10:45:21Z</time>
      </trkpt>
      <trkpt lat="44.46671" lon="5.59535">
        <ele>1721.38</ele>
        <time>2018-04-26T10:45:50Z</time>
      </trkpt>
      <trkpt lat="44.46671" lon="5.59535">
        <ele>1721.86</ele>
        <time>2018-04-26T10:46:20Z</time>
      </trkpt>
      <trkpt lat="44.46671" lon="5.59535">
        <ele>1721.86</ele>
        <time>2018-04-26T10:46:47Z</time>
      </trkpt>
      <trkpt lat="44.46671" lon="5.59535">
        <ele>1721.86</ele>
        <time>2018-04-26T10:47:09Z</time>
      </trkpt>
      <trkpt lat="44.46671" lon="5.59535">
        <ele>1722.34</ele>
        <time>2018-04-26T10:47:33Z</time>
      </trkpt>
      <trkpt lat="44.46671" lon="5.59535">
        <ele>1723.3</ele>
        <time>2018-04-26T10:48:00Z</time>
      </trkpt>
      <trkpt lat="44.46671" lon="5.59535">
        <ele>1723.78</ele>
        <time>2018-04-26T10:48:30Z</time>
      </trkpt>
      <trkpt lat="44.46671" lon="5.59535">
        <ele>1723.3</ele>
        <time>2018-04-26T10:48:58Z</time>
      </trkpt>
      <trkpt lat="44.46671" lon="5.59535">
        <ele>1723.3</ele>
        <time>2018-04-26T10:49:25Z</time>
      </trkpt>
      <trkpt lat="44.46671" lon="5.59535">
        <ele>1722.82</ele>
        <time>2018-04-26T10:49:53Z</time>
      </trkpt>
      <trkpt lat="44.46671" lon="5.59535">
        <ele>1722.82</ele>
        <time>2018-04-26T10:50:18Z</time>
      </trkpt>
      <trkpt lat="44.46671" lon="5.59535">
        <ele>1723.78</ele>
        <time>2018-04-26T10:50:46Z</time>
      </trkpt>
      <trkpt lat="44.4667" lon="5.59535">
        <ele>1723.3</ele>
        <time>2018-04-26T10:51:11Z</time>
      </trkpt>
      <trkpt lat="44.4667" lon="5.59535">
        <ele>1724.26</ele>
        <time>2018-04-26T10:51:35Z</time>
      </trkpt>
      <trkpt lat="44.4667" lon="5.59535">
        <ele>1723.78</ele>
        <time>2018-04-26T10:52:02Z</time>
      </trkpt>
      <trkpt lat="44.4667" lon="5.59535">
        <ele>1724.26</ele>
        <time>2018-04-26T10:52:28Z</time>
      </trkpt>
      <trkpt lat="44.4667" lon="5.59535">
        <ele>1724.26</ele>
        <time>2018-04-26T10:52:53Z</time>
      </trkpt>
      <trkpt lat="44.4667" lon="5.59535">
        <ele>1723.78</ele>
        <time>2018-04-26T10:53:19Z</time>
      </trkpt>
      <trkpt lat="44.4667" lon="5.59535">
        <ele>1723.78</ele>
        <time>2018-04-26T10:53:45Z</time>
      </trkpt>
      <trkpt lat="44.4667" lon="5.59535">
        <ele>1723.78</ele>
        <time>2018-04-26T10:54:08Z</time>
      </trkpt>
      <trkpt lat="44.4667" lon="5.59535">
        <ele>1720.42</ele>
        <time>2018-04-26T10:54:34Z</time>
      </trkpt>
      <trkpt lat="44.4667" lon="5.59535">
        <ele>1724.26</ele>
        <time>2018-04-26T10:54:35Z</time>
      </trkpt>
      <trkpt lat="44.4667" lon="5.59535">
        <ele>1723.3</ele>
        <time>2018-04-26T10:55:00Z</time>
      </trkpt>
      <trkpt lat="44.4667" lon="5.59535">
        <ele>1722.34</ele>
        <time>2018-04-26T10:55:26Z</time>
      </trkpt>
      <trkpt lat="44.46671" lon="5.59535">
        <ele>1722.34</ele>
        <time>2018-04-26T10:55:52Z</time>
      </trkpt>
      <trkpt lat="44.46671" lon="5.59535">
        <ele>1722.82</ele>
        <time>2018-04-26T10:56:14Z</time>
      </trkpt>
      <trkpt lat="44.46671" lon="5.59535">
        <ele>1723.3</ele>
        <time>2018-04-26T10:56:40Z</time>
      </trkpt>
      <trkpt lat="44.46671" lon="5.59535">
        <ele>1723.3</ele>
        <time>2018-04-26T10:56:56Z</time>
      </trkpt>
      <trkpt lat="44.46671" lon="5.59535">
        <ele>1723.3</ele>
        <time>2018-04-26T10:57:02Z</time>
      </trkpt>
      <trkpt lat="44.46671" lon="5.59535">
        <ele>1722.82</ele>
        <time>2018-04-26T10:57:04Z</time>
      </trkpt>
      <trkpt lat="44.46671" lon="5.59535">
        <ele>1723.3</ele>
        <time>2018-04-26T10:57:32Z</time>
      </trkpt>
      <trkpt lat="44.46671" lon="5.59535">
        <ele>1722.82</ele>
        <time>2018-04-26T10:58:04Z</time>
      </trkpt>
      <trkpt lat="44.46671" lon="5.59535">
        <ele>1722.82</ele>
        <time>2018-04-26T10:58:33Z</time>
      </trkpt>
      <trkpt lat="44.46671" lon="5.59535">
        <ele>1722.82</ele>
        <time>2018-04-26T10:59:00Z</time>
      </trkpt>
      <trkpt lat="44.46671" lon="5.59535">
        <ele>1723.3</ele>
        <time>2018-04-26T10:59:22Z</time>
      </trkpt>
      <trkpt lat="44.46671" lon="5.59535">
        <ele>1723.3</ele>
        <time>2018-04-26T10:59:46Z</time>
      </trkpt>
      <trkpt lat="44.46671" lon="5.59535">
        <ele>1723.78</ele>
        <time>2018-04-26T11:00:14Z</time>
      </trkpt>
      <trkpt lat="44.46671" lon="5.59535">
        <ele>1723.78</ele>
        <time>2018-04-26T11:00:39Z</time>
      </trkpt>
      <trkpt lat="44.46671" lon="5.59535">
        <ele>1724.74</ele>
        <time>2018-04-26T11:00:56Z</time>
      </trkpt>
      <trkpt lat="44.46671" lon="5.59535">
        <ele>1723.78</ele>
        <time>2018-04-26T11:01:18Z</time>
      </trkpt>
      <trkpt lat="44.46671" lon="5.59535">
        <ele>1723.3</ele>
        <time>2018-04-26T11:01:44Z</time>
      </trkpt>
      <trkpt lat="44.46671" lon="5.59535">
        <ele>1724.26</ele>
        <time>2018-04-26T11:02:00Z</time>
      </trkpt>
      <trkpt lat="44.46671" lon="5.59535">
        <ele>1722.82</ele>
        <time>2018-04-26T11:02:24Z</time>
      </trkpt>
      <trkpt lat="44.4667" lon="5.59535">
        <ele>1723.78</ele>
        <time>2018-04-26T11:02:50Z</time>
      </trkpt>
      <trkpt lat="44.46671" lon="5.59536">
        <ele>1723.78</ele>
        <time>2018-04-26T11:03:15Z</time>
      </trkpt>
      <trkpt lat="44.46671" lon="5.59536">
        <ele>1722.82</ele>
        <time>2018-04-26T11:03:41Z</time>
      </trkpt>
      <trkpt lat="44.46671" lon="5.59536">
        <ele>1721.86</ele>
        <time>2018-04-26T11:03:52Z</time>
      </trkpt>
      <trkpt lat="44.46671" lon="5.59536">
        <ele>1723.78</ele>
        <time>2018-04-26T11:03:54Z</time>
      </trkpt>
      <trkpt lat="44.46671" lon="5.59536">
        <ele>1723.3</ele>
        <time>2018-04-26T11:04:26Z</time>
      </trkpt>
      <trkpt lat="44.46671" lon="5.59536">
        <ele>1723.78</ele>
        <time>2018-04-26T11:04:50Z</time>
      </trkpt>
      <trkpt lat="44.46671" lon="5.59536">
        <ele>1723.3</ele>
        <time>2018-04-26T11:05:15Z</time>
      </trkpt>
      <trkpt lat="44.46671" lon="5.59536">
        <ele>1724.26</ele>
        <time>2018-04-26T11:05:40Z</time>
      </trkpt>
      <trkpt lat="44.46671" lon="5.59536">
        <ele>1724.26</ele>
        <time>2018-04-26T11:06:08Z</time>
      </trkpt>
      <trkpt lat="44.46671" lon="5.59536">
        <ele>1724.26</ele>
        <time>2018-04-26T11:06:33Z</time>
      </trkpt>
      <trkpt lat="44.46671" lon="5.59536">
        <ele>1725.7</ele>
        <time>2018-04-26T11:07:03Z</time>
      </trkpt>
      <trkpt lat="44.46671" lon="5.59536">
        <ele>1724.74</ele>
        <time>2018-04-26T11:07:28Z</time>
      </trkpt>
      <trkpt lat="44.46669" lon="5.59536">
        <ele>1724.26</ele>
        <time>2018-04-26T11:07:37Z</time>
      </trkpt>
      <trkpt lat="44.46663" lon="5.59533">
        <ele>1725.7</ele>
        <time>2018-04-26T11:07:46Z</time>
      </trkpt>
      <trkpt lat="44.46662" lon="5.59533">
        <ele>1724.74</ele>
        <time>2018-04-26T11:08:00Z</time>
      </trkpt>
      <trkpt lat="44.46662" lon="5.59535">
        <ele>1725.22</ele>
        <time>2018-04-26T11:08:17Z</time>
      </trkpt>
      <trkpt lat="44.46663" lon="5.59536">
        <ele>1724.74</ele>
        <time>2018-04-26T11:08:33Z</time>
      </trkpt>
      <trkpt lat="44.46664" lon="5.59541">
        <ele>1723.78</ele>
        <time>2018-04-26T11:08:43Z</time>
      </trkpt>
      <trkpt lat="44.46665" lon="5.59542">
        <ele>1723.78</ele>
        <time>2018-04-26T11:08:58Z</time>
      </trkpt>
      <trkpt lat="44.46665" lon="5.59541">
        <ele>1722.82</ele>
        <time>2018-04-26T11:09:06Z</time>
      </trkpt>
      <trkpt lat="44.46668" lon="5.59537">
        <ele>1725.22</ele>
        <time>2018-04-26T11:09:17Z</time>
      </trkpt>
      <trkpt lat="44.46669" lon="5.59536">
        <ele>1725.22</ele>
        <time>2018-04-26T11:09:28Z</time>
      </trkpt>
      <trkpt lat="44.4667" lon="5.59538">
        <ele>1725.22</ele>
        <time>2018-04-26T11:09:46Z</time>
      </trkpt>
      <trkpt lat="44.4667" lon="5.59539">
        <ele>1725.7</ele>
        <time>2018-04-26T11:10:00Z</time>
      </trkpt>
      <trkpt lat="44.46671" lon="5.59539">
        <ele>1725.7</ele>
        <time>2018-04-26T11:10:30Z</time>
      </trkpt>
      <trkpt lat="44.46671" lon="5.59539">
        <ele>1725.7</ele>
        <time>2018-04-26T11:10:55Z</time>
      </trkpt>
      <trkpt lat="44.46671" lon="5.5954">
        <ele>1725.7</ele>
        <time>2018-04-26T11:11:16Z</time>
      </trkpt>
      <trkpt lat="44.4667" lon="5.59538">
        <ele>1723.3</ele>
        <time>2018-04-26T11:11:35Z</time>
      </trkpt>
      <trkpt lat="44.4667" lon="5.59536">
        <ele>1724.26</ele>
        <time>2018-04-26T11:11:46Z</time>
      </trkpt>
      <trkpt lat="44.4667" lon="5.59536">
        <ele>1723.78</ele>
        <time>2018-04-26T11:12:10Z</time>
      </trkpt>
      <trkpt lat="44.4667" lon="5.59532">
        <ele>1724.26</ele>
        <time>2018-04-26T11:12:22Z</time>
      </trkpt>
      <trkpt lat="44.4667" lon="5.59531">
        <ele>1723.3</ele>
        <time>2018-04-26T11:12:27Z</time>
      </trkpt>
      <trkpt lat="44.46669" lon="5.59528">
        <ele>1722.82</ele>
        <time>2018-04-26T11:12:30Z</time>
      </trkpt>
      <trkpt lat="44.46664" lon="5.59521">
        <ele>1723.3</ele>
        <time>2018-04-26T11:12:40Z</time>
      </trkpt>
      <trkpt lat="44.4666" lon="5.59519">
        <ele>1722.82</ele>
        <time>2018-04-26T11:12:51Z</time>
      </trkpt>
      <trkpt lat="44.4666" lon="5.59519">
        <ele>1722.82</ele>
        <time>2018-04-26T11:13:07Z</time>
      </trkpt>
      <trkpt lat="44.4666" lon="5.59518">
        <ele>1722.82</ele>
        <time>2018-04-26T11:13:32Z</time>
      </trkpt>
      <trkpt lat="44.4666" lon="5.5952">
        <ele>1724.26</ele>
        <time>2018-04-26T11:13:42Z</time>
      </trkpt>
      <trkpt lat="44.46661" lon="5.59523">
        <ele>1723.3</ele>
        <time>2018-04-26T11:13:56Z</time>
      </trkpt>
      <trkpt lat="44.46662" lon="5.59524">
        <ele>1723.78</ele>
        <time>2018-04-26T11:14:21Z</time>
      </trkpt>
      <trkpt lat="44.46662" lon="5.59524">
        <ele>1723.78</ele>
        <time>2018-04-26T11:14:42Z</time>
      </trkpt>
      <trkpt lat="44.46662" lon="5.59525">
        <ele>1723.78</ele>
        <time>2018-04-26T11:15:06Z</time>
      </trkpt>
      <trkpt lat="44.46664" lon="5.59528">
        <ele>1723.3</ele>
        <time>2018-04-26T11:15:11Z</time>
      </trkpt>
      <trkpt lat="44.46666" lon="5.59529">
        <ele>1723.3</ele>
        <time>2018-04-26T11:15:13Z</time>
      </trkpt>
      <trkpt lat="44.4667" lon="5.59535">
        <ele>1722.82</ele>
        <time>2018-04-26T11:15:23Z</time>
      </trkpt>
      <trkpt lat="44.46671" lon="5.59535">
        <ele>1724.74</ele>
        <time>2018-04-26T11:15:35Z</time>
      </trkpt>
      <trkpt lat="44.46672" lon="5.59536">
        <ele>1725.22</ele>
        <time>2018-04-26T11:16:04Z</time>
      </trkpt>
      <trkpt lat="44.46672" lon="5.59537">
        <ele>1725.22</ele>
        <time>2018-04-26T11:16:31Z</time>
      </trkpt>
      <trkpt lat="44.46673" lon="5.59537">
        <ele>1725.22</ele>
        <time>2018-04-26T11:16:49Z</time>
      </trkpt>
      <trkpt lat="44.46673" lon="5.59537">
        <ele>1726.67</ele>
        <time>2018-04-26T11:17:09Z</time>
      </trkpt>
      <trkpt lat="44.46673" lon="5.59538">
        <ele>1726.18</ele>
        <time>2018-04-26T11:17:25Z</time>
      </trkpt>
      <trkpt lat="44.46673" lon="5.59538">
        <ele>1725.7</ele>
        <time>2018-04-26T11:17:30Z</time>
      </trkpt>
      <trkpt lat="44.46671" lon="5.59537">
        <ele>1724.74</ele>
        <time>2018-04-26T11:17:42Z</time>
      </trkpt>
      <trkpt lat="44.4667" lon="5.59537">
        <ele>1723.78</ele>
        <time>2018-04-26T11:17:54Z</time>
      </trkpt>
      <trkpt lat="44.46669" lon="5.59536">
        <ele>1724.74</ele>
        <time>2018-04-26T11:18:16Z</time>
      </trkpt>
      <trkpt lat="44.4667" lon="5.59536">
        <ele>1725.22</ele>
        <time>2018-04-26T11:18:27Z</time>
      </trkpt>
      <trkpt lat="44.4667" lon="5.59535">
        <ele>1725.22</ele>
        <time>2018-04-26T11:18:43Z</time>
      </trkpt>
      <trkpt lat="44.46669" lon="5.59535">
        <ele>1725.22</ele>
        <time>2018-04-26T11:18:59Z</time>
      </trkpt>
      <trkpt lat="44.46669" lon="5.59532">
        <ele>1725.7</ele>
        <time>2018-04-26T11:19:01Z</time>
      </trkpt>
      <trkpt lat="44.4667" lon="5.59527">
        <ele>1724.74</ele>
        <time>2018-04-26T11:19:10Z</time>
      </trkpt>
      <trkpt lat="44.4667" lon="5.59527">
        <ele>1724.26</ele>
        <time>2018-04-26T11:19:31Z</time>
      </trkpt>
      <trkpt lat="44.4667" lon="5.59527">
        <ele>1725.22</ele>
        <time>2018-04-26T11:19:55Z</time>
      </trkpt>
      <trkpt lat="44.4667" lon="5.59527">
        <ele>1724.74</ele>
        <time>2018-04-26T11:20:21Z</time>
      </trkpt>
      <trkpt lat="44.4667" lon="5.59527">
        <ele>1724.26</ele>
        <time>2018-04-26T11:20:45Z</time>
      </trkpt>
      <trkpt lat="44.4667" lon="5.5953">
        <ele>1723.78</ele>
        <time>2018-04-26T11:21:03Z</time>
      </trkpt>
      <trkpt lat="44.4667" lon="5.59535">
        <ele>1724.26</ele>
        <time>2018-04-26T11:21:14Z</time>
      </trkpt>
      <trkpt lat="44.46668" lon="5.59538">
        <ele>1724.26</ele>
        <time>2018-04-26T11:21:26Z</time>
      </trkpt>
      <trkpt lat="44.46664" lon="5.59545">
        <ele>1723.3</ele>
        <time>2018-04-26T11:21:35Z</time>
      </trkpt>
      <trkpt lat="44.46661" lon="5.5955">
        <ele>1722.34</ele>
        <time>2018-04-26T11:21:39Z</time>
      </trkpt>
      <trkpt lat="44.46658" lon="5.59557">
        <ele>1722.82</ele>
        <time>2018-04-26T11:21:49Z</time>
      </trkpt>
      <trkpt lat="44.46658" lon="5.59556">
        <ele>1722.82</ele>
        <time>2018-04-26T11:22:09Z</time>
      </trkpt>
      <trkpt lat="44.46658" lon="5.59556">
        <ele>1723.3</ele>
        <time>2018-04-26T11:22:16Z</time>
      </trkpt>
      <trkpt lat="44.46657" lon="5.59559">
        <ele>1723.3</ele>
        <time>2018-04-26T11:22:32Z</time>
      </trkpt>
      <trkpt lat="44.46658" lon="5.59561">
        <ele>1722.82</ele>
        <time>2018-04-26T11:22:42Z</time>
      </trkpt>
      <trkpt lat="44.46658" lon="5.59562">
        <ele>1722.34</ele>
        <time>2018-04-26T11:22:57Z</time>
      </trkpt>
      <trkpt lat="44.46657" lon="5.59564">
        <ele>1723.78</ele>
        <time>2018-04-26T11:23:06Z</time>
      </trkpt>
      <trkpt lat="44.46653" lon="5.59573">
        <ele>1725.22</ele>
        <time>2018-04-26T11:23:16Z</time>
      </trkpt>
      <trkpt lat="44.46654" lon="5.59575">
        <ele>1724.26</ele>
        <time>2018-04-26T11:23:18Z</time>
      </trkpt>
      <trkpt lat="44.46654" lon="5.5958">
        <ele>1723.78</ele>
        <time>2018-04-26T11:23:22Z</time>
      </trkpt>
      <trkpt lat="44.46655" lon="5.59584">
        <ele>1724.26</ele>
        <time>2018-04-26T11:23:26Z</time>
      </trkpt>
      <trkpt lat="44.46655" lon="5.59598">
        <ele>1725.22</ele>
        <time>2018-04-26T11:23:35Z</time>
      </trkpt>
      <trkpt lat="44.46655" lon="5.59613">
        <ele>1725.22</ele>
        <time>2018-04-26T11:23:44Z</time>
      </trkpt>
      <trkpt lat="44.46655" lon="5.59624">
        <ele>1726.18</ele>
        <time>2018-04-26T11:23:52Z</time>
      </trkpt>
      <trkpt lat="44.46655" lon="5.59627">
        <ele>1725.7</ele>
        <time>2018-04-26T11:23:55Z</time>
      </trkpt>
      <trkpt lat="44.46653" lon="5.59638">
        <ele>1723.78</ele>
        <time>2018-04-26T11:24:03Z</time>
      </trkpt>
      <trkpt lat="44.46653" lon="5.59652">
        <ele>1727.63</ele>
        <time>2018-04-26T11:24:13Z</time>
      </trkpt>
      <trkpt lat="44.46654" lon="5.59655">
        <ele>1726.18</ele>
        <time>2018-04-26T11:24:15Z</time>
      </trkpt>
      <trkpt lat="44.46655" lon="5.59659">
        <ele>1730.03</ele>
        <time>2018-04-26T11:24:18Z</time>
      </trkpt>
      <trkpt lat="44.46655" lon="5.59661">
        <ele>1725.7</ele>
        <time>2018-04-26T11:24:19Z</time>
      </trkpt>
      <trkpt lat="44.46655" lon="5.59662">
        <ele>1726.18</ele>
        <time>2018-04-26T11:24:20Z</time>
      </trkpt>
      <trkpt lat="44.46655" lon="5.59666">
        <ele>1729.55</ele>
        <time>2018-04-26T11:24:22Z</time>
      </trkpt>
      <trkpt lat="44.46655" lon="5.59667">
        <ele>1729.55</ele>
        <time>2018-04-26T11:24:23Z</time>
      </trkpt>
      <trkpt lat="44.46655" lon="5.59677">
        <ele>1730.51</ele>
        <time>2018-04-26T11:24:30Z</time>
      </trkpt>
      <trkpt lat="44.46656" lon="5.59678">
        <ele>1726.67</ele>
        <time>2018-04-26T11:24:31Z</time>
      </trkpt>
      <trkpt lat="44.46656" lon="5.59679">
        <ele>1730.03</ele>
        <time>2018-04-26T11:24:32Z</time>
      </trkpt>
      <trkpt lat="44.46657" lon="5.59688">
        <ele>1730.99</ele>
        <time>2018-04-26T11:24:38Z</time>
      </trkpt>
      <trkpt lat="44.46657" lon="5.59691">
        <ele>1731.47</ele>
        <time>2018-04-26T11:24:40Z</time>
      </trkpt>
      <trkpt lat="44.46657" lon="5.59692">
        <ele>1728.59</ele>
        <time>2018-04-26T11:24:41Z</time>
      </trkpt>
      <trkpt lat="44.46656" lon="5.59693">
        <ele>1731.95</ele>
        <time>2018-04-26T11:24:42Z</time>
      </trkpt>
      <trkpt lat="44.46656" lon="5.59695">
        <ele>1733.39</ele>
        <time>2018-04-26T11:24:44Z</time>
      </trkpt>
      <trkpt lat="44.46656" lon="5.59696">
        <ele>1731.95</ele>
        <time>2018-04-26T11:24:45Z</time>
      </trkpt>
      <trkpt lat="44.46655" lon="5.59699">
        <ele>1733.88</ele>
        <time>2018-04-26T11:24:47Z</time>
      </trkpt>
      <trkpt lat="44.46655" lon="5.59704">
        <ele>1732.91</ele>
        <time>2018-04-26T11:24:50Z</time>
      </trkpt>
      <trkpt lat="44.46655" lon="5.59706">
        <ele>1733.88</ele>
        <time>2018-04-26T11:24:52Z</time>
      </trkpt>
      <trkpt lat="44.46655" lon="5.59712">
        <ele>1731.95</ele>
        <time>2018-04-26T11:24:57Z</time>
      </trkpt>
      <trkpt lat="44.46654" lon="5.59721">
        <ele>1734.84</ele>
        <time>2018-04-26T11:25:03Z</time>
      </trkpt>
      <trkpt lat="44.46654" lon="5.59721">
        <ele>1730.99</ele>
        <time>2018-04-26T11:25:04Z</time>
      </trkpt>
      <trkpt lat="44.46653" lon="5.59722">
        <ele>1734.36</ele>
        <time>2018-04-26T11:25:05Z</time>
      </trkpt>
      <trkpt lat="44.46651" lon="5.59727">
        <ele>1735.32</ele>
        <time>2018-04-26T11:25:10Z</time>
      </trkpt>
      <trkpt lat="44.46651" lon="5.5973">
        <ele>1732.91</ele>
        <time>2018-04-26T11:25:12Z</time>
      </trkpt>
      <trkpt lat="44.46649" lon="5.59744">
        <ele>1734.84</ele>
        <time>2018-04-26T11:25:23Z</time>
      </trkpt>
      <trkpt lat="44.46647" lon="5.59747">
        <ele>1735.8</ele>
        <time>2018-04-26T11:25:25Z</time>
      </trkpt>
      <trkpt lat="44.46647" lon="5.59748">
        <ele>1734.36</ele>
        <time>2018-04-26T11:25:27Z</time>
      </trkpt>
      <trkpt lat="44.46647" lon="5.59751">
        <ele>1733.88</ele>
        <time>2018-04-26T11:25:30Z</time>
      </trkpt>
      <trkpt lat="44.46645" lon="5.59757">
        <ele>1733.88</ele>
        <time>2018-04-26T11:25:34Z</time>
      </trkpt>
      <trkpt lat="44.46644" lon="5.59765">
        <ele>1733.88</ele>
        <time>2018-04-26T11:25:39Z</time>
      </trkpt>
      <trkpt lat="44.46643" lon="5.59773">
        <ele>1733.39</ele>
        <time>2018-04-26T11:25:44Z</time>
      </trkpt>
      <trkpt lat="44.46643" lon="5.59781">
        <ele>1734.36</ele>
        <time>2018-04-26T11:25:49Z</time>
      </trkpt>
      <trkpt lat="44.46642" lon="5.59795">
        <ele>1733.88</ele>
        <time>2018-04-26T11:25:59Z</time>
      </trkpt>
      <trkpt lat="44.46639" lon="5.59808">
        <ele>1733.39</ele>
        <time>2018-04-26T11:26:08Z</time>
      </trkpt>
      <trkpt lat="44.46638" lon="5.59816">
        <ele>1733.39</ele>
        <time>2018-04-26T11:26:14Z</time>
      </trkpt>
      <trkpt lat="44.46636" lon="5.59819">
        <ele>1733.88</ele>
        <time>2018-04-26T11:26:17Z</time>
      </trkpt>
      <trkpt lat="44.46635" lon="5.59826">
        <ele>1732.91</ele>
        <time>2018-04-26T11:26:23Z</time>
      </trkpt>
      <trkpt lat="44.46632" lon="5.59842">
        <ele>1732.43</ele>
        <time>2018-04-26T11:26:33Z</time>
      </trkpt>
      <trkpt lat="44.4663" lon="5.59857">
        <ele>1730.99</ele>
        <time>2018-04-26T11:26:42Z</time>
      </trkpt>
      <trkpt lat="44.46628" lon="5.59871">
        <ele>1733.39</ele>
        <time>2018-04-26T11:26:50Z</time>
      </trkpt>
      <trkpt lat="44.46628" lon="5.59874">
        <ele>1731.47</ele>
        <time>2018-04-26T11:26:52Z</time>
      </trkpt>
      <trkpt lat="44.46626" lon="5.59888">
        <ele>1732.91</ele>
        <time>2018-04-26T11:27:00Z</time>
      </trkpt>
      <trkpt lat="44.46625" lon="5.59902">
        <ele>1732.43</ele>
        <time>2018-04-26T11:27:08Z</time>
      </trkpt>
      <trkpt lat="44.46624" lon="5.59915">
        <ele>1730.99</ele>
        <time>2018-04-26T11:27:16Z</time>
      </trkpt>
      <trkpt lat="44.46623" lon="5.59919">
        <ele>1732.43</ele>
        <time>2018-04-26T11:27:18Z</time>
      </trkpt>
      <trkpt lat="44.46622" lon="5.59925">
        <ele>1730.03</ele>
        <time>2018-04-26T11:27:26Z</time>
      </trkpt>
      <trkpt lat="44.46621" lon="5.59929">
        <ele>1730.51</ele>
        <time>2018-04-26T11:27:29Z</time>
      </trkpt>
      <trkpt lat="44.46618" lon="5.59944">
        <ele>1731.95</ele>
        <time>2018-04-26T11:27:38Z</time>
      </trkpt>
      <trkpt lat="44.46616" lon="5.59958">
        <ele>1731.95</ele>
        <time>2018-04-26T11:27:47Z</time>
      </trkpt>
      <trkpt lat="44.46615" lon="5.59962">
        <ele>1730.03</ele>
        <time>2018-04-26T11:27:50Z</time>
      </trkpt>
      <trkpt lat="44.46614" lon="5.59968">
        <ele>1731.95</ele>
        <time>2018-04-26T11:27:53Z</time>
      </trkpt>
      <trkpt lat="44.46614" lon="5.59969">
        <ele>1730.99</ele>
        <time>2018-04-26T11:27:54Z</time>
      </trkpt>
      <trkpt lat="44.46612" lon="5.59978">
        <ele>1732.91</ele>
        <time>2018-04-26T11:28:01Z</time>
      </trkpt>
      <trkpt lat="44.4661" lon="5.59981">
        <ele>1730.99</ele>
        <time>2018-04-26T11:28:04Z</time>
      </trkpt>
      <trkpt lat="44.46607" lon="5.59991">
        <ele>1733.39</ele>
        <time>2018-04-26T11:28:13Z</time>
      </trkpt>
      <trkpt lat="44.46607" lon="5.59992">
        <ele>1730.51</ele>
        <time>2018-04-26T11:28:14Z</time>
      </trkpt>
      <trkpt lat="44.46607" lon="5.59993">
        <ele>1730.03</ele>
        <time>2018-04-26T11:28:15Z</time>
      </trkpt>
      <trkpt lat="44.46605" lon="5.60003">
        <ele>1735.32</ele>
        <time>2018-04-26T11:28:25Z</time>
      </trkpt>
      <trkpt lat="44.46602" lon="5.60009">
        <ele>1736.28</ele>
        <time>2018-04-26T11:28:32Z</time>
      </trkpt>
      <trkpt lat="44.46602" lon="5.60012">
        <ele>1737.24</ele>
        <time>2018-04-26T11:28:35Z</time>
      </trkpt>
      <trkpt lat="44.46601" lon="5.60012">
        <ele>1733.88</ele>
        <time>2018-04-26T11:28:36Z</time>
      </trkpt>
      <trkpt lat="44.466" lon="5.60016">
        <ele>1735.32</ele>
        <time>2018-04-26T11:28:39Z</time>
      </trkpt>
      <trkpt lat="44.46599" lon="5.60018">
        <ele>1736.28</ele>
        <time>2018-04-26T11:28:41Z</time>
      </trkpt>
      <trkpt lat="44.46597" lon="5.60021">
        <ele>1736.28</ele>
        <time>2018-04-26T11:28:43Z</time>
      </trkpt>
      <trkpt lat="44.46597" lon="5.60023">
        <ele>1734.84</ele>
        <time>2018-04-26T11:28:45Z</time>
      </trkpt>
      <trkpt lat="44.46596" lon="5.60027">
        <ele>1737.72</ele>
        <time>2018-04-26T11:28:49Z</time>
      </trkpt>
      <trkpt lat="44.46596" lon="5.60029">
        <ele>1738.68</ele>
        <time>2018-04-26T11:28:51Z</time>
      </trkpt>
      <trkpt lat="44.46596" lon="5.6003">
        <ele>1734.84</ele>
        <time>2018-04-26T11:28:52Z</time>
      </trkpt>
      <trkpt lat="44.46595" lon="5.60031">
        <ele>1738.2</ele>
        <time>2018-04-26T11:28:53Z</time>
      </trkpt>
      <trkpt lat="44.46595" lon="5.60033">
        <ele>1734.84</ele>
        <time>2018-04-26T11:28:55Z</time>
      </trkpt>
      <trkpt lat="44.46593" lon="5.60042">
        <ele>1738.68</ele>
        <time>2018-04-26T11:29:05Z</time>
      </trkpt>
      <trkpt lat="44.46592" lon="5.60045">
        <ele>1738.68</ele>
        <time>2018-04-26T11:29:16Z</time>
      </trkpt>
      <trkpt lat="44.4659" lon="5.60052">
        <ele>1735.8</ele>
        <time>2018-04-26T11:29:23Z</time>
      </trkpt>
      <trkpt lat="44.4659" lon="5.60055">
        <ele>1735.32</ele>
        <time>2018-04-26T11:29:26Z</time>
      </trkpt>
      <trkpt lat="44.4659" lon="5.60056">
        <ele>1740.12</ele>
        <time>2018-04-26T11:29:27Z</time>
      </trkpt>
      <trkpt lat="44.46589" lon="5.6006">
        <ele>1739.16</ele>
        <time>2018-04-26T11:29:31Z</time>
      </trkpt>
      <trkpt lat="44.46587" lon="5.60073">
        <ele>1741.08</ele>
        <time>2018-04-26T11:29:40Z</time>
      </trkpt>
      <trkpt lat="44.46587" lon="5.60074">
        <ele>1741.08</ele>
        <time>2018-04-26T11:29:41Z</time>
      </trkpt>
      <trkpt lat="44.46586" lon="5.60077">
        <ele>1741.08</ele>
        <time>2018-04-26T11:29:43Z</time>
      </trkpt>
      <trkpt lat="44.46584" lon="5.60084">
        <ele>1740.6</ele>
        <time>2018-04-26T11:29:48Z</time>
      </trkpt>
      <trkpt lat="44.46582" lon="5.60094">
        <ele>1737.24</ele>
        <time>2018-04-26T11:29:56Z</time>
      </trkpt>
      <trkpt lat="44.46582" lon="5.60095">
        <ele>1741.08</ele>
        <time>2018-04-26T11:29:57Z</time>
      </trkpt>
      <trkpt lat="44.46582" lon="5.60097">
        <ele>1742.53</ele>
        <time>2018-04-26T11:29:59Z</time>
      </trkpt>
      <trkpt lat="44.46582" lon="5.60103">
        <ele>1740.6</ele>
        <time>2018-04-26T11:30:04Z</time>
      </trkpt>
      <trkpt lat="44.4658" lon="5.60117">
        <ele>1742.53</ele>
        <time>2018-04-26T11:30:14Z</time>
      </trkpt>
      <trkpt lat="44.4658" lon="5.6012">
        <ele>1742.53</ele>
        <time>2018-04-26T11:30:17Z</time>
      </trkpt>
      <trkpt lat="44.46579" lon="5.60125">
        <ele>1743.97</ele>
        <time>2018-04-26T11:30:20Z</time>
      </trkpt>
      <trkpt lat="44.46577" lon="5.60137">
        <ele>1744.93</ele>
        <time>2018-04-26T11:30:28Z</time>
      </trkpt>
      <trkpt lat="44.46577" lon="5.60143">
        <ele>1742.53</ele>
        <time>2018-04-26T11:30:33Z</time>
      </trkpt>
      <trkpt lat="44.46576" lon="5.60146">
        <ele>1744.93</ele>
        <time>2018-04-26T11:30:35Z</time>
      </trkpt>
      <trkpt lat="44.46575" lon="5.60151">
        <ele>1744.45</ele>
        <time>2018-04-26T11:30:39Z</time>
      </trkpt>
      <trkpt lat="44.46573" lon="5.60164">
        <ele>1745.41</ele>
        <time>2018-04-26T11:30:49Z</time>
      </trkpt>
      <trkpt lat="44.46572" lon="5.60168">
        <ele>1745.89</ele>
        <time>2018-04-26T11:30:52Z</time>
      </trkpt>
      <trkpt lat="44.46572" lon="5.60172">
        <ele>1745.89</ele>
        <time>2018-04-26T11:30:55Z</time>
      </trkpt>
      <trkpt lat="44.46572" lon="5.60175">
        <ele>1743.49</ele>
        <time>2018-04-26T11:30:57Z</time>
      </trkpt>
      <trkpt lat="44.46571" lon="5.60181">
        <ele>1747.33</ele>
        <time>2018-04-26T11:31:01Z</time>
      </trkpt>
      <trkpt lat="44.4657" lon="5.60184">
        <ele>1745.89</ele>
        <time>2018-04-26T11:31:03Z</time>
      </trkpt>
      <trkpt lat="44.4657" lon="5.60187">
        <ele>1746.85</ele>
        <time>2018-04-26T11:31:05Z</time>
      </trkpt>
      <trkpt lat="44.4657" lon="5.60193">
        <ele>1744.45</ele>
        <time>2018-04-26T11:31:09Z</time>
      </trkpt>
      <trkpt lat="44.46569" lon="5.60199">
        <ele>1746.37</ele>
        <time>2018-04-26T11:31:19Z</time>
      </trkpt>
      <trkpt lat="44.46568" lon="5.60205">
        <ele>1745.89</ele>
        <time>2018-04-26T11:31:23Z</time>
      </trkpt>
      <trkpt lat="44.46566" lon="5.60217">
        <ele>1746.85</ele>
        <time>2018-04-26T11:31:31Z</time>
      </trkpt>
      <trkpt lat="44.46565" lon="5.60223">
        <ele>1746.37</ele>
        <time>2018-04-26T11:31:35Z</time>
      </trkpt>
      <trkpt lat="44.46565" lon="5.60229">
        <ele>1747.81</ele>
        <time>2018-04-26T11:31:39Z</time>
      </trkpt>
      <trkpt lat="44.46564" lon="5.60234">
        <ele>1748.78</ele>
        <time>2018-04-26T11:31:43Z</time>
      </trkpt>
      <trkpt lat="44.46564" lon="5.60237">
        <ele>1749.74</ele>
        <time>2018-04-26T11:31:45Z</time>
      </trkpt>
      <trkpt lat="44.46563" lon="5.6024">
        <ele>1746.37</ele>
        <time>2018-04-26T11:31:47Z</time>
      </trkpt>
      <trkpt lat="44.46563" lon="5.60243">
        <ele>1748.78</ele>
        <time>2018-04-26T11:31:49Z</time>
      </trkpt>
      <trkpt lat="44.46563" lon="5.60243">
        <ele>1747.81</ele>
        <time>2018-04-26T11:31:50Z</time>
      </trkpt>
      <trkpt lat="44.46561" lon="5.60251">
        <ele>1747.81</ele>
        <time>2018-04-26T11:31:56Z</time>
      </trkpt>
      <trkpt lat="44.46561" lon="5.60255">
        <ele>1750.7</ele>
        <time>2018-04-26T11:31:59Z</time>
      </trkpt>
      <trkpt lat="44.4656" lon="5.60261">
        <ele>1749.26</ele>
        <time>2018-04-26T11:32:04Z</time>
      </trkpt>
      <trkpt lat="44.4656" lon="5.60265">
        <ele>1750.7</ele>
        <time>2018-04-26T11:32:08Z</time>
      </trkpt>
      <trkpt lat="44.46559" lon="5.6027">
        <ele>1750.22</ele>
        <time>2018-04-26T11:32:11Z</time>
      </trkpt>
      <trkpt lat="44.46559" lon="5.60274">
        <ele>1752.14</ele>
        <time>2018-04-26T11:32:14Z</time>
      </trkpt>
      <trkpt lat="44.46559" lon="5.60276">
        <ele>1749.26</ele>
        <time>2018-04-26T11:32:15Z</time>
      </trkpt>
      <trkpt lat="44.46559" lon="5.60277">
        <ele>1750.7</ele>
        <time>2018-04-26T11:32:16Z</time>
      </trkpt>
      <trkpt lat="44.46558" lon="5.60283">
        <ele>1752.14</ele>
        <time>2018-04-26T11:32:21Z</time>
      </trkpt>
      <trkpt lat="44.46557" lon="5.60297">
        <ele>1750.22</ele>
        <time>2018-04-26T11:32:30Z</time>
      </trkpt>
      <trkpt lat="44.46555" lon="5.6031">
        <ele>1752.14</ele>
        <time>2018-04-26T11:32:40Z</time>
      </trkpt>
      <trkpt lat="44.46555" lon="5.60324">
        <ele>1753.58</ele>
        <time>2018-04-26T11:32:50Z</time>
      </trkpt>
      <trkpt lat="44.46555" lon="5.60326">
        <ele>1752.62</ele>
        <time>2018-04-26T11:32:52Z</time>
      </trkpt>
      <trkpt lat="44.46557" lon="5.6033">
        <ele>1753.1</ele>
        <time>2018-04-26T11:32:56Z</time>
      </trkpt>
      <trkpt lat="44.46555" lon="5.60334">
        <ele>1750.7</ele>
        <time>2018-04-26T11:32:59Z</time>
      </trkpt>
      <trkpt lat="44.46554" lon="5.60338">
        <ele>1753.1</ele>
        <time>2018-04-26T11:33:01Z</time>
      </trkpt>
      <trkpt lat="44.46555" lon="5.60342">
        <ele>1752.14</ele>
        <time>2018-04-26T11:33:06Z</time>
      </trkpt>
      <trkpt lat="44.46554" lon="5.60347">
        <ele>1753.1</ele>
        <time>2018-04-26T11:33:10Z</time>
      </trkpt>
      <trkpt lat="44.46553" lon="5.60352">
        <ele>1753.58</ele>
        <time>2018-04-26T11:33:22Z</time>
      </trkpt>
      <trkpt lat="44.46554" lon="5.60353">
        <ele>1753.58</ele>
        <time>2018-04-26T11:33:35Z</time>
      </trkpt>
      <trkpt lat="44.46553" lon="5.60358">
        <ele>1751.66</ele>
        <time>2018-04-26T11:33:46Z</time>
      </trkpt>
      <trkpt lat="44.46552" lon="5.60358">
        <ele>1751.66</ele>
        <time>2018-04-26T11:34:05Z</time>
      </trkpt>
      <trkpt lat="44.46552" lon="5.60357">
        <ele>1752.62</ele>
        <time>2018-04-26T11:34:27Z</time>
      </trkpt>
      <trkpt lat="44.46552" lon="5.60357">
        <ele>1751.66</ele>
        <time>2018-04-26T11:34:43Z</time>
      </trkpt>
      <trkpt lat="44.46551" lon="5.60358">
        <ele>1752.14</ele>
        <time>2018-04-26T11:35:07Z</time>
      </trkpt>
      <trkpt lat="44.46552" lon="5.60361">
        <ele>1752.14</ele>
        <time>2018-04-26T11:35:14Z</time>
      </trkpt>
      <trkpt lat="44.46555" lon="5.60366">
        <ele>1751.66</ele>
        <time>2018-04-26T11:35:20Z</time>
      </trkpt>
      <trkpt lat="44.46555" lon="5.60371">
        <ele>1750.7</ele>
        <time>2018-04-26T11:35:30Z</time>
      </trkpt>
      <trkpt lat="44.46557" lon="5.60373">
        <ele>1749.74</ele>
        <time>2018-04-26T11:35:40Z</time>
      </trkpt>
      <trkpt lat="44.46559" lon="5.60378">
        <ele>1748.29</ele>
        <time>2018-04-26T11:35:47Z</time>
      </trkpt>
      <trkpt lat="44.46553" lon="5.60386">
        <ele>1747.33</ele>
        <time>2018-04-26T11:35:57Z</time>
      </trkpt>
      <trkpt lat="44.46551" lon="5.60388">
        <ele>1747.81</ele>
        <time>2018-04-26T11:36:05Z</time>
      </trkpt>
      <trkpt lat="44.46547" lon="5.60393">
        <ele>1747.33</ele>
        <time>2018-04-26T11:36:15Z</time>
      </trkpt>
      <trkpt lat="44.46548" lon="5.60398">
        <ele>1745.89</ele>
        <time>2018-04-26T11:36:24Z</time>
      </trkpt>
      <trkpt lat="44.46548" lon="5.604">
        <ele>1745.41</ele>
        <time>2018-04-26T11:36:34Z</time>
      </trkpt>
      <trkpt lat="44.46546" lon="5.60402">
        <ele>1744.93</ele>
        <time>2018-04-26T11:36:43Z</time>
      </trkpt>
      <trkpt lat="44.46546" lon="5.60403">
        <ele>1745.41</ele>
        <time>2018-04-26T11:37:04Z</time>
      </trkpt>
      <trkpt lat="44.46546" lon="5.60403">
        <ele>1745.89</ele>
        <time>2018-04-26T11:37:27Z</time>
      </trkpt>
      <trkpt lat="44.46546" lon="5.60403">
        <ele>1745.89</ele>
        <time>2018-04-26T11:37:45Z</time>
      </trkpt>
      <trkpt lat="44.46546" lon="5.60403">
        <ele>1745.41</ele>
        <time>2018-04-26T11:38:00Z</time>
      </trkpt>
      <trkpt lat="44.46547" lon="5.60408">
        <ele>1744.93</ele>
        <time>2018-04-26T11:38:08Z</time>
      </trkpt>
      <trkpt lat="44.46548" lon="5.60417">
        <ele>1743.01</ele>
        <time>2018-04-26T11:38:17Z</time>
      </trkpt>
      <trkpt lat="44.46547" lon="5.60423">
        <ele>1741.08</ele>
        <time>2018-04-26T11:38:26Z</time>
      </trkpt>
      <trkpt lat="44.46545" lon="5.60426">
        <ele>1740.12</ele>
        <time>2018-04-26T11:38:30Z</time>
      </trkpt>
      <trkpt lat="44.46544" lon="5.60429">
        <ele>1739.64</ele>
        <time>2018-04-26T11:38:33Z</time>
      </trkpt>
      <trkpt lat="44.46543" lon="5.60435">
        <ele>1738.2</ele>
        <time>2018-04-26T11:38:43Z</time>
      </trkpt>
      <trkpt lat="44.46542" lon="5.60436">
        <ele>1738.2</ele>
        <time>2018-04-26T11:38:44Z</time>
      </trkpt>
      <trkpt lat="44.4654" lon="5.60441">
        <ele>1736.28</ele>
        <time>2018-04-26T11:38:52Z</time>
      </trkpt>
      <trkpt lat="44.46541" lon="5.60443">
        <ele>1735.32</ele>
        <time>2018-04-26T11:38:54Z</time>
      </trkpt>
      <trkpt lat="44.46544" lon="5.60446">
        <ele>1733.88</ele>
        <time>2018-04-26T11:38:59Z</time>
      </trkpt>
      <trkpt lat="44.46543" lon="5.6045">
        <ele>1732.43</ele>
        <time>2018-04-26T11:39:05Z</time>
      </trkpt>
      <trkpt lat="44.46544" lon="5.60456">
        <ele>1730.03</ele>
        <time>2018-04-26T11:39:15Z</time>
      </trkpt>
      <trkpt lat="44.46543" lon="5.6046">
        <ele>1728.11</ele>
        <time>2018-04-26T11:39:23Z</time>
      </trkpt>
      <trkpt lat="44.46543" lon="5.60461">
        <ele>1728.11</ele>
        <time>2018-04-26T11:39:28Z</time>
      </trkpt>
      <trkpt lat="44.46545" lon="5.60463">
        <ele>1727.15</ele>
        <time>2018-04-26T11:39:32Z</time>
      </trkpt>
      <trkpt lat="44.46546" lon="5.60462">
        <ele>1728.59</ele>
        <time>2018-04-26T11:39:34Z</time>
      </trkpt>
      <trkpt lat="44.46548" lon="5.60465">
        <ele>1726.67</ele>
        <time>2018-04-26T11:39:43Z</time>
      </trkpt>
      <trkpt lat="44.4655" lon="5.60466">
        <ele>1726.18</ele>
        <time>2018-04-26T11:39:45Z</time>
      </trkpt>
      <trkpt lat="44.46555" lon="5.6047">
        <ele>1722.34</ele>
        <time>2018-04-26T11:39:53Z</time>
      </trkpt>
      <trkpt lat="44.46557" lon="5.60471">
        <ele>1722.34</ele>
        <time>2018-04-26T11:39:57Z</time>
      </trkpt>
      <trkpt lat="44.46559" lon="5.6047">
        <ele>1721.38</ele>
        <time>2018-04-26T11:40:03Z</time>
      </trkpt>
      <trkpt lat="44.46563" lon="5.60471">
        <ele>1720.9</ele>
        <time>2018-04-26T11:40:08Z</time>
      </trkpt>
      <trkpt lat="44.46568" lon="5.6047">
        <ele>1720.9</ele>
        <time>2018-04-26T11:40:19Z</time>
      </trkpt>
      <trkpt lat="44.46571" lon="5.60469">
        <ele>1719.94</ele>
        <time>2018-04-26T11:40:23Z</time>
      </trkpt>
      <trkpt lat="44.46575" lon="5.60469">
        <ele>1717.53</ele>
        <time>2018-04-26T11:40:29Z</time>
      </trkpt>
      <trkpt lat="44.46576" lon="5.60468">
        <ele>1720.9</ele>
        <time>2018-04-26T11:40:31Z</time>
      </trkpt>
      <trkpt lat="44.46579" lon="5.60467">
        <ele>1717.53</ele>
        <time>2018-04-26T11:40:35Z</time>
      </trkpt>
      <trkpt lat="44.46581" lon="5.60467">
        <ele>1718.49</ele>
        <time>2018-04-26T11:40:39Z</time>
      </trkpt>
      <trkpt lat="44.46586" lon="5.60466">
        <ele>1717.05</ele>
        <time>2018-04-26T11:40:44Z</time>
      </trkpt>
      <trkpt lat="44.46591" lon="5.60466">
        <ele>1715.13</ele>
        <time>2018-04-26T11:40:51Z</time>
      </trkpt>
      <trkpt lat="44.46595" lon="5.60466">
        <ele>1715.61</ele>
        <time>2018-04-26T11:40:57Z</time>
      </trkpt>
      <trkpt lat="44.46603" lon="5.60465">
        <ele>1712.73</ele>
        <time>2018-04-26T11:41:05Z</time>
      </trkpt>
      <trkpt lat="44.46604" lon="5.60465">
        <ele>1712.25</ele>
        <time>2018-04-26T11:41:07Z</time>
      </trkpt>
      <trkpt lat="44.46611" lon="5.60467">
        <ele>1708.88</ele>
        <time>2018-04-26T11:41:17Z</time>
      </trkpt>
      <trkpt lat="44.46616" lon="5.6047">
        <ele>1706.96</ele>
        <time>2018-04-26T11:41:25Z</time>
      </trkpt>
      <trkpt lat="44.4662" lon="5.60475">
        <ele>1704.07</ele>
        <time>2018-04-26T11:41:30Z</time>
      </trkpt>
      <trkpt lat="44.46624" lon="5.60476">
        <ele>1701.19</ele>
        <time>2018-04-26T11:41:35Z</time>
      </trkpt>
      <trkpt lat="44.46626" lon="5.60477">
        <ele>1700.23</ele>
        <time>2018-04-26T11:41:37Z</time>
      </trkpt>
      <trkpt lat="44.46628" lon="5.6048">
        <ele>1698.79</ele>
        <time>2018-04-26T11:41:42Z</time>
      </trkpt>
      <trkpt lat="44.46636" lon="5.60487">
        <ele>1697.34</ele>
        <time>2018-04-26T11:41:51Z</time>
      </trkpt>
      <trkpt lat="44.4664" lon="5.6049">
        <ele>1695.9</ele>
        <time>2018-04-26T11:41:57Z</time>
      </trkpt>
      <trkpt lat="44.46647" lon="5.60493">
        <ele>1694.46</ele>
        <time>2018-04-26T11:42:04Z</time>
      </trkpt>
      <trkpt lat="44.46654" lon="5.60499">
        <ele>1692.54</ele>
        <time>2018-04-26T11:42:12Z</time>
      </trkpt>
      <trkpt lat="44.46661" lon="5.60507">
        <ele>1691.1</ele>
        <time>2018-04-26T11:42:21Z</time>
      </trkpt>
      <trkpt lat="44.46667" lon="5.60512">
        <ele>1691.58</ele>
        <time>2018-04-26T11:42:28Z</time>
      </trkpt>
      <trkpt lat="44.46669" lon="5.60513">
        <ele>1691.58</ele>
        <time>2018-04-26T11:42:30Z</time>
      </trkpt>
      <trkpt lat="44.46675" lon="5.60517">
        <ele>1693.5</ele>
        <time>2018-04-26T11:42:34Z</time>
      </trkpt>
      <trkpt lat="44.46676" lon="5.60519">
        <ele>1690.62</ele>
        <time>2018-04-26T11:42:36Z</time>
      </trkpt>
      <trkpt lat="44.46677" lon="5.6052">
        <ele>1691.58</ele>
        <time>2018-04-26T11:42:37Z</time>
      </trkpt>
      <trkpt lat="44.46681" lon="5.60523">
        <ele>1690.62</ele>
        <time>2018-04-26T11:42:41Z</time>
      </trkpt>
      <trkpt lat="44.46689" lon="5.60531">
        <ele>1690.62</ele>
        <time>2018-04-26T11:42:50Z</time>
      </trkpt>
      <trkpt lat="44.46691" lon="5.60534">
        <ele>1688.69</ele>
        <time>2018-04-26T11:42:53Z</time>
      </trkpt>
      <trkpt lat="44.46694" lon="5.60538">
        <ele>1691.1</ele>
        <time>2018-04-26T11:42:57Z</time>
      </trkpt>
      <trkpt lat="44.46697" lon="5.60541">
        <ele>1692.06</ele>
        <time>2018-04-26T11:43:00Z</time>
      </trkpt>
      <trkpt lat="44.46697" lon="5.60541">
        <ele>1688.21</ele>
        <time>2018-04-26T11:43:01Z</time>
      </trkpt>
      <trkpt lat="44.46698" lon="5.60542">
        <ele>1691.58</ele>
        <time>2018-04-26T11:43:02Z</time>
      </trkpt>
      <trkpt lat="44.467" lon="5.60543">
        <ele>1689.17</ele>
        <time>2018-04-26T11:43:04Z</time>
      </trkpt>
      <trkpt lat="44.46701" lon="5.60544">
        <ele>1690.62</ele>
        <time>2018-04-26T11:43:05Z</time>
      </trkpt>
      <trkpt lat="44.46705" lon="5.60549">
        <ele>1694.46</ele>
        <time>2018-04-26T11:43:11Z</time>
      </trkpt>
      <trkpt lat="44.46705" lon="5.60549">
        <ele>1690.14</ele>
        <time>2018-04-26T11:43:12Z</time>
      </trkpt>
      <trkpt lat="44.46706" lon="5.6055">
        <ele>1693.98</ele>
        <time>2018-04-26T11:43:13Z</time>
      </trkpt>
      <trkpt lat="44.46707" lon="5.6055">
        <ele>1690.14</ele>
        <time>2018-04-26T11:43:15Z</time>
      </trkpt>
      <trkpt lat="44.46707" lon="5.6055">
        <ele>1693.5</ele>
        <time>2018-04-26T11:43:16Z</time>
      </trkpt>
      <trkpt lat="44.46712" lon="5.60554">
        <ele>1694.94</ele>
        <time>2018-04-26T11:43:25Z</time>
      </trkpt>
      <trkpt lat="44.46716" lon="5.60555">
        <ele>1698.31</ele>
        <time>2018-04-26T11:43:34Z</time>
      </trkpt>
      <trkpt lat="44.46717" lon="5.60556">
        <ele>1695.42</ele>
        <time>2018-04-26T11:43:35Z</time>
      </trkpt>
      <trkpt lat="44.46718" lon="5.60557">
        <ele>1699.27</ele>
        <time>2018-04-26T11:43:39Z</time>
      </trkpt>
      <trkpt lat="44.4672" lon="5.60558">
        <ele>1696.38</ele>
        <time>2018-04-26T11:43:43Z</time>
      </trkpt>
      <trkpt lat="44.46722" lon="5.6056">
        <ele>1700.23</ele>
        <time>2018-04-26T11:43:47Z</time>
      </trkpt>
      <trkpt lat="44.46728" lon="5.60562">
        <ele>1697.83</ele>
        <time>2018-04-26T11:43:58Z</time>
      </trkpt>
      <trkpt lat="44.4673" lon="5.60564">
        <ele>1701.19</ele>
        <time>2018-04-26T11:44:04Z</time>
      </trkpt>
      <trkpt lat="44.46733" lon="5.60564">
        <ele>1701.67</ele>
        <time>2018-04-26T11:44:16Z</time>
      </trkpt>
      <trkpt lat="44.46735" lon="5.60565">
        <ele>1703.11</ele>
        <time>2018-04-26T11:44:19Z</time>
      </trkpt>
      <trkpt lat="44.46736" lon="5.60565">
        <ele>1699.75</ele>
        <time>2018-04-26T11:44:20Z</time>
      </trkpt>
      <trkpt lat="44.46736" lon="5.60566">
        <ele>1703.59</ele>
        <time>2018-04-26T11:44:21Z</time>
      </trkpt>
      <trkpt lat="44.46741" lon="5.60567">
        <ele>1702.63</ele>
        <time>2018-04-26T11:44:31Z</time>
      </trkpt>
      <trkpt lat="44.46743" lon="5.60567">
        <ele>1706</ele>
        <time>2018-04-26T11:44:33Z</time>
      </trkpt>
      <trkpt lat="44.46743" lon="5.60568">
        <ele>1703.11</ele>
        <time>2018-04-26T11:44:34Z</time>
      </trkpt>
      <trkpt lat="44.46744" lon="5.60568">
        <ele>1706.96</ele>
        <time>2018-04-26T11:44:35Z</time>
      </trkpt>
      <trkpt lat="44.46745" lon="5.60568">
        <ele>1703.59</ele>
        <time>2018-04-26T11:44:38Z</time>
      </trkpt>
      <trkpt lat="44.46745" lon="5.60569">
        <ele>1706.96</ele>
        <time>2018-04-26T11:44:39Z</time>
      </trkpt>
      <trkpt lat="44.46746" lon="5.60569">
        <ele>1703.11</ele>
        <time>2018-04-26T11:44:40Z</time>
      </trkpt>
      <trkpt lat="44.46747" lon="5.60569">
        <ele>1706.48</ele>
        <time>2018-04-26T11:44:43Z</time>
      </trkpt>
      <trkpt lat="44.46751" lon="5.6057">
        <ele>1709.84</ele>
        <time>2018-04-26T11:44:54Z</time>
      </trkpt>
      <trkpt lat="44.46752" lon="5.60571">
        <ele>1705.04</ele>
        <time>2018-04-26T11:44:56Z</time>
      </trkpt>
      <trkpt lat="44.46752" lon="5.60571">
        <ele>1708.88</ele>
        <time>2018-04-26T11:44:57Z</time>
      </trkpt>
      <trkpt lat="44.46758" lon="5.6057">
        <ele>1709.36</ele>
        <time>2018-04-26T11:45:09Z</time>
      </trkpt>
      <trkpt lat="44.46763" lon="5.60572">
        <ele>1714.17</ele>
        <time>2018-04-26T11:45:21Z</time>
      </trkpt>
      <trkpt lat="44.46763" lon="5.60572">
        <ele>1710.8</ele>
        <time>2018-04-26T11:45:22Z</time>
      </trkpt>
      <trkpt lat="44.46764" lon="5.60572">
        <ele>1714.17</ele>
        <time>2018-04-26T11:45:23Z</time>
      </trkpt>
      <trkpt lat="44.46765" lon="5.60572">
        <ele>1710.32</ele>
        <time>2018-04-26T11:45:26Z</time>
      </trkpt>
      <trkpt lat="44.46768" lon="5.60573">
        <ele>1713.21</ele>
        <time>2018-04-26T11:45:34Z</time>
      </trkpt>
      <trkpt lat="44.46769" lon="5.60573">
        <ele>1713.21</ele>
        <time>2018-04-26T11:45:35Z</time>
      </trkpt>
      <trkpt lat="44.46773" lon="5.60575">
        <ele>1715.13</ele>
        <time>2018-04-26T11:45:46Z</time>
      </trkpt>
      <trkpt lat="44.46775" lon="5.60577">
        <ele>1718.49</ele>
        <time>2018-04-26T11:45:53Z</time>
      </trkpt>
      <trkpt lat="44.46776" lon="5.60577">
        <ele>1714.17</ele>
        <time>2018-04-26T11:45:54Z</time>
      </trkpt>
      <trkpt lat="44.46777" lon="5.60577">
        <ele>1717.53</ele>
        <time>2018-04-26T11:45:55Z</time>
      </trkpt>
      <trkpt lat="44.4678" lon="5.60578">
        <ele>1713.69</ele>
        <time>2018-04-26T11:46:00Z</time>
      </trkpt>
      <trkpt lat="44.46781" lon="5.60578">
        <ele>1717.53</ele>
        <time>2018-04-26T11:46:01Z</time>
      </trkpt>
      <trkpt lat="44.46781" lon="5.60579">
        <ele>1713.69</ele>
        <time>2018-04-26T11:46:02Z</time>
      </trkpt>
      <trkpt lat="44.46782" lon="5.60579">
        <ele>1717.53</ele>
        <time>2018-04-26T11:46:03Z</time>
      </trkpt>
      <trkpt lat="44.46783" lon="5.6058">
        <ele>1713.69</ele>
        <time>2018-04-26T11:46:04Z</time>
      </trkpt>
      <trkpt lat="44.46783" lon="5.6058">
        <ele>1717.53</ele>
        <time>2018-04-26T11:46:05Z</time>
      </trkpt>
      <trkpt lat="44.46784" lon="5.6058">
        <ele>1712.73</ele>
        <time>2018-04-26T11:46:06Z</time>
      </trkpt>
      <trkpt lat="44.46784" lon="5.6058">
        <ele>1718.49</ele>
        <time>2018-04-26T11:46:07Z</time>
      </trkpt>
      <trkpt lat="44.4679" lon="5.60582">
        <ele>1715.13</ele>
        <time>2018-04-26T11:46:21Z</time>
      </trkpt>
      <trkpt lat="44.4679" lon="5.60582">
        <ele>1719.46</ele>
        <time>2018-04-26T11:46:22Z</time>
      </trkpt>
      <trkpt lat="44.46797" lon="5.60585">
        <ele>1721.86</ele>
        <time>2018-04-26T11:46:32Z</time>
      </trkpt>
      <trkpt lat="44.46798" lon="5.60588">
        <ele>1718.97</ele>
        <time>2018-04-26T11:46:41Z</time>
      </trkpt>
      <trkpt lat="44.46798" lon="5.60589">
        <ele>1722.82</ele>
        <time>2018-04-26T11:46:42Z</time>
      </trkpt>
      <trkpt lat="44.46794" lon="5.60593">
        <ele>1723.78</ele>
        <time>2018-04-26T11:46:51Z</time>
      </trkpt>
      <trkpt lat="44.46794" lon="5.60594">
        <ele>1719.94</ele>
        <time>2018-04-26T11:46:52Z</time>
      </trkpt>
      <trkpt lat="44.46794" lon="5.60594">
        <ele>1724.74</ele>
        <time>2018-04-26T11:46:53Z</time>
      </trkpt>
      <trkpt lat="44.46792" lon="5.60595">
        <ele>1724.74</ele>
        <time>2018-04-26T11:46:58Z</time>
      </trkpt>
      <trkpt lat="44.46792" lon="5.60597">
        <ele>1721.38</ele>
        <time>2018-04-26T11:47:00Z</time>
      </trkpt>
      <trkpt lat="44.46792" lon="5.60598">
        <ele>1726.67</ele>
        <time>2018-04-26T11:47:01Z</time>
      </trkpt>
      <trkpt lat="44.46788" lon="5.60602">
        <ele>1724.74</ele>
        <time>2018-04-26T11:47:12Z</time>
      </trkpt>
      <trkpt lat="44.46786" lon="5.60606">
        <ele>1724.74</ele>
        <time>2018-04-26T11:47:16Z</time>
      </trkpt>
      <trkpt lat="44.46781" lon="5.60611">
        <ele>1727.15</ele>
        <time>2018-04-26T11:47:27Z</time>
      </trkpt>
      <trkpt lat="44.46779" lon="5.60612">
        <ele>1725.7</ele>
        <time>2018-04-26T11:47:40Z</time>
      </trkpt>
      <trkpt lat="44.46779" lon="5.60613">
        <ele>1726.67</ele>
        <time>2018-04-26T11:47:58Z</time>
      </trkpt>
      <trkpt lat="44.46777" lon="5.60615">
        <ele>1727.15</ele>
        <time>2018-04-26T11:48:09Z</time>
      </trkpt>
      <trkpt lat="44.46778" lon="5.60616">
        <ele>1726.67</ele>
        <time>2018-04-26T11:48:23Z</time>
      </trkpt>
      <trkpt lat="44.46783" lon="5.60621">
        <ele>1726.67</ele>
        <time>2018-04-26T11:48:32Z</time>
      </trkpt>
      <trkpt lat="44.46785" lon="5.60623">
        <ele>1725.7</ele>
        <time>2018-04-26T11:48:43Z</time>
      </trkpt>
      <trkpt lat="44.46784" lon="5.60624">
        <ele>1726.67</ele>
        <time>2018-04-26T11:48:54Z</time>
      </trkpt>
      <trkpt lat="44.46784" lon="5.60623">
        <ele>1726.67</ele>
        <time>2018-04-26T11:49:15Z</time>
      </trkpt>
      <trkpt lat="44.46789" lon="5.60624">
        <ele>1725.22</ele>
        <time>2018-04-26T11:49:27Z</time>
      </trkpt>
      <trkpt lat="44.4679" lon="5.60623">
        <ele>1726.67</ele>
        <time>2018-04-26T11:49:42Z</time>
      </trkpt>
      <trkpt lat="44.46791" lon="5.60623">
        <ele>1726.18</ele>
        <time>2018-04-26T11:49:52Z</time>
      </trkpt>
      <trkpt lat="44.46794" lon="5.60625">
        <ele>1726.18</ele>
        <time>2018-04-26T11:50:11Z</time>
      </trkpt>
      <trkpt lat="44.46799" lon="5.60626">
        <ele>1724.26</ele>
        <time>2018-04-26T11:50:17Z</time>
      </trkpt>
      <trkpt lat="44.46804" lon="5.60631">
        <ele>1722.34</ele>
        <time>2018-04-26T11:50:27Z</time>
      </trkpt>
      <trkpt lat="44.46805" lon="5.60635">
        <ele>1720.9</ele>
        <time>2018-04-26T11:50:36Z</time>
      </trkpt>
      <trkpt lat="44.46808" lon="5.60642">
        <ele>1719.94</ele>
        <time>2018-04-26T11:50:45Z</time>
      </trkpt>
      <trkpt lat="44.4681" lon="5.60646">
        <ele>1719.46</ele>
        <time>2018-04-26T11:51:00Z</time>
      </trkpt>
      <trkpt lat="44.46811" lon="5.60651">
        <ele>1718.01</ele>
        <time>2018-04-26T11:51:08Z</time>
      </trkpt>
      <trkpt lat="44.46814" lon="5.6066">
        <ele>1717.53</ele>
        <time>2018-04-26T11:51:18Z</time>
      </trkpt>
      <trkpt lat="44.46814" lon="5.60664">
        <ele>1717.53</ele>
        <time>2018-04-26T11:51:21Z</time>
      </trkpt>
      <trkpt lat="44.46816" lon="5.6067">
        <ele>1716.57</ele>
        <time>2018-04-26T11:51:25Z</time>
      </trkpt>
      <trkpt lat="44.46816" lon="5.60672">
        <ele>1715.13</ele>
        <time>2018-04-26T11:51:27Z</time>
      </trkpt>
      <trkpt lat="44.46816" lon="5.6068">
        <ele>1713.69</ele>
        <time>2018-04-26T11:51:34Z</time>
      </trkpt>
      <trkpt lat="44.46817" lon="5.60688">
        <ele>1712.25</ele>
        <time>2018-04-26T11:51:42Z</time>
      </trkpt>
      <trkpt lat="44.46819" lon="5.60697">
        <ele>1711.28</ele>
        <time>2018-04-26T11:51:50Z</time>
      </trkpt>
      <trkpt lat="44.46821" lon="5.60702">
        <ele>1710.32</ele>
        <time>2018-04-26T11:51:56Z</time>
      </trkpt>
      <trkpt lat="44.46823" lon="5.60712">
        <ele>1708.4</ele>
        <time>2018-04-26T11:52:06Z</time>
      </trkpt>
      <trkpt lat="44.46822" lon="5.60721">
        <ele>1705.52</ele>
        <time>2018-04-26T11:52:15Z</time>
      </trkpt>
      <trkpt lat="44.46822" lon="5.60729">
        <ele>1705.52</ele>
        <time>2018-04-26T11:52:20Z</time>
      </trkpt>
      <trkpt lat="44.46822" lon="5.60732">
        <ele>1704.55</ele>
        <time>2018-04-26T11:52:23Z</time>
      </trkpt>
      <trkpt lat="44.46823" lon="5.60737">
        <ele>1704.07</ele>
        <time>2018-04-26T11:52:27Z</time>
      </trkpt>
      <trkpt lat="44.46823" lon="5.60744">
        <ele>1703.59</ele>
        <time>2018-04-26T11:52:32Z</time>
      </trkpt>
      <trkpt lat="44.46823" lon="5.60751">
        <ele>1702.63</ele>
        <time>2018-04-26T11:52:38Z</time>
      </trkpt>
      <trkpt lat="44.46825" lon="5.60762">
        <ele>1700.71</ele>
        <time>2018-04-26T11:52:46Z</time>
      </trkpt>
      <trkpt lat="44.46825" lon="5.60763">
        <ele>1700.71</ele>
        <time>2018-04-26T11:52:47Z</time>
      </trkpt>
      <trkpt lat="44.46826" lon="5.60774">
        <ele>1698.31</ele>
        <time>2018-04-26T11:52:58Z</time>
      </trkpt>
      <trkpt lat="44.46825" lon="5.60782">
        <ele>1697.34</ele>
        <time>2018-04-26T11:53:05Z</time>
      </trkpt>
      <trkpt lat="44.46825" lon="5.60784">
        <ele>1696.86</ele>
        <time>2018-04-26T11:53:06Z</time>
      </trkpt>
      <trkpt lat="44.46826" lon="5.60786">
        <ele>1696.38</ele>
        <time>2018-04-26T11:53:08Z</time>
      </trkpt>
      <trkpt lat="44.46826" lon="5.6079">
        <ele>1695.9</ele>
        <time>2018-04-26T11:53:11Z</time>
      </trkpt>
      <trkpt lat="44.46827" lon="5.608">
        <ele>1694.94</ele>
        <time>2018-04-26T11:53:19Z</time>
      </trkpt>
      <trkpt lat="44.46829" lon="5.60808">
        <ele>1694.94</ele>
        <time>2018-04-26T11:53:25Z</time>
      </trkpt>
      <trkpt lat="44.46831" lon="5.6082">
        <ele>1692.54</ele>
        <time>2018-04-26T11:53:34Z</time>
      </trkpt>
      <trkpt lat="44.46832" lon="5.60825">
        <ele>1692.06</ele>
        <time>2018-04-26T11:53:37Z</time>
      </trkpt>
      <trkpt lat="44.46834" lon="5.60829">
        <ele>1691.1</ele>
        <time>2018-04-26T11:53:41Z</time>
      </trkpt>
      <trkpt lat="44.46835" lon="5.60833">
        <ele>1690.14</ele>
        <time>2018-04-26T11:53:44Z</time>
      </trkpt>
      <trkpt lat="44.46836" lon="5.60835">
        <ele>1689.17</ele>
        <time>2018-04-26T11:53:46Z</time>
      </trkpt>
      <trkpt lat="44.46837" lon="5.6084">
        <ele>1688.69</ele>
        <time>2018-04-26T11:53:49Z</time>
      </trkpt>
      <trkpt lat="44.46841" lon="5.6085">
        <ele>1686.29</ele>
        <time>2018-04-26T11:53:58Z</time>
      </trkpt>
      <trkpt lat="44.46844" lon="5.60859">
        <ele>1685.33</ele>
        <time>2018-04-26T11:54:05Z</time>
      </trkpt>
      <trkpt lat="44.46846" lon="5.60865">
        <ele>1684.37</ele>
        <time>2018-04-26T11:54:10Z</time>
      </trkpt>
      <trkpt lat="44.46847" lon="5.6087">
        <ele>1683.41</ele>
        <time>2018-04-26T11:54:14Z</time>
      </trkpt>
      <trkpt lat="44.46848" lon="5.60873">
        <ele>1681.96</ele>
        <time>2018-04-26T11:54:16Z</time>
      </trkpt>
      <trkpt lat="44.46849" lon="5.60875">
        <ele>1682.44</ele>
        <time>2018-04-26T11:54:19Z</time>
      </trkpt>
      <trkpt lat="44.4685" lon="5.60877">
        <ele>1681.96</ele>
        <time>2018-04-26T11:54:21Z</time>
      </trkpt>
      <trkpt lat="44.4685" lon="5.60881">
        <ele>1681</ele>
        <time>2018-04-26T11:54:24Z</time>
      </trkpt>
      <trkpt lat="44.46852" lon="5.60888">
        <ele>1680.04</ele>
        <time>2018-04-26T11:54:29Z</time>
      </trkpt>
      <trkpt lat="44.46854" lon="5.60898">
        <ele>1677.16</ele>
        <time>2018-04-26T11:54:37Z</time>
      </trkpt>
      <trkpt lat="44.46855" lon="5.60905">
        <ele>1676.2</ele>
        <time>2018-04-26T11:54:43Z</time>
      </trkpt>
      <trkpt lat="44.46856" lon="5.60907">
        <ele>1675.23</ele>
        <time>2018-04-26T11:54:45Z</time>
      </trkpt>
      <trkpt lat="44.46857" lon="5.60912">
        <ele>1675.23</ele>
        <time>2018-04-26T11:54:48Z</time>
      </trkpt>
      <trkpt lat="44.46859" lon="5.60921">
        <ele>1673.79</ele>
        <time>2018-04-26T11:54:55Z</time>
      </trkpt>
      <trkpt lat="44.4686" lon="5.60933">
        <ele>1671.87</ele>
        <time>2018-04-26T11:55:04Z</time>
      </trkpt>
      <trkpt lat="44.46861" lon="5.60937">
        <ele>1671.39</ele>
        <time>2018-04-26T11:55:07Z</time>
      </trkpt>
      <trkpt lat="44.46861" lon="5.6094">
        <ele>1670.91</ele>
        <time>2018-04-26T11:55:09Z</time>
      </trkpt>
      <trkpt lat="44.46862" lon="5.60944">
        <ele>1671.39</ele>
        <time>2018-04-26T11:55:12Z</time>
      </trkpt>
      <trkpt lat="44.46863" lon="5.60952">
        <ele>1669.95</ele>
        <time>2018-04-26T11:55:18Z</time>
      </trkpt>
      <trkpt lat="44.46865" lon="5.60965">
        <ele>1669.95</ele>
        <time>2018-04-26T11:55:27Z</time>
      </trkpt>
      <trkpt lat="44.46867" lon="5.60972">
        <ele>1669.95</ele>
        <time>2018-04-26T11:55:36Z</time>
      </trkpt>
      <trkpt lat="44.46868" lon="5.60977">
        <ele>1668.99</ele>
        <time>2018-04-26T11:55:49Z</time>
      </trkpt>
      <trkpt lat="44.46868" lon="5.60977">
        <ele>1668.51</ele>
        <time>2018-04-26T11:55:51Z</time>
      </trkpt>
      <trkpt lat="44.46872" lon="5.60986">
        <ele>1666.58</ele>
        <time>2018-04-26T11:56:00Z</time>
      </trkpt>
      <trkpt lat="44.46876" lon="5.60991">
        <ele>1665.62</ele>
        <time>2018-04-26T11:56:07Z</time>
      </trkpt>
      <trkpt lat="44.46877" lon="5.60994">
        <ele>1664.66</ele>
        <time>2018-04-26T11:56:09Z</time>
      </trkpt>
      <trkpt lat="44.46879" lon="5.61007">
        <ele>1663.7</ele>
        <time>2018-04-26T11:56:18Z</time>
      </trkpt>
      <trkpt lat="44.46879" lon="5.6101">
        <ele>1663.7</ele>
        <time>2018-04-26T11:56:21Z</time>
      </trkpt>
      <trkpt lat="44.46881" lon="5.61015">
        <ele>1663.22</ele>
        <time>2018-04-26T11:56:26Z</time>
      </trkpt>
      <trkpt lat="44.46881" lon="5.6102">
        <ele>1662.26</ele>
        <time>2018-04-26T11:56:30Z</time>
      </trkpt>
      <trkpt lat="44.46881" lon="5.61022">
        <ele>1663.22</ele>
        <time>2018-04-26T11:56:32Z</time>
      </trkpt>
      <trkpt lat="44.46883" lon="5.61029">
        <ele>1661.78</ele>
        <time>2018-04-26T11:56:40Z</time>
      </trkpt>
      <trkpt lat="44.46884" lon="5.61033">
        <ele>1658.89</ele>
        <time>2018-04-26T11:56:46Z</time>
      </trkpt>
      <trkpt lat="44.46884" lon="5.61036">
        <ele>1658.41</ele>
        <time>2018-04-26T11:56:49Z</time>
      </trkpt>
      <trkpt lat="44.46885" lon="5.61039">
        <ele>1658.41</ele>
        <time>2018-04-26T11:56:52Z</time>
      </trkpt>
      <trkpt lat="44.46888" lon="5.61045">
        <ele>1655.53</ele>
        <time>2018-04-26T11:56:59Z</time>
      </trkpt>
      <trkpt lat="44.46893" lon="5.61048">
        <ele>1653.6</ele>
        <time>2018-04-26T11:57:07Z</time>
      </trkpt>
      <trkpt lat="44.469" lon="5.61051">
        <ele>1651.68</ele>
        <time>2018-04-26T11:57:16Z</time>
      </trkpt>
      <trkpt lat="44.46905" lon="5.61052">
        <ele>1648.8</ele>
        <time>2018-04-26T11:57:24Z</time>
      </trkpt>
      <trkpt lat="44.46907" lon="5.61056">
        <ele>1646.4</ele>
        <time>2018-04-26T11:57:27Z</time>
      </trkpt>
      <trkpt lat="44.46911" lon="5.61068">
        <ele>1646.4</ele>
        <time>2018-04-26T11:57:37Z</time>
      </trkpt>
      <trkpt lat="44.46912" lon="5.6107">
        <ele>1646.88</ele>
        <time>2018-04-26T11:57:39Z</time>
      </trkpt>
      <trkpt lat="44.46913" lon="5.61072">
        <ele>1646.4</ele>
        <time>2018-04-26T11:57:41Z</time>
      </trkpt>
      <trkpt lat="44.46916" lon="5.61076">
        <ele>1645.91</ele>
        <time>2018-04-26T11:57:45Z</time>
      </trkpt>
      <trkpt lat="44.46917" lon="5.61078">
        <ele>1645.91</ele>
        <time>2018-04-26T11:57:47Z</time>
      </trkpt>
      <trkpt lat="44.46918" lon="5.61079">
        <ele>1644.95</ele>
        <time>2018-04-26T11:57:49Z</time>
      </trkpt>
      <trkpt lat="44.46921" lon="5.61085">
        <ele>1642.55</ele>
        <time>2018-04-26T11:57:57Z</time>
      </trkpt>
      <trkpt lat="44.46922" lon="5.6109">
        <ele>1642.07</ele>
        <time>2018-04-26T11:58:02Z</time>
      </trkpt>
      <trkpt lat="44.46922" lon="5.61093">
        <ele>1640.15</ele>
        <time>2018-04-26T11:58:06Z</time>
      </trkpt>
      <trkpt lat="44.46923" lon="5.61096">
        <ele>1638.7</ele>
        <time>2018-04-26T11:58:10Z</time>
      </trkpt>
      <trkpt lat="44.46927" lon="5.61104">
        <ele>1636.78</ele>
        <time>2018-04-26T11:58:19Z</time>
      </trkpt>
      <trkpt lat="44.46928" lon="5.61105">
        <ele>1636.78</ele>
        <time>2018-04-26T11:58:20Z</time>
      </trkpt>
      <trkpt lat="44.4693" lon="5.61113">
        <ele>1635.34</ele>
        <time>2018-04-26T11:58:29Z</time>
      </trkpt>
      <trkpt lat="44.46931" lon="5.61116">
        <ele>1634.86</ele>
        <time>2018-04-26T11:58:32Z</time>
      </trkpt>
      <trkpt lat="44.46932" lon="5.61121">
        <ele>1634.38</ele>
        <time>2018-04-26T11:58:38Z</time>
      </trkpt>
      <trkpt lat="44.46934" lon="5.61126">
        <ele>1633.42</ele>
        <time>2018-04-26T11:58:42Z</time>
      </trkpt>
      <trkpt lat="44.46935" lon="5.61128">
        <ele>1633.42</ele>
        <time>2018-04-26T11:58:45Z</time>
      </trkpt>
      <trkpt lat="44.46935" lon="5.6113">
        <ele>1632.94</ele>
        <time>2018-04-26T11:58:47Z</time>
      </trkpt>
      <trkpt lat="44.46936" lon="5.61133">
        <ele>1631.98</ele>
        <time>2018-04-26T11:58:49Z</time>
      </trkpt>
      <trkpt lat="44.46936" lon="5.61134">
        <ele>1632.46</ele>
        <time>2018-04-26T11:58:50Z</time>
      </trkpt>
      <trkpt lat="44.46941" lon="5.61141">
        <ele>1630.05</ele>
        <time>2018-04-26T11:59:00Z</time>
      </trkpt>
      <trkpt lat="44.46941" lon="5.61142">
        <ele>1630.05</ele>
        <time>2018-04-26T11:59:02Z</time>
      </trkpt>
      <trkpt lat="44.46949" lon="5.61145">
        <ele>1627.17</ele>
        <time>2018-04-26T11:59:12Z</time>
      </trkpt>
      <trkpt lat="44.4695" lon="5.61146">
        <ele>1627.17</ele>
        <time>2018-04-26T11:59:13Z</time>
      </trkpt>
      <trkpt lat="44.46954" lon="5.61152">
        <ele>1625.73</ele>
        <time>2018-04-26T11:59:18Z</time>
      </trkpt>
      <trkpt lat="44.46958" lon="5.61156">
        <ele>1625.73</ele>
        <time>2018-04-26T11:59:25Z</time>
      </trkpt>
      <trkpt lat="44.4696" lon="5.61157">
        <ele>1624.28</ele>
        <time>2018-04-26T11:59:27Z</time>
      </trkpt>
      <trkpt lat="44.46961" lon="5.61159">
        <ele>1624.28</ele>
        <time>2018-04-26T11:59:29Z</time>
      </trkpt>
      <trkpt lat="44.46963" lon="5.61161">
        <ele>1625.25</ele>
        <time>2018-04-26T11:59:31Z</time>
      </trkpt>
      <trkpt lat="44.46966" lon="5.61167">
        <ele>1622.36</ele>
        <time>2018-04-26T11:59:39Z</time>
      </trkpt>
      <trkpt lat="44.46971" lon="5.61172">
        <ele>1622.36</ele>
        <time>2018-04-26T11:59:45Z</time>
      </trkpt>
      <trkpt lat="44.46973" lon="5.61177">
        <ele>1621.88</ele>
        <time>2018-04-26T11:59:49Z</time>
      </trkpt>
      <trkpt lat="44.46975" lon="5.6118">
        <ele>1620.92</ele>
        <time>2018-04-26T11:59:52Z</time>
      </trkpt>
      <trkpt lat="44.4698" lon="5.61187">
        <ele>1619</ele>
        <time>2018-04-26T12:00:02Z</time>
      </trkpt>
      <trkpt lat="44.46982" lon="5.61189">
        <ele>1617.56</ele>
        <time>2018-04-26T12:00:05Z</time>
      </trkpt>
      <trkpt lat="44.46983" lon="5.61189">
        <ele>1617.07</ele>
        <time>2018-04-26T12:00:06Z</time>
      </trkpt>
      <trkpt lat="44.46989" lon="5.61191">
        <ele>1617.56</ele>
        <time>2018-04-26T12:00:15Z</time>
      </trkpt>
      <trkpt lat="44.4699" lon="5.61191">
        <ele>1617.07</ele>
        <time>2018-04-26T12:00:16Z</time>
      </trkpt>
      <trkpt lat="44.46994" lon="5.61189">
        <ele>1614.67</ele>
        <time>2018-04-26T12:00:22Z</time>
      </trkpt>
      <trkpt lat="44.46996" lon="5.61189">
        <ele>1613.71</ele>
        <time>2018-04-26T12:00:24Z</time>
      </trkpt>
      <trkpt lat="44.47" lon="5.61187">
        <ele>1610.35</ele>
        <time>2018-04-26T12:00:30Z</time>
      </trkpt>
      <trkpt lat="44.47003" lon="5.61183">
        <ele>1607.46</ele>
        <time>2018-04-26T12:00:36Z</time>
      </trkpt>
      <trkpt lat="44.47006" lon="5.61181">
        <ele>1606.5</ele>
        <time>2018-04-26T12:00:41Z</time>
      </trkpt>
      <trkpt lat="44.47011" lon="5.61175">
        <ele>1606.02</ele>
        <time>2018-04-26T12:00:49Z</time>
      </trkpt>
      <trkpt lat="44.47012" lon="5.61174">
        <ele>1604.1</ele>
        <time>2018-04-26T12:00:51Z</time>
      </trkpt>
      <trkpt lat="44.47016" lon="5.61169">
        <ele>1600.73</ele>
        <time>2018-04-26T12:01:00Z</time>
      </trkpt>
      <trkpt lat="44.4702" lon="5.61167">
        <ele>1599.77</ele>
        <time>2018-04-26T12:01:10Z</time>
      </trkpt>
      <trkpt lat="44.47021" lon="5.61166">
        <ele>1598.81</ele>
        <time>2018-04-26T12:01:15Z</time>
      </trkpt>
      <trkpt lat="44.47024" lon="5.61165">
        <ele>1596.89</ele>
        <time>2018-04-26T12:01:19Z</time>
      </trkpt>
      <trkpt lat="44.47026" lon="5.61165">
        <ele>1595.93</ele>
        <time>2018-04-26T12:01:21Z</time>
      </trkpt>
      <trkpt lat="44.4703" lon="5.61164">
        <ele>1594.96</ele>
        <time>2018-04-26T12:01:26Z</time>
      </trkpt>
      <trkpt lat="44.47037" lon="5.61161">
        <ele>1590.64</ele>
        <time>2018-04-26T12:01:38Z</time>
      </trkpt>
      <trkpt lat="44.47038" lon="5.61164">
        <ele>1589.68</ele>
        <time>2018-04-26T12:01:43Z</time>
      </trkpt>
      <trkpt lat="44.47046" lon="5.61172">
        <ele>1586.79</ele>
        <time>2018-04-26T12:01:53Z</time>
      </trkpt>
      <trkpt lat="44.47049" lon="5.61177">
        <ele>1584.39</ele>
        <time>2018-04-26T12:02:00Z</time>
      </trkpt>
      <trkpt lat="44.47052" lon="5.6118">
        <ele>1581.51</ele>
        <time>2018-04-26T12:02:08Z</time>
      </trkpt>
      <trkpt lat="44.47054" lon="5.61181">
        <ele>1580.54</ele>
        <time>2018-04-26T12:02:10Z</time>
      </trkpt>
      <trkpt lat="44.47055" lon="5.61182">
        <ele>1580.54</ele>
        <time>2018-04-26T12:02:11Z</time>
      </trkpt>
      <trkpt lat="44.47056" lon="5.61185">
        <ele>1580.06</ele>
        <time>2018-04-26T12:02:14Z</time>
      </trkpt>
      <trkpt lat="44.47059" lon="5.61188">
        <ele>1578.14</ele>
        <time>2018-04-26T12:02:18Z</time>
      </trkpt>
      <trkpt lat="44.47061" lon="5.61191">
        <ele>1577.18</ele>
        <time>2018-04-26T12:02:21Z</time>
      </trkpt>
      <trkpt lat="44.47064" lon="5.61199">
        <ele>1577.18</ele>
        <time>2018-04-26T12:02:30Z</time>
      </trkpt>
      <trkpt lat="44.47067" lon="5.61209">
        <ele>1574.3</ele>
        <time>2018-04-26T12:02:39Z</time>
      </trkpt>
      <trkpt lat="44.47071" lon="5.61217">
        <ele>1571.89</ele>
        <time>2018-04-26T12:02:48Z</time>
      </trkpt>
      <trkpt lat="44.47071" lon="5.61217">
        <ele>1571.89</ele>
        <time>2018-04-26T12:02:49Z</time>
      </trkpt>
      <trkpt lat="44.47076" lon="5.61227">
        <ele>1568.53</ele>
        <time>2018-04-26T12:02:58Z</time>
      </trkpt>
      <trkpt lat="44.47077" lon="5.61228">
        <ele>1568.53</ele>
        <time>2018-04-26T12:02:59Z</time>
      </trkpt>
      <trkpt lat="44.47079" lon="5.61231">
        <ele>1568.05</ele>
        <time>2018-04-26T12:03:03Z</time>
      </trkpt>
      <trkpt lat="44.4708" lon="5.61235">
        <ele>1566.61</ele>
        <time>2018-04-26T12:03:06Z</time>
      </trkpt>
      <trkpt lat="44.47082" lon="5.61239">
        <ele>1564.68</ele>
        <time>2018-04-26T12:03:11Z</time>
      </trkpt>
      <trkpt lat="44.47083" lon="5.6124">
        <ele>1563.72</ele>
        <time>2018-04-26T12:03:12Z</time>
      </trkpt>
      <trkpt lat="44.47084" lon="5.61241">
        <ele>1563.24</ele>
        <time>2018-04-26T12:03:14Z</time>
      </trkpt>
      <trkpt lat="44.47084" lon="5.61242">
        <ele>1562.28</ele>
        <time>2018-04-26T12:03:16Z</time>
      </trkpt>
      <trkpt lat="44.47087" lon="5.61249">
        <ele>1559.88</ele>
        <time>2018-04-26T12:03:23Z</time>
      </trkpt>
      <trkpt lat="44.47088" lon="5.61255">
        <ele>1558.43</ele>
        <time>2018-04-26T12:03:28Z</time>
      </trkpt>
      <trkpt lat="44.47093" lon="5.61263">
        <ele>1556.51</ele>
        <time>2018-04-26T12:03:36Z</time>
      </trkpt>
      <trkpt lat="44.47095" lon="5.61272">
        <ele>1555.07</ele>
        <time>2018-04-26T12:03:44Z</time>
      </trkpt>
      <trkpt lat="44.47096" lon="5.61275">
        <ele>1554.59</ele>
        <time>2018-04-26T12:03:47Z</time>
      </trkpt>
      <trkpt lat="44.47098" lon="5.61283">
        <ele>1553.15</ele>
        <time>2018-04-26T12:03:53Z</time>
      </trkpt>
      <trkpt lat="44.47098" lon="5.61291">
        <ele>1552.67</ele>
        <time>2018-04-26T12:04:03Z</time>
      </trkpt>
      <trkpt lat="44.47099" lon="5.61292">
        <ele>1551.71</ele>
        <time>2018-04-26T12:04:18Z</time>
      </trkpt>
      <trkpt lat="44.47098" lon="5.61293">
        <ele>1551.22</ele>
        <time>2018-04-26T12:04:30Z</time>
      </trkpt>
      <trkpt lat="44.47099" lon="5.61297">
        <ele>1550.74</ele>
        <time>2018-04-26T12:04:44Z</time>
      </trkpt>
      <trkpt lat="44.47098" lon="5.61299">
        <ele>1550.74</ele>
        <time>2018-04-26T12:04:47Z</time>
      </trkpt>
      <trkpt lat="44.47097" lon="5.61305">
        <ele>1550.26</ele>
        <time>2018-04-26T12:04:56Z</time>
      </trkpt>
      <trkpt lat="44.47097" lon="5.61309">
        <ele>1549.3</ele>
        <time>2018-04-26T12:05:01Z</time>
      </trkpt>
      <trkpt lat="44.47096" lon="5.61309">
        <ele>1549.3</ele>
        <time>2018-04-26T12:05:15Z</time>
      </trkpt>
      <trkpt lat="44.47095" lon="5.61308">
        <ele>1548.82</ele>
        <time>2018-04-26T12:05:33Z</time>
      </trkpt>
      <trkpt lat="44.47097" lon="5.61308">
        <ele>1549.78</ele>
        <time>2018-04-26T12:05:47Z</time>
      </trkpt>
      <trkpt lat="44.47099" lon="5.61309">
        <ele>1549.3</ele>
        <time>2018-04-26T12:05:59Z</time>
      </trkpt>
      <trkpt lat="44.47099" lon="5.61308">
        <ele>1549.78</ele>
        <time>2018-04-26T12:06:15Z</time>
      </trkpt>
      <trkpt lat="44.471" lon="5.61308">
        <ele>1549.3</ele>
        <time>2018-04-26T12:06:36Z</time>
      </trkpt>
      <trkpt lat="44.471" lon="5.61307">
        <ele>1548.34</ele>
        <time>2018-04-26T12:06:42Z</time>
      </trkpt>
      <trkpt lat="44.47099" lon="5.61301">
        <ele>1550.26</ele>
        <time>2018-04-26T12:06:53Z</time>
      </trkpt>
      <trkpt lat="44.471" lon="5.613">
        <ele>1551.22</ele>
        <time>2018-04-26T12:07:18Z</time>
      </trkpt>
      <trkpt lat="44.47103" lon="5.61302">
        <ele>1551.71</ele>
        <time>2018-04-26T12:07:26Z</time>
      </trkpt>
      <trkpt lat="44.47104" lon="5.61306">
        <ele>1551.22</ele>
        <time>2018-04-26T12:07:34Z</time>
      </trkpt>
      <trkpt lat="44.47109" lon="5.61315">
        <ele>1549.3</ele>
        <time>2018-04-26T12:07:43Z</time>
      </trkpt>
      <trkpt lat="44.4711" lon="5.61317">
        <ele>1550.74</ele>
        <time>2018-04-26T12:07:44Z</time>
      </trkpt>
      <trkpt lat="44.47112" lon="5.61319">
        <ele>1550.26</ele>
        <time>2018-04-26T12:07:46Z</time>
      </trkpt>
      <trkpt lat="44.47116" lon="5.61326">
        <ele>1549.3</ele>
        <time>2018-04-26T12:07:53Z</time>
      </trkpt>
      <trkpt lat="44.4712" lon="5.61331">
        <ele>1548.82</ele>
        <time>2018-04-26T12:07:57Z</time>
      </trkpt>
      <trkpt lat="44.47123" lon="5.61338">
        <ele>1547.86</ele>
        <time>2018-04-26T12:08:04Z</time>
      </trkpt>
      <trkpt lat="44.47126" lon="5.61342">
        <ele>1546.9</ele>
        <time>2018-04-26T12:08:09Z</time>
      </trkpt>
      <trkpt lat="44.47127" lon="5.61346">
        <ele>1546.9</ele>
        <time>2018-04-26T12:08:12Z</time>
      </trkpt>
      <trkpt lat="44.47135" lon="5.61354">
        <ele>1545.94</ele>
        <time>2018-04-26T12:08:22Z</time>
      </trkpt>
      <trkpt lat="44.47138" lon="5.61357">
        <ele>1544.5</ele>
        <time>2018-04-26T12:08:26Z</time>
      </trkpt>
      <trkpt lat="44.47141" lon="5.61371">
        <ele>1543.53</ele>
        <time>2018-04-26T12:08:34Z</time>
      </trkpt>
      <trkpt lat="44.47141" lon="5.61371">
        <ele>1543.05</ele>
        <time>2018-04-26T12:08:35Z</time>
      </trkpt>
      <trkpt lat="44.47142" lon="5.61374">
        <ele>1543.53</ele>
        <time>2018-04-26T12:08:37Z</time>
      </trkpt>
      <trkpt lat="44.47148" lon="5.61387">
        <ele>1541.61</ele>
        <time>2018-04-26T12:08:47Z</time>
      </trkpt>
      <trkpt lat="44.4715" lon="5.61392">
        <ele>1540.65</ele>
        <time>2018-04-26T12:08:50Z</time>
      </trkpt>
      <trkpt lat="44.47153" lon="5.61399">
        <ele>1538.73</ele>
        <time>2018-04-26T12:08:56Z</time>
      </trkpt>
      <trkpt lat="44.47158" lon="5.61413">
        <ele>1537.77</ele>
        <time>2018-04-26T12:09:05Z</time>
      </trkpt>
      <trkpt lat="44.47159" lon="5.61415">
        <ele>1537.77</ele>
        <time>2018-04-26T12:09:07Z</time>
      </trkpt>
      <trkpt lat="44.4716" lon="5.61418">
        <ele>1537.77</ele>
        <time>2018-04-26T12:09:10Z</time>
      </trkpt>
      <trkpt lat="44.47164" lon="5.61426">
        <ele>1536.8</ele>
        <time>2018-04-26T12:09:16Z</time>
      </trkpt>
      <trkpt lat="44.47165" lon="5.61427">
        <ele>1537.29</ele>
        <time>2018-04-26T12:09:17Z</time>
      </trkpt>
      <trkpt lat="44.47166" lon="5.6143">
        <ele>1536.8</ele>
        <time>2018-04-26T12:09:20Z</time>
      </trkpt>
      <trkpt lat="44.47168" lon="5.61438">
        <ele>1535.36</ele>
        <time>2018-04-26T12:09:27Z</time>
      </trkpt>
      <trkpt lat="44.4717" lon="5.61443">
        <ele>1535.36</ele>
        <time>2018-04-26T12:09:31Z</time>
      </trkpt>
      <trkpt lat="44.47171" lon="5.61447">
        <ele>1535.36</ele>
        <time>2018-04-26T12:09:34Z</time>
      </trkpt>
      <trkpt lat="44.47172" lon="5.61456">
        <ele>1535.84</ele>
        <time>2018-04-26T12:09:40Z</time>
      </trkpt>
      <trkpt lat="44.47174" lon="5.61465">
        <ele>1533.92</ele>
        <time>2018-04-26T12:09:46Z</time>
      </trkpt>
      <trkpt lat="44.47177" lon="5.61474">
        <ele>1532.96</ele>
        <time>2018-04-26T12:09:53Z</time>
      </trkpt>
      <trkpt lat="44.47179" lon="5.61477">
        <ele>1533.44</ele>
        <time>2018-04-26T12:09:55Z</time>
      </trkpt>
      <trkpt lat="44.47181" lon="5.6148">
        <ele>1532.96</ele>
        <time>2018-04-26T12:09:58Z</time>
      </trkpt>
      <trkpt lat="44.47182" lon="5.61483">
        <ele>1532</ele>
        <time>2018-04-26T12:10:00Z</time>
      </trkpt>
      <trkpt lat="44.47188" lon="5.61494">
        <ele>1531.04</ele>
        <time>2018-04-26T12:10:09Z</time>
      </trkpt>
      <trkpt lat="44.47189" lon="5.61498">
        <ele>1529.59</ele>
        <time>2018-04-26T12:10:13Z</time>
      </trkpt>
      <trkpt lat="44.47195" lon="5.61511">
        <ele>1529.11</ele>
        <time>2018-04-26T12:10:22Z</time>
      </trkpt>
      <trkpt lat="44.47195" lon="5.61513">
        <ele>1528.63</ele>
        <time>2018-04-26T12:10:23Z</time>
      </trkpt>
      <trkpt lat="44.47196" lon="5.61516">
        <ele>1528.63</ele>
        <time>2018-04-26T12:10:26Z</time>
      </trkpt>
      <trkpt lat="44.47205" lon="5.61527">
        <ele>1528.15</ele>
        <time>2018-04-26T12:10:35Z</time>
      </trkpt>
      <trkpt lat="44.47207" lon="5.61529">
        <ele>1527.19</ele>
        <time>2018-04-26T12:10:38Z</time>
      </trkpt>
      <trkpt lat="44.47208" lon="5.61532">
        <ele>1526.71</ele>
        <time>2018-04-26T12:10:40Z</time>
      </trkpt>
      <trkpt lat="44.47214" lon="5.6154">
        <ele>1526.71</ele>
        <time>2018-04-26T12:10:48Z</time>
      </trkpt>
      <trkpt lat="44.47214" lon="5.61543">
        <ele>1527.19</ele>
        <time>2018-04-26T12:10:50Z</time>
      </trkpt>
      <trkpt lat="44.47219" lon="5.6155">
        <ele>1525.75</ele>
        <time>2018-04-26T12:10:55Z</time>
      </trkpt>
      <trkpt lat="44.47224" lon="5.61556">
        <ele>1526.23</ele>
        <time>2018-04-26T12:11:02Z</time>
      </trkpt>
      <trkpt lat="44.47233" lon="5.61563">
        <ele>1526.71</ele>
        <time>2018-04-26T12:11:12Z</time>
      </trkpt>
      <trkpt lat="44.47235" lon="5.61566">
        <ele>1526.23</ele>
        <time>2018-04-26T12:11:15Z</time>
      </trkpt>
      <trkpt lat="44.47239" lon="5.6157">
        <ele>1525.75</ele>
        <time>2018-04-26T12:11:20Z</time>
      </trkpt>
      <trkpt lat="44.47244" lon="5.61574">
        <ele>1525.27</ele>
        <time>2018-04-26T12:11:24Z</time>
      </trkpt>
      <trkpt lat="44.47245" lon="5.61576">
        <ele>1524.79</ele>
        <time>2018-04-26T12:11:26Z</time>
      </trkpt>
      <trkpt lat="44.47253" lon="5.61585">
        <ele>1524.31</ele>
        <time>2018-04-26T12:11:36Z</time>
      </trkpt>
      <trkpt lat="44.47254" lon="5.61587">
        <ele>1523.83</ele>
        <time>2018-04-26T12:11:39Z</time>
      </trkpt>
      <trkpt lat="44.4726" lon="5.616">
        <ele>1522.87</ele>
        <time>2018-04-26T12:11:49Z</time>
      </trkpt>
      <trkpt lat="44.47266" lon="5.61612">
        <ele>1522.39</ele>
        <time>2018-04-26T12:11:59Z</time>
      </trkpt>
      <trkpt lat="44.47267" lon="5.61616">
        <ele>1522.39</ele>
        <time>2018-04-26T12:12:02Z</time>
      </trkpt>
      <trkpt lat="44.47274" lon="5.61623">
        <ele>1521.9</ele>
        <time>2018-04-26T12:12:12Z</time>
      </trkpt>
      <trkpt lat="44.47274" lon="5.61624">
        <ele>1520.94</ele>
        <time>2018-04-26T12:12:18Z</time>
      </trkpt>
      <trkpt lat="44.47278" lon="5.61629">
        <ele>1521.9</ele>
        <time>2018-04-26T12:12:24Z</time>
      </trkpt>
      <trkpt lat="44.4728" lon="5.61634">
        <ele>1522.87</ele>
        <time>2018-04-26T12:12:29Z</time>
      </trkpt>
      <trkpt lat="44.47282" lon="5.61637">
        <ele>1522.87</ele>
        <time>2018-04-26T12:12:32Z</time>
      </trkpt>
      <trkpt lat="44.47284" lon="5.61639">
        <ele>1520.94</ele>
        <time>2018-04-26T12:12:36Z</time>
      </trkpt>
      <trkpt lat="44.47286" lon="5.61643">
        <ele>1521.42</ele>
        <time>2018-04-26T12:12:40Z</time>
      </trkpt>
      <trkpt lat="44.47289" lon="5.61648">
        <ele>1520.46</ele>
        <time>2018-04-26T12:12:46Z</time>
      </trkpt>
      <trkpt lat="44.4729" lon="5.6165">
        <ele>1523.83</ele>
        <time>2018-04-26T12:12:48Z</time>
      </trkpt>
      <trkpt lat="44.47298" lon="5.6166">
        <ele>1524.31</ele>
        <time>2018-04-26T12:12:59Z</time>
      </trkpt>
      <trkpt lat="44.47302" lon="5.61668">
        <ele>1525.27</ele>
        <time>2018-04-26T12:13:08Z</time>
      </trkpt>
      <trkpt lat="44.47305" lon="5.61671">
        <ele>1524.79</ele>
        <time>2018-04-26T12:13:12Z</time>
      </trkpt>
      <trkpt lat="44.47312" lon="5.6168">
        <ele>1526.71</ele>
        <time>2018-04-26T12:13:22Z</time>
      </trkpt>
      <trkpt lat="44.47317" lon="5.61685">
        <ele>1525.75</ele>
        <time>2018-04-26T12:13:30Z</time>
      </trkpt>
      <trkpt lat="44.47323" lon="5.6169">
        <ele>1524.31</ele>
        <time>2018-04-26T12:13:38Z</time>
      </trkpt>
      <trkpt lat="44.47324" lon="5.61693">
        <ele>1526.71</ele>
        <time>2018-04-26T12:13:41Z</time>
      </trkpt>
      <trkpt lat="44.47327" lon="5.61698">
        <ele>1525.27</ele>
        <time>2018-04-26T12:13:49Z</time>
      </trkpt>
      <trkpt lat="44.47329" lon="5.61706">
        <ele>1529.11</ele>
        <time>2018-04-26T12:13:58Z</time>
      </trkpt>
      <trkpt lat="44.47334" lon="5.61708">
        <ele>1528.63</ele>
        <time>2018-04-26T12:14:06Z</time>
      </trkpt>
      <trkpt lat="44.47337" lon="5.61711">
        <ele>1532.48</ele>
        <time>2018-04-26T12:14:13Z</time>
      </trkpt>
      <trkpt lat="44.47341" lon="5.61715">
        <ele>1531.52</ele>
        <time>2018-04-26T12:14:22Z</time>
      </trkpt>
      <trkpt lat="44.47348" lon="5.6172">
        <ele>1533.92</ele>
        <time>2018-04-26T12:14:32Z</time>
      </trkpt>
      <trkpt lat="44.47357" lon="5.61726">
        <ele>1535.84</ele>
        <time>2018-04-26T12:14:43Z</time>
      </trkpt>
      <trkpt lat="44.47359" lon="5.61729">
        <ele>1534.4</ele>
        <time>2018-04-26T12:14:47Z</time>
      </trkpt>
      <trkpt lat="44.47362" lon="5.61732">
        <ele>1535.36</ele>
        <time>2018-04-26T12:14:53Z</time>
      </trkpt>
      <trkpt lat="44.47364" lon="5.61734">
        <ele>1533.44</ele>
        <time>2018-04-26T12:14:55Z</time>
      </trkpt>
      <trkpt lat="44.47366" lon="5.61737">
        <ele>1535.36</ele>
        <time>2018-04-26T12:14:58Z</time>
      </trkpt>
      <trkpt lat="44.47367" lon="5.6174">
        <ele>1537.29</ele>
        <time>2018-04-26T12:15:02Z</time>
      </trkpt>
      <trkpt lat="44.47376" lon="5.61745">
        <ele>1539.21</ele>
        <time>2018-04-26T12:15:13Z</time>
      </trkpt>
      <trkpt lat="44.47381" lon="5.6175">
        <ele>1537.29</ele>
        <time>2018-04-26T12:15:22Z</time>
      </trkpt>
      <trkpt lat="44.47381" lon="5.6175">
        <ele>1541.13</ele>
        <time>2018-04-26T12:15:24Z</time>
      </trkpt>
      <trkpt lat="44.47382" lon="5.61751">
        <ele>1538.73</ele>
        <time>2018-04-26T12:15:25Z</time>
      </trkpt>
      <trkpt lat="44.47388" lon="5.61755">
        <ele>1541.61</ele>
        <time>2018-04-26T12:15:34Z</time>
      </trkpt>
      <trkpt lat="44.4739" lon="5.61756">
        <ele>1542.09</ele>
        <time>2018-04-26T12:15:37Z</time>
      </trkpt>
      <trkpt lat="44.47392" lon="5.61757">
        <ele>1540.65</ele>
        <time>2018-04-26T12:15:39Z</time>
      </trkpt>
      <trkpt lat="44.47401" lon="5.61758">
        <ele>1541.13</ele>
        <time>2018-04-26T12:15:50Z</time>
      </trkpt>
      <trkpt lat="44.47407" lon="5.61762">
        <ele>1539.21</ele>
        <time>2018-04-26T12:15:58Z</time>
      </trkpt>
      <trkpt lat="44.47407" lon="5.61763">
        <ele>1540.65</ele>
        <time>2018-04-26T12:15:59Z</time>
      </trkpt>
      <trkpt lat="44.47409" lon="5.61764">
        <ele>1541.61</ele>
        <time>2018-04-26T12:16:01Z</time>
      </trkpt>
      <trkpt lat="44.4741" lon="5.61764">
        <ele>1539.69</ele>
        <time>2018-04-26T12:16:04Z</time>
      </trkpt>
      <trkpt lat="44.47412" lon="5.61766">
        <ele>1542.57</ele>
        <time>2018-04-26T12:16:07Z</time>
      </trkpt>
      <trkpt lat="44.47414" lon="5.61767">
        <ele>1541.13</ele>
        <time>2018-04-26T12:16:09Z</time>
      </trkpt>
      <trkpt lat="44.47416" lon="5.61767">
        <ele>1544.01</ele>
        <time>2018-04-26T12:16:11Z</time>
      </trkpt>
      <trkpt lat="44.4742" lon="5.61769">
        <ele>1542.09</ele>
        <time>2018-04-26T12:16:18Z</time>
      </trkpt>
      <trkpt lat="44.47427" lon="5.61773">
        <ele>1545.94</ele>
        <time>2018-04-26T12:16:28Z</time>
      </trkpt>
      <trkpt lat="44.4743" lon="5.61774">
        <ele>1542.57</ele>
        <time>2018-04-26T12:16:31Z</time>
      </trkpt>
      <trkpt lat="44.47435" lon="5.61776">
        <ele>1546.42</ele>
        <time>2018-04-26T12:16:39Z</time>
      </trkpt>
      <trkpt lat="44.47444" lon="5.61781">
        <ele>1546.9</ele>
        <time>2018-04-26T12:16:48Z</time>
      </trkpt>
      <trkpt lat="44.47451" lon="5.61783">
        <ele>1548.34</ele>
        <time>2018-04-26T12:16:57Z</time>
      </trkpt>
      <trkpt lat="44.47452" lon="5.61784">
        <ele>1544.98</ele>
        <time>2018-04-26T12:16:58Z</time>
      </trkpt>
      <trkpt lat="44.47455" lon="5.61786">
        <ele>1548.82</ele>
        <time>2018-04-26T12:17:01Z</time>
      </trkpt>
      <trkpt lat="44.47456" lon="5.61787">
        <ele>1545.94</ele>
        <time>2018-04-26T12:17:02Z</time>
      </trkpt>
      <trkpt lat="44.47461" lon="5.61791">
        <ele>1546.9</ele>
        <time>2018-04-26T12:17:08Z</time>
      </trkpt>
      <trkpt lat="44.47469" lon="5.61798">
        <ele>1549.78</ele>
        <time>2018-04-26T12:17:20Z</time>
      </trkpt>
      <trkpt lat="44.4747" lon="5.61798">
        <ele>1545.94</ele>
        <time>2018-04-26T12:17:21Z</time>
      </trkpt>
      <trkpt lat="44.47471" lon="5.61799">
        <ele>1549.3</ele>
        <time>2018-04-26T12:17:22Z</time>
      </trkpt>
      <trkpt lat="44.47473" lon="5.618">
        <ele>1550.74</ele>
        <time>2018-04-26T12:17:24Z</time>
      </trkpt>
      <trkpt lat="44.47474" lon="5.618">
        <ele>1547.86</ele>
        <time>2018-04-26T12:17:25Z</time>
      </trkpt>
      <trkpt lat="44.47479" lon="5.61806">
        <ele>1550.26</ele>
        <time>2018-04-26T12:17:31Z</time>
      </trkpt>
      <trkpt lat="44.47484" lon="5.6181">
        <ele>1549.78</ele>
        <time>2018-04-26T12:17:38Z</time>
      </trkpt>
      <trkpt lat="44.47489" lon="5.61812">
        <ele>1551.71</ele>
        <time>2018-04-26T12:17:44Z</time>
      </trkpt>
      <trkpt lat="44.4749" lon="5.61813">
        <ele>1548.34</ele>
        <time>2018-04-26T12:17:45Z</time>
      </trkpt>
      <trkpt lat="44.47492" lon="5.61813">
        <ele>1549.3</ele>
        <time>2018-04-26T12:17:47Z</time>
      </trkpt>
      <trkpt lat="44.47494" lon="5.61815">
        <ele>1549.3</ele>
        <time>2018-04-26T12:17:50Z</time>
      </trkpt>
      <trkpt lat="44.47496" lon="5.61815">
        <ele>1553.15</ele>
        <time>2018-04-26T12:17:52Z</time>
      </trkpt>
      <trkpt lat="44.47498" lon="5.61815">
        <ele>1553.15</ele>
        <time>2018-04-26T12:17:54Z</time>
      </trkpt>
      <trkpt lat="44.47502" lon="5.61814">
        <ele>1552.67</ele>
        <time>2018-04-26T12:17:57Z</time>
      </trkpt>
      <trkpt lat="44.47503" lon="5.61815">
        <ele>1551.71</ele>
        <time>2018-04-26T12:17:59Z</time>
      </trkpt>
      <trkpt lat="44.47506" lon="5.61815">
        <ele>1555.07</ele>
        <time>2018-04-26T12:18:02Z</time>
      </trkpt>
      <trkpt lat="44.47509" lon="5.61814">
        <ele>1555.07</ele>
        <time>2018-04-26T12:18:06Z</time>
      </trkpt>
      <trkpt lat="44.4751" lon="5.61814">
        <ele>1554.59</ele>
        <time>2018-04-26T12:18:08Z</time>
      </trkpt>
      <trkpt lat="44.47519" lon="5.61816">
        <ele>1555.07</ele>
        <time>2018-04-26T12:18:18Z</time>
      </trkpt>
      <trkpt lat="44.47521" lon="5.6182">
        <ele>1555.07</ele>
        <time>2018-04-26T12:18:31Z</time>
      </trkpt>
      <trkpt lat="44.47523" lon="5.6182">
        <ele>1554.59</ele>
        <time>2018-04-26T12:18:52Z</time>
      </trkpt>
      <trkpt lat="44.47526" lon="5.61817">
        <ele>1552.67</ele>
        <time>2018-04-26T12:19:00Z</time>
      </trkpt>
      <trkpt lat="44.47536" lon="5.61814">
        <ele>1555.07</ele>
        <time>2018-04-26T12:19:09Z</time>
      </trkpt>
      <trkpt lat="44.47544" lon="5.61815">
        <ele>1554.59</ele>
        <time>2018-04-26T12:19:17Z</time>
      </trkpt>
      <trkpt lat="44.47546" lon="5.61815">
        <ele>1554.59</ele>
        <time>2018-04-26T12:19:19Z</time>
      </trkpt>
      <trkpt lat="44.47558" lon="5.61819">
        <ele>1553.63</ele>
        <time>2018-04-26T12:19:28Z</time>
      </trkpt>
      <trkpt lat="44.47565" lon="5.61824">
        <ele>1556.03</ele>
        <time>2018-04-26T12:19:35Z</time>
      </trkpt>
      <trkpt lat="44.47566" lon="5.61824">
        <ele>1555.55</ele>
        <time>2018-04-26T12:19:37Z</time>
      </trkpt>
      <trkpt lat="44.47569" lon="5.61826">
        <ele>1556.99</ele>
        <time>2018-04-26T12:19:40Z</time>
      </trkpt>
      <trkpt lat="44.47575" lon="5.6183">
        <ele>1557.47</ele>
        <time>2018-04-26T12:19:46Z</time>
      </trkpt>
      <trkpt lat="44.47583" lon="5.61833">
        <ele>1559.4</ele>
        <time>2018-04-26T12:19:55Z</time>
      </trkpt>
      <trkpt lat="44.47584" lon="5.61833">
        <ele>1556.51</ele>
        <time>2018-04-26T12:19:56Z</time>
      </trkpt>
      <trkpt lat="44.47585" lon="5.61834">
        <ele>1560.36</ele>
        <time>2018-04-26T12:19:58Z</time>
      </trkpt>
      <trkpt lat="44.47594" lon="5.61837">
        <ele>1561.32</ele>
        <time>2018-04-26T12:20:07Z</time>
      </trkpt>
      <trkpt lat="44.47595" lon="5.61837">
        <ele>1557.95</ele>
        <time>2018-04-26T12:20:08Z</time>
      </trkpt>
      <trkpt lat="44.47595" lon="5.61837">
        <ele>1561.32</ele>
        <time>2018-04-26T12:20:09Z</time>
      </trkpt>
      <trkpt lat="44.47598" lon="5.61838">
        <ele>1562.76</ele>
        <time>2018-04-26T12:20:13Z</time>
      </trkpt>
      <trkpt lat="44.47602" lon="5.61839">
        <ele>1561.8</ele>
        <time>2018-04-26T12:20:17Z</time>
      </trkpt>
      <trkpt lat="44.47613" lon="5.61841">
        <ele>1563.72</ele>
        <time>2018-04-26T12:20:28Z</time>
      </trkpt>
      <trkpt lat="44.47615" lon="5.61842">
        <ele>1565.16</ele>
        <time>2018-04-26T12:20:30Z</time>
      </trkpt>
      <trkpt lat="44.47619" lon="5.61842">
        <ele>1565.16</ele>
        <time>2018-04-26T12:20:35Z</time>
      </trkpt>
      <trkpt lat="44.47623" lon="5.61843">
        <ele>1566.12</ele>
        <time>2018-04-26T12:20:40Z</time>
      </trkpt>
      <trkpt lat="44.47625" lon="5.61844">
        <ele>1563.24</ele>
        <time>2018-04-26T12:20:42Z</time>
      </trkpt>
      <trkpt lat="44.47626" lon="5.61844">
        <ele>1566.61</ele>
        <time>2018-04-26T12:20:43Z</time>
      </trkpt>
      <trkpt lat="44.47627" lon="5.61845">
        <ele>1565.16</ele>
        <time>2018-04-26T12:20:45Z</time>
      </trkpt>
      <trkpt lat="44.47633" lon="5.61849">
        <ele>1566.12</ele>
        <time>2018-04-26T12:20:52Z</time>
      </trkpt>
      <trkpt lat="44.47644" lon="5.61849">
        <ele>1566.12</ele>
        <time>2018-04-26T12:21:03Z</time>
      </trkpt>
      <trkpt lat="44.47647" lon="5.6185">
        <ele>1569.49</ele>
        <time>2018-04-26T12:21:06Z</time>
      </trkpt>
      <trkpt lat="44.47648" lon="5.61851">
        <ele>1567.57</ele>
        <time>2018-04-26T12:21:07Z</time>
      </trkpt>
      <trkpt lat="44.47653" lon="5.61853">
        <ele>1569.49</ele>
        <time>2018-04-26T12:21:12Z</time>
      </trkpt>
      <trkpt lat="44.47657" lon="5.61854">
        <ele>1568.05</ele>
        <time>2018-04-26T12:21:25Z</time>
      </trkpt>
      <trkpt lat="44.47659" lon="5.61853">
        <ele>1567.57</ele>
        <time>2018-04-26T12:21:28Z</time>
      </trkpt>
      <trkpt lat="44.47662" lon="5.61851">
        <ele>1567.57</ele>
        <time>2018-04-26T12:21:38Z</time>
      </trkpt>
      <trkpt lat="44.47663" lon="5.6185">
        <ele>1567.09</ele>
        <time>2018-04-26T12:21:55Z</time>
      </trkpt>
      <trkpt lat="44.47666" lon="5.61851">
        <ele>1567.57</ele>
        <time>2018-04-26T12:22:14Z</time>
      </trkpt>
      <trkpt lat="44.47672" lon="5.61854">
        <ele>1567.09</ele>
        <time>2018-04-26T12:22:20Z</time>
      </trkpt>
      <trkpt lat="44.47674" lon="5.61855">
        <ele>1566.61</ele>
        <time>2018-04-26T12:22:22Z</time>
      </trkpt>
      <trkpt lat="44.47677" lon="5.61857">
        <ele>1566.61</ele>
        <time>2018-04-26T12:22:26Z</time>
      </trkpt>
      <trkpt lat="44.47684" lon="5.61862">
        <ele>1565.64</ele>
        <time>2018-04-26T12:22:34Z</time>
      </trkpt>
      <trkpt lat="44.47695" lon="5.6187">
        <ele>1568.05</ele>
        <time>2018-04-26T12:22:45Z</time>
      </trkpt>
      <trkpt lat="44.47705" lon="5.61876">
        <ele>1566.12</ele>
        <time>2018-04-26T12:22:55Z</time>
      </trkpt>
      <trkpt lat="44.47709" lon="5.6188">
        <ele>1565.16</ele>
        <time>2018-04-26T12:22:59Z</time>
      </trkpt>
      <trkpt lat="44.47715" lon="5.61884">
        <ele>1564.68</ele>
        <time>2018-04-26T12:23:05Z</time>
      </trkpt>
      <trkpt lat="44.47725" lon="5.61888">
        <ele>1566.61</ele>
        <time>2018-04-26T12:23:15Z</time>
      </trkpt>
      <trkpt lat="44.47733" lon="5.61893">
        <ele>1567.09</ele>
        <time>2018-04-26T12:23:22Z</time>
      </trkpt>
      <trkpt lat="44.47734" lon="5.61893">
        <ele>1564.68</ele>
        <time>2018-04-26T12:23:23Z</time>
      </trkpt>
      <trkpt lat="44.47746" lon="5.61899">
        <ele>1566.12</ele>
        <time>2018-04-26T12:23:33Z</time>
      </trkpt>
      <trkpt lat="44.47755" lon="5.61904">
        <ele>1567.57</ele>
        <time>2018-04-26T12:23:43Z</time>
      </trkpt>
      <trkpt lat="44.47761" lon="5.61909">
        <ele>1568.05</ele>
        <time>2018-04-26T12:23:49Z</time>
      </trkpt>
      <trkpt lat="44.47762" lon="5.61909">
        <ele>1566.61</ele>
        <time>2018-04-26T12:23:50Z</time>
      </trkpt>
      <trkpt lat="44.47765" lon="5.61912">
        <ele>1567.57</ele>
        <time>2018-04-26T12:23:54Z</time>
      </trkpt>
      <trkpt lat="44.47768" lon="5.61914">
        <ele>1566.61</ele>
        <time>2018-04-26T12:23:58Z</time>
      </trkpt>
      <trkpt lat="44.47771" lon="5.61917">
        <ele>1569.01</ele>
        <time>2018-04-26T12:24:01Z</time>
      </trkpt>
      <trkpt lat="44.47772" lon="5.61918">
        <ele>1569.97</ele>
        <time>2018-04-26T12:24:03Z</time>
      </trkpt>
      <trkpt lat="44.47773" lon="5.61919">
        <ele>1569.97</ele>
        <time>2018-04-26T12:24:04Z</time>
      </trkpt>
      <trkpt lat="44.47775" lon="5.6192">
        <ele>1569.01</ele>
        <time>2018-04-26T12:24:06Z</time>
      </trkpt>
      <trkpt lat="44.47777" lon="5.61922">
        <ele>1567.57</ele>
        <time>2018-04-26T12:24:10Z</time>
      </trkpt>
      <trkpt lat="44.47777" lon="5.61923">
        <ele>1570.93</ele>
        <time>2018-04-26T12:24:11Z</time>
      </trkpt>
      <trkpt lat="44.47778" lon="5.61924">
        <ele>1569.97</ele>
        <time>2018-04-26T12:24:13Z</time>
      </trkpt>
      <trkpt lat="44.47784" lon="5.61924">
        <ele>1570.93</ele>
        <time>2018-04-26T12:24:23Z</time>
      </trkpt>
      <trkpt lat="44.47788" lon="5.61925">
        <ele>1570.45</ele>
        <time>2018-04-26T12:24:27Z</time>
      </trkpt>
      <trkpt lat="44.47794" lon="5.61931">
        <ele>1569.01</ele>
        <time>2018-04-26T12:24:35Z</time>
      </trkpt>
      <trkpt lat="44.47803" lon="5.61937">
        <ele>1569.01</ele>
        <time>2018-04-26T12:24:44Z</time>
      </trkpt>
      <trkpt lat="44.47808" lon="5.61941">
        <ele>1567.57</ele>
        <time>2018-04-26T12:24:49Z</time>
      </trkpt>
      <trkpt lat="44.4781" lon="5.61942">
        <ele>1569.49</ele>
        <time>2018-04-26T12:24:51Z</time>
      </trkpt>
      <trkpt lat="44.47817" lon="5.61945">
        <ele>1570.93</ele>
        <time>2018-04-26T12:24:59Z</time>
      </trkpt>
      <trkpt lat="44.47827" lon="5.6195">
        <ele>1570.93</ele>
        <time>2018-04-26T12:25:09Z</time>
      </trkpt>
      <trkpt lat="44.47836" lon="5.61956">
        <ele>1571.41</ele>
        <time>2018-04-26T12:25:18Z</time>
      </trkpt>
      <trkpt lat="44.47841" lon="5.61958">
        <ele>1571.89</ele>
        <time>2018-04-26T12:25:23Z</time>
      </trkpt>
      <trkpt lat="44.47849" lon="5.6196">
        <ele>1572.85</ele>
        <time>2018-04-26T12:25:33Z</time>
      </trkpt>
      <trkpt lat="44.47858" lon="5.61964">
        <ele>1573.33</ele>
        <time>2018-04-26T12:25:42Z</time>
      </trkpt>
      <trkpt lat="44.47866" lon="5.61967">
        <ele>1572.37</ele>
        <time>2018-04-26T12:25:52Z</time>
      </trkpt>
      <trkpt lat="44.47867" lon="5.61967">
        <ele>1574.3</ele>
        <time>2018-04-26T12:25:53Z</time>
      </trkpt>
      <trkpt lat="44.47871" lon="5.6197">
        <ele>1574.78</ele>
        <time>2018-04-26T12:25:58Z</time>
      </trkpt>
      <trkpt lat="44.47872" lon="5.6197">
        <ele>1575.26</ele>
        <time>2018-04-26T12:26:00Z</time>
      </trkpt>
      <trkpt lat="44.47874" lon="5.61971">
        <ele>1573.33</ele>
        <time>2018-04-26T12:26:02Z</time>
      </trkpt>
      <trkpt lat="44.47883" lon="5.61974">
        <ele>1573.33</ele>
        <time>2018-04-26T12:26:12Z</time>
      </trkpt>
      <trkpt lat="44.47887" lon="5.61974">
        <ele>1572.85</ele>
        <time>2018-04-26T12:26:18Z</time>
      </trkpt>
      <trkpt lat="44.47892" lon="5.61973">
        <ele>1572.85</ele>
        <time>2018-04-26T12:26:23Z</time>
      </trkpt>
      <trkpt lat="44.47896" lon="5.61975">
        <ele>1574.78</ele>
        <time>2018-04-26T12:26:34Z</time>
      </trkpt>
      <trkpt lat="44.47898" lon="5.61976">
        <ele>1576.7</ele>
        <time>2018-04-26T12:26:50Z</time>
      </trkpt>
      <trkpt lat="44.47901" lon="5.61975">
        <ele>1575.26</ele>
        <time>2018-04-26T12:26:53Z</time>
      </trkpt>
      <trkpt lat="44.47903" lon="5.61976">
        <ele>1576.22</ele>
        <time>2018-04-26T12:26:55Z</time>
      </trkpt>
      <trkpt lat="44.47905" lon="5.61976">
        <ele>1574.78</ele>
        <time>2018-04-26T12:26:57Z</time>
      </trkpt>
      <trkpt lat="44.47914" lon="5.61976">
        <ele>1576.22</ele>
        <time>2018-04-26T12:27:06Z</time>
      </trkpt>
      <trkpt lat="44.47923" lon="5.61977">
        <ele>1576.22</ele>
        <time>2018-04-26T12:27:15Z</time>
      </trkpt>
      <trkpt lat="44.47929" lon="5.61977">
        <ele>1579.1</ele>
        <time>2018-04-26T12:27:21Z</time>
      </trkpt>
      <trkpt lat="44.47935" lon="5.61977">
        <ele>1579.1</ele>
        <time>2018-04-26T12:27:27Z</time>
      </trkpt>
      <trkpt lat="44.47945" lon="5.6198">
        <ele>1581.51</ele>
        <time>2018-04-26T12:27:38Z</time>
      </trkpt>
      <trkpt lat="44.47946" lon="5.61981">
        <ele>1580.06</ele>
        <time>2018-04-26T12:27:40Z</time>
      </trkpt>
      <trkpt lat="44.47948" lon="5.61982">
        <ele>1581.99</ele>
        <time>2018-04-26T12:27:42Z</time>
      </trkpt>
      <trkpt lat="44.4795" lon="5.61983">
        <ele>1581.03</ele>
        <time>2018-04-26T12:27:44Z</time>
      </trkpt>
      <trkpt lat="44.4796" lon="5.61989">
        <ele>1584.39</ele>
        <time>2018-04-26T12:27:55Z</time>
      </trkpt>
      <trkpt lat="44.47965" lon="5.61994">
        <ele>1583.43</ele>
        <time>2018-04-26T12:28:02Z</time>
      </trkpt>
      <trkpt lat="44.47974" lon="5.61997">
        <ele>1583.91</ele>
        <time>2018-04-26T12:28:13Z</time>
      </trkpt>
      <trkpt lat="44.47978" lon="5.61999">
        <ele>1585.35</ele>
        <time>2018-04-26T12:28:18Z</time>
      </trkpt>
      <trkpt lat="44.47987" lon="5.62002">
        <ele>1586.31</ele>
        <time>2018-04-26T12:28:29Z</time>
      </trkpt>
      <trkpt lat="44.47992" lon="5.62005">
        <ele>1588.72</ele>
        <time>2018-04-26T12:28:37Z</time>
      </trkpt>
      <trkpt lat="44.47992" lon="5.62005">
        <ele>1585.83</ele>
        <time>2018-04-26T12:28:38Z</time>
      </trkpt>
      <trkpt lat="44.47996" lon="5.62006">
        <ele>1585.35</ele>
        <time>2018-04-26T12:28:42Z</time>
      </trkpt>
      <trkpt lat="44.47999" lon="5.62006">
        <ele>1585.83</ele>
        <time>2018-04-26T12:28:45Z</time>
      </trkpt>
      <trkpt lat="44.48003" lon="5.62011">
        <ele>1590.16</ele>
        <time>2018-04-26T12:28:53Z</time>
      </trkpt>
      <trkpt lat="44.48006" lon="5.62011">
        <ele>1588.72</ele>
        <time>2018-04-26T12:28:56Z</time>
      </trkpt>
      <trkpt lat="44.48011" lon="5.62014">
        <ele>1589.2</ele>
        <time>2018-04-26T12:29:02Z</time>
      </trkpt>
      <trkpt lat="44.48019" lon="5.62017">
        <ele>1590.64</ele>
        <time>2018-04-26T12:29:12Z</time>
      </trkpt>
      <trkpt lat="44.48024" lon="5.62017">
        <ele>1591.6</ele>
        <time>2018-04-26T12:29:17Z</time>
      </trkpt>
      <trkpt lat="44.48029" lon="5.62018">
        <ele>1593.04</ele>
        <time>2018-04-26T12:29:22Z</time>
      </trkpt>
      <trkpt lat="44.48038" lon="5.6202">
        <ele>1592.56</ele>
        <time>2018-04-26T12:29:31Z</time>
      </trkpt>
      <trkpt lat="44.48051" lon="5.62024">
        <ele>1594</ele>
        <time>2018-04-26T12:29:42Z</time>
      </trkpt>
      <trkpt lat="44.48056" lon="5.62025">
        <ele>1594</ele>
        <time>2018-04-26T12:29:47Z</time>
      </trkpt>
      <trkpt lat="44.4806" lon="5.62026">
        <ele>1592.56</ele>
        <time>2018-04-26T12:29:51Z</time>
      </trkpt>
      <trkpt lat="44.48063" lon="5.62027">
        <ele>1594.48</ele>
        <time>2018-04-26T12:29:54Z</time>
      </trkpt>
      <trkpt lat="44.48067" lon="5.62029">
        <ele>1594</ele>
        <time>2018-04-26T12:29:58Z</time>
      </trkpt>
      <trkpt lat="44.48075" lon="5.62032">
        <ele>1594.96</ele>
        <time>2018-04-26T12:30:08Z</time>
      </trkpt>
      <trkpt lat="44.48074" lon="5.62031">
        <ele>1594.96</ele>
        <time>2018-04-26T12:30:19Z</time>
      </trkpt>
      <trkpt lat="44.48074" lon="5.62031">
        <ele>1595.45</ele>
        <time>2018-04-26T12:30:43Z</time>
      </trkpt>
      <trkpt lat="44.48075" lon="5.62031">
        <ele>1596.41</ele>
        <time>2018-04-26T12:31:01Z</time>
      </trkpt>
      <trkpt lat="44.48079" lon="5.62032">
        <ele>1595.45</ele>
        <time>2018-04-26T12:31:09Z</time>
      </trkpt>
      <trkpt lat="44.48076" lon="5.62032">
        <ele>1594.48</ele>
        <time>2018-04-26T12:31:21Z</time>
      </trkpt>
      <trkpt lat="44.48076" lon="5.62032">
        <ele>1593.52</ele>
        <time>2018-04-26T12:31:34Z</time>
      </trkpt>
      <trkpt lat="44.48078" lon="5.62033">
        <ele>1594.96</ele>
        <time>2018-04-26T12:31:46Z</time>
      </trkpt>
      <trkpt lat="44.48079" lon="5.62033">
        <ele>1594</ele>
        <time>2018-04-26T12:32:01Z</time>
      </trkpt>
      <trkpt lat="44.48085" lon="5.62034">
        <ele>1598.33</ele>
        <time>2018-04-26T12:32:07Z</time>
      </trkpt>
      <trkpt lat="44.48089" lon="5.62036">
        <ele>1597.85</ele>
        <time>2018-04-26T12:32:11Z</time>
      </trkpt>
      <trkpt lat="44.48095" lon="5.62039">
        <ele>1598.33</ele>
        <time>2018-04-26T12:32:20Z</time>
      </trkpt>
      <trkpt lat="44.481" lon="5.6204">
        <ele>1602.17</ele>
        <time>2018-04-26T12:32:26Z</time>
      </trkpt>
      <trkpt lat="44.48101" lon="5.62041">
        <ele>1599.29</ele>
        <time>2018-04-26T12:32:28Z</time>
      </trkpt>
      <trkpt lat="44.48104" lon="5.62041">
        <ele>1599.29</ele>
        <time>2018-04-26T12:32:32Z</time>
      </trkpt>
      <trkpt lat="44.48105" lon="5.62042">
        <ele>1601.69</ele>
        <time>2018-04-26T12:32:34Z</time>
      </trkpt>
      <trkpt lat="44.48107" lon="5.62042">
        <ele>1601.69</ele>
        <time>2018-04-26T12:32:37Z</time>
      </trkpt>
      <trkpt lat="44.4811" lon="5.62043">
        <ele>1599.29</ele>
        <time>2018-04-26T12:32:40Z</time>
      </trkpt>
      <trkpt lat="44.4811" lon="5.62043">
        <ele>1603.14</ele>
        <time>2018-04-26T12:32:41Z</time>
      </trkpt>
      <trkpt lat="44.48115" lon="5.62045">
        <ele>1605.06</ele>
        <time>2018-04-26T12:32:50Z</time>
      </trkpt>
      <trkpt lat="44.48124" lon="5.62049">
        <ele>1603.62</ele>
        <time>2018-04-26T12:33:00Z</time>
      </trkpt>
      <trkpt lat="44.48128" lon="5.6205">
        <ele>1606.98</ele>
        <time>2018-04-26T12:33:05Z</time>
      </trkpt>
      <trkpt lat="44.48129" lon="5.6205">
        <ele>1603.62</ele>
        <time>2018-04-26T12:33:06Z</time>
      </trkpt>
      <trkpt lat="44.48129" lon="5.6205">
        <ele>1604.58</ele>
        <time>2018-04-26T12:33:07Z</time>
      </trkpt>
      <trkpt lat="44.48131" lon="5.62051">
        <ele>1608.42</ele>
        <time>2018-04-26T12:33:11Z</time>
      </trkpt>
      <trkpt lat="44.48131" lon="5.62052">
        <ele>1605.06</ele>
        <time>2018-04-26T12:33:12Z</time>
      </trkpt>
      <trkpt lat="44.48134" lon="5.62052">
        <ele>1608.42</ele>
        <time>2018-04-26T12:33:16Z</time>
      </trkpt>
      <trkpt lat="44.48134" lon="5.62052">
        <ele>1605.06</ele>
        <time>2018-04-26T12:33:17Z</time>
      </trkpt>
      <trkpt lat="44.48136" lon="5.62052">
        <ele>1608.42</ele>
        <time>2018-04-26T12:33:19Z</time>
      </trkpt>
      <trkpt lat="44.4814" lon="5.62051">
        <ele>1609.38</ele>
        <time>2018-04-26T12:33:29Z</time>
      </trkpt>
      <trkpt lat="44.48143" lon="5.62051">
        <ele>1610.83</ele>
        <time>2018-04-26T12:33:38Z</time>
      </trkpt>
      <trkpt lat="44.48148" lon="5.62054">
        <ele>1613.23</ele>
        <time>2018-04-26T12:33:45Z</time>
      </trkpt>
      <trkpt lat="44.4815" lon="5.62056">
        <ele>1612.75</ele>
        <time>2018-04-26T12:33:49Z</time>
      </trkpt>
      <trkpt lat="44.48152" lon="5.62061">
        <ele>1614.67</ele>
        <time>2018-04-26T12:33:58Z</time>
      </trkpt>
      <trkpt lat="44.48154" lon="5.62065">
        <ele>1615.63</ele>
        <time>2018-04-26T12:34:06Z</time>
      </trkpt>
      <trkpt lat="44.48154" lon="5.62067">
        <ele>1616.11</ele>
        <time>2018-04-26T12:34:08Z</time>
      </trkpt>
      <trkpt lat="44.48156" lon="5.62072">
        <ele>1616.11</ele>
        <time>2018-04-26T12:34:15Z</time>
      </trkpt>
      <trkpt lat="44.48158" lon="5.62075">
        <ele>1619</ele>
        <time>2018-04-26T12:34:21Z</time>
      </trkpt>
      <trkpt lat="44.48161" lon="5.62081">
        <ele>1619.96</ele>
        <time>2018-04-26T12:34:29Z</time>
      </trkpt>
      <trkpt lat="44.48161" lon="5.62083">
        <ele>1617.07</ele>
        <time>2018-04-26T12:34:32Z</time>
      </trkpt>
      <trkpt lat="44.48161" lon="5.62083">
        <ele>1619.96</ele>
        <time>2018-04-26T12:34:33Z</time>
      </trkpt>
      <trkpt lat="44.48161" lon="5.62084">
        <ele>1619.96</ele>
        <time>2018-04-26T12:34:44Z</time>
      </trkpt>
      <trkpt lat="44.48163" lon="5.62084">
        <ele>1618.52</ele>
        <time>2018-04-26T12:35:00Z</time>
      </trkpt>
      <trkpt lat="44.48165" lon="5.62083">
        <ele>1618.52</ele>
        <time>2018-04-26T12:35:08Z</time>
      </trkpt>
      <trkpt lat="44.4817" lon="5.62086">
        <ele>1619</ele>
        <time>2018-04-26T12:35:14Z</time>
      </trkpt>
      <trkpt lat="44.48177" lon="5.62089">
        <ele>1618.04</ele>
        <time>2018-04-26T12:35:24Z</time>
      </trkpt>
      <trkpt lat="44.48178" lon="5.62089">
        <ele>1620.92</ele>
        <time>2018-04-26T12:35:25Z</time>
      </trkpt>
      <trkpt lat="44.48183" lon="5.62093">
        <ele>1621.4</ele>
        <time>2018-04-26T12:35:34Z</time>
      </trkpt>
      <trkpt lat="44.48186" lon="5.62095">
        <ele>1622.84</ele>
        <time>2018-04-26T12:35:37Z</time>
      </trkpt>
      <trkpt lat="44.48195" lon="5.62099">
        <ele>1621.88</ele>
        <time>2018-04-26T12:35:50Z</time>
      </trkpt>
      <trkpt lat="44.48201" lon="5.62103">
        <ele>1622.84</ele>
        <time>2018-04-26T12:35:58Z</time>
      </trkpt>
      <trkpt lat="44.48205" lon="5.62106">
        <ele>1620.92</ele>
        <time>2018-04-26T12:36:08Z</time>
      </trkpt>
      <trkpt lat="44.48205" lon="5.62106">
        <ele>1623.8</ele>
        <time>2018-04-26T12:36:21Z</time>
      </trkpt>
      <trkpt lat="44.48206" lon="5.62107">
        <ele>1622.84</ele>
        <time>2018-04-26T12:36:35Z</time>
      </trkpt>
      <trkpt lat="44.48206" lon="5.62107">
        <ele>1623.32</ele>
        <time>2018-04-26T12:36:55Z</time>
      </trkpt>
      <trkpt lat="44.48207" lon="5.62106">
        <ele>1622.36</ele>
        <time>2018-04-26T12:36:59Z</time>
      </trkpt>
      <trkpt lat="44.4821" lon="5.62103">
        <ele>1620.92</ele>
        <time>2018-04-26T12:37:08Z</time>
      </trkpt>
      <trkpt lat="44.4821" lon="5.62102">
        <ele>1621.4</ele>
        <time>2018-04-26T12:37:23Z</time>
      </trkpt>
      <trkpt lat="44.48209" lon="5.62102">
        <ele>1619.48</ele>
        <time>2018-04-26T12:37:38Z</time>
      </trkpt>
      <trkpt lat="44.48208" lon="5.62102">
        <ele>1619.96</ele>
        <time>2018-04-26T12:37:55Z</time>
      </trkpt>
      <trkpt lat="44.48208" lon="5.62102">
        <ele>1620.44</ele>
        <time>2018-04-26T12:38:09Z</time>
      </trkpt>
      <trkpt lat="44.48208" lon="5.62103">
        <ele>1622.84</ele>
        <time>2018-04-26T12:38:27Z</time>
      </trkpt>
      <trkpt lat="44.48208" lon="5.62104">
        <ele>1622.36</ele>
        <time>2018-04-26T12:38:40Z</time>
      </trkpt>
      <trkpt lat="44.48207" lon="5.62104">
        <ele>1621.4</ele>
        <time>2018-04-26T12:38:58Z</time>
      </trkpt>
      <trkpt lat="44.48207" lon="5.62105">
        <ele>1621.88</ele>
        <time>2018-04-26T12:39:16Z</time>
      </trkpt>
      <trkpt lat="44.48207" lon="5.62105">
        <ele>1622.36</ele>
        <time>2018-04-26T12:39:27Z</time>
      </trkpt>
      <trkpt lat="44.48209" lon="5.62109">
        <ele>1623.32</ele>
        <time>2018-04-26T12:39:38Z</time>
      </trkpt>
      <trkpt lat="44.48209" lon="5.62108">
        <ele>1620.92</ele>
        <time>2018-04-26T12:39:54Z</time>
      </trkpt>
      <trkpt lat="44.48209" lon="5.62107">
        <ele>1620.92</ele>
        <time>2018-04-26T12:39:55Z</time>
      </trkpt>
      <trkpt lat="44.48209" lon="5.62107">
        <ele>1622.36</ele>
        <time>2018-04-26T12:40:11Z</time>
      </trkpt>
      <trkpt lat="44.48205" lon="5.62106">
        <ele>1622.84</ele>
        <time>2018-04-26T12:40:26Z</time>
      </trkpt>
      <trkpt lat="44.48204" lon="5.62106">
        <ele>1620.92</ele>
        <time>2018-04-26T12:40:31Z</time>
      </trkpt>
      <trkpt lat="44.48204" lon="5.62106">
        <ele>1620.92</ele>
        <time>2018-04-26T12:40:52Z</time>
      </trkpt>
      <trkpt lat="44.48203" lon="5.62107">
        <ele>1621.4</ele>
        <time>2018-04-26T12:41:16Z</time>
      </trkpt>
      <trkpt lat="44.48205" lon="5.62105">
        <ele>1620.92</ele>
        <time>2018-04-26T12:41:40Z</time>
      </trkpt>
      <trkpt lat="44.48204" lon="5.62105">
        <ele>1622.36</ele>
        <time>2018-04-26T12:42:04Z</time>
      </trkpt>
      <trkpt lat="44.48208" lon="5.62106">
        <ele>1621.4</ele>
        <time>2018-04-26T12:42:13Z</time>
      </trkpt>
      <trkpt lat="44.48207" lon="5.62107">
        <ele>1621.4</ele>
        <time>2018-04-26T12:42:29Z</time>
      </trkpt>
      <trkpt lat="44.48207" lon="5.62107">
        <ele>1621.4</ele>
        <time>2018-04-26T12:42:42Z</time>
      </trkpt>
      <trkpt lat="44.48207" lon="5.62107">
        <ele>1620.92</ele>
        <time>2018-04-26T12:43:02Z</time>
      </trkpt>
      <trkpt lat="44.48207" lon="5.62106">
        <ele>1621.4</ele>
        <time>2018-04-26T12:43:21Z</time>
      </trkpt>
      <trkpt lat="44.48207" lon="5.62106">
        <ele>1621.4</ele>
        <time>2018-04-26T12:43:32Z</time>
      </trkpt>
      <trkpt lat="44.48207" lon="5.62106">
        <ele>1621.4</ele>
        <time>2018-04-26T12:43:50Z</time>
      </trkpt>
      <trkpt lat="44.48206" lon="5.62106">
        <ele>1621.4</ele>
        <time>2018-04-26T12:44:06Z</time>
      </trkpt>
      <trkpt lat="44.48209" lon="5.62107">
        <ele>1622.36</ele>
        <time>2018-04-26T12:44:16Z</time>
      </trkpt>
      <trkpt lat="44.48212" lon="5.62109">
        <ele>1621.88</ele>
        <time>2018-04-26T12:44:27Z</time>
      </trkpt>
      <trkpt lat="44.48217" lon="5.62113">
        <ele>1619.96</ele>
        <time>2018-04-26T12:44:38Z</time>
      </trkpt>
      <trkpt lat="44.4822" lon="5.62118">
        <ele>1620.44</ele>
        <time>2018-04-26T12:44:43Z</time>
      </trkpt>
      <trkpt lat="44.48227" lon="5.62122">
        <ele>1618.52</ele>
        <time>2018-04-26T12:44:51Z</time>
      </trkpt>
      <trkpt lat="44.48229" lon="5.62123">
        <ele>1617.56</ele>
        <time>2018-04-26T12:44:53Z</time>
      </trkpt>
      <trkpt lat="44.4824" lon="5.62129">
        <ele>1617.07</ele>
        <time>2018-04-26T12:45:03Z</time>
      </trkpt>
      <trkpt lat="44.48245" lon="5.62134">
        <ele>1617.07</ele>
        <time>2018-04-26T12:45:08Z</time>
      </trkpt>
      <trkpt lat="44.48254" lon="5.62142">
        <ele>1616.11</ele>
        <time>2018-04-26T12:45:18Z</time>
      </trkpt>
      <trkpt lat="44.48258" lon="5.62146">
        <ele>1616.59</ele>
        <time>2018-04-26T12:45:23Z</time>
      </trkpt>
      <trkpt lat="44.48264" lon="5.6215">
        <ele>1615.63</ele>
        <time>2018-04-26T12:45:31Z</time>
      </trkpt>
      <trkpt lat="44.48267" lon="5.62153">
        <ele>1615.63</ele>
        <time>2018-04-26T12:45:34Z</time>
      </trkpt>
      <trkpt lat="44.48276" lon="5.6216">
        <ele>1616.59</ele>
        <time>2018-04-26T12:45:43Z</time>
      </trkpt>
      <trkpt lat="44.48279" lon="5.62163">
        <ele>1616.59</ele>
        <time>2018-04-26T12:45:48Z</time>
      </trkpt>
      <trkpt lat="44.48281" lon="5.62165">
        <ele>1618.04</ele>
        <time>2018-04-26T12:45:51Z</time>
      </trkpt>
      <trkpt lat="44.48287" lon="5.62172">
        <ele>1617.56</ele>
        <time>2018-04-26T12:45:58Z</time>
      </trkpt>
      <trkpt lat="44.48288" lon="5.62174">
        <ele>1617.56</ele>
        <time>2018-04-26T12:46:00Z</time>
      </trkpt>
      <trkpt lat="44.48296" lon="5.62185">
        <ele>1617.56</ele>
        <time>2018-04-26T12:46:11Z</time>
      </trkpt>
      <trkpt lat="44.48298" lon="5.62188">
        <ele>1619</ele>
        <time>2018-04-26T12:46:14Z</time>
      </trkpt>
      <trkpt lat="44.48298" lon="5.6219">
        <ele>1617.56</ele>
        <time>2018-04-26T12:46:16Z</time>
      </trkpt>
      <trkpt lat="44.48302" lon="5.622">
        <ele>1618.52</ele>
        <time>2018-04-26T12:46:27Z</time>
      </trkpt>
      <trkpt lat="44.48304" lon="5.62205">
        <ele>1619</ele>
        <time>2018-04-26T12:46:32Z</time>
      </trkpt>
      <trkpt lat="44.48309" lon="5.62211">
        <ele>1618.04</ele>
        <time>2018-04-26T12:46:44Z</time>
      </trkpt>
      <trkpt lat="44.48311" lon="5.62216">
        <ele>1619.96</ele>
        <time>2018-04-26T12:46:51Z</time>
      </trkpt>
      <trkpt lat="44.48314" lon="5.62222">
        <ele>1619.96</ele>
        <time>2018-04-26T12:47:00Z</time>
      </trkpt>
      <trkpt lat="44.48312" lon="5.62222">
        <ele>1619</ele>
        <time>2018-04-26T12:47:19Z</time>
      </trkpt>
      <trkpt lat="44.48311" lon="5.62214">
        <ele>1619.48</ele>
        <time>2018-04-26T12:47:28Z</time>
      </trkpt>
      <trkpt lat="44.4831" lon="5.62206">
        <ele>1617.56</ele>
        <time>2018-04-26T12:47:37Z</time>
      </trkpt>
      <trkpt lat="44.48313" lon="5.62202">
        <ele>1616.11</ele>
        <time>2018-04-26T12:47:45Z</time>
      </trkpt>
      <trkpt lat="44.48313" lon="5.622">
        <ele>1616.11</ele>
        <time>2018-04-26T12:47:47Z</time>
      </trkpt>
      <trkpt lat="44.48315" lon="5.62194">
        <ele>1614.19</ele>
        <time>2018-04-26T12:47:53Z</time>
      </trkpt>
      <trkpt lat="44.48315" lon="5.62187">
        <ele>1612.27</ele>
        <time>2018-04-26T12:48:01Z</time>
      </trkpt>
      <trkpt lat="44.48314" lon="5.62182">
        <ele>1611.31</ele>
        <time>2018-04-26T12:48:05Z</time>
      </trkpt>
      <trkpt lat="44.48313" lon="5.62171">
        <ele>1609.86</ele>
        <time>2018-04-26T12:48:13Z</time>
      </trkpt>
      <trkpt lat="44.48313" lon="5.62169">
        <ele>1609.38</ele>
        <time>2018-04-26T12:48:15Z</time>
      </trkpt>
      <trkpt lat="44.48312" lon="5.62162">
        <ele>1607.94</ele>
        <time>2018-04-26T12:48:21Z</time>
      </trkpt>
      <trkpt lat="44.48309" lon="5.62146">
        <ele>1604.58</ele>
        <time>2018-04-26T12:48:30Z</time>
      </trkpt>
      <trkpt lat="44.48309" lon="5.62146">
        <ele>1605.06</ele>
        <time>2018-04-26T12:48:32Z</time>
      </trkpt>
      <trkpt lat="44.4831" lon="5.62141">
        <ele>1604.1</ele>
        <time>2018-04-26T12:48:36Z</time>
      </trkpt>
      <trkpt lat="44.4831" lon="5.62139">
        <ele>1603.62</ele>
        <time>2018-04-26T12:48:38Z</time>
      </trkpt>
      <trkpt lat="44.4831" lon="5.62136">
        <ele>1602.17</ele>
        <time>2018-04-26T12:48:46Z</time>
      </trkpt>
      <trkpt lat="44.4831" lon="5.62135">
        <ele>1603.14</ele>
        <time>2018-04-26T12:49:03Z</time>
      </trkpt>
      <trkpt lat="44.4831" lon="5.62134">
        <ele>1603.14</ele>
        <time>2018-04-26T12:49:18Z</time>
      </trkpt>
      <trkpt lat="44.4831" lon="5.62134">
        <ele>1604.1</ele>
        <time>2018-04-26T12:49:38Z</time>
      </trkpt>
      <trkpt lat="44.48313" lon="5.6213">
        <ele>1603.14</ele>
        <time>2018-04-26T12:49:54Z</time>
      </trkpt>
      <trkpt lat="44.48313" lon="5.62129">
        <ele>1603.14</ele>
        <time>2018-04-26T12:49:55Z</time>
      </trkpt>
      <trkpt lat="44.48314" lon="5.62121">
        <ele>1600.73</ele>
        <time>2018-04-26T12:50:04Z</time>
      </trkpt>
      <trkpt lat="44.48314" lon="5.62115">
        <ele>1598.81</ele>
        <time>2018-04-26T12:50:14Z</time>
      </trkpt>
      <trkpt lat="44.48314" lon="5.62114">
        <ele>1599.29</ele>
        <time>2018-04-26T12:50:15Z</time>
      </trkpt>
      <trkpt lat="44.48315" lon="5.62109">
        <ele>1597.37</ele>
        <time>2018-04-26T12:50:22Z</time>
      </trkpt>
      <trkpt lat="44.48316" lon="5.62101">
        <ele>1595.45</ele>
        <time>2018-04-26T12:50:30Z</time>
      </trkpt>
      <trkpt lat="44.48318" lon="5.62094">
        <ele>1594</ele>
        <time>2018-04-26T12:50:37Z</time>
      </trkpt>
      <trkpt lat="44.48319" lon="5.62088">
        <ele>1593.04</ele>
        <time>2018-04-26T12:50:44Z</time>
      </trkpt>
      <trkpt lat="44.4832" lon="5.6208">
        <ele>1590.16</ele>
        <time>2018-04-26T12:50:53Z</time>
      </trkpt>
      <trkpt lat="44.48321" lon="5.62078">
        <ele>1590.64</ele>
        <time>2018-04-26T12:50:55Z</time>
      </trkpt>
      <trkpt lat="44.48321" lon="5.62072">
        <ele>1587.75</ele>
        <time>2018-04-26T12:51:04Z</time>
      </trkpt>
      <trkpt lat="44.4832" lon="5.62069">
        <ele>1587.27</ele>
        <time>2018-04-26T12:51:07Z</time>
      </trkpt>
      <trkpt lat="44.48321" lon="5.62057">
        <ele>1584.39</ele>
        <time>2018-04-26T12:51:17Z</time>
      </trkpt>
      <trkpt lat="44.48321" lon="5.62056">
        <ele>1583.91</ele>
        <time>2018-04-26T12:51:18Z</time>
      </trkpt>
      <trkpt lat="44.48322" lon="5.62048">
        <ele>1582.95</ele>
        <time>2018-04-26T12:51:23Z</time>
      </trkpt>
      <trkpt lat="44.48324" lon="5.62046">
        <ele>1581.99</ele>
        <time>2018-04-26T12:51:27Z</time>
      </trkpt>
      <trkpt lat="44.48325" lon="5.62044">
        <ele>1580.54</ele>
        <time>2018-04-26T12:51:31Z</time>
      </trkpt>
      <trkpt lat="44.48329" lon="5.62035">
        <ele>1577.66</ele>
        <time>2018-04-26T12:51:41Z</time>
      </trkpt>
      <trkpt lat="44.48329" lon="5.62028">
        <ele>1577.18</ele>
        <time>2018-04-26T12:51:46Z</time>
      </trkpt>
      <trkpt lat="44.48329" lon="5.62024">
        <ele>1575.26</ele>
        <time>2018-04-26T12:51:51Z</time>
      </trkpt>
      <trkpt lat="44.4833" lon="5.62014">
        <ele>1572.37</ele>
        <time>2018-04-26T12:52:01Z</time>
      </trkpt>
      <trkpt lat="44.4833" lon="5.62008">
        <ele>1571.89</ele>
        <time>2018-04-26T12:52:05Z</time>
      </trkpt>
      <trkpt lat="44.48334" lon="5.61999">
        <ele>1569.01</ele>
        <time>2018-04-26T12:52:14Z</time>
      </trkpt>
      <trkpt lat="44.48335" lon="5.61991">
        <ele>1566.61</ele>
        <time>2018-04-26T12:52:20Z</time>
      </trkpt>
      <trkpt lat="44.48336" lon="5.61989">
        <ele>1566.12</ele>
        <time>2018-04-26T12:52:23Z</time>
      </trkpt>
      <trkpt lat="44.48336" lon="5.61982">
        <ele>1564.68</ele>
        <time>2018-04-26T12:52:27Z</time>
      </trkpt>
      <trkpt lat="44.48338" lon="5.61972">
        <ele>1562.76</ele>
        <time>2018-04-26T12:52:35Z</time>
      </trkpt>
      <trkpt lat="44.4834" lon="5.61964">
        <ele>1560.84</ele>
        <time>2018-04-26T12:52:43Z</time>
      </trkpt>
      <trkpt lat="44.4834" lon="5.61963">
        <ele>1560.84</ele>
        <time>2018-04-26T12:52:44Z</time>
      </trkpt>
      <trkpt lat="44.4834" lon="5.61954">
        <ele>1558.92</ele>
        <time>2018-04-26T12:52:53Z</time>
      </trkpt>
      <trkpt lat="44.4834" lon="5.61947">
        <ele>1556.99</ele>
        <time>2018-04-26T12:52:58Z</time>
      </trkpt>
      <trkpt lat="44.48338" lon="5.61934">
        <ele>1555.07</ele>
        <time>2018-04-26T12:53:06Z</time>
      </trkpt>
      <trkpt lat="44.48338" lon="5.61921">
        <ele>1554.11</ele>
        <time>2018-04-26T12:53:15Z</time>
      </trkpt>
      <trkpt lat="44.48339" lon="5.61908">
        <ele>1551.22</ele>
        <time>2018-04-26T12:53:24Z</time>
      </trkpt>
      <trkpt lat="44.4834" lon="5.61906">
        <ele>1550.74</ele>
        <time>2018-04-26T12:53:26Z</time>
      </trkpt>
      <trkpt lat="44.48341" lon="5.619">
        <ele>1548.34</ele>
        <time>2018-04-26T12:53:34Z</time>
      </trkpt>
      <trkpt lat="44.48342" lon="5.61896">
        <ele>1548.34</ele>
        <time>2018-04-26T12:53:38Z</time>
      </trkpt>
      <trkpt lat="44.48344" lon="5.6189">
        <ele>1545.94</ele>
        <time>2018-04-26T12:53:44Z</time>
      </trkpt>
      <trkpt lat="44.48348" lon="5.61884">
        <ele>1543.05</ele>
        <time>2018-04-26T12:53:54Z</time>
      </trkpt>
      <trkpt lat="44.48349" lon="5.61873">
        <ele>1541.13</ele>
        <time>2018-04-26T12:54:03Z</time>
      </trkpt>
      <trkpt lat="44.48349" lon="5.61872">
        <ele>1540.65</ele>
        <time>2018-04-26T12:54:04Z</time>
      </trkpt>
      <trkpt lat="44.4835" lon="5.61865">
        <ele>1539.69</ele>
        <time>2018-04-26T12:54:12Z</time>
      </trkpt>
      <trkpt lat="44.48352" lon="5.61858">
        <ele>1537.77</ele>
        <time>2018-04-26T12:54:20Z</time>
      </trkpt>
      <trkpt lat="44.48352" lon="5.61854">
        <ele>1536.32</ele>
        <time>2018-04-26T12:54:23Z</time>
      </trkpt>
      <trkpt lat="44.48354" lon="5.61844">
        <ele>1534.88</ele>
        <time>2018-04-26T12:54:32Z</time>
      </trkpt>
      <trkpt lat="44.48357" lon="5.61834">
        <ele>1532</ele>
        <time>2018-04-26T12:54:42Z</time>
      </trkpt>
      <trkpt lat="44.48361" lon="5.61826">
        <ele>1529.59</ele>
        <time>2018-04-26T12:54:51Z</time>
      </trkpt>
      <trkpt lat="44.48362" lon="5.61825">
        <ele>1529.11</ele>
        <time>2018-04-26T12:54:52Z</time>
      </trkpt>
      <trkpt lat="44.48366" lon="5.61817">
        <ele>1526.23</ele>
        <time>2018-04-26T12:55:02Z</time>
      </trkpt>
      <trkpt lat="44.48366" lon="5.61816">
        <ele>1526.23</ele>
        <time>2018-04-26T12:55:03Z</time>
      </trkpt>
      <trkpt lat="44.48365" lon="5.61806">
        <ele>1524.31</ele>
        <time>2018-04-26T12:55:12Z</time>
      </trkpt>
      <trkpt lat="44.48365" lon="5.61798">
        <ele>1522.39</ele>
        <time>2018-04-26T12:55:19Z</time>
      </trkpt>
      <trkpt lat="44.48367" lon="5.61794">
        <ele>1520.94</ele>
        <time>2018-04-26T12:55:25Z</time>
      </trkpt>
      <trkpt lat="44.48367" lon="5.61785">
        <ele>1519.5</ele>
        <time>2018-04-26T12:55:30Z</time>
      </trkpt>
      <trkpt lat="44.48372" lon="5.61784">
        <ele>1517.1</ele>
        <time>2018-04-26T12:55:39Z</time>
      </trkpt>
      <trkpt lat="44.48378" lon="5.61776">
        <ele>1514.21</ele>
        <time>2018-04-26T12:55:48Z</time>
      </trkpt>
      <trkpt lat="44.48378" lon="5.61777">
        <ele>1513.25</ele>
        <time>2018-04-26T12:56:01Z</time>
      </trkpt>
      <trkpt lat="44.48378" lon="5.61778">
        <ele>1514.21</ele>
        <time>2018-04-26T12:56:24Z</time>
      </trkpt>
      <trkpt lat="44.48378" lon="5.61778">
        <ele>1513.73</ele>
        <time>2018-04-26T12:56:39Z</time>
      </trkpt>
      <trkpt lat="44.48378" lon="5.61778">
        <ele>1513.25</ele>
        <time>2018-04-26T12:56:57Z</time>
      </trkpt>
      <trkpt lat="44.48378" lon="5.61777">
        <ele>1513.25</ele>
        <time>2018-04-26T12:57:14Z</time>
      </trkpt>
      <trkpt lat="44.48379" lon="5.61774">
        <ele>1512.29</ele>
        <time>2018-04-26T12:57:25Z</time>
      </trkpt>
      <trkpt lat="44.48378" lon="5.61769">
        <ele>1510.85</ele>
        <time>2018-04-26T12:57:32Z</time>
      </trkpt>
      <trkpt lat="44.48378" lon="5.61767">
        <ele>1510.37</ele>
        <time>2018-04-26T12:57:51Z</time>
      </trkpt>
      <trkpt lat="44.48378" lon="5.61761">
        <ele>1510.37</ele>
        <time>2018-04-26T12:57:59Z</time>
      </trkpt>
      <trkpt lat="44.48377" lon="5.61757">
        <ele>1507.48</ele>
        <time>2018-04-26T12:58:09Z</time>
      </trkpt>
      <trkpt lat="44.48375" lon="5.61751">
        <ele>1505.56</ele>
        <time>2018-04-26T12:58:17Z</time>
      </trkpt>
      <trkpt lat="44.48371" lon="5.61742">
        <ele>1503.16</ele>
        <time>2018-04-26T12:58:23Z</time>
      </trkpt>
      <trkpt lat="44.48366" lon="5.6173">
        <ele>1500.27</ele>
        <time>2018-04-26T12:58:33Z</time>
      </trkpt>
      <trkpt lat="44.48364" lon="5.61724">
        <ele>1498.35</ele>
        <time>2018-04-26T12:58:41Z</time>
      </trkpt>
      <trkpt lat="44.48363" lon="5.61718">
        <ele>1495.47</ele>
        <time>2018-04-26T12:58:49Z</time>
      </trkpt>
      <trkpt lat="44.4836" lon="5.61709">
        <ele>1493.55</ele>
        <time>2018-04-26T12:58:57Z</time>
      </trkpt>
      <trkpt lat="44.48359" lon="5.61706">
        <ele>1492.1</ele>
        <time>2018-04-26T12:59:01Z</time>
      </trkpt>
      <trkpt lat="44.4836" lon="5.61695">
        <ele>1490.18</ele>
        <time>2018-04-26T12:59:09Z</time>
      </trkpt>
      <trkpt lat="44.4836" lon="5.61691">
        <ele>1488.74</ele>
        <time>2018-04-26T12:59:14Z</time>
      </trkpt>
      <trkpt lat="44.48361" lon="5.61687">
        <ele>1487.3</ele>
        <time>2018-04-26T12:59:17Z</time>
      </trkpt>
      <trkpt lat="44.48364" lon="5.61679">
        <ele>1484.41</ele>
        <time>2018-04-26T12:59:26Z</time>
      </trkpt>
      <trkpt lat="44.48365" lon="5.61675">
        <ele>1482.49</ele>
        <time>2018-04-26T12:59:35Z</time>
      </trkpt>
      <trkpt lat="44.48367" lon="5.61666">
        <ele>1480.09</ele>
        <time>2018-04-26T12:59:44Z</time>
      </trkpt>
      <trkpt lat="44.4837" lon="5.6166">
        <ele>1478.16</ele>
        <time>2018-04-26T12:59:53Z</time>
      </trkpt>
      <trkpt lat="44.48369" lon="5.61652">
        <ele>1476.24</ele>
        <time>2018-04-26T13:00:03Z</time>
      </trkpt>
      <trkpt lat="44.48369" lon="5.6165">
        <ele>1475.76</ele>
        <time>2018-04-26T13:00:09Z</time>
      </trkpt>
      <trkpt lat="44.48371" lon="5.6164">
        <ele>1472.88</ele>
        <time>2018-04-26T13:00:20Z</time>
      </trkpt>
      <trkpt lat="44.48372" lon="5.6164">
        <ele>1472.88</ele>
        <time>2018-04-26T13:00:21Z</time>
      </trkpt>
      <trkpt lat="44.48373" lon="5.61634">
        <ele>1471.44</ele>
        <time>2018-04-26T13:00:29Z</time>
      </trkpt>
      <trkpt lat="44.48373" lon="5.61631">
        <ele>1468.07</ele>
        <time>2018-04-26T13:00:36Z</time>
      </trkpt>
      <trkpt lat="44.48374" lon="5.61629">
        <ele>1468.55</ele>
        <time>2018-04-26T13:00:39Z</time>
      </trkpt>
      <trkpt lat="44.48374" lon="5.61625">
        <ele>1468.07</ele>
        <time>2018-04-26T13:00:42Z</time>
      </trkpt>
      <trkpt lat="44.48376" lon="5.61616">
        <ele>1464.71</ele>
        <time>2018-04-26T13:00:50Z</time>
      </trkpt>
      <trkpt lat="44.48379" lon="5.6161">
        <ele>1463.26</ele>
        <time>2018-04-26T13:00:59Z</time>
      </trkpt>
      <trkpt lat="44.48381" lon="5.61604">
        <ele>1461.34</ele>
        <time>2018-04-26T13:01:06Z</time>
      </trkpt>
      <trkpt lat="44.48384" lon="5.61598">
        <ele>1458.46</ele>
        <time>2018-04-26T13:01:15Z</time>
      </trkpt>
      <trkpt lat="44.48386" lon="5.61588">
        <ele>1456.53</ele>
        <time>2018-04-26T13:01:24Z</time>
      </trkpt>
      <trkpt lat="44.4839" lon="5.61578">
        <ele>1454.13</ele>
        <time>2018-04-26T13:01:34Z</time>
      </trkpt>
      <trkpt lat="44.4839" lon="5.61578">
        <ele>1453.17</ele>
        <time>2018-04-26T13:01:35Z</time>
      </trkpt>
      <trkpt lat="44.48391" lon="5.61573">
        <ele>1452.21</ele>
        <time>2018-04-26T13:01:39Z</time>
      </trkpt>
      <trkpt lat="44.48395" lon="5.6157">
        <ele>1450.29</ele>
        <time>2018-04-26T13:01:46Z</time>
      </trkpt>
      <trkpt lat="44.48402" lon="5.61571">
        <ele>1450.29</ele>
        <time>2018-04-26T13:01:55Z</time>
      </trkpt>
      <trkpt lat="44.48411" lon="5.61573">
        <ele>1449.81</ele>
        <time>2018-04-26T13:02:04Z</time>
      </trkpt>
      <trkpt lat="44.48416" lon="5.61574">
        <ele>1448.84</ele>
        <time>2018-04-26T13:02:12Z</time>
      </trkpt>
      <trkpt lat="44.48417" lon="5.61573">
        <ele>1448.84</ele>
        <time>2018-04-26T13:02:13Z</time>
      </trkpt>
      <trkpt lat="44.48418" lon="5.61565">
        <ele>1446.44</ele>
        <time>2018-04-26T13:02:20Z</time>
      </trkpt>
      <trkpt lat="44.48415" lon="5.61561">
        <ele>1445.48</ele>
        <time>2018-04-26T13:02:29Z</time>
      </trkpt>
      <trkpt lat="44.48413" lon="5.61557">
        <ele>1444.52</ele>
        <time>2018-04-26T13:02:32Z</time>
      </trkpt>
      <trkpt lat="44.48407" lon="5.61553">
        <ele>1444.52</ele>
        <time>2018-04-26T13:02:42Z</time>
      </trkpt>
      <trkpt lat="44.48406" lon="5.61551">
        <ele>1444.04</ele>
        <time>2018-04-26T13:02:54Z</time>
      </trkpt>
      <trkpt lat="44.48406" lon="5.6155">
        <ele>1444.04</ele>
        <time>2018-04-26T13:03:13Z</time>
      </trkpt>
      <trkpt lat="44.48406" lon="5.61551">
        <ele>1444.04</ele>
        <time>2018-04-26T13:03:28Z</time>
      </trkpt>
      <trkpt lat="44.48405" lon="5.61551">
        <ele>1443.08</ele>
        <time>2018-04-26T13:03:43Z</time>
      </trkpt>
      <trkpt lat="44.48405" lon="5.61551">
        <ele>1443.56</ele>
        <time>2018-04-26T13:04:06Z</time>
      </trkpt>
      <trkpt lat="44.48405" lon="5.61551">
        <ele>1444.04</ele>
        <time>2018-04-26T13:04:28Z</time>
      </trkpt>
      <trkpt lat="44.48405" lon="5.61551">
        <ele>1443.56</ele>
        <time>2018-04-26T13:04:40Z</time>
      </trkpt>
      <trkpt lat="44.48405" lon="5.61551">
        <ele>1443.56</ele>
        <time>2018-04-26T13:04:58Z</time>
      </trkpt>
      <trkpt lat="44.48403" lon="5.61551">
        <ele>1444.52</ele>
        <time>2018-04-26T13:05:16Z</time>
      </trkpt>
      <trkpt lat="44.48405" lon="5.61551">
        <ele>1444.04</ele>
        <time>2018-04-26T13:05:34Z</time>
      </trkpt>
      <trkpt lat="44.48405" lon="5.61551">
        <ele>1444.04</ele>
        <time>2018-04-26T13:05:54Z</time>
      </trkpt>
      <trkpt lat="44.48401" lon="5.61553">
        <ele>1444.04</ele>
        <time>2018-04-26T13:06:12Z</time>
      </trkpt>
      <trkpt lat="44.484" lon="5.61554">
        <ele>1444.52</ele>
        <time>2018-04-26T13:06:27Z</time>
      </trkpt>
      <trkpt lat="44.48401" lon="5.61553">
        <ele>1444.04</ele>
        <time>2018-04-26T13:06:42Z</time>
      </trkpt>
      <trkpt lat="44.48402" lon="5.61552">
        <ele>1443.56</ele>
        <time>2018-04-26T13:07:06Z</time>
      </trkpt>
      <trkpt lat="44.48402" lon="5.61552">
        <ele>1444.04</ele>
        <time>2018-04-26T13:07:22Z</time>
      </trkpt>
      <trkpt lat="44.48402" lon="5.61552">
        <ele>1443.56</ele>
        <time>2018-04-26T13:07:42Z</time>
      </trkpt>
      <trkpt lat="44.48401" lon="5.61549">
        <ele>1444.04</ele>
        <time>2018-04-26T13:08:04Z</time>
      </trkpt>
      <trkpt lat="44.48401" lon="5.61548">
        <ele>1443.56</ele>
        <time>2018-04-26T13:08:24Z</time>
      </trkpt>
      <trkpt lat="44.484" lon="5.61548">
        <ele>1444.04</ele>
        <time>2018-04-26T13:08:48Z</time>
      </trkpt>
      <trkpt lat="44.48399" lon="5.61548">
        <ele>1443.08</ele>
        <time>2018-04-26T13:09:07Z</time>
      </trkpt>
      <trkpt lat="44.48395" lon="5.61542">
        <ele>1441.63</ele>
        <time>2018-04-26T13:09:17Z</time>
      </trkpt>
      <trkpt lat="44.48389" lon="5.61537">
        <ele>1439.23</ele>
        <time>2018-04-26T13:09:27Z</time>
      </trkpt>
      <trkpt lat="44.48381" lon="5.61531">
        <ele>1437.31</ele>
        <time>2018-04-26T13:09:35Z</time>
      </trkpt>
      <trkpt lat="44.48376" lon="5.61527">
        <ele>1436.83</ele>
        <time>2018-04-26T13:09:40Z</time>
      </trkpt>
      <trkpt lat="44.48366" lon="5.61521">
        <ele>1433.94</ele>
        <time>2018-04-26T13:09:51Z</time>
      </trkpt>
      <trkpt lat="44.48359" lon="5.61516">
        <ele>1432.02</ele>
        <time>2018-04-26T13:09:57Z</time>
      </trkpt>
      <trkpt lat="44.48357" lon="5.61515">
        <ele>1432.98</ele>
        <time>2018-04-26T13:09:59Z</time>
      </trkpt>
      <trkpt lat="44.48349" lon="5.61507">
        <ele>1431.54</ele>
        <time>2018-04-26T13:10:08Z</time>
      </trkpt>
      <trkpt lat="44.4834" lon="5.61497">
        <ele>1430.1</ele>
        <time>2018-04-26T13:10:18Z</time>
      </trkpt>
      <trkpt lat="44.48337" lon="5.61492">
        <ele>1428.66</ele>
        <time>2018-04-26T13:10:23Z</time>
      </trkpt>
      <trkpt lat="44.48336" lon="5.61492">
        <ele>1429.14</ele>
        <time>2018-04-26T13:10:24Z</time>
      </trkpt>
      <trkpt lat="44.48327" lon="5.61485">
        <ele>1428.18</ele>
        <time>2018-04-26T13:10:33Z</time>
      </trkpt>
      <trkpt lat="44.4832" lon="5.61482">
        <ele>1427.21</ele>
        <time>2018-04-26T13:10:39Z</time>
      </trkpt>
      <trkpt lat="44.48313" lon="5.61478">
        <ele>1425.29</ele>
        <time>2018-04-26T13:10:47Z</time>
      </trkpt>
      <trkpt lat="44.48312" lon="5.61472">
        <ele>1423.37</ele>
        <time>2018-04-26T13:10:58Z</time>
      </trkpt>
      <trkpt lat="44.4831" lon="5.61467">
        <ele>1421.93</ele>
        <time>2018-04-26T13:11:08Z</time>
      </trkpt>
      <trkpt lat="44.48306" lon="5.61457">
        <ele>1421.45</ele>
        <time>2018-04-26T13:11:19Z</time>
      </trkpt>
      <trkpt lat="44.48302" lon="5.61451">
        <ele>1420</ele>
        <time>2018-04-26T13:11:28Z</time>
      </trkpt>
      <trkpt lat="44.48296" lon="5.61445">
        <ele>1420</ele>
        <time>2018-04-26T13:11:38Z</time>
      </trkpt>
      <trkpt lat="44.4829" lon="5.61436">
        <ele>1419.52</ele>
        <time>2018-04-26T13:11:48Z</time>
      </trkpt>
      <trkpt lat="44.48289" lon="5.61434">
        <ele>1421.45</ele>
        <time>2018-04-26T13:11:51Z</time>
      </trkpt>
      <trkpt lat="44.48282" lon="5.61424">
        <ele>1420.49</ele>
        <time>2018-04-26T13:12:01Z</time>
      </trkpt>
      <trkpt lat="44.4828" lon="5.61423">
        <ele>1419.52</ele>
        <time>2018-04-26T13:12:03Z</time>
      </trkpt>
      <trkpt lat="44.48277" lon="5.61419">
        <ele>1419.04</ele>
        <time>2018-04-26T13:12:07Z</time>
      </trkpt>
      <trkpt lat="44.48275" lon="5.61418">
        <ele>1420.49</ele>
        <time>2018-04-26T13:12:09Z</time>
      </trkpt>
      <trkpt lat="44.48265" lon="5.61412">
        <ele>1420</ele>
        <time>2018-04-26T13:12:20Z</time>
      </trkpt>
      <trkpt lat="44.48263" lon="5.61411">
        <ele>1420.97</ele>
        <time>2018-04-26T13:12:22Z</time>
      </trkpt>
      <trkpt lat="44.48261" lon="5.61409">
        <ele>1419.52</ele>
        <time>2018-04-26T13:12:25Z</time>
      </trkpt>
      <trkpt lat="44.4825" lon="5.61406">
        <ele>1419.04</ele>
        <time>2018-04-26T13:12:35Z</time>
      </trkpt>
      <trkpt lat="44.48245" lon="5.61402">
        <ele>1418.08</ele>
        <time>2018-04-26T13:12:42Z</time>
      </trkpt>
      <trkpt lat="44.48243" lon="5.61402">
        <ele>1418.56</ele>
        <time>2018-04-26T13:12:43Z</time>
      </trkpt>
      <trkpt lat="44.48233" lon="5.61404">
        <ele>1417.12</ele>
        <time>2018-04-26T13:12:55Z</time>
      </trkpt>
      <trkpt lat="44.4823" lon="5.61406">
        <ele>1415.68</ele>
        <time>2018-04-26T13:12:59Z</time>
      </trkpt>
      <trkpt lat="44.48228" lon="5.61406">
        <ele>1416.16</ele>
        <time>2018-04-26T13:13:01Z</time>
      </trkpt>
      <trkpt lat="44.48222" lon="5.6141">
        <ele>1414.72</ele>
        <time>2018-04-26T13:13:11Z</time>
      </trkpt>
      <trkpt lat="44.48218" lon="5.61413">
        <ele>1414.24</ele>
        <time>2018-04-26T13:13:21Z</time>
      </trkpt>
      <trkpt lat="44.48209" lon="5.61417">
        <ele>1413.28</ele>
        <time>2018-04-26T13:13:30Z</time>
      </trkpt>
      <trkpt lat="44.48204" lon="5.61417">
        <ele>1412.31</ele>
        <time>2018-04-26T13:13:34Z</time>
      </trkpt>
      <trkpt lat="44.48201" lon="5.61417">
        <ele>1413.28</ele>
        <time>2018-04-26T13:13:36Z</time>
      </trkpt>
      <trkpt lat="44.48196" lon="5.61416">
        <ele>1412.31</ele>
        <time>2018-04-26T13:13:43Z</time>
      </trkpt>
      <trkpt lat="44.48189" lon="5.61408">
        <ele>1415.68</ele>
        <time>2018-04-26T13:13:53Z</time>
      </trkpt>
      <trkpt lat="44.48186" lon="5.61406">
        <ele>1414.24</ele>
        <time>2018-04-26T13:13:59Z</time>
      </trkpt>
      <trkpt lat="44.48179" lon="5.61403">
        <ele>1418.08</ele>
        <time>2018-04-26T13:14:07Z</time>
      </trkpt>
      <trkpt lat="44.48178" lon="5.61403">
        <ele>1416.64</ele>
        <time>2018-04-26T13:14:08Z</time>
      </trkpt>
      <trkpt lat="44.48176" lon="5.61398">
        <ele>1416.16</ele>
        <time>2018-04-26T13:14:13Z</time>
      </trkpt>
      <trkpt lat="44.48176" lon="5.61396">
        <ele>1419.52</ele>
        <time>2018-04-26T13:14:19Z</time>
      </trkpt>
      <trkpt lat="44.48173" lon="5.6139">
        <ele>1418.56</ele>
        <time>2018-04-26T13:14:28Z</time>
      </trkpt>
      <trkpt lat="44.48166" lon="5.61386">
        <ele>1419.04</ele>
        <time>2018-04-26T13:14:37Z</time>
      </trkpt>
      <trkpt lat="44.48164" lon="5.61384">
        <ele>1421.93</ele>
        <time>2018-04-26T13:14:40Z</time>
      </trkpt>
      <trkpt lat="44.48161" lon="5.61379">
        <ele>1423.37</ele>
        <time>2018-04-26T13:14:50Z</time>
      </trkpt>
      <trkpt lat="44.48158" lon="5.61374">
        <ele>1420</ele>
        <time>2018-04-26T13:14:55Z</time>
      </trkpt>
      <trkpt lat="44.48157" lon="5.61373">
        <ele>1423.37</ele>
        <time>2018-04-26T13:14:56Z</time>
      </trkpt>
      <trkpt lat="44.48155" lon="5.61372">
        <ele>1420</ele>
        <time>2018-04-26T13:14:58Z</time>
      </trkpt>
      <trkpt lat="44.48154" lon="5.61371">
        <ele>1423.85</ele>
        <time>2018-04-26T13:14:59Z</time>
      </trkpt>
      <trkpt lat="44.48151" lon="5.61369">
        <ele>1421.45</ele>
        <time>2018-04-26T13:15:04Z</time>
      </trkpt>
      <trkpt lat="44.48149" lon="5.61367">
        <ele>1425.29</ele>
        <time>2018-04-26T13:15:07Z</time>
      </trkpt>
      <trkpt lat="44.48146" lon="5.61364">
        <ele>1421.45</ele>
        <time>2018-04-26T13:15:11Z</time>
      </trkpt>
      <trkpt lat="44.48145" lon="5.61363">
        <ele>1424.81</ele>
        <time>2018-04-26T13:15:12Z</time>
      </trkpt>
      <trkpt lat="44.48137" lon="5.6135">
        <ele>1425.29</ele>
        <time>2018-04-26T13:15:23Z</time>
      </trkpt>
      <trkpt lat="44.48133" lon="5.6134">
        <ele>1424.33</ele>
        <time>2018-04-26T13:15:32Z</time>
      </trkpt>
      <trkpt lat="44.48127" lon="5.61332">
        <ele>1425.29</ele>
        <time>2018-04-26T13:15:39Z</time>
      </trkpt>
      <trkpt lat="44.48122" lon="5.61326">
        <ele>1424.33</ele>
        <time>2018-04-26T13:15:44Z</time>
      </trkpt>
      <trkpt lat="44.48115" lon="5.61321">
        <ele>1428.66</ele>
        <time>2018-04-26T13:15:51Z</time>
      </trkpt>
      <trkpt lat="44.48112" lon="5.61318">
        <ele>1428.66</ele>
        <time>2018-04-26T13:15:56Z</time>
      </trkpt>
      <trkpt lat="44.48104" lon="5.61311">
        <ele>1429.14</ele>
        <time>2018-04-26T13:16:07Z</time>
      </trkpt>
      <trkpt lat="44.48097" lon="5.61309">
        <ele>1429.14</ele>
        <time>2018-04-26T13:16:13Z</time>
      </trkpt>
      <trkpt lat="44.48091" lon="5.61304">
        <ele>1430.1</ele>
        <time>2018-04-26T13:16:21Z</time>
      </trkpt>
      <trkpt lat="44.48086" lon="5.61302">
        <ele>1429.62</ele>
        <time>2018-04-26T13:16:25Z</time>
      </trkpt>
      <trkpt lat="44.4808" lon="5.61299">
        <ele>1429.62</ele>
        <time>2018-04-26T13:16:31Z</time>
      </trkpt>
      <trkpt lat="44.48076" lon="5.61297">
        <ele>1428.66</ele>
        <time>2018-04-26T13:16:35Z</time>
      </trkpt>
      <trkpt lat="44.48074" lon="5.61296">
        <ele>1430.1</ele>
        <time>2018-04-26T13:16:37Z</time>
      </trkpt>
      <trkpt lat="44.48073" lon="5.61296">
        <ele>1427.21</ele>
        <time>2018-04-26T13:16:38Z</time>
      </trkpt>
      <trkpt lat="44.48067" lon="5.61295">
        <ele>1430.58</ele>
        <time>2018-04-26T13:16:44Z</time>
      </trkpt>
      <trkpt lat="44.48066" lon="5.61294">
        <ele>1428.66</ele>
        <time>2018-04-26T13:16:46Z</time>
      </trkpt>
      <trkpt lat="44.48061" lon="5.6129">
        <ele>1430.1</ele>
        <time>2018-04-26T13:16:52Z</time>
      </trkpt>
      <trkpt lat="44.48054" lon="5.61288">
        <ele>1430.58</ele>
        <time>2018-04-26T13:17:00Z</time>
      </trkpt>
      <trkpt lat="44.48049" lon="5.61286">
        <ele>1430.1</ele>
        <time>2018-04-26T13:17:05Z</time>
      </trkpt>
      <trkpt lat="44.48043" lon="5.61285">
        <ele>1429.62</ele>
        <time>2018-04-26T13:17:11Z</time>
      </trkpt>
      <trkpt lat="44.48038" lon="5.61284">
        <ele>1428.18</ele>
        <time>2018-04-26T13:17:15Z</time>
      </trkpt>
      <trkpt lat="44.48027" lon="5.61283">
        <ele>1430.58</ele>
        <time>2018-04-26T13:17:26Z</time>
      </trkpt>
      <trkpt lat="44.48024" lon="5.61283">
        <ele>1427.21</ele>
        <time>2018-04-26T13:17:30Z</time>
      </trkpt>
      <trkpt lat="44.48024" lon="5.61284">
        <ele>1429.62</ele>
        <time>2018-04-26T13:17:31Z</time>
      </trkpt>
      <trkpt lat="44.48019" lon="5.61284">
        <ele>1428.18</ele>
        <time>2018-04-26T13:17:35Z</time>
      </trkpt>
      <trkpt lat="44.48011" lon="5.61286">
        <ele>1429.62</ele>
        <time>2018-04-26T13:17:45Z</time>
      </trkpt>
      <trkpt lat="44.48003" lon="5.6129">
        <ele>1429.14</ele>
        <time>2018-04-26T13:17:56Z</time>
      </trkpt>
      <trkpt lat="44.48001" lon="5.6129">
        <ele>1428.66</ele>
        <time>2018-04-26T13:17:57Z</time>
      </trkpt>
      <trkpt lat="44.47992" lon="5.61292">
        <ele>1428.18</ele>
        <time>2018-04-26T13:18:05Z</time>
      </trkpt>
      <trkpt lat="44.47981" lon="5.61293">
        <ele>1426.73</ele>
        <time>2018-04-26T13:18:16Z</time>
      </trkpt>
      <trkpt lat="44.47977" lon="5.61295">
        <ele>1426.73</ele>
        <time>2018-04-26T13:18:22Z</time>
      </trkpt>
      <trkpt lat="44.47971" lon="5.61299">
        <ele>1425.29</ele>
        <time>2018-04-26T13:18:28Z</time>
      </trkpt>
      <trkpt lat="44.47964" lon="5.61302">
        <ele>1425.29</ele>
        <time>2018-04-26T13:18:34Z</time>
      </trkpt>
      <trkpt lat="44.47962" lon="5.61303">
        <ele>1426.25</ele>
        <time>2018-04-26T13:18:36Z</time>
      </trkpt>
      <trkpt lat="44.47957" lon="5.61306">
        <ele>1425.29</ele>
        <time>2018-04-26T13:18:43Z</time>
      </trkpt>
      <trkpt lat="44.47956" lon="5.61308">
        <ele>1424.81</ele>
        <time>2018-04-26T13:19:02Z</time>
      </trkpt>
      <trkpt lat="44.47955" lon="5.61309">
        <ele>1425.29</ele>
        <time>2018-04-26T13:19:19Z</time>
      </trkpt>
      <trkpt lat="44.47955" lon="5.61309">
        <ele>1423.85</ele>
        <time>2018-04-26T13:19:20Z</time>
      </trkpt>
      <trkpt lat="44.4795" lon="5.61314">
        <ele>1423.37</ele>
        <time>2018-04-26T13:19:28Z</time>
      </trkpt>
      <trkpt lat="44.47944" lon="5.61324">
        <ele>1423.37</ele>
        <time>2018-04-26T13:19:38Z</time>
      </trkpt>
      <trkpt lat="44.4794" lon="5.61327">
        <ele>1421.45</ele>
        <time>2018-04-26T13:19:44Z</time>
      </trkpt>
      <trkpt lat="44.47933" lon="5.61329">
        <ele>1420</ele>
        <time>2018-04-26T13:19:50Z</time>
      </trkpt>
      <trkpt lat="44.47926" lon="5.61334">
        <ele>1419.52</ele>
        <time>2018-04-26T13:19:57Z</time>
      </trkpt>
      <trkpt lat="44.47921" lon="5.61335">
        <ele>1418.08</ele>
        <time>2018-04-26T13:20:02Z</time>
      </trkpt>
      <trkpt lat="44.4791" lon="5.61339">
        <ele>1417.6</ele>
        <time>2018-04-26T13:20:12Z</time>
      </trkpt>
      <trkpt lat="44.47909" lon="5.61339">
        <ele>1417.6</ele>
        <time>2018-04-26T13:20:13Z</time>
      </trkpt>
      <trkpt lat="44.47903" lon="5.61341">
        <ele>1417.12</ele>
        <time>2018-04-26T13:20:18Z</time>
      </trkpt>
      <trkpt lat="44.47896" lon="5.61343">
        <ele>1416.16</ele>
        <time>2018-04-26T13:20:24Z</time>
      </trkpt>
      <trkpt lat="44.47889" lon="5.61347">
        <ele>1416.16</ele>
        <time>2018-04-26T13:20:33Z</time>
      </trkpt>
      <trkpt lat="44.47884" lon="5.61336">
        <ele>1415.68</ele>
        <time>2018-04-26T13:20:42Z</time>
      </trkpt>
      <trkpt lat="44.47882" lon="5.6133">
        <ele>1414.24</ele>
        <time>2018-04-26T13:20:46Z</time>
      </trkpt>
      <trkpt lat="44.47878" lon="5.61321">
        <ele>1413.28</ele>
        <time>2018-04-26T13:20:53Z</time>
      </trkpt>
      <trkpt lat="44.47873" lon="5.61306">
        <ele>1412.31</ele>
        <time>2018-04-26T13:21:02Z</time>
      </trkpt>
      <trkpt lat="44.47872" lon="5.61302">
        <ele>1411.35</ele>
        <time>2018-04-26T13:21:06Z</time>
      </trkpt>
      <trkpt lat="44.4787" lon="5.61296">
        <ele>1411.35</ele>
        <time>2018-04-26T13:21:09Z</time>
      </trkpt>
      <trkpt lat="44.47868" lon="5.61291">
        <ele>1410.39</ele>
        <time>2018-04-26T13:21:13Z</time>
      </trkpt>
      <trkpt lat="44.47864" lon="5.61284">
        <ele>1409.91</ele>
        <time>2018-04-26T13:21:19Z</time>
      </trkpt>
      <trkpt lat="44.4786" lon="5.61275">
        <ele>1408.47</ele>
        <time>2018-04-26T13:21:26Z</time>
      </trkpt>
      <trkpt lat="44.4786" lon="5.61272">
        <ele>1409.43</ele>
        <time>2018-04-26T13:21:28Z</time>
      </trkpt>
      <trkpt lat="44.47857" lon="5.61259">
        <ele>1407.51</ele>
        <time>2018-04-26T13:21:39Z</time>
      </trkpt>
      <trkpt lat="44.47855" lon="5.61256">
        <ele>1407.03</ele>
        <time>2018-04-26T13:21:42Z</time>
      </trkpt>
      <trkpt lat="44.47853" lon="5.61247">
        <ele>1405.58</ele>
        <time>2018-04-26T13:21:50Z</time>
      </trkpt>
      <trkpt lat="44.4785" lon="5.6124">
        <ele>1404.62</ele>
        <time>2018-04-26T13:21:56Z</time>
      </trkpt>
      <trkpt lat="44.47849" lon="5.61236">
        <ele>1403.66</ele>
        <time>2018-04-26T13:21:59Z</time>
      </trkpt>
      <trkpt lat="44.47845" lon="5.61228">
        <ele>1402.7</ele>
        <time>2018-04-26T13:22:05Z</time>
      </trkpt>
      <trkpt lat="44.47844" lon="5.61224">
        <ele>1401.26</ele>
        <time>2018-04-26T13:22:09Z</time>
      </trkpt>
      <trkpt lat="44.47838" lon="5.61213">
        <ele>1399.82</ele>
        <time>2018-04-26T13:22:18Z</time>
      </trkpt>
      <trkpt lat="44.47837" lon="5.61208">
        <ele>1399.34</ele>
        <time>2018-04-26T13:22:22Z</time>
      </trkpt>
      <trkpt lat="44.47835" lon="5.61205">
        <ele>1399.34</ele>
        <time>2018-04-26T13:22:24Z</time>
      </trkpt>
      <trkpt lat="44.47832" lon="5.61195">
        <ele>1397.41</ele>
        <time>2018-04-26T13:22:33Z</time>
      </trkpt>
      <trkpt lat="44.47832" lon="5.6119">
        <ele>1396.45</ele>
        <time>2018-04-26T13:22:36Z</time>
      </trkpt>
      <trkpt lat="44.47829" lon="5.6118">
        <ele>1394.53</ele>
        <time>2018-04-26T13:22:44Z</time>
      </trkpt>
      <trkpt lat="44.47827" lon="5.61176">
        <ele>1394.53</ele>
        <time>2018-04-26T13:22:47Z</time>
      </trkpt>
      <trkpt lat="44.47825" lon="5.61173">
        <ele>1393.57</ele>
        <time>2018-04-26T13:22:54Z</time>
      </trkpt>
      <trkpt lat="44.47823" lon="5.61169">
        <ele>1393.09</ele>
        <time>2018-04-26T13:22:58Z</time>
      </trkpt>
      <trkpt lat="44.47822" lon="5.61168">
        <ele>1392.61</ele>
        <time>2018-04-26T13:23:00Z</time>
      </trkpt>
      <trkpt lat="44.47822" lon="5.61166">
        <ele>1392.61</ele>
        <time>2018-04-26T13:23:02Z</time>
      </trkpt>
      <trkpt lat="44.47818" lon="5.61159">
        <ele>1390.68</ele>
        <time>2018-04-26T13:23:09Z</time>
      </trkpt>
      <trkpt lat="44.47818" lon="5.61157">
        <ele>1390.68</ele>
        <time>2018-04-26T13:23:11Z</time>
      </trkpt>
      <trkpt lat="44.47816" lon="5.61155">
        <ele>1389.72</ele>
        <time>2018-04-26T13:23:14Z</time>
      </trkpt>
      <trkpt lat="44.47812" lon="5.61147">
        <ele>1387.8</ele>
        <time>2018-04-26T13:23:23Z</time>
      </trkpt>
      <trkpt lat="44.47809" lon="5.6114">
        <ele>1386.84</ele>
        <time>2018-04-26T13:23:29Z</time>
      </trkpt>
      <trkpt lat="44.47807" lon="5.61133">
        <ele>1384.44</ele>
        <time>2018-04-26T13:23:36Z</time>
      </trkpt>
      <trkpt lat="44.47804" lon="5.61129">
        <ele>1384.92</ele>
        <time>2018-04-26T13:23:42Z</time>
      </trkpt>
      <trkpt lat="44.47799" lon="5.61125">
        <ele>1382.51</ele>
        <time>2018-04-26T13:23:51Z</time>
      </trkpt>
      <trkpt lat="44.47798" lon="5.61122">
        <ele>1385.4</ele>
        <time>2018-04-26T13:23:54Z</time>
      </trkpt>
      <trkpt lat="44.47798" lon="5.6112">
        <ele>1384.44</ele>
        <time>2018-04-26T13:24:04Z</time>
      </trkpt>
      <trkpt lat="44.47799" lon="5.61118">
        <ele>1384.44</ele>
        <time>2018-04-26T13:24:12Z</time>
      </trkpt>
      <trkpt lat="44.478" lon="5.61114">
        <ele>1383.96</ele>
        <time>2018-04-26T13:24:15Z</time>
      </trkpt>
      <trkpt lat="44.47801" lon="5.61111">
        <ele>1383.47</ele>
        <time>2018-04-26T13:24:25Z</time>
      </trkpt>
      <trkpt lat="44.47801" lon="5.61109">
        <ele>1384.44</ele>
        <time>2018-04-26T13:24:40Z</time>
      </trkpt>
      <trkpt lat="44.47801" lon="5.61099">
        <ele>1384.44</ele>
        <time>2018-04-26T13:24:50Z</time>
      </trkpt>
      <trkpt lat="44.47799" lon="5.61097">
        <ele>1383.96</ele>
        <time>2018-04-26T13:25:00Z</time>
      </trkpt>
      <trkpt lat="44.47799" lon="5.61091">
        <ele>1385.88</ele>
        <time>2018-04-26T13:25:09Z</time>
      </trkpt>
      <trkpt lat="44.47799" lon="5.61089">
        <ele>1386.36</ele>
        <time>2018-04-26T13:25:11Z</time>
      </trkpt>
      <trkpt lat="44.47802" lon="5.61086">
        <ele>1386.84</ele>
        <time>2018-04-26T13:25:17Z</time>
      </trkpt>
      <trkpt lat="44.47806" lon="5.61081">
        <ele>1386.36</ele>
        <time>2018-04-26T13:25:25Z</time>
      </trkpt>
      <trkpt lat="44.47812" lon="5.61077">
        <ele>1388.28</ele>
        <time>2018-04-26T13:25:36Z</time>
      </trkpt>
      <trkpt lat="44.47815" lon="5.61075">
        <ele>1384.92</ele>
        <time>2018-04-26T13:25:42Z</time>
      </trkpt>
      <trkpt lat="44.47815" lon="5.61074">
        <ele>1388.76</ele>
        <time>2018-04-26T13:25:43Z</time>
      </trkpt>
      <trkpt lat="44.47815" lon="5.6107">
        <ele>1389.72</ele>
        <time>2018-04-26T13:25:52Z</time>
      </trkpt>
      <trkpt lat="44.47815" lon="5.61071">
        <ele>1388.76</ele>
        <time>2018-04-26T13:26:03Z</time>
      </trkpt>
      <trkpt lat="44.47816" lon="5.61073">
        <ele>1388.76</ele>
        <time>2018-04-26T13:26:05Z</time>
      </trkpt>
      <trkpt lat="44.47819" lon="5.61073">
        <ele>1389.24</ele>
        <time>2018-04-26T13:26:09Z</time>
      </trkpt>
      <trkpt lat="44.47826" lon="5.61075">
        <ele>1387.32</ele>
        <time>2018-04-26T13:26:14Z</time>
      </trkpt>
      <trkpt lat="44.47829" lon="5.61076">
        <ele>1387.8</ele>
        <time>2018-04-26T13:26:17Z</time>
      </trkpt>
      <trkpt lat="44.47831" lon="5.61076">
        <ele>1386.36</ele>
        <time>2018-04-26T13:26:19Z</time>
      </trkpt>
      <trkpt lat="44.47833" lon="5.61076">
        <ele>1385.88</ele>
        <time>2018-04-26T13:26:21Z</time>
      </trkpt>
      <trkpt lat="44.47837" lon="5.61076">
        <ele>1386.36</ele>
        <time>2018-04-26T13:26:26Z</time>
      </trkpt>
      <trkpt lat="44.47842" lon="5.61077">
        <ele>1386.84</ele>
        <time>2018-04-26T13:26:31Z</time>
      </trkpt>
      <trkpt lat="44.47849" lon="5.61076">
        <ele>1387.32</ele>
        <time>2018-04-26T13:26:38Z</time>
      </trkpt>
      <trkpt lat="44.47854" lon="5.61075">
        <ele>1386.84</ele>
        <time>2018-04-26T13:26:42Z</time>
      </trkpt>
      <trkpt lat="44.47863" lon="5.61073">
        <ele>1386.36</ele>
        <time>2018-04-26T13:26:52Z</time>
      </trkpt>
      <trkpt lat="44.47865" lon="5.61072">
        <ele>1385.4</ele>
        <time>2018-04-26T13:26:54Z</time>
      </trkpt>
      <trkpt lat="44.47869" lon="5.6107">
        <ele>1385.4</ele>
        <time>2018-04-26T13:26:57Z</time>
      </trkpt>
      <trkpt lat="44.47871" lon="5.61068">
        <ele>1384.44</ele>
        <time>2018-04-26T13:27:00Z</time>
      </trkpt>
      <trkpt lat="44.47873" lon="5.61068">
        <ele>1383.96</ele>
        <time>2018-04-26T13:27:03Z</time>
      </trkpt>
      <trkpt lat="44.47881" lon="5.61062">
        <ele>1382.99</ele>
        <time>2018-04-26T13:27:10Z</time>
      </trkpt>
      <trkpt lat="44.47889" lon="5.61057">
        <ele>1381.55</ele>
        <time>2018-04-26T13:27:16Z</time>
      </trkpt>
      <trkpt lat="44.47892" lon="5.61053">
        <ele>1380.59</ele>
        <time>2018-04-26T13:27:20Z</time>
      </trkpt>
      <trkpt lat="44.47901" lon="5.61044">
        <ele>1379.15</ele>
        <time>2018-04-26T13:27:31Z</time>
      </trkpt>
      <trkpt lat="44.47908" lon="5.61038">
        <ele>1378.19</ele>
        <time>2018-04-26T13:27:39Z</time>
      </trkpt>
      <trkpt lat="44.47916" lon="5.61031">
        <ele>1377.23</ele>
        <time>2018-04-26T13:27:47Z</time>
      </trkpt>
      <trkpt lat="44.47924" lon="5.61023">
        <ele>1377.71</ele>
        <time>2018-04-26T13:27:55Z</time>
      </trkpt>
      <trkpt lat="44.47926" lon="5.6102">
        <ele>1375.78</ele>
        <time>2018-04-26T13:27:57Z</time>
      </trkpt>
      <trkpt lat="44.47929" lon="5.61016">
        <ele>1377.23</ele>
        <time>2018-04-26T13:28:00Z</time>
      </trkpt>
      <trkpt lat="44.47932" lon="5.61013">
        <ele>1375.78</ele>
        <time>2018-04-26T13:28:04Z</time>
      </trkpt>
      <trkpt lat="44.47935" lon="5.6101">
        <ele>1376.26</ele>
        <time>2018-04-26T13:28:07Z</time>
      </trkpt>
      <trkpt lat="44.47938" lon="5.61006">
        <ele>1374.34</ele>
        <time>2018-04-26T13:28:11Z</time>
      </trkpt>
      <trkpt lat="44.47942" lon="5.61003">
        <ele>1375.3</ele>
        <time>2018-04-26T13:28:14Z</time>
      </trkpt>
      <trkpt lat="44.47946" lon="5.60999">
        <ele>1373.86</ele>
        <time>2018-04-26T13:28:18Z</time>
      </trkpt>
      <trkpt lat="44.47951" lon="5.60994">
        <ele>1374.82</ele>
        <time>2018-04-26T13:28:22Z</time>
      </trkpt>
      <trkpt lat="44.47954" lon="5.60991">
        <ele>1373.86</ele>
        <time>2018-04-26T13:28:26Z</time>
      </trkpt>
      <trkpt lat="44.47959" lon="5.60984">
        <ele>1373.38</ele>
        <time>2018-04-26T13:28:31Z</time>
      </trkpt>
      <trkpt lat="44.47968" lon="5.60977">
        <ele>1373.38</ele>
        <time>2018-04-26T13:28:39Z</time>
      </trkpt>
      <trkpt lat="44.47969" lon="5.60976">
        <ele>1371.94</ele>
        <time>2018-04-26T13:28:41Z</time>
      </trkpt>
      <trkpt lat="44.47971" lon="5.60974">
        <ele>1372.9</ele>
        <time>2018-04-26T13:28:43Z</time>
      </trkpt>
      <trkpt lat="44.47975" lon="5.60969">
        <ele>1371.46</ele>
        <time>2018-04-26T13:28:47Z</time>
      </trkpt>
      <trkpt lat="44.47977" lon="5.60967">
        <ele>1372.42</ele>
        <time>2018-04-26T13:28:49Z</time>
      </trkpt>
      <trkpt lat="44.47986" lon="5.60957">
        <ele>1371.94</ele>
        <time>2018-04-26T13:28:58Z</time>
      </trkpt>
      <trkpt lat="44.47987" lon="5.60955">
        <ele>1369.54</ele>
        <time>2018-04-26T13:29:00Z</time>
      </trkpt>
      <trkpt lat="44.47991" lon="5.60952">
        <ele>1370.5</ele>
        <time>2018-04-26T13:29:03Z</time>
      </trkpt>
      <trkpt lat="44.47995" lon="5.60947">
        <ele>1370.5</ele>
        <time>2018-04-26T13:29:07Z</time>
      </trkpt>
      <trkpt lat="44.48" lon="5.60943">
        <ele>1370.5</ele>
        <time>2018-04-26T13:29:13Z</time>
      </trkpt>
      <trkpt lat="44.4801" lon="5.60932">
        <ele>1370.98</ele>
        <time>2018-04-26T13:29:23Z</time>
      </trkpt>
      <trkpt lat="44.48018" lon="5.60924">
        <ele>1369.54</ele>
        <time>2018-04-26T13:29:31Z</time>
      </trkpt>
      <trkpt lat="44.4802" lon="5.60918">
        <ele>1369.05</ele>
        <time>2018-04-26T13:29:35Z</time>
      </trkpt>
      <trkpt lat="44.48025" lon="5.60912">
        <ele>1369.05</ele>
        <time>2018-04-26T13:29:40Z</time>
      </trkpt>
      <trkpt lat="44.48029" lon="5.60908">
        <ele>1368.57</ele>
        <time>2018-04-26T13:29:43Z</time>
      </trkpt>
      <trkpt lat="44.48034" lon="5.60901">
        <ele>1368.57</ele>
        <time>2018-04-26T13:29:50Z</time>
      </trkpt>
      <trkpt lat="44.48038" lon="5.60897">
        <ele>1367.61</ele>
        <time>2018-04-26T13:29:54Z</time>
      </trkpt>
      <trkpt lat="44.4804" lon="5.60893">
        <ele>1368.09</ele>
        <time>2018-04-26T13:29:57Z</time>
      </trkpt>
      <trkpt lat="44.48044" lon="5.60886">
        <ele>1365.21</ele>
        <time>2018-04-26T13:30:02Z</time>
      </trkpt>
      <trkpt lat="44.48048" lon="5.60876">
        <ele>1366.17</ele>
        <time>2018-04-26T13:30:09Z</time>
      </trkpt>
      <trkpt lat="44.4805" lon="5.60872">
        <ele>1366.17</ele>
        <time>2018-04-26T13:30:12Z</time>
      </trkpt>
      <trkpt lat="44.48052" lon="5.60867">
        <ele>1364.73</ele>
        <time>2018-04-26T13:30:16Z</time>
      </trkpt>
      <trkpt lat="44.48056" lon="5.60858">
        <ele>1363.77</ele>
        <time>2018-04-26T13:30:24Z</time>
      </trkpt>
      <trkpt lat="44.48057" lon="5.60845">
        <ele>1363.29</ele>
        <time>2018-04-26T13:30:33Z</time>
      </trkpt>
      <trkpt lat="44.48058" lon="5.60836">
        <ele>1363.29</ele>
        <time>2018-04-26T13:30:43Z</time>
      </trkpt>
      <trkpt lat="44.48059" lon="5.60832">
        <ele>1361.84</ele>
        <time>2018-04-26T13:30:46Z</time>
      </trkpt>
      <trkpt lat="44.48063" lon="5.60815">
        <ele>1359.44</ele>
        <time>2018-04-26T13:30:57Z</time>
      </trkpt>
      <trkpt lat="44.48065" lon="5.6081">
        <ele>1358.96</ele>
        <time>2018-04-26T13:31:01Z</time>
      </trkpt>
      <trkpt lat="44.48066" lon="5.60797">
        <ele>1356.56</ele>
        <time>2018-04-26T13:31:09Z</time>
      </trkpt>
      <trkpt lat="44.48068" lon="5.60781">
        <ele>1355.12</ele>
        <time>2018-04-26T13:31:19Z</time>
      </trkpt>
      <trkpt lat="44.48071" lon="5.6077">
        <ele>1353.19</ele>
        <time>2018-04-26T13:31:26Z</time>
      </trkpt>
      <trkpt lat="44.48072" lon="5.6076">
        <ele>1352.71</ele>
        <time>2018-04-26T13:31:33Z</time>
      </trkpt>
      <trkpt lat="44.48073" lon="5.60751">
        <ele>1351.75</ele>
        <time>2018-04-26T13:31:38Z</time>
      </trkpt>
      <trkpt lat="44.48075" lon="5.60741">
        <ele>1349.35</ele>
        <time>2018-04-26T13:31:47Z</time>
      </trkpt>
      <trkpt lat="44.48079" lon="5.60731">
        <ele>1348.39</ele>
        <time>2018-04-26T13:31:57Z</time>
      </trkpt>
      <trkpt lat="44.48083" lon="5.60722">
        <ele>1346.94</ele>
        <time>2018-04-26T13:32:05Z</time>
      </trkpt>
      <trkpt lat="44.48084" lon="5.60709">
        <ele>1345.5</ele>
        <time>2018-04-26T13:32:14Z</time>
      </trkpt>
      <trkpt lat="44.48085" lon="5.607">
        <ele>1343.1</ele>
        <time>2018-04-26T13:32:23Z</time>
      </trkpt>
      <trkpt lat="44.48086" lon="5.60688">
        <ele>1341.66</ele>
        <time>2018-04-26T13:32:33Z</time>
      </trkpt>
      <trkpt lat="44.48088" lon="5.6068">
        <ele>1339.25</ele>
        <time>2018-04-26T13:32:44Z</time>
      </trkpt>
      <trkpt lat="44.48088" lon="5.60674">
        <ele>1338.29</ele>
        <time>2018-04-26T13:32:51Z</time>
      </trkpt>
      <trkpt lat="44.48088" lon="5.60667">
        <ele>1336.85</ele>
        <time>2018-04-26T13:32:58Z</time>
      </trkpt>
      <trkpt lat="44.48087" lon="5.60657">
        <ele>1333.97</ele>
        <time>2018-04-26T13:33:07Z</time>
      </trkpt>
      <trkpt lat="44.48089" lon="5.6065">
        <ele>1332.04</ele>
        <time>2018-04-26T13:33:17Z</time>
      </trkpt>
      <trkpt lat="44.48089" lon="5.60641">
        <ele>1329.16</ele>
        <time>2018-04-26T13:33:28Z</time>
      </trkpt>
      <trkpt lat="44.48087" lon="5.60633">
        <ele>1327.24</ele>
        <time>2018-04-26T13:33:39Z</time>
      </trkpt>
      <trkpt lat="44.48084" lon="5.60617">
        <ele>1326.28</ele>
        <time>2018-04-26T13:33:48Z</time>
      </trkpt>
      <trkpt lat="44.4808" lon="5.60602">
        <ele>1324.35</ele>
        <time>2018-04-26T13:33:56Z</time>
      </trkpt>
      <trkpt lat="44.48076" lon="5.60595">
        <ele>1323.87</ele>
        <time>2018-04-26T13:34:01Z</time>
      </trkpt>
      <trkpt lat="44.48073" lon="5.60583">
        <ele>1323.39</ele>
        <time>2018-04-26T13:34:10Z</time>
      </trkpt>
      <trkpt lat="44.48068" lon="5.60572">
        <ele>1321.95</ele>
        <time>2018-04-26T13:34:20Z</time>
      </trkpt>
      <trkpt lat="44.48068" lon="5.60563">
        <ele>1319.55</ele>
        <time>2018-04-26T13:34:28Z</time>
      </trkpt>
      <trkpt lat="44.4807" lon="5.60557">
        <ele>1318.59</ele>
        <time>2018-04-26T13:34:36Z</time>
      </trkpt>
      <trkpt lat="44.48071" lon="5.60553">
        <ele>1317.62</ele>
        <time>2018-04-26T13:34:44Z</time>
      </trkpt>
      <trkpt lat="44.48072" lon="5.60543">
        <ele>1315.7</ele>
        <time>2018-04-26T13:34:52Z</time>
      </trkpt>
      <trkpt lat="44.48074" lon="5.60532">
        <ele>1314.74</ele>
        <time>2018-04-26T13:34:58Z</time>
      </trkpt>
      <trkpt lat="44.48075" lon="5.6052">
        <ele>1313.3</ele>
        <time>2018-04-26T13:35:06Z</time>
      </trkpt>
      <trkpt lat="44.48079" lon="5.60511">
        <ele>1310.9</ele>
        <time>2018-04-26T13:35:15Z</time>
      </trkpt>
      <trkpt lat="44.48079" lon="5.60509">
        <ele>1310.9</ele>
        <time>2018-04-26T13:35:28Z</time>
      </trkpt>
      <trkpt lat="44.48081" lon="5.60507">
        <ele>1311.38</ele>
        <time>2018-04-26T13:35:32Z</time>
      </trkpt>
      <trkpt lat="44.48085" lon="5.60504">
        <ele>1309.45</ele>
        <time>2018-04-26T13:35:37Z</time>
      </trkpt>
      <trkpt lat="44.4809" lon="5.60493">
        <ele>1308.01</ele>
        <time>2018-04-26T13:35:46Z</time>
      </trkpt>
      <trkpt lat="44.48094" lon="5.60484">
        <ele>1308.49</ele>
        <time>2018-04-26T13:35:53Z</time>
      </trkpt>
      <trkpt lat="44.48097" lon="5.60478">
        <ele>1308.01</ele>
        <time>2018-04-26T13:35:59Z</time>
      </trkpt>
      <trkpt lat="44.48106" lon="5.6047">
        <ele>1305.61</ele>
        <time>2018-04-26T13:36:10Z</time>
      </trkpt>
      <trkpt lat="44.48107" lon="5.60469">
        <ele>1305.61</ele>
        <time>2018-04-26T13:36:12Z</time>
      </trkpt>
      <trkpt lat="44.48109" lon="5.60464">
        <ele>1305.61</ele>
        <time>2018-04-26T13:36:16Z</time>
      </trkpt>
      <trkpt lat="44.4811" lon="5.60458">
        <ele>1303.69</ele>
        <time>2018-04-26T13:36:22Z</time>
      </trkpt>
      <trkpt lat="44.48112" lon="5.60448">
        <ele>1305.61</ele>
        <time>2018-04-26T13:36:29Z</time>
      </trkpt>
      <trkpt lat="44.48113" lon="5.60443">
        <ele>1303.69</ele>
        <time>2018-04-26T13:36:33Z</time>
      </trkpt>
      <trkpt lat="44.48114" lon="5.60438">
        <ele>1305.13</ele>
        <time>2018-04-26T13:36:36Z</time>
      </trkpt>
      <trkpt lat="44.48114" lon="5.60437">
        <ele>1301.76</ele>
        <time>2018-04-26T13:36:37Z</time>
      </trkpt>
      <trkpt lat="44.48116" lon="5.60431">
        <ele>1307.05</ele>
        <time>2018-04-26T13:36:42Z</time>
      </trkpt>
      <trkpt lat="44.48117" lon="5.60429">
        <ele>1307.53</ele>
        <time>2018-04-26T13:36:44Z</time>
      </trkpt>
      <trkpt lat="44.48118" lon="5.60429">
        <ele>1303.2</ele>
        <time>2018-04-26T13:36:45Z</time>
      </trkpt>
      <trkpt lat="44.48118" lon="5.60428">
        <ele>1308.01</ele>
        <time>2018-04-26T13:36:46Z</time>
      </trkpt>
      <trkpt lat="44.48121" lon="5.60426">
        <ele>1307.53</ele>
        <time>2018-04-26T13:36:50Z</time>
      </trkpt>
      <trkpt lat="44.48122" lon="5.60427">
        <ele>1308.01</ele>
        <time>2018-04-26T13:36:52Z</time>
      </trkpt>
      <trkpt lat="44.48132" lon="5.60429">
        <ele>1308.01</ele>
        <time>2018-04-26T13:37:02Z</time>
      </trkpt>
      <trkpt lat="44.48139" lon="5.60431">
        <ele>1309.45</ele>
        <time>2018-04-26T13:37:10Z</time>
      </trkpt>
      <trkpt lat="44.48151" lon="5.60436">
        <ele>1308.97</ele>
        <time>2018-04-26T13:37:21Z</time>
      </trkpt>
      <trkpt lat="44.4816" lon="5.6044">
        <ele>1307.53</ele>
        <time>2018-04-26T13:37:31Z</time>
      </trkpt>
      <trkpt lat="44.48171" lon="5.60445">
        <ele>1307.53</ele>
        <time>2018-04-26T13:37:42Z</time>
      </trkpt>
      <trkpt lat="44.48173" lon="5.60447">
        <ele>1310.41</ele>
        <time>2018-04-26T13:37:44Z</time>
      </trkpt>
      <trkpt lat="44.48181" lon="5.60453">
        <ele>1308.97</ele>
        <time>2018-04-26T13:37:53Z</time>
      </trkpt>
      <trkpt lat="44.48182" lon="5.60457">
        <ele>1310.41</ele>
        <time>2018-04-26T13:37:56Z</time>
      </trkpt>
      <trkpt lat="44.48191" lon="5.6046">
        <ele>1310.41</ele>
        <time>2018-04-26T13:38:07Z</time>
      </trkpt>
      <trkpt lat="44.48198" lon="5.6046">
        <ele>1310.41</ele>
        <time>2018-04-26T13:38:17Z</time>
      </trkpt>
      <trkpt lat="44.48203" lon="5.60462">
        <ele>1308.49</ele>
        <time>2018-04-26T13:38:21Z</time>
      </trkpt>
      <trkpt lat="44.48211" lon="5.60464">
        <ele>1311.86</ele>
        <time>2018-04-26T13:38:27Z</time>
      </trkpt>
      <trkpt lat="44.48221" lon="5.60464">
        <ele>1310.41</ele>
        <time>2018-04-26T13:38:37Z</time>
      </trkpt>
      <trkpt lat="44.48223" lon="5.60463">
        <ele>1308.97</ele>
        <time>2018-04-26T13:38:40Z</time>
      </trkpt>
      <trkpt lat="44.48223" lon="5.60462">
        <ele>1313.78</ele>
        <time>2018-04-26T13:38:41Z</time>
      </trkpt>
      <trkpt lat="44.48225" lon="5.60461">
        <ele>1311.86</ele>
        <time>2018-04-26T13:38:44Z</time>
      </trkpt>
      <trkpt lat="44.48228" lon="5.60462">
        <ele>1314.26</ele>
        <time>2018-04-26T13:38:48Z</time>
      </trkpt>
      <trkpt lat="44.48231" lon="5.60462">
        <ele>1313.3</ele>
        <time>2018-04-26T13:38:52Z</time>
      </trkpt>
      <trkpt lat="44.48235" lon="5.60463">
        <ele>1311.86</ele>
        <time>2018-04-26T13:38:56Z</time>
      </trkpt>
      <trkpt lat="44.48242" lon="5.6046">
        <ele>1312.82</ele>
        <time>2018-04-26T13:39:05Z</time>
      </trkpt>
      <trkpt lat="44.48251" lon="5.60458">
        <ele>1312.34</ele>
        <time>2018-04-26T13:39:15Z</time>
      </trkpt>
      <trkpt lat="44.48254" lon="5.60464">
        <ele>1312.82</ele>
        <time>2018-04-26T13:39:24Z</time>
      </trkpt>
      <trkpt lat="44.48254" lon="5.60464">
        <ele>1312.82</ele>
        <time>2018-04-26T13:39:38Z</time>
      </trkpt>
      <trkpt lat="44.48254" lon="5.60465">
        <ele>1312.82</ele>
        <time>2018-04-26T13:39:47Z</time>
      </trkpt>
      <trkpt lat="44.48255" lon="5.60465">
        <ele>1312.82</ele>
        <time>2018-04-26T13:40:01Z</time>
      </trkpt>
      <trkpt lat="44.48256" lon="5.60462">
        <ele>1312.34</ele>
        <time>2018-04-26T13:40:19Z</time>
      </trkpt>
      <trkpt lat="44.48254" lon="5.60463">
        <ele>1312.82</ele>
        <time>2018-04-26T13:40:35Z</time>
      </trkpt>
      <trkpt lat="44.48254" lon="5.60464">
        <ele>1312.34</ele>
        <time>2018-04-26T13:40:52Z</time>
      </trkpt>
      <trkpt lat="44.48254" lon="5.60464">
        <ele>1312.34</ele>
        <time>2018-04-26T13:41:07Z</time>
      </trkpt>
      <trkpt lat="44.48255" lon="5.60465">
        <ele>1311.86</ele>
        <time>2018-04-26T13:41:21Z</time>
      </trkpt>
      <trkpt lat="44.48254" lon="5.60466">
        <ele>1312.34</ele>
        <time>2018-04-26T13:41:35Z</time>
      </trkpt>
      <trkpt lat="44.48255" lon="5.60466">
        <ele>1312.82</ele>
        <time>2018-04-26T13:41:47Z</time>
      </trkpt>
      <trkpt lat="44.48256" lon="5.60466">
        <ele>1312.82</ele>
        <time>2018-04-26T13:41:57Z</time>
      </trkpt>
      <trkpt lat="44.48254" lon="5.60468">
        <ele>1312.82</ele>
        <time>2018-04-26T13:42:08Z</time>
      </trkpt>
    </trkseg>
  </trk>
</gpx>